GFSWCAN_prec_precacc12_003.txt.gz
Total_Precipitation_Accumulation
0.06 0.08 0.05 0.01 0.00 0.00 0.00 0.00 0.00 0.00 0.00 0.00 0.00 0.00 0.00 0.00 0.00 0.00 0.01 0.00 0.04 0.03 0.00 0.00 0.00 0.00 0.00 0.00 0.01 0.02 0.01 0.00 0.00 0.00 0.01 0.00 0.01 0.01 0.01 0.00 0.00 0.01 0.05 0.04 0.03 0.05 0.02 0.00 0.00 0.01 0.02 0.01 0.02 0.02
0.00 0.03 0.07 0.04 0.02 0.01 0.00 0.00 0.00 0.00 0.00 0.00 0.00 0.00 0.00 0.00 0.00 0.00 0.00 0.00 0.01 0.02 0.00 0.00 0.00 0.00 0.00 0.00 0.01 0.03 0.01 0.00 0.01 0.01 0.01 0.01 0.01 0.01 0.00 0.00 0.00 0.00 0.01 0.01 0.01 0.01 0.00 0.00 0.00 0.00 0.01 0.04 0.03 0.02
0.00 0.00 0.00 0.01 0.02 0.01 0.01 0.00 0.00 0.00 0.00 0.00 0.00 0.00 0.00 0.01 0.01 0.01 0.00 0.00 0.01 0.03 0.02 0.01 0.00 0.00 0.00 0.00 0.00 0.04 0.01 0.00 0.01 0.01 0.04 0.01 0.01 0.01 0.01 0.01 0.00 0.01 0.01 0.01 0.00 0.00 0.00 0.01 0.00 0.01 0.02 0.03 0.02 0.02
0.00 0.00 0.00 0.00 0.00 0.01 0.01 0.00 0.01 0.00 0.00 0.00 0.00 0.00 0.00 0.00 0.00 0.01 0.01 0.02 0.05 0.06 0.06 0.02 0.00 0.00 0.00 0.00 0.00 0.00 0.00 0.02 0.03 0.05 0.04 0.01 0.01 0.00 0.00 0.00 0.01 0.01 0.01 0.01 0.02 0.01 0.01 0.02 0.02 0.02 0.01 0.01 0.01 0.01
0.00 0.00 0.00 0.00 0.00 0.00 0.00 0.00 0.01 0.01 0.01 0.00 0.00 0.00 0.00 0.00 0.01 0.03 0.04 0.02 0.05 0.11 0.13 0.05 0.01 0.00 0.00 0.00 0.00 0.00 0.00 0.01 0.06 0.04 0.02 0.01 0.00 0.01 0.00 0.01 0.01 0.01 0.01 0.01 0.05 0.02 0.06 0.01 0.02 0.01 0.01 0.02 0.02 0.02
0.00 0.00 0.00 0.00 0.00 0.00 0.00 0.00 0.00 0.01 0.04 0.05 0.04 0.03 0.02 0.03 0.12 0.31 0.30 0.11 0.05 0.07 0.18 0.11 0.02 0.00 0.00 0.00 0.00 0.00 0.00 0.02 0.05 0.02 0.00 0.00 0.00 0.05 0.13 0.07 0.01 0.00 0.00 0.03 0.04 0.03 0.02 0.00 0.00 0.00 0.04 0.02 0.01 0.00
0.00 0.00 0.00 0.00 0.00 0.00 0.00 0.00 0.00 0.01 0.02 0.04 0.05 0.08 0.11 0.13 0.18 0.27 0.25 0.08 0.03 0.06 0.26 0.16 0.03 0.00 0.00 0.00 0.00 0.01 0.01 0.03 0.02 0.01 0.00 0.00 0.00 0.05 0.06 0.02 0.00 0.00 0.00 0.01 0.01 0.01 0.01 0.01 0.01 0.00 0.00 0.00 0.00 0.00
0.00 0.00 0.00 0.01 0.00 0.00 0.00 0.00 0.00 0.01 0.02 0.03 0.02 0.02 0.05 0.14 0.22 0.24 0.21 0.19 0.13 0.16 0.21 0.15 0.04 0.00 0.00 0.00 0.00 0.00 0.00 0.01 0.01 0.01 0.00 0.00 0.01 0.02 0.01 0.00 0.00 0.00 0.00 0.00 0.00 0.00 0.02 0.00 0.00 0.00 0.00 0.00 0.00 0.00
0.00 0.00 0.00 0.00 0.00 0.00 0.00 0.00 0.00 0.00 0.00 0.01 0.02 0.03 0.04 0.04 0.07 0.11 0.15 0.16 0.11 0.16 0.20 0.12 0.01 0.00 0.00 0.00 0.00 0.00 0.01 0.04 0.03 0.01 0.00 0.02 0.01 0.01 0.00 0.00 0.00 0.00 0.00 0.01 0.00 0.00 0.00 0.00 0.00 0.00 0.00 0.00 0.00 0.00
0.00 0.00 0.00 0.00 0.00 0.00 0.00 0.00 0.00 0.00 0.00 0.00 0.00 0.00 0.01 0.01 0.02 0.03 0.04 0.07 0.13 0.16 0.16 0.07 0.00 0.00 0.01 0.02 0.06 0.07 0.09 0.06 0.04 0.01 0.02 0.02 0.00 0.00 0.00 0.00 0.00 0.00 0.00 0.00 0.00 0.00 0.00 0.00 0.00 0.00 0.00 0.00 0.00 0.00
0.00 0.00 0.00 0.00 0.00 0.00 0.00 0.00 0.00 0.00 0.00 0.00 0.00 0.00 0.00 0.00 0.01 0.01 0.01 0.01 0.03 0.04 0.06 0.03 0.01 0.02 0.03 0.05 0.06 0.05 0.04 0.01 0.03 0.00 0.03 0.01 0.00 0.00 0.00 0.00 0.00 0.00 0.00 0.00 0.00 0.00 0.00 0.00 0.00 0.00 0.00 0.00 0.00 0.00
0.01 0.00 0.00 0.00 0.00 0.00 0.00 0.00 0.00 0.00 0.00 0.00 0.00 0.00 0.00 0.00 0.01 0.01 0.02 0.02 0.02 0.01 0.00 0.01 0.00 0.00 0.01 0.01 0.02 0.01 0.02 0.02 0.02 0.00 0.00 0.00 0.00 0.00 0.00 0.00 0.00 0.00 0.00 0.00 0.00 0.00 0.00 0.00 0.00 0.00 0.00 0.00 0.00 0.00
0.00 0.00 0.00 0.00 0.00 0.00 0.00 0.00 0.00 0.00 0.00 0.00 0.00 0.00 0.00 0.00 0.00 0.00 0.00 0.01 0.02 0.01 0.01 0.00 0.00 0.00 0.00 0.01 0.06 0.10 0.13 0.11 0.05 0.06 0.03 0.01 0.00 0.00 0.00 0.00 0.00 0.00 0.00 0.00 0.00 0.00 0.00 0.00 0.00 0.00 0.00 0.00 0.00 0.00
0.00 0.00 0.00 0.00 0.00 0.00 0.00 0.00 0.00 0.00 0.00 0.00 0.00 0.00 0.00 0.00 0.00 0.00 0.00 0.01 0.01 0.03 0.02 0.00 0.00 0.00 0.01 0.01 0.01 0.01 0.02 0.01 0.01 0.00 0.00 0.01 0.00 0.00 0.00 0.00 0.00 0.00 0.00 0.00 0.00 0.00 0.00 0.00 0.00 0.00 0.00 0.00 0.00 0.00
0.00 0.00 0.00 0.00 0.00 0.00 0.00 0.00 0.00 0.00 0.00 0.00 0.00 0.00 0.00 0.00 0.00 0.00 0.00 0.00 0.01 0.01 0.00 0.00 0.00 0.00 0.00 0.00 0.00 0.00 0.00 0.00 0.00 0.00 0.02 0.00 0.00 0.00 0.00 0.00 0.00 0.00 0.00 0.00 0.00 0.00 0.00 0.00 0.00 0.00 0.00 0.00 0.00 0.00
0.00 0.00 0.00 0.00 0.00 0.00 0.00 0.00 0.00 0.00 0.00 0.00 0.00 0.00 0.00 0.00 0.00 0.00 0.00 0.00 0.00 0.00 0.00 0.00 0.00 0.00 0.00 0.00 0.00 0.00 0.00 0.00 0.00 0.01 0.01 0.00 0.00 0.00 0.00 0.00 0.00 0.00 0.00 0.00 0.00 0.00 0.00 0.00 0.00 0.01 0.00 0.00 0.00 0.00
0.00 0.00 0.00 0.00 0.00 0.00 0.00 0.00 0.00 0.00 0.00 0.00 0.00 0.00 0.00 0.00 0.00 0.00 0.00 0.00 0.00 0.00 0.00 0.00 0.00 0.00 0.00 0.00 0.00 0.00 0.00 0.00 0.00 0.00 0.00 0.00 0.00 0.00 0.00 0.00 0.00 0.00 0.00 0.00 0.00 0.00 0.00 0.01 0.02 0.01 0.00 0.00 0.00 0.00
0.00 0.00 0.00 0.00 0.00 0.01 0.00 0.00 0.00 0.00 0.00 0.00 0.00 0.00 0.00 0.00 0.00 0.00 0.00 0.00 0.00 0.00 0.00 0.00 0.00 0.00 0.00 0.00 0.00 0.00 0.00 0.00 0.00 0.00 0.00 0.00 0.00 0.00 0.00 0.00 0.00 0.00 0.00 0.00 0.00 0.02 0.03 0.03 0.01 0.00 0.00 0.00 0.00 0.00
0.00 0.00 0.00 0.00 0.00 0.00 0.00 0.00 0.00 0.00 0.00 0.00 0.00 0.00 0.00 0.00 0.00 0.00 0.00 0.00 0.00 0.01 0.02 0.01 0.01 0.00 0.00 0.00 0.01 0.01 0.00 0.00 0.00 0.00 0.00 0.00 0.00 0.00 0.00 0.00 0.00 0.00 0.01 0.01 0.02 0.03 0.03 0.01 0.00 0.00 0.00 0.00 0.00 0.00
0.00 0.00 0.00 0.00 0.01 0.01 0.00 0.01 0.00 0.00 0.00 0.00 0.00 0.00 0.00 0.00 0.00 0.00 0.00 0.00 0.00 0.01 0.02 0.01 0.00 0.00 0.00 0.00 0.00 0.00 0.00 0.00 0.00 0.00 0.00 0.00 0.00 0.00 0.00 0.00 0.00 0.01 0.01 0.01 0.02 0.04 0.04 0.01 0.00 0.00 0.00 0.00 0.00 0.00
0.01 0.01 0.03 0.03 0.04 0.02 0.00 0.00 0.00 0.00 0.00 0.00 0.00 0.00 0.00 0.00 0.00 0.00 0.00 0.01 0.02 0.02 0.00 0.00 0.00 0.00 0.00 0.00 0.00 0.00 0.00 0.00 0.00 0.01 0.00 0.00 0.00 0.00 0.00 0.00 0.01 0.02 0.03 0.02 0.02 0.01 0.01 0.00 0.00 0.00 0.00 0.00 0.00 0.00
0.02 0.01 0.02 0.02 0.04 0.03 0.01 0.01 0.01 0.00 0.00 0.00 0.00 0.00 0.00 0.00 0.00 0.00 0.00 0.01 0.00 0.00 0.00 0.00 0.00 0.00 0.00 0.00 0.00 0.00 0.00 0.00 0.00 0.00 0.00 0.00 0.00 0.00 0.00 0.00 0.01 0.02 0.02 0.02 0.01 0.01 0.00 0.00 0.00 0.00 0.00 0.00 0.00 0.00
0.02 0.03 0.07 0.09 0.10 0.09 0.07 0.02 0.01 0.01 0.00 0.00 0.01 0.01 0.00 0.00 0.00 0.00 0.00 0.00 0.00 0.00 0.00 0.00 0.00 0.00 0.00 0.00 0.00 0.00 0.00 0.00 0.00 0.00 0.00 0.00 0.00 0.00 0.00 0.01 0.01 0.03 0.03 0.01 0.00 0.00 0.00 0.00 0.00 0.00 0.00 0.00 0.00 0.00
0.02 0.05 0.08 0.08 0.07 0.06 0.03 0.02 0.01 0.01 0.01 0.01 0.01 0.00 0.00 0.00 0.01 0.00 0.00 0.00 0.00 0.00 0.00 0.00 0.00 0.00 0.00 0.00 0.00 0.00 0.00 0.00 0.00 0.00 0.00 0.00 0.00 0.00 0.01 0.02 0.02 0.01 0.00 0.00 0.00 0.00 0.00 0.00 0.00 0.00 0.00 0.00 0.00 0.00
0.11 0.09 0.04 0.04 0.01 0.01 0.00 0.00 0.01 0.01 0.00 0.00 0.00 0.00 0.00 0.00 0.00 0.00 0.00 0.00 0.00 0.00 0.00 0.00 0.00 0.00 0.00 0.00 0.00 0.00 0.00 0.00 0.01 0.01 0.00 0.01 0.03 0.06 0.05 0.02 0.01 0.00 0.00 0.00 0.00 0.00 0.00 0.00 0.00 0.00 0.00 0.00 0.00 0.00
0.11 0.04 0.01 0.00 0.01 0.00 0.00 0.00 0.00 0.00 0.00 0.00 0.00 0.00 0.00 0.00 0.01 0.00 0.00 0.00 0.00 0.00 0.00 0.00 0.02 0.02 0.01 0.01 0.00 0.00 0.00 0.03 0.07 0.07 0.02 0.02 0.03 0.05 0.06 0.02 0.00 0.00 0.00 0.00 0.00 0.00 0.00 0.00 0.00 0.00 0.00 0.00 0.00 0.00
0.03 0.01 0.00 0.00 0.00 0.00 0.00 0.00 0.00 0.00 0.00 0.00 0.00 0.00 0.01 0.02 0.00 0.00 0.00 0.00 0.00 0.00 0.00 0.00 0.00 0.01 0.00 0.00 0.00 0.00 0.00 0.04 0.07 0.04 0.01 0.00 0.00 0.00 0.01 0.01 0.01 0.00 0.00 0.00 0.00 0.00 0.00 0.00 0.00 0.00 0.00 0.00 0.00 0.00
0.00 0.00 0.00 0.00 0.00 0.00 0.00 0.00 0.00 0.00 0.00 0.00 0.00 0.01 0.03 0.01 0.00 0.00 0.00 0.00 0.00 0.00 0.00 0.00 0.00 0.00 0.00 0.00 0.00 0.00 0.00 0.00 0.00 0.00 0.00 0.00 0.00 0.00 0.00 0.00 0.00 0.00 0.00 0.00 0.00 0.00 0.00 0.00 0.00 0.00 0.00 0.00 0.00 0.00
0.00 0.00 0.01 0.01 0.01 0.01 0.00 0.00 0.00 0.00 0.00 0.00 0.00 0.00 0.00 0.00 0.00 0.00 0.00 0.00 0.00 0.00 0.00 0.00 0.00 0.00 0.00 0.00 0.00 0.00 0.00 0.00 0.02 0.03 0.03 0.02 0.01 0.00 0.00 0.00 0.00 0.01 0.01 0.00 0.00 0.00 0.00 0.00 0.00 0.00 0.00 0.00 0.00 0.00
0.00 0.01 0.01 0.00 0.00 0.00 0.00 0.00 0.00 0.00 0.00 0.00 0.00 0.01 0.00 0.00 0.00 0.00 0.00 0.00 0.00 0.00 0.00 0.00 0.00 0.00 0.00 0.00 0.00 0.00 0.00 0.00 0.01 0.02 0.02 0.02 0.03 0.01 0.01 0.02 0.02 0.02 0.02 0.01 0.00 0.00 0.00 0.00 0.00 0.00 0.00 0.00 0.00 0.00
0.00 0.00 0.01 0.02 0.01 0.00 0.00 0.00 0.00 0.01 0.01 0.00 0.00 0.01 0.01 0.01 0.00 0.00 0.00 0.00 0.00 0.00 0.00 0.00 0.00 0.00 0.00 0.00 0.01 0.01 0.00 0.00 0.00 0.01 0.03 0.04 0.06 0.07 0.07 0.07 0.05 0.04 0.02 0.01 0.01 0.01 0.01 0.01 0.01 0.00 0.00 0.00 0.00 0.00
0.01 0.02 0.02 0.02 0.01 0.00 0.00 0.02 0.03 0.03 0.01 0.01 0.01 0.00 0.01 0.01 0.00 0.00 0.00 0.00 0.00 0.00 0.00 0.00 0.00 0.01 0.01 0.01 0.01 0.01 0.01 0.01 0.01 0.02 0.04 0.05 0.05 0.05 0.05 0.03 0.02 0.01 0.00 0.00 0.00 0.00 0.00 0.00 0.00 0.00 0.00 0.00 0.00 0.00
0.02 0.01 0.02 0.02 0.01 0.01 0.00 0.01 0.02 0.02 0.01 0.00 0.00 0.00 0.00 0.01 0.01 0.01 0.00 0.00 0.00 0.00 0.00 0.00 0.01 0.01 0.02 0.02 0.01 0.01 0.01 0.01 0.01 0.01 0.01 0.01 0.02 0.02 0.02 0.01 0.01 0.00 0.00 0.00 0.00 0.00 0.00 0.00 0.00 0.00 0.00 0.00 0.00 0.00

GFSWCAN_prec_precacc12_009.txt.gz
Total_Precipitation_Accumulation
0.10 0.13 0.08 0.02 0.00 0.00 0.00 0.00 0.00 0.00 0.00 0.00 0.00 0.00 0.00 0.00 0.00 0.00 0.02 0.05 0.12 0.08 0.00 0.00 0.00 0.00 0.00 0.01 0.04 0.04 0.03 0.00 0.01 0.01 0.01 0.00 0.01 0.01 0.01 0.00 0.01 0.03 0.09 0.10 0.05 0.11 0.04 0.00 0.02 0.12 0.15 0.07 0.07 0.05
0.03 0.06 0.09 0.07 0.03 0.01 0.00 0.00 0.00 0.00 0.00 0.00 0.00 0.00 0.00 0.00 0.00 0.00 0.01 0.05 0.09 0.12 0.02 0.00 0.00 0.00 0.00 0.00 0.04 0.08 0.04 0.03 0.06 0.03 0.01 0.01 0.01 0.01 0.00 0.01 0.00 0.01 0.01 0.02 0.02 0.02 0.00 0.00 0.02 0.01 0.03 0.08 0.06 0.05
0.03 0.02 0.02 0.03 0.05 0.03 0.02 0.01 0.00 0.00 0.00 0.00 0.00 0.00 0.00 0.01 0.02 0.02 0.01 0.04 0.03 0.05 0.03 0.02 0.00 0.00 0.00 0.00 0.02 0.11 0.04 0.02 0.06 0.08 0.14 0.06 0.08 0.03 0.03 0.02 0.01 0.02 0.02 0.02 0.01 0.00 0.00 0.01 0.01 0.02 0.05 0.07 0.05 0.05
0.01 0.01 0.01 0.01 0.01 0.02 0.02 0.01 0.01 0.00 0.00 0.00 0.00 0.00 0.00 0.00 0.00 0.02 0.03 0.04 0.10 0.13 0.10 0.03 0.00 0.00 0.00 0.00 0.00 0.01 0.03 0.07 0.12 0.17 0.15 0.05 0.05 0.02 0.01 0.01 0.02 0.03 0.02 0.02 0.03 0.01 0.01 0.03 0.05 0.06 0.05 0.07 0.08 0.06
0.00 0.00 0.00 0.00 0.00 0.00 0.00 0.01 0.01 0.01 0.01 0.01 0.01 0.01 0.00 0.00 0.02 0.05 0.08 0.04 0.08 0.21 0.20 0.07 0.02 0.00 0.00 0.00 0.00 0.01 0.04 0.06 0.16 0.15 0.07 0.02 0.01 0.02 0.01 0.01 0.02 0.01 0.01 0.03 0.07 0.04 0.13 0.03 0.05 0.04 0.07 0.12 0.08 0.04
0.00 0.00 0.00 0.00 0.00 0.00 0.00 0.00 0.00 0.01 0.05 0.05 0.04 0.04 0.05 0.09 0.27 0.66 0.61 0.17 0.07 0.17 0.59 0.32 0.04 0.00 0.00 0.00 0.00 0.00 0.01 0.08 0.21 0.12 0.02 0.01 0.00 0.07 0.16 0.07 0.01 0.00 0.01 0.08 0.10 0.06 0.07 0.02 0.01 0.01 0.06 0.04 0.01 0.00
0.00 0.00 0.00 0.00 0.00 0.00 0.00 0.00 0.00 0.01 0.03 0.04 0.07 0.11 0.16 0.31 0.66 0.84 0.59 0.16 0.04 0.16 0.82 0.60 0.11 0.01 0.00 0.00 0.01 0.02 0.04 0.08 0.09 0.08 0.03 0.01 0.01 0.14 0.16 0.05 0.00 0.00 0.00 0.01 0.02 0.04 0.06 0.02 0.03 0.01 0.01 0.00 0.00 0.00
0.00 0.00 0.00 0.01 0.00 0.00 0.00 0.00 0.00 0.01 0.03 0.04 0.03 0.05 0.19 0.61 0.90 0.74 0.51 0.44 0.35 0.35 0.49 0.48 0.13 0.01 0.00 0.00 0.01 0.00 0.00 0.01 0.04 0.05 0.04 0.05 0.03 0.09 0.13 0.02 0.00 0.00 0.00 0.00 0.00 0.00 0.03 0.01 0.00 0.00 0.00 0.00 0.00 0.00
0.00 0.00 0.00 0.00 0.00 0.00 0.00 0.00 0.00 0.00 0.00 0.02 0.05 0.07 0.12 0.15 0.22 0.29 0.39 0.39 0.40 0.54 0.66 0.38 0.04 0.01 0.00 0.00 0.02 0.03 0.06 0.12 0.09 0.04 0.01 0.05 0.03 0.03 0.01 0.00 0.00 0.00 0.00 0.01 0.00 0.00 0.00 0.00 0.00 0.00 0.00 0.00 0.00 0.00
0.00 0.00 0.00 0.00 0.00 0.00 0.00 0.00 0.00 0.00 0.00 0.01 0.01 0.01 0.04 0.08 0.14 0.16 0.17 0.24 0.39 0.45 0.43 0.23 0.03 0.01 0.01 0.04 0.09 0.11 0.18 0.13 0.12 0.02 0.03 0.04 0.01 0.00 0.00 0.00 0.00 0.00 0.00 0.00 0.00 0.00 0.00 0.00 0.00 0.00 0.00 0.00 0.00 0.00
0.01 0.01 0.00 0.00 0.00 0.00 0.00 0.00 0.00 0.00 0.00 0.00 0.00 0.01 0.02 0.02 0.04 0.08 0.15 0.15 0.15 0.14 0.13 0.05 0.01 0.03 0.04 0.08 0.14 0.16 0.16 0.08 0.09 0.01 0.06 0.03 0.00 0.00 0.00 0.00 0.00 0.00 0.00 0.00 0.00 0.00 0.00 0.00 0.00 0.00 0.00 0.00 0.00 0.00
0.01 0.01 0.00 0.00 0.00 0.00 0.00 0.00 0.01 0.00 0.00 0.00 0.00 0.01 0.01 0.01 0.02 0.03 0.06 0.04 0.04 0.03 0.01 0.02 0.01 0.01 0.04 0.05 0.09 0.08 0.05 0.04 0.04 0.01 0.01 0.00 0.00 0.00 0.00 0.00 0.00 0.00 0.00 0.00 0.00 0.00 0.00 0.00 0.00 0.00 0.00 0.00 0.00 0.00
0.01 0.00 0.00 0.00 0.00 0.00 0.00 0.00 0.00 0.00 0.00 0.00 0.00 0.00 0.00 0.01 0.02 0.01 0.02 0.04 0.05 0.02 0.02 0.01 0.01 0.00 0.00 0.01 0.07 0.11 0.16 0.15 0.08 0.10 0.05 0.02 0.02 0.00 0.00 0.00 0.00 0.00 0.00 0.00 0.00 0.00 0.00 0.00 0.00 0.00 0.00 0.00 0.00 0.00
0.00 0.01 0.01 0.00 0.00 0.00 0.00 0.00 0.00 0.00 0.00 0.00 0.00 0.00 0.00 0.00 0.00 0.01 0.02 0.02 0.03 0.04 0.03 0.01 0.00 0.01 0.01 0.01 0.01 0.03 0.04 0.03 0.03 0.01 0.01 0.01 0.00 0.00 0.00 0.00 0.00 0.00 0.00 0.00 0.00 0.00 0.00 0.00 0.00 0.00 0.00 0.00 0.00 0.00
0.01 0.01 0.01 0.01 0.00 0.00 0.00 0.00 0.00 0.00 0.00 0.00 0.00 0.00 0.01 0.01 0.01 0.00 0.00 0.01 0.01 0.02 0.01 0.01 0.00 0.00 0.00 0.00 0.00 0.00 0.01 0.00 0.00 0.00 0.02 0.01 0.00 0.00 0.00 0.00 0.00 0.00 0.00 0.00 0.00 0.00 0.00 0.00 0.00 0.00 0.00 0.00 0.00 0.00
0.01 0.01 0.00 0.00 0.00 0.00 0.00 0.00 0.01 0.00 0.00 0.00 0.00 0.00 0.01 0.01 0.01 0.00 0.00 0.00 0.01 0.01 0.00 0.00 0.00 0.00 0.00 0.00 0.01 0.00 0.00 0.00 0.00 0.02 0.02 0.00 0.00 0.00 0.00 0.00 0.00 0.00 0.00 0.00 0.00 0.00 0.00 0.00 0.00 0.01 0.01 0.01 0.02 0.01
0.00 0.00 0.00 0.00 0.01 0.00 0.00 0.01 0.00 0.00 0.00 0.00 0.00 0.00 0.01 0.00 0.00 0.00 0.00 0.00 0.01 0.00 0.00 0.00 0.00 0.00 0.00 0.01 0.00 0.00 0.00 0.00 0.00 0.00 0.00 0.00 0.00 0.00 0.00 0.00 0.00 0.00 0.00 0.00 0.00 0.00 0.01 0.01 0.03 0.04 0.03 0.02 0.01 0.01
0.00 0.00 0.00 0.00 0.01 0.02 0.01 0.01 0.00 0.00 0.00 0.00 0.00 0.00 0.00 0.00 0.00 0.00 0.00 0.00 0.01 0.00 0.00 0.01 0.01 0.00 0.00 0.00 0.00 0.00 0.00 0.00 0.00 0.00 0.00 0.00 0.00 0.00 0.00 0.00 0.00 0.00 0.00 0.00 0.00 0.02 0.03 0.03 0.05 0.03 0.02 0.01 0.01 0.00
0.00 0.00 0.00 0.00 0.01 0.01 0.00 0.00 0.01 0.01 0.00 0.00 0.00 0.00 0.00 0.00 0.00 0.00 0.00 0.00 0.01 0.02 0.05 0.03 0.02 0.00 0.00 0.00 0.01 0.01 0.01 0.00 0.00 0.00 0.00 0.00 0.00 0.00 0.00 0.00 0.00 0.00 0.01 0.01 0.02 0.04 0.03 0.02 0.02 0.02 0.02 0.01 0.00 0.00
0.00 0.00 0.00 0.01 0.01 0.02 0.00 0.02 0.01 0.01 0.01 0.00 0.00 0.00 0.00 0.00 0.00 0.00 0.00 0.00 0.01 0.04 0.04 0.03 0.00 0.00 0.00 0.00 0.00 0.00 0.00 0.00 0.00 0.00 0.00 0.00 0.00 0.00 0.00 0.00 0.00 0.01 0.02 0.01 0.03 0.05 0.05 0.03 0.01 0.01 0.03 0.02 0.01 0.01
0.02 0.02 0.04 0.06 0.09 0.05 0.01 0.01 0.00 0.00 0.00 0.00 0.00 0.01 0.01 0.01 0.01 0.00 0.00 0.02 0.05 0.03 0.00 0.00 0.00 0.00 0.00 0.00 0.00 0.00 0.00 0.00 0.01 0.02 0.02 0.00 0.00 0.00 0.00 0.00 0.01 0.03 0.04 0.03 0.03 0.03 0.02 0.02 0.02 0.03 0.04 0.03 0.02 0.00
0.05 0.03 0.05 0.08 0.08 0.03 0.02 0.01 0.01 0.02 0.01 0.01 0.01 0.00 0.01 0.01 0.01 0.01 0.02 0.03 0.02 0.00 0.00 0.00 0.00 0.00 0.00 0.00 0.00 0.00 0.00 0.00 0.00 0.00 0.00 0.00 0.01 0.01 0.01 0.01 0.04 0.03 0.03 0.02 0.03 0.06 0.06 0.03 0.05 0.05 0.02 0.01 0.00 0.00
0.03 0.04 0.08 0.10 0.11 0.10 0.08 0.03 0.03 0.02 0.01 0.01 0.01 0.01 0.01 0.01 0.00 0.01 0.01 0.00 0.00 0.00 0.00 0.00 0.00 0.00 0.00 0.00 0.00 0.00 0.00 0.00 0.00 0.00 0.00 0.01 0.01 0.01 0.01 0.01 0.01 0.04 0.06 0.03 0.02 0.05 0.05 0.05 0.05 0.03 0.01 0.00 0.00 0.00
0.04 0.10 0.14 0.13 0.08 0.10 0.06 0.04 0.04 0.02 0.03 0.02 0.02 0.01 0.00 0.02 0.03 0.03 0.00 0.00 0.00 0.00 0.00 0.00 0.00 0.00 0.00 0.00 0.00 0.00 0.01 0.03 0.02 0.00 0.02 0.04 0.01 0.00 0.01 0.03 0.04 0.03 0.03 0.03 0.04 0.03 0.04 0.04 0.02 0.00 0.00 0.00 0.00 0.00
0.28 0.22 0.09 0.09 0.03 0.04 0.02 0.02 0.02 0.02 0.01 0.01 0.01 0.00 0.00 0.03 0.02 0.01 0.00 0.00 0.00 0.00 0.00 0.00 0.00 0.00 0.01 0.01 0.00 0.01 0.03 0.07 0.03 0.02 0.01 0.03 0.08 0.09 0.06 0.04 0.04 0.03 0.03 0.03 0.07 0.08 0.03 0.01 0.01 0.00 0.00 0.00 0.00 0.00
0.29 0.10 0.03 0.01 0.02 0.01 0.01 0.00 0.00 0.00 0.01 0.01 0.01 0.01 0.02 0.03 0.02 0.01 0.00 0.00 0.00 0.01 0.01 0.00 0.04 0.04 0.02 0.03 0.02 0.02 0.03 0.04 0.08 0.07 0.04 0.06 0.07 0.10 0.10 0.08 0.05 0.02 0.02 0.02 0.01 0.01 0.00 0.00 0.00 0.00 0.00 0.00 0.00 0.00
0.16 0.04 0.02 0.00 0.01 0.01 0.01 0.01 0.01 0.03 0.01 0.01 0.01 0.03 0.06 0.06 0.01 0.00 0.00 0.00 0.00 0.01 0.01 0.02 0.04 0.03 0.02 0.01 0.02 0.02 0.01 0.04 0.07 0.05 0.02 0.00 0.00 0.00 0.02 0.05 0.06 0.04 0.01 0.01 0.00 0.00 0.00 0.00 0.01 0.00 0.00 0.01 0.01 0.00
0.01 0.00 0.01 0.01 0.00 0.01 0.02 0.02 0.02 0.01 0.00 0.00 0.01 0.03 0.06 0.01 0.00 0.00 0.01 0.01 0.01 0.00 0.00 0.00 0.00 0.01 0.00 0.00 0.00 0.00 0.00 0.00 0.00 0.00 0.00 0.00 0.00 0.00 0.00 0.00 0.01 0.01 0.00 0.00 0.00 0.00 0.00 0.01 0.01 0.00 0.00 0.00 0.00 0.00
0.00 0.01 0.02 0.02 0.03 0.05 0.02 0.00 0.00 0.00 0.00 0.01 0.02 0.01 0.00 0.00 0.01 0.01 0.01 0.01 0.00 0.00 0.00 0.00 0.00 0.00 0.00 0.00 0.00 0.00 0.00 0.00 0.03 0.05 0.03 0.02 0.02 0.01 0.01 0.01 0.02 0.02 0.02 0.01 0.01 0.02 0.02 0.02 0.01 0.01 0.00 0.00 0.00 0.01
0.00 0.02 0.01 0.01 0.01 0.01 0.00 0.01 0.00 0.01 0.02 0.02 0.03 0.05 0.03 0.00 0.00 0.01 0.00 0.00 0.00 0.00 0.00 0.00 0.00 0.00 0.00 0.00 0.00 0.01 0.00 0.01 0.03 0.06 0.05 0.04 0.05 0.04 0.04 0.06 0.07 0.06 0.07 0.10 0.09 0.06 0.09 0.10 0.10 0.07 0.05 0.03 0.02 0.02
0.02 0.03 0.03 0.04 0.02 0.00 0.01 0.02 0.02 0.02 0.01 0.00 0.01 0.05 0.03 0.01 0.01 0.00 0.00 0.00 0.00 0.00 0.00 0.00 0.01 0.01 0.02 0.02 0.02 0.02 0.03 0.06 0.01 0.02 0.04 0.06 0.08 0.10 0.11 0.12 0.12 0.12 0.12 0.12 0.10 0.10 0.12 0.14 0.14 0.10 0.07 0.05 0.04 0.02
0.04 0.05 0.05 0.06 0.03 0.05 0.04 0.04 0.05 0.05 0.02 0.03 0.02 0.02 0.02 0.04 0.03 0.03 0.01 0.00 0.00 0.01 0.02 0.01 0.01 0.02 0.03 0.03 0.05 0.04 0.03 0.03 0.02 0.04 0.06 0.08 0.09 0.10 0.10 0.10 0.10 0.08 0.07 0.06 0.06 0.05 0.04 0.05 0.05 0.03 0.02 0.01 0.01 0.01
0.07 0.08 0.09 0.08 0.05 0.04 0.04 0.05 0.07 0.04 0.02 0.01 0.01 0.01 0.02 0.05 0.07 0.05 0.01 0.01 0.01 0.02 0.01 0.02 0.02 0.04 0.05 0.04 0.06 0.05 0.04 0.03 0.03 0.03 0.03 0.05 0.05 0.06 0.06 0.06 0.06 0.05 0.04 0.03 0.02 0.02 0.02 0.01 0.02 0.03 0.03 0.02 0.02 0.01

GFSWCAN_prec_precacc12_015.txt.gz
Total_Precipitation_Accumulation
0.24 0.13 0.04 0.01 0.00 0.00 0.00 0.00 0.00 0.00 0.00 0.00 0.00 0.00 0.00 0.00 0.00 0.00 0.01 0.05 0.09 0.05 0.00 0.00 0.00 0.00 0.00 0.01 0.03 0.03 0.02 0.00 0.00 0.00 0.00 0.00 0.00 0.00 0.00 0.00 0.01 0.01 0.04 0.06 0.02 0.08 0.03 0.00 0.02 0.11 0.14 0.06 0.05 0.03
0.18 0.18 0.09 0.04 0.02 0.01 0.00 0.00 0.00 0.00 0.00 0.00 0.00 0.00 0.00 0.00 0.00 0.00 0.00 0.05 0.08 0.10 0.02 0.00 0.00 0.00 0.00 0.00 0.03 0.04 0.03 0.03 0.04 0.02 0.00 0.00 0.00 0.01 0.00 0.01 0.00 0.00 0.00 0.01 0.01 0.01 0.00 0.00 0.01 0.00 0.02 0.05 0.03 0.04
0.23 0.17 0.14 0.07 0.04 0.02 0.01 0.01 0.00 0.00 0.00 0.00 0.00 0.00 0.00 0.00 0.01 0.01 0.01 0.03 0.02 0.03 0.01 0.00 0.00 0.00 0.00 0.00 0.02 0.07 0.03 0.02 0.06 0.07 0.13 0.07 0.11 0.05 0.04 0.02 0.01 0.03 0.01 0.01 0.01 0.00 0.00 0.00 0.00 0.01 0.03 0.04 0.03 0.05
0.18 0.19 0.15 0.12 0.07 0.05 0.01 0.01 0.01 0.01 0.00 0.00 0.00 0.00 0.00 0.00 0.00 0.01 0.01 0.02 0.05 0.06 0.04 0.01 0.00 0.00 0.00 0.00 0.00 0.01 0.04 0.08 0.14 0.19 0.19 0.14 0.21 0.11 0.06 0.01 0.03 0.05 0.04 0.01 0.01 0.00 0.01 0.01 0.04 0.06 0.07 0.12 0.11 0.07
0.08 0.12 0.15 0.15 0.13 0.10 0.06 0.01 0.01 0.00 0.00 0.00 0.01 0.01 0.00 0.00 0.01 0.03 0.04 0.01 0.04 0.11 0.08 0.03 0.00 0.00 0.00 0.00 0.00 0.01 0.06 0.09 0.15 0.16 0.10 0.03 0.01 0.02 0.02 0.02 0.04 0.03 0.01 0.02 0.03 0.02 0.11 0.07 0.08 0.09 0.10 0.13 0.08 0.05
0.02 0.05 0.10 0.10 0.08 0.10 0.11 0.08 0.02 0.00 0.01 0.01 0.01 0.01 0.02 0.06 0.16 0.35 0.32 0.07 0.01 0.11 0.45 0.24 0.03 0.00 0.00 0.00 0.00 0.00 0.01 0.07 0.18 0.11 0.02 0.00 0.00 0.03 0.05 0.02 0.00 0.00 0.01 0.06 0.10 0.05 0.10 0.08 0.05 0.05 0.05 0.04 0.02 0.00
0.00 0.01 0.03 0.06 0.06 0.04 0.06 0.07 0.05 0.02 0.00 0.01 0.02 0.04 0.08 0.23 0.54 0.62 0.38 0.10 0.01 0.14 0.70 0.52 0.09 0.00 0.00 0.00 0.00 0.01 0.02 0.05 0.08 0.08 0.03 0.01 0.01 0.17 0.17 0.08 0.00 0.00 0.01 0.03 0.03 0.05 0.09 0.08 0.09 0.06 0.03 0.00 0.00 0.00
0.00 0.00 0.00 0.00 0.01 0.01 0.01 0.02 0.02 0.04 0.02 0.01 0.01 0.08 0.28 0.78 0.98 0.69 0.41 0.38 0.30 0.29 0.48 0.49 0.15 0.01 0.00 0.00 0.00 0.00 0.00 0.01 0.04 0.05 0.04 0.04 0.03 0.09 0.17 0.03 0.00 0.00 0.00 0.00 0.01 0.01 0.04 0.02 0.01 0.01 0.00 0.00 0.00 0.00
0.00 0.00 0.00 0.00 0.00 0.00 0.00 0.00 0.01 0.02 0.04 0.04 0.08 0.16 0.28 0.32 0.30 0.33 0.46 0.49 0.61 0.69 0.80 0.40 0.05 0.02 0.03 0.02 0.01 0.03 0.05 0.08 0.07 0.03 0.01 0.03 0.01 0.02 0.01 0.00 0.00 0.00 0.00 0.00 0.00 0.00 0.00 0.00 0.00 0.01 0.00 0.00 0.00 0.00
0.00 0.00 0.00 0.00 0.00 0.00 0.00 0.00 0.00 0.01 0.03 0.06 0.05 0.06 0.13 0.16 0.20 0.20 0.30 0.43 0.65 0.71 0.61 0.30 0.06 0.02 0.02 0.03 0.04 0.06 0.16 0.15 0.14 0.01 0.01 0.02 0.01 0.00 0.00 0.00 0.00 0.00 0.00 0.00 0.00 0.01 0.03 0.04 0.02 0.00 0.00 0.00 0.00 0.00
0.00 0.00 0.00 0.00 0.00 0.00 0.00 0.00 0.01 0.01 0.01 0.00 0.01 0.02 0.05 0.07 0.06 0.08 0.17 0.20 0.20 0.17 0.12 0.04 0.01 0.01 0.02 0.04 0.10 0.19 0.20 0.11 0.10 0.00 0.05 0.04 0.00 0.00 0.00 0.00 0.00 0.00 0.00 0.00 0.01 0.01 0.01 0.00 0.00 0.00 0.00 0.00 0.00 0.00
0.00 0.00 0.00 0.00 0.00 0.00 0.00 0.00 0.02 0.01 0.00 0.01 0.00 0.02 0.01 0.01 0.02 0.03 0.07 0.04 0.04 0.02 0.01 0.01 0.01 0.01 0.05 0.08 0.13 0.16 0.07 0.06 0.04 0.00 0.04 0.03 0.00 0.00 0.00 0.00 0.00 0.00 0.00 0.00 0.00 0.00 0.00 0.00 0.00 0.00 0.00 0.00 0.00 0.00
0.01 0.01 0.00 0.00 0.00 0.00 0.00 0.00 0.00 0.00 0.00 0.00 0.00 0.01 0.00 0.01 0.02 0.03 0.03 0.03 0.02 0.01 0.02 0.00 0.00 0.00 0.00 0.02 0.07 0.05 0.04 0.05 0.04 0.05 0.02 0.01 0.01 0.00 0.00 0.00 0.00 0.00 0.00 0.00 0.00 0.00 0.00 0.00 0.00 0.00 0.00 0.00 0.00 0.00
0.01 0.02 0.01 0.00 0.00 0.00 0.00 0.00 0.00 0.00 0.00 0.00 0.00 0.00 0.00 0.00 0.00 0.01 0.01 0.01 0.02 0.00 0.01 0.01 0.02 0.01 0.00 0.00 0.00 0.02 0.02 0.03 0.04 0.02 0.00 0.00 0.00 0.00 0.00 0.00 0.00 0.00 0.00 0.00 0.00 0.00 0.00 0.00 0.00 0.00 0.00 0.00 0.00 0.00
0.02 0.02 0.02 0.01 0.00 0.00 0.00 0.00 0.00 0.00 0.00 0.00 0.00 0.00 0.00 0.01 0.01 0.00 0.00 0.00 0.01 0.00 0.00 0.01 0.02 0.01 0.00 0.00 0.00 0.00 0.01 0.01 0.00 0.00 0.00 0.01 0.00 0.00 0.00 0.00 0.00 0.00 0.00 0.00 0.00 0.00 0.00 0.00 0.00 0.00 0.00 0.00 0.00 0.00
0.02 0.03 0.03 0.02 0.01 0.00 0.00 0.00 0.01 0.00 0.00 0.00 0.00 0.00 0.01 0.01 0.01 0.00 0.00 0.00 0.00 0.01 0.00 0.00 0.00 0.00 0.00 0.00 0.00 0.00 0.00 0.00 0.00 0.01 0.01 0.00 0.00 0.00 0.00 0.00 0.00 0.00 0.00 0.00 0.00 0.00 0.00 0.00 0.00 0.00 0.01 0.01 0.02 0.01
0.01 0.01 0.03 0.03 0.02 0.00 0.00 0.01 0.00 0.00 0.00 0.00 0.00 0.00 0.01 0.00 0.00 0.00 0.00 0.00 0.01 0.00 0.00 0.00 0.00 0.00 0.00 0.00 0.00 0.00 0.00 0.00 0.00 0.00 0.00 0.00 0.00 0.00 0.00 0.00 0.00 0.00 0.00 0.00 0.00 0.00 0.00 0.00 0.01 0.04 0.04 0.02 0.01 0.01
0.00 0.00 0.01 0.01 0.01 0.02 0.02 0.00 0.00 0.00 0.00 0.00 0.00 0.00 0.00 0.00 0.00 0.00 0.00 0.00 0.01 0.00 0.00 0.00 0.00 0.00 0.00 0.00 0.00 0.00 0.00 0.00 0.00 0.00 0.00 0.00 0.00 0.00 0.00 0.00 0.00 0.00 0.00 0.00 0.00 0.00 0.00 0.01 0.04 0.04 0.02 0.01 0.02 0.02
0.00 0.00 0.00 0.00 0.01 0.01 0.01 0.01 0.00 0.00 0.00 0.00 0.00 0.00 0.00 0.00 0.00 0.00 0.00 0.00 0.01 0.01 0.03 0.01 0.01 0.00 0.00 0.00 0.00 0.00 0.00 0.00 0.00 0.00 0.00 0.00 0.00 0.00 0.00 0.00 0.00 0.00 0.00 0.00 0.00 0.00 0.00 0.01 0.02 0.02 0.02 0.03 0.05 0.05
0.00 0.00 0.01 0.01 0.00 0.01 0.00 0.01 0.01 0.00 0.00 0.00 0.00 0.00 0.00 0.00 0.00 0.00 0.00 0.00 0.01 0.04 0.04 0.02 0.00 0.00 0.00 0.00 0.00 0.00 0.00 0.00 0.00 0.00 0.00 0.00 0.00 0.00 0.00 0.00 0.00 0.00 0.00 0.00 0.00 0.01 0.01 0.02 0.01 0.02 0.04 0.08 0.09 0.06
0.03 0.08 0.07 0.03 0.05 0.03 0.01 0.01 0.00 0.00 0.00 0.00 0.00 0.00 0.01 0.01 0.01 0.00 0.00 0.01 0.04 0.03 0.01 0.00 0.00 0.00 0.00 0.00 0.00 0.00 0.00 0.00 0.00 0.02 0.01 0.00 0.00 0.00 0.00 0.00 0.00 0.01 0.01 0.01 0.01 0.01 0.02 0.02 0.02 0.04 0.08 0.10 0.09 0.07
0.06 0.04 0.04 0.07 0.04 0.00 0.01 0.01 0.00 0.02 0.01 0.00 0.01 0.00 0.01 0.00 0.01 0.01 0.02 0.03 0.02 0.00 0.00 0.00 0.00 0.00 0.00 0.00 0.00 0.00 0.00 0.00 0.00 0.00 0.00 0.00 0.01 0.01 0.01 0.01 0.02 0.01 0.00 0.00 0.02 0.05 0.06 0.03 0.07 0.08 0.06 0.03 0.03 0.05
0.01 0.01 0.00 0.01 0.00 0.01 0.01 0.01 0.02 0.01 0.01 0.01 0.01 0.01 0.01 0.00 0.00 0.01 0.01 0.00 0.00 0.00 0.00 0.00 0.00 0.00 0.00 0.00 0.00 0.00 0.00 0.00 0.00 0.00 0.00 0.01 0.01 0.01 0.01 0.00 0.00 0.02 0.04 0.02 0.02 0.05 0.07 0.07 0.07 0.07 0.04 0.02 0.00 0.01
0.02 0.05 0.06 0.05 0.01 0.04 0.03 0.02 0.02 0.01 0.02 0.01 0.01 0.00 0.00 0.01 0.02 0.02 0.01 0.00 0.00 0.00 0.00 0.00 0.00 0.00 0.00 0.00 0.00 0.00 0.00 0.03 0.02 0.00 0.02 0.05 0.01 0.00 0.00 0.01 0.02 0.02 0.03 0.03 0.04 0.04 0.06 0.07 0.06 0.04 0.03 0.03 0.03 0.02
0.17 0.13 0.05 0.05 0.02 0.03 0.02 0.02 0.01 0.01 0.01 0.00 0.00 0.00 0.00 0.02 0.01 0.00 0.00 0.00 0.00 0.00 0.00 0.00 0.00 0.00 0.00 0.01 0.00 0.00 0.02 0.06 0.02 0.01 0.00 0.02 0.05 0.04 0.01 0.02 0.03 0.02 0.03 0.04 0.08 0.12 0.10 0.08 0.08 0.06 0.04 0.03 0.01 0.01
0.19 0.06 0.01 0.01 0.02 0.01 0.01 0.00 0.00 0.00 0.01 0.01 0.01 0.01 0.02 0.02 0.02 0.01 0.00 0.00 0.00 0.00 0.00 0.00 0.03 0.02 0.00 0.01 0.02 0.02 0.03 0.02 0.00 0.00 0.02 0.04 0.04 0.04 0.04 0.06 0.05 0.02 0.02 0.04 0.07 0.06 0.03 0.02 0.02 0.01 0.01 0.01 0.01 0.01
0.14 0.04 0.02 0.00 0.01 0.01 0.01 0.01 0.01 0.03 0.01 0.01 0.01 0.02 0.05 0.04 0.00 0.00 0.00 0.00 0.00 0.01 0.01 0.02 0.03 0.02 0.01 0.01 0.02 0.02 0.00 0.00 0.00 0.00 0.01 0.00 0.00 0.00 0.01 0.05 0.07 0.04 0.02 0.02 0.03 0.04 0.03 0.02 0.02 0.02 0.02 0.02 0.01 0.03
0.01 0.00 0.01 0.01 0.00 0.01 0.02 0.02 0.02 0.01 0.00 0.00 0.01 0.02 0.03 0.01 0.00 0.00 0.01 0.01 0.01 0.00 0.00 0.00 0.00 0.01 0.00 0.00 0.00 0.00 0.00 0.01 0.01 0.00 0.00 0.00 0.00 0.00 0.00 0.01 0.02 0.03 0.02 0.01 0.03 0.03 0.03 0.05 0.06 0.05 0.05 0.04 0.02 0.03
0.00 0.00 0.01 0.01 0.02 0.05 0.04 0.01 0.00 0.00 0.00 0.01 0.02 0.00 0.00 0.00 0.00 0.00 0.01 0.01 0.00 0.00 0.00 0.00 0.00 0.00 0.00 0.00 0.00 0.00 0.00 0.00 0.02 0.02 0.01 0.01 0.01 0.01 0.01 0.01 0.02 0.02 0.01 0.03 0.04 0.07 0.09 0.10 0.08 0.07 0.07 0.07 0.06 0.08
0.00 0.01 0.02 0.01 0.03 0.03 0.01 0.01 0.00 0.01 0.02 0.03 0.04 0.05 0.02 0.00 0.00 0.01 0.00 0.00 0.00 0.00 0.00 0.00 0.00 0.01 0.02 0.02 0.01 0.00 0.01 0.01 0.04 0.08 0.06 0.02 0.03 0.03 0.04 0.05 0.05 0.05 0.06 0.10 0.10 0.07 0.10 0.12 0.13 0.14 0.15 0.18 0.19 0.18
0.01 0.02 0.01 0.02 0.01 0.00 0.00 0.02 0.02 0.01 0.00 0.00 0.01 0.04 0.02 0.00 0.01 0.00 0.00 0.00 0.00 0.00 0.00 0.01 0.02 0.03 0.03 0.03 0.03 0.03 0.04 0.08 0.03 0.03 0.03 0.03 0.04 0.04 0.05 0.06 0.07 0.09 0.10 0.11 0.09 0.10 0.12 0.15 0.16 0.16 0.15 0.14 0.13 0.12
0.03 0.03 0.04 0.04 0.02 0.04 0.04 0.03 0.03 0.02 0.01 0.02 0.01 0.01 0.01 0.03 0.04 0.06 0.03 0.00 0.01 0.02 0.04 0.03 0.04 0.05 0.05 0.03 0.06 0.05 0.04 0.05 0.04 0.04 0.05 0.05 0.06 0.06 0.06 0.08 0.08 0.08 0.07 0.06 0.06 0.05 0.04 0.06 0.07 0.04 0.04 0.04 0.04 0.04
0.05 0.07 0.07 0.07 0.05 0.03 0.03 0.05 0.05 0.02 0.01 0.01 0.00 0.01 0.02 0.05 0.12 0.12 0.04 0.02 0.05 0.06 0.06 0.06 0.06 0.07 0.08 0.07 0.08 0.07 0.06 0.06 0.05 0.04 0.05 0.05 0.04 0.04 0.04 0.05 0.06 0.05 0.05 0.03 0.02 0.02 0.02 0.01 0.02 0.04 0.04 0.04 0.04 0.03

GFSWCAN_prec_precacc12_021.txt.gz
Total_Precipitation_Accumulation
0.33 0.15 0.02 0.00 0.00 0.00 0.00 0.00 0.00 0.00 0.00 0.00 0.00 0.00 0.00 0.00 0.00 0.00 0.00 0.00 0.00 0.00 0.00 0.00 0.00 0.00 0.00 0.00 0.00 0.00 0.00 0.00 0.00 0.00 0.00 0.00 0.00 0.00 0.00 0.00 0.00 0.00 0.00 0.00 0.01 0.03 0.01 0.00 0.00 0.00 0.00 0.00 0.00 0.00
0.31 0.23 0.12 0.02 0.00 0.00 0.00 0.00 0.00 0.00 0.00 0.00 0.00 0.00 0.00 0.00 0.00 0.00 0.00 0.00 0.00 0.00 0.00 0.00 0.00 0.00 0.00 0.00 0.00 0.00 0.00 0.00 0.00 0.00 0.00 0.00 0.00 0.00 0.00 0.00 0.00 0.00 0.00 0.00 0.01 0.01 0.00 0.00 0.00 0.00 0.00 0.00 0.00 0.01
0.33 0.24 0.20 0.09 0.02 0.00 0.00 0.00 0.00 0.00 0.00 0.00 0.00 0.00 0.00 0.00 0.00 0.00 0.00 0.00 0.00 0.00 0.00 0.00 0.00 0.00 0.00 0.00 0.00 0.01 0.00 0.01 0.01 0.01 0.02 0.02 0.04 0.03 0.02 0.02 0.00 0.02 0.00 0.00 0.01 0.00 0.00 0.00 0.00 0.00 0.00 0.01 0.06 0.14
0.28 0.31 0.25 0.21 0.10 0.04 0.00 0.00 0.00 0.00 0.00 0.00 0.00 0.00 0.00 0.00 0.00 0.00 0.00 0.00 0.00 0.00 0.01 0.00 0.00 0.00 0.00 0.00 0.00 0.00 0.01 0.03 0.06 0.07 0.09 0.12 0.17 0.10 0.05 0.01 0.03 0.04 0.03 0.01 0.01 0.00 0.00 0.00 0.02 0.04 0.12 0.20 0.19 0.13
0.09 0.21 0.27 0.26 0.20 0.12 0.06 0.01 0.00 0.00 0.01 0.00 0.00 0.00 0.00 0.00 0.00 0.00 0.00 0.00 0.00 0.01 0.01 0.00 0.00 0.00 0.00 0.00 0.00 0.00 0.01 0.04 0.04 0.06 0.06 0.02 0.01 0.02 0.05 0.07 0.11 0.05 0.02 0.01 0.01 0.01 0.07 0.09 0.17 0.28 0.26 0.13 0.07 0.04
0.03 0.10 0.22 0.26 0.22 0.19 0.13 0.08 0.02 0.00 0.00 0.01 0.01 0.01 0.01 0.01 0.01 0.00 0.01 0.00 0.00 0.01 0.04 0.04 0.00 0.00 0.00 0.00 0.00 0.00 0.00 0.01 0.02 0.01 0.01 0.01 0.00 0.03 0.10 0.06 0.01 0.00 0.00 0.03 0.06 0.05 0.12 0.22 0.27 0.19 0.13 0.09 0.03 0.01
0.00 0.03 0.11 0.18 0.21 0.22 0.22 0.14 0.08 0.03 0.01 0.01 0.02 0.02 0.04 0.08 0.08 0.06 0.05 0.03 0.00 0.04 0.14 0.08 0.01 0.00 0.00 0.00 0.00 0.00 0.00 0.00 0.01 0.02 0.02 0.01 0.01 0.14 0.20 0.08 0.00 0.00 0.01 0.03 0.04 0.05 0.10 0.15 0.15 0.12 0.04 0.01 0.00 0.00
0.00 0.00 0.02 0.09 0.13 0.13 0.19 0.23 0.14 0.09 0.05 0.03 0.06 0.12 0.23 0.47 0.40 0.23 0.13 0.16 0.09 0.09 0.21 0.16 0.07 0.01 0.00 0.00 0.00 0.00 0.00 0.00 0.00 0.00 0.01 0.00 0.00 0.04 0.10 0.01 0.00 0.00 0.00 0.00 0.01 0.01 0.04 0.02 0.01 0.01 0.00 0.00 0.00 0.00
0.00 0.00 0.00 0.02 0.04 0.05 0.09 0.17 0.20 0.16 0.19 0.21 0.28 0.43 0.52 0.42 0.25 0.22 0.34 0.41 0.52 0.45 0.41 0.19 0.04 0.02 0.05 0.03 0.01 0.00 0.00 0.00 0.01 0.00 0.00 0.00 0.00 0.02 0.01 0.00 0.00 0.00 0.00 0.00 0.00 0.00 0.00 0.00 0.00 0.01 0.00 0.00 0.00 0.00
0.00 0.00 0.00 0.00 0.00 0.01 0.02 0.08 0.17 0.25 0.38 0.56 0.55 0.57 0.62 0.45 0.34 0.24 0.37 0.53 0.78 0.84 0.62 0.26 0.09 0.09 0.05 0.03 0.04 0.06 0.10 0.09 0.06 0.00 0.00 0.00 0.01 0.00 0.00 0.00 0.00 0.00 0.00 0.00 0.00 0.01 0.03 0.04 0.02 0.00 0.00 0.00 0.00 0.00
0.00 0.00 0.00 0.00 0.00 0.00 0.02 0.06 0.17 0.27 0.39 0.43 0.55 0.57 0.45 0.40 0.31 0.32 0.29 0.28 0.32 0.27 0.17 0.10 0.05 0.05 0.04 0.06 0.12 0.16 0.12 0.06 0.06 0.00 0.02 0.03 0.01 0.00 0.00 0.00 0.00 0.00 0.00 0.00 0.01 0.01 0.01 0.00 0.00 0.00 0.00 0.00 0.00 0.00
0.00 0.00 0.00 0.00 0.00 0.02 0.03 0.08 0.14 0.14 0.21 0.29 0.26 0.38 0.46 0.37 0.23 0.20 0.20 0.14 0.06 0.04 0.01 0.00 0.00 0.03 0.08 0.09 0.11 0.20 0.11 0.09 0.04 0.01 0.06 0.05 0.01 0.00 0.00 0.00 0.00 0.00 0.00 0.00 0.00 0.00 0.00 0.00 0.00 0.00 0.00 0.00 0.00 0.00
0.00 0.00 0.00 0.00 0.01 0.03 0.03 0.05 0.04 0.08 0.11 0.13 0.16 0.26 0.22 0.15 0.07 0.04 0.03 0.02 0.01 0.00 0.01 0.00 0.01 0.01 0.01 0.03 0.13 0.11 0.06 0.04 0.03 0.03 0.01 0.00 0.00 0.00 0.00 0.00 0.00 0.00 0.00 0.00 0.00 0.00 0.00 0.00 0.00 0.00 0.00 0.00 0.00 0.00
0.01 0.01 0.00 0.00 0.00 0.01 0.02 0.02 0.02 0.02 0.03 0.04 0.05 0.08 0.05 0.04 0.00 0.00 0.00 0.00 0.00 0.00 0.01 0.02 0.02 0.00 0.00 0.02 0.02 0.02 0.03 0.02 0.04 0.02 0.00 0.00 0.00 0.00 0.00 0.00 0.00 0.00 0.00 0.00 0.00 0.00 0.00 0.00 0.00 0.00 0.00 0.00 0.00 0.00
0.01 0.01 0.02 0.00 0.00 0.00 0.01 0.00 0.00 0.00 0.00 0.00 0.00 0.01 0.01 0.01 0.00 0.00 0.00 0.00 0.00 0.00 0.00 0.02 0.04 0.02 0.01 0.01 0.00 0.01 0.01 0.01 0.00 0.00 0.00 0.00 0.00 0.00 0.00 0.00 0.00 0.00 0.00 0.00 0.00 0.00 0.00 0.00 0.00 0.00 0.00 0.00 0.00 0.00
0.04 0.04 0.03 0.02 0.00 0.00 0.00 0.00 0.00 0.00 0.00 0.00 0.00 0.00 0.00 0.00 0.00 0.00 0.00 0.00 0.00 0.00 0.00 0.00 0.00 0.00 0.01 0.01 0.01 0.00 0.00 0.00 0.00 0.00 0.00 0.00 0.00 0.00 0.00 0.00 0.00 0.00 0.00 0.00 0.00 0.00 0.00 0.00 0.00 0.00 0.00 0.00 0.00 0.00
0.03 0.01 0.03 0.03 0.01 0.00 0.00 0.00 0.00 0.00 0.00 0.00 0.00 0.00 0.00 0.00 0.00 0.00 0.00 0.00 0.00 0.00 0.00 0.00 0.00 0.00 0.00 0.00 0.00 0.00 0.00 0.00 0.00 0.00 0.00 0.00 0.00 0.00 0.00 0.00 0.00 0.00 0.00 0.00 0.00 0.00 0.00 0.00 0.00 0.00 0.00 0.00 0.00 0.00
0.00 0.01 0.01 0.02 0.01 0.01 0.01 0.00 0.00 0.00 0.00 0.00 0.00 0.00 0.00 0.00 0.00 0.00 0.00 0.00 0.00 0.00 0.00 0.00 0.00 0.00 0.00 0.00 0.00 0.00 0.00 0.00 0.00 0.00 0.00 0.00 0.00 0.00 0.00 0.00 0.00 0.00 0.00 0.00 0.00 0.00 0.00 0.00 0.00 0.00 0.00 0.00 0.02 0.02
0.00 0.00 0.01 0.01 0.00 0.00 0.01 0.01 0.00 0.00 0.00 0.00 0.00 0.00 0.00 0.00 0.00 0.00 0.00 0.00 0.00 0.00 0.00 0.00 0.00 0.00 0.00 0.00 0.00 0.00 0.00 0.00 0.00 0.00 0.00 0.00 0.00 0.00 0.00 0.00 0.00 0.00 0.00 0.00 0.00 0.00 0.00 0.00 0.00 0.00 0.00 0.03 0.06 0.06
0.07 0.06 0.04 0.01 0.00 0.00 0.00 0.00 0.00 0.00 0.00 0.00 0.00 0.00 0.00 0.00 0.00 0.00 0.00 0.00 0.00 0.01 0.03 0.01 0.00 0.00 0.00 0.00 0.00 0.00 0.00 0.00 0.00 0.00 0.00 0.00 0.00 0.00 0.00 0.00 0.00 0.00 0.00 0.00 0.00 0.00 0.00 0.00 0.00 0.00 0.02 0.07 0.10 0.08
0.17 0.23 0.13 0.01 0.00 0.00 0.00 0.00 0.00 0.00 0.00 0.00 0.00 0.00 0.00 0.00 0.00 0.00 0.00 0.00 0.01 0.02 0.01 0.00 0.00 0.00 0.00 0.00 0.00 0.00 0.00 0.00 0.00 0.00 0.00 0.00 0.00 0.00 0.00 0.00 0.00 0.00 0.00 0.00 0.00 0.00 0.00 0.00 0.00 0.01 0.04 0.07 0.08 0.08
0.12 0.07 0.02 0.01 0.00 0.00 0.00 0.00 0.00 0.00 0.00 0.00 0.00 0.00 0.00 0.00 0.00 0.00 0.00 0.00 0.01 0.00 0.00 0.00 0.00 0.00 0.00 0.00 0.00 0.00 0.00 0.00 0.00 0.00 0.00 0.00 0.00 0.00 0.00 0.00 0.00 0.00 0.00 0.00 0.00 0.00 0.00 0.00 0.02 0.03 0.04 0.03 0.05 0.05
0.02 0.00 0.00 0.00 0.00 0.00 0.00 0.00 0.00 0.00 0.00 0.00 0.00 0.00 0.00 0.00 0.00 0.00 0.00 0.00 0.00 0.00 0.00 0.00 0.00 0.00 0.00 0.00 0.00 0.00 0.00 0.00 0.00 0.00 0.00 0.00 0.00 0.00 0.00 0.00 0.00 0.01 0.01 0.00 0.00 0.01 0.01 0.01 0.02 0.04 0.04 0.02 0.01 0.01
0.00 0.00 0.00 0.00 0.00 0.00 0.00 0.00 0.00 0.00 0.00 0.00 0.00 0.00 0.00 0.00 0.00 0.00 0.00 0.00 0.00 0.00 0.00 0.00 0.00 0.00 0.00 0.00 0.00 0.00 0.00 0.00 0.00 0.00 0.00 0.00 0.00 0.00 0.00 0.00 0.00 0.00 0.00 0.00 0.00 0.00 0.02 0.03 0.04 0.04 0.04 0.05 0.05 0.04
0.00 0.00 0.00 0.00 0.00 0.00 0.00 0.00 0.00 0.00 0.00 0.00 0.00 0.00 0.00 0.00 0.00 0.00 0.00 0.00 0.00 0.00 0.00 0.00 0.00 0.00 0.00 0.00 0.00 0.00 0.00 0.00 0.00 0.00 0.00 0.00 0.00 0.00 0.00 0.00 0.00 0.00 0.00 0.01 0.01 0.05 0.07 0.08 0.08 0.07 0.06 0.05 0.04 0.03
0.01 0.00 0.00 0.00 0.00 0.00 0.00 0.00 0.00 0.00 0.00 0.00 0.00 0.00 0.00 0.00 0.00 0.00 0.00 0.00 0.00 0.00 0.00 0.00 0.00 0.00 0.00 0.00 0.00 0.00 0.00 0.00 0.00 0.00 0.00 0.00 0.00 0.00 0.01 0.01 0.00 0.00 0.00 0.02 0.07 0.06 0.04 0.02 0.03 0.03 0.02 0.02 0.02 0.04
0.02 0.00 0.01 0.00 0.00 0.00 0.00 0.00 0.00 0.00 0.00 0.00 0.00 0.00 0.00 0.01 0.00 0.00 0.00 0.00 0.00 0.00 0.00 0.00 0.00 0.00 0.00 0.00 0.00 0.00 0.00 0.00 0.00 0.00 0.00 0.01 0.01 0.02 0.03 0.05 0.05 0.03 0.02 0.01 0.03 0.06 0.06 0.04 0.03 0.03 0.04 0.03 0.02 0.05
0.01 0.00 0.00 0.00 0.00 0.00 0.00 0.00 0.00 0.00 0.00 0.00 0.00 0.00 0.00 0.00 0.00 0.00 0.00 0.00 0.00 0.00 0.00 0.00 0.00 0.00 0.00 0.00 0.00 0.00 0.00 0.01 0.01 0.01 0.00 0.00 0.00 0.00 0.01 0.02 0.03 0.03 0.02 0.02 0.04 0.05 0.06 0.06 0.07 0.07 0.06 0.05 0.03 0.03
0.00 0.00 0.00 0.00 0.00 0.01 0.02 0.00 0.00 0.00 0.00 0.00 0.00 0.00 0.00 0.00 0.00 0.00 0.00 0.00 0.00 0.00 0.00 0.00 0.00 0.00 0.00 0.00 0.00 0.00 0.01 0.01 0.03 0.03 0.02 0.01 0.00 0.01 0.01 0.01 0.01 0.02 0.02 0.02 0.04 0.07 0.08 0.08 0.07 0.07 0.06 0.07 0.07 0.09
0.00 0.00 0.02 0.01 0.02 0.03 0.01 0.00 0.00 0.00 0.00 0.01 0.01 0.00 0.00 0.00 0.00 0.00 0.00 0.00 0.00 0.00 0.01 0.01 0.02 0.02 0.02 0.02 0.01 0.01 0.03 0.04 0.05 0.07 0.05 0.02 0.02 0.02 0.02 0.02 0.02 0.02 0.03 0.03 0.03 0.01 0.01 0.01 0.03 0.07 0.10 0.15 0.17 0.17
0.00 0.00 0.00 0.00 0.00 0.00 0.00 0.00 0.00 0.00 0.00 0.00 0.00 0.00 0.00 0.00 0.01 0.01 0.01 0.01 0.01 0.01 0.01 0.02 0.03 0.05 0.05 0.05 0.05 0.06 0.07 0.07 0.06 0.05 0.05 0.04 0.05 0.05 0.04 0.03 0.02 0.01 0.01 0.01 0.01 0.01 0.01 0.01 0.03 0.06 0.08 0.09 0.10 0.10
0.00 0.00 0.01 0.00 0.00 0.00 0.00 0.01 0.00 0.00 0.00 0.00 0.00 0.00 0.00 0.00 0.03 0.07 0.05 0.01 0.02 0.03 0.05 0.06 0.06 0.07 0.09 0.09 0.10 0.09 0.08 0.08 0.07 0.07 0.07 0.06 0.06 0.04 0.02 0.01 0.01 0.01 0.00 0.00 0.00 0.00 0.00 0.01 0.01 0.02 0.02 0.03 0.04 0.04
0.00 0.00 0.01 0.01 0.01 0.00 0.00 0.01 0.00 0.00 0.00 0.00 0.00 0.00 0.00 0.02 0.09 0.11 0.06 0.06 0.09 0.11 0.13 0.14 0.16 0.16 0.16 0.15 0.14 0.11 0.10 0.09 0.07 0.06 0.05 0.04 0.03 0.01 0.00 0.00 0.00 0.00 0.01 0.01 0.01 0.00 0.00 0.00 0.00 0.01 0.02 0.03 0.03 0.03

GFSWCAN_prec_precacc12_024.txt.gz
Total_Precipitation_Accumulation
0.42 0.17 0.02 0.00 0.00 0.00 0.00 0.00 0.00 0.00 0.00 0.00 0.00 0.00 0.00 0.00 0.00 0.00 0.00 0.00 0.00 0.00 0.00 0.00 0.00 0.00 0.00 0.00 0.00 0.00 0.00 0.00 0.00 0.00 0.00 0.00 0.00 0.00 0.00 0.00 0.00 0.00 0.00 0.00 0.01 0.03 0.00 0.00 0.00 0.01 0.01 0.00 0.00 0.00
0.38 0.29 0.12 0.01 0.00 0.00 0.00 0.00 0.00 0.00 0.00 0.00 0.00 0.00 0.00 0.00 0.00 0.00 0.00 0.00 0.00 0.00 0.00 0.00 0.00 0.00 0.00 0.00 0.00 0.00 0.00 0.00 0.00 0.00 0.00 0.00 0.00 0.00 0.00 0.00 0.00 0.00 0.00 0.00 0.02 0.01 0.00 0.00 0.00 0.00 0.00 0.00 0.00 0.01
0.33 0.29 0.21 0.06 0.00 0.00 0.00 0.00 0.00 0.00 0.00 0.00 0.00 0.00 0.00 0.00 0.00 0.00 0.00 0.00 0.00 0.00 0.00 0.00 0.00 0.00 0.00 0.00 0.00 0.00 0.00 0.00 0.00 0.01 0.01 0.01 0.01 0.00 0.00 0.00 0.00 0.02 0.00 0.00 0.01 0.00 0.00 0.00 0.00 0.00 0.00 0.01 0.08 0.14
0.26 0.31 0.22 0.16 0.05 0.01 0.00 0.00 0.00 0.00 0.00 0.00 0.00 0.00 0.00 0.00 0.00 0.00 0.00 0.00 0.00 0.00 0.01 0.00 0.00 0.00 0.00 0.00 0.00 0.00 0.00 0.01 0.02 0.02 0.04 0.04 0.05 0.04 0.02 0.01 0.02 0.03 0.02 0.01 0.01 0.00 0.00 0.00 0.01 0.05 0.14 0.23 0.19 0.12
0.09 0.21 0.26 0.24 0.16 0.08 0.02 0.00 0.00 0.00 0.00 0.00 0.00 0.00 0.00 0.00 0.00 0.00 0.00 0.00 0.00 0.00 0.00 0.00 0.00 0.00 0.00 0.00 0.00 0.00 0.00 0.01 0.01 0.02 0.03 0.02 0.01 0.02 0.05 0.07 0.11 0.05 0.02 0.01 0.01 0.01 0.06 0.10 0.20 0.33 0.29 0.13 0.06 0.04
0.03 0.10 0.22 0.27 0.21 0.17 0.10 0.05 0.02 0.00 0.00 0.00 0.01 0.01 0.01 0.00 0.00 0.00 0.00 0.00 0.00 0.00 0.01 0.01 0.00 0.00 0.00 0.00 0.00 0.00 0.00 0.00 0.00 0.01 0.01 0.01 0.00 0.02 0.08 0.06 0.01 0.00 0.00 0.02 0.02 0.04 0.10 0.26 0.31 0.19 0.12 0.08 0.02 0.00
0.00 0.03 0.11 0.19 0.21 0.22 0.22 0.14 0.08 0.02 0.01 0.01 0.02 0.02 0.02 0.03 0.02 0.01 0.00 0.00 0.00 0.00 0.02 0.02 0.00 0.00 0.00 0.00 0.00 0.00 0.00 0.00 0.00 0.01 0.02 0.01 0.01 0.11 0.20 0.08 0.01 0.00 0.01 0.03 0.02 0.04 0.12 0.17 0.14 0.11 0.03 0.00 0.00 0.00
0.00 0.00 0.02 0.09 0.13 0.13 0.19 0.23 0.15 0.09 0.05 0.04 0.06 0.11 0.19 0.31 0.20 0.09 0.05 0.07 0.04 0.02 0.04 0.05 0.04 0.00 0.00 0.00 0.00 0.00 0.00 0.00 0.00 0.00 0.01 0.00 0.00 0.04 0.09 0.01 0.00 0.00 0.00 0.00 0.01 0.01 0.04 0.02 0.00 0.00 0.00 0.00 0.00 0.00
0.00 0.00 0.00 0.02 0.04 0.05 0.09 0.18 0.24 0.18 0.19 0.23 0.33 0.48 0.54 0.41 0.22 0.17 0.25 0.29 0.38 0.29 0.21 0.11 0.03 0.02 0.03 0.02 0.01 0.00 0.00 0.00 0.00 0.00 0.00 0.00 0.00 0.02 0.01 0.00 0.00 0.00 0.00 0.00 0.00 0.00 0.00 0.00 0.00 0.00 0.00 0.00 0.00 0.00
0.00 0.00 0.00 0.00 0.00 0.01 0.02 0.10 0.25 0.38 0.49 0.64 0.69 0.68 0.68 0.47 0.37 0.24 0.35 0.54 0.75 0.74 0.54 0.23 0.09 0.09 0.04 0.03 0.03 0.05 0.06 0.05 0.03 0.00 0.00 0.00 0.01 0.00 0.00 0.00 0.00 0.00 0.00 0.00 0.00 0.00 0.01 0.02 0.02 0.00 0.00 0.00 0.00 0.00
0.00 0.00 0.00 0.00 0.00 0.00 0.02 0.07 0.25 0.64 0.94 0.87 0.86 0.80 0.55 0.47 0.36 0.38 0.42 0.40 0.41 0.30 0.18 0.11 0.06 0.05 0.04 0.06 0.13 0.16 0.10 0.04 0.05 0.00 0.01 0.03 0.01 0.00 0.00 0.00 0.00 0.00 0.00 0.00 0.00 0.00 0.00 0.00 0.00 0.00 0.00 0.00 0.00 0.00
0.00 0.00 0.00 0.00 0.00 0.02 0.05 0.14 0.28 0.47 0.75 0.73 0.49 0.55 0.62 0.48 0.35 0.38 0.42 0.31 0.13 0.06 0.02 0.01 0.01 0.05 0.11 0.12 0.14 0.22 0.12 0.09 0.05 0.01 0.05 0.05 0.01 0.00 0.00 0.00 0.00 0.00 0.00 0.00 0.00 0.00 0.00 0.00 0.00 0.00 0.00 0.00 0.00 0.00
0.00 0.00 0.00 0.00 0.01 0.04 0.05 0.11 0.11 0.23 0.34 0.46 0.51 0.64 0.57 0.44 0.27 0.17 0.11 0.07 0.03 0.01 0.00 0.00 0.02 0.03 0.03 0.04 0.13 0.12 0.08 0.06 0.03 0.03 0.01 0.00 0.00 0.00 0.00 0.00 0.00 0.00 0.00 0.00 0.00 0.00 0.00 0.00 0.00 0.00 0.00 0.00 0.00 0.00
0.00 0.01 0.00 0.00 0.01 0.02 0.06 0.05 0.09 0.09 0.15 0.26 0.34 0.38 0.26 0.20 0.11 0.04 0.01 0.00 0.00 0.00 0.01 0.01 0.02 0.01 0.01 0.03 0.05 0.04 0.05 0.03 0.04 0.01 0.00 0.00 0.00 0.00 0.00 0.00 0.00 0.00 0.00 0.00 0.00 0.00 0.00 0.00 0.00 0.00 0.00 0.00 0.00 0.00
0.02 0.02 0.00 0.00 0.00 0.01 0.07 0.08 0.08 0.01 0.02 0.04 0.04 0.10 0.08 0.09 0.05 0.03 0.02 0.00 0.00 0.00 0.00 0.02 0.04 0.02 0.01 0.02 0.01 0.01 0.02 0.01 0.00 0.00 0.00 0.00 0.00 0.00 0.00 0.00 0.00 0.00 0.00 0.00 0.00 0.00 0.00 0.00 0.00 0.00 0.00 0.00 0.00 0.00
0.05 0.04 0.01 0.01 0.00 0.00 0.07 0.14 0.04 0.02 0.00 0.00 0.00 0.01 0.02 0.01 0.02 0.01 0.00 0.00 0.00 0.00 0.00 0.00 0.00 0.01 0.02 0.01 0.01 0.00 0.00 0.00 0.00 0.00 0.00 0.00 0.00 0.00 0.00 0.00 0.00 0.00 0.00 0.00 0.00 0.00 0.00 0.00 0.00 0.00 0.00 0.00 0.00 0.00
0.10 0.04 0.02 0.02 0.01 0.00 0.01 0.03 0.01 0.01 0.00 0.00 0.00 0.00 0.00 0.00 0.00 0.00 0.00 0.00 0.00 0.00 0.00 0.00 0.00 0.00 0.00 0.00 0.00 0.00 0.00 0.00 0.00 0.00 0.00 0.00 0.00 0.00 0.00 0.00 0.00 0.00 0.00 0.00 0.00 0.00 0.00 0.00 0.00 0.00 0.00 0.00 0.00 0.00
0.10 0.02 0.01 0.02 0.02 0.01 0.01 0.00 0.00 0.00 0.00 0.00 0.00 0.00 0.00 0.00 0.00 0.00 0.00 0.00 0.00 0.00 0.00 0.00 0.00 0.00 0.00 0.00 0.00 0.00 0.00 0.00 0.00 0.00 0.00 0.00 0.00 0.00 0.00 0.00 0.00 0.00 0.00 0.00 0.00 0.00 0.00 0.00 0.00 0.00 0.00 0.00 0.00 0.00
0.04 0.01 0.01 0.03 0.02 0.01 0.01 0.00 0.00 0.00 0.00 0.00 0.00 0.00 0.00 0.00 0.00 0.00 0.00 0.00 0.00 0.00 0.00 0.00 0.00 0.00 0.00 0.00 0.00 0.00 0.00 0.00 0.00 0.00 0.00 0.00 0.00 0.00 0.00 0.00 0.00 0.00 0.00 0.00 0.00 0.00 0.00 0.00 0.00 0.00 0.00 0.01 0.03 0.02
0.17 0.11 0.07 0.07 0.02 0.01 0.00 0.00 0.00 0.00 0.00 0.00 0.00 0.00 0.00 0.00 0.00 0.00 0.00 0.00 0.00 0.01 0.02 0.01 0.00 0.00 0.00 0.00 0.00 0.00 0.00 0.00 0.00 0.00 0.00 0.00 0.00 0.00 0.00 0.00 0.00 0.00 0.00 0.00 0.00 0.00 0.00 0.00 0.00 0.00 0.01 0.03 0.05 0.04
0.33 0.34 0.18 0.04 0.00 0.00 0.00 0.00 0.00 0.00 0.00 0.00 0.00 0.00 0.00 0.00 0.00 0.00 0.00 0.00 0.01 0.01 0.01 0.00 0.00 0.00 0.00 0.00 0.00 0.00 0.00 0.00 0.00 0.00 0.00 0.00 0.00 0.00 0.00 0.00 0.00 0.00 0.00 0.00 0.00 0.00 0.00 0.00 0.00 0.00 0.02 0.02 0.03 0.04
0.27 0.16 0.08 0.01 0.00 0.00 0.00 0.00 0.00 0.00 0.00 0.00 0.00 0.00 0.00 0.00 0.00 0.00 0.00 0.00 0.00 0.00 0.00 0.00 0.00 0.00 0.00 0.00 0.00 0.00 0.00 0.00 0.00 0.00 0.00 0.00 0.00 0.00 0.00 0.00 0.00 0.00 0.00 0.00 0.00 0.00 0.00 0.00 0.01 0.01 0.02 0.02 0.03 0.05
0.11 0.06 0.02 0.00 0.00 0.00 0.00 0.00 0.00 0.00 0.00 0.00 0.00 0.00 0.00 0.00 0.00 0.00 0.00 0.00 0.00 0.00 0.00 0.00 0.00 0.00 0.00 0.00 0.00 0.00 0.00 0.00 0.00 0.00 0.00 0.00 0.00 0.00 0.00 0.00 0.00 0.00 0.00 0.00 0.00 0.00 0.00 0.00 0.01 0.01 0.01 0.02 0.02 0.01
0.02 0.02 0.02 0.00 0.00 0.00 0.00 0.00 0.00 0.00 0.00 0.00 0.00 0.00 0.00 0.00 0.00 0.00 0.00 0.00 0.00 0.00 0.00 0.00 0.00 0.00 0.00 0.00 0.00 0.00 0.00 0.00 0.00 0.00 0.00 0.00 0.00 0.00 0.00 0.00 0.00 0.00 0.00 0.00 0.00 0.00 0.00 0.01 0.02 0.02 0.03 0.04 0.05 0.05
0.01 0.01 0.00 0.00 0.00 0.00 0.00 0.00 0.00 0.00 0.00 0.00 0.00 0.00 0.00 0.00 0.00 0.00 0.00 0.00 0.00 0.00 0.00 0.00 0.00 0.00 0.00 0.00 0.00 0.00 0.00 0.00 0.00 0.00 0.00 0.00 0.00 0.00 0.00 0.00 0.00 0.00 0.00 0.01 0.01 0.01 0.02 0.04 0.05 0.05 0.05 0.05 0.05 0.03
0.00 0.00 0.00 0.00 0.00 0.00 0.00 0.00 0.00 0.00 0.00 0.00 0.00 0.00 0.00 0.00 0.00 0.00 0.00 0.00 0.00 0.00 0.00 0.00 0.00 0.00 0.00 0.00 0.00 0.00 0.00 0.00 0.00 0.00 0.00 0.00 0.00 0.00 0.01 0.01 0.00 0.00 0.01 0.02 0.04 0.03 0.02 0.02 0.03 0.03 0.03 0.02 0.03 0.04
0.00 0.00 0.00 0.00 0.00 0.00 0.00 0.00 0.00 0.00 0.00 0.00 0.00 0.00 0.00 0.00 0.00 0.00 0.00 0.00 0.00 0.00 0.00 0.00 0.00 0.00 0.00 0.00 0.00 0.00 0.00 0.00 0.00 0.00 0.00 0.01 0.01 0.02 0.04 0.05 0.05 0.03 0.02 0.01 0.02 0.04 0.05 0.04 0.04 0.03 0.03 0.02 0.02 0.05
0.00 0.00 0.00 0.00 0.00 0.00 0.00 0.00 0.00 0.00 0.00 0.00 0.00 0.00 0.00 0.00 0.00 0.00 0.00 0.00 0.00 0.00 0.00 0.00 0.00 0.00 0.00 0.00 0.00 0.00 0.00 0.01 0.01 0.01 0.00 0.00 0.01 0.01 0.01 0.03 0.03 0.02 0.01 0.03 0.04 0.05 0.06 0.06 0.06 0.05 0.05 0.04 0.03 0.03
0.00 0.00 0.00 0.00 0.00 0.01 0.02 0.00 0.00 0.00 0.00 0.00 0.00 0.00 0.00 0.00 0.00 0.00 0.00 0.00 0.00 0.00 0.00 0.00 0.00 0.00 0.00 0.00 0.01 0.02 0.03 0.04 0.05 0.04 0.03 0.02 0.03 0.04 0.03 0.02 0.02 0.02 0.03 0.02 0.04 0.07 0.05 0.04 0.03 0.03 0.03 0.04 0.05 0.08
0.00 0.00 0.01 0.02 0.02 0.03 0.01 0.00 0.00 0.00 0.00 0.00 0.00 0.00 0.00 0.00 0.01 0.00 0.00 0.00 0.00 0.01 0.01 0.01 0.02 0.02 0.02 0.02 0.02 0.03 0.07 0.07 0.08 0.09 0.07 0.05 0.04 0.04 0.03 0.03 0.03 0.03 0.03 0.02 0.02 0.01 0.01 0.01 0.00 0.00 0.02 0.05 0.08 0.11
0.01 0.01 0.00 0.01 0.00 0.00 0.00 0.00 0.00 0.00 0.00 0.00 0.00 0.00 0.00 0.01 0.01 0.01 0.01 0.01 0.01 0.01 0.01 0.02 0.03 0.06 0.06 0.06 0.07 0.07 0.09 0.08 0.08 0.08 0.07 0.07 0.06 0.06 0.05 0.04 0.02 0.02 0.01 0.01 0.01 0.00 0.00 0.00 0.00 0.00 0.01 0.02 0.03 0.04
0.01 0.01 0.01 0.00 0.00 0.00 0.00 0.00 0.00 0.00 0.00 0.00 0.00 0.00 0.00 0.00 0.03 0.05 0.04 0.01 0.01 0.02 0.03 0.05 0.06 0.06 0.09 0.11 0.11 0.11 0.10 0.10 0.09 0.09 0.09 0.08 0.08 0.06 0.03 0.02 0.01 0.00 0.00 0.01 0.00 0.00 0.00 0.00 0.00 0.00 0.01 0.01 0.02 0.02
0.00 0.00 0.00 0.00 0.00 0.00 0.00 0.00 0.00 0.00 0.00 0.00 0.00 0.00 0.01 0.02 0.07 0.08 0.04 0.05 0.08 0.10 0.12 0.14 0.15 0.15 0.16 0.15 0.13 0.12 0.11 0.10 0.08 0.07 0.07 0.06 0.04 0.02 0.01 0.00 0.00 0.00 0.00 0.00 0.00 0.00 0.00 0.00 0.00 0.00 0.01 0.01 0.01 0.01

GFSWCAN_prec_precacc12_027.txt.gz
Total_Precipitation_Accumulation
0.33 0.14 0.02 0.00 0.00 0.00 0.00 0.00 0.00 0.00 0.00 0.00 0.00 0.00 0.00 0.00 0.00 0.00 0.00 0.00 0.00 0.00 0.00 0.00 0.00 0.00 0.00 0.00 0.00 0.00 0.00 0.00 0.00 0.00 0.00 0.00 0.00 0.00 0.00 0.00 0.00 0.00 0.00 0.00 0.01 0.03 0.01 0.00 0.00 0.02 0.02 0.00 0.01 0.01
0.39 0.23 0.10 0.01 0.00 0.00 0.00 0.00 0.00 0.00 0.00 0.00 0.00 0.00 0.00 0.00 0.00 0.00 0.00 0.00 0.00 0.00 0.00 0.00 0.00 0.00 0.00 0.00 0.00 0.00 0.00 0.00 0.00 0.00 0.00 0.00 0.00 0.00 0.00 0.00 0.00 0.00 0.00 0.00 0.02 0.01 0.00 0.00 0.00 0.00 0.00 0.01 0.00 0.01
0.38 0.26 0.16 0.06 0.00 0.00 0.00 0.00 0.00 0.00 0.00 0.00 0.00 0.00 0.00 0.00 0.00 0.00 0.00 0.00 0.00 0.00 0.00 0.00 0.00 0.00 0.00 0.00 0.00 0.00 0.00 0.00 0.00 0.00 0.00 0.01 0.01 0.00 0.00 0.00 0.00 0.00 0.00 0.00 0.01 0.00 0.00 0.00 0.00 0.00 0.00 0.01 0.07 0.13
0.26 0.32 0.20 0.13 0.05 0.00 0.00 0.00 0.00 0.00 0.00 0.00 0.00 0.00 0.00 0.00 0.00 0.00 0.00 0.00 0.00 0.00 0.01 0.00 0.00 0.00 0.00 0.00 0.00 0.00 0.00 0.00 0.00 0.00 0.01 0.02 0.01 0.01 0.01 0.01 0.01 0.01 0.01 0.01 0.02 0.00 0.00 0.00 0.02 0.05 0.11 0.18 0.16 0.11
0.06 0.18 0.24 0.17 0.10 0.03 0.00 0.00 0.00 0.00 0.00 0.00 0.00 0.00 0.00 0.00 0.00 0.00 0.00 0.00 0.00 0.00 0.01 0.00 0.00 0.00 0.00 0.00 0.00 0.00 0.00 0.00 0.00 0.01 0.01 0.01 0.00 0.01 0.03 0.05 0.08 0.02 0.01 0.02 0.02 0.02 0.06 0.12 0.18 0.30 0.26 0.12 0.04 0.01
0.02 0.06 0.17 0.24 0.16 0.10 0.02 0.00 0.00 0.00 0.00 0.00 0.00 0.01 0.01 0.00 0.00 0.00 0.00 0.00 0.00 0.00 0.00 0.01 0.00 0.00 0.00 0.00 0.00 0.00 0.00 0.00 0.00 0.01 0.01 0.01 0.00 0.02 0.08 0.05 0.01 0.00 0.00 0.01 0.02 0.04 0.10 0.24 0.29 0.16 0.12 0.06 0.01 0.00
0.00 0.02 0.08 0.15 0.17 0.19 0.16 0.07 0.03 0.00 0.01 0.01 0.02 0.02 0.02 0.03 0.02 0.01 0.00 0.00 0.00 0.00 0.00 0.01 0.00 0.00 0.00 0.00 0.00 0.00 0.00 0.00 0.01 0.02 0.02 0.01 0.01 0.08 0.18 0.07 0.01 0.00 0.00 0.01 0.01 0.03 0.11 0.12 0.09 0.07 0.02 0.00 0.00 0.00
0.00 0.00 0.02 0.09 0.12 0.12 0.18 0.22 0.13 0.06 0.03 0.03 0.05 0.09 0.13 0.19 0.11 0.06 0.02 0.02 0.01 0.00 0.01 0.02 0.01 0.00 0.00 0.00 0.00 0.00 0.00 0.00 0.00 0.01 0.01 0.00 0.00 0.03 0.07 0.01 0.00 0.00 0.00 0.00 0.00 0.01 0.03 0.01 0.00 0.00 0.00 0.00 0.00 0.00
0.00 0.00 0.00 0.02 0.04 0.05 0.09 0.18 0.24 0.18 0.16 0.20 0.31 0.43 0.43 0.26 0.12 0.08 0.13 0.15 0.22 0.16 0.09 0.07 0.02 0.01 0.02 0.02 0.01 0.00 0.00 0.01 0.00 0.00 0.00 0.00 0.00 0.02 0.00 0.00 0.00 0.00 0.00 0.00 0.00 0.00 0.00 0.00 0.00 0.00 0.00 0.00 0.00 0.00
0.00 0.00 0.00 0.00 0.00 0.01 0.02 0.10 0.26 0.44 0.60 0.68 0.71 0.66 0.62 0.44 0.38 0.23 0.25 0.36 0.49 0.48 0.34 0.15 0.07 0.07 0.03 0.02 0.03 0.04 0.04 0.02 0.01 0.00 0.00 0.02 0.02 0.00 0.00 0.00 0.00 0.00 0.00 0.00 0.00 0.00 0.00 0.00 0.00 0.00 0.00 0.00 0.00 0.00
0.00 0.00 0.00 0.00 0.00 0.00 0.02 0.07 0.25 0.81 1.39 1.38 1.15 0.92 0.58 0.53 0.37 0.41 0.43 0.39 0.39 0.26 0.16 0.10 0.06 0.05 0.03 0.06 0.13 0.13 0.07 0.03 0.04 0.00 0.01 0.02 0.01 0.00 0.00 0.00 0.00 0.00 0.00 0.00 0.00 0.00 0.00 0.00 0.00 0.00 0.00 0.00 0.00 0.00
0.00 0.00 0.00 0.00 0.01 0.02 0.04 0.14 0.32 0.64 1.12 1.08 0.76 0.67 0.71 0.56 0.46 0.53 0.56 0.38 0.15 0.07 0.03 0.02 0.02 0.05 0.11 0.13 0.17 0.25 0.13 0.08 0.04 0.01 0.03 0.03 0.00 0.00 0.00 0.00 0.00 0.00 0.00 0.00 0.00 0.00 0.00 0.00 0.00 0.00 0.00 0.00 0.00 0.00
0.00 0.00 0.00 0.00 0.02 0.04 0.05 0.12 0.13 0.32 0.53 0.75 0.84 0.96 0.82 0.73 0.55 0.37 0.21 0.11 0.05 0.02 0.00 0.01 0.04 0.06 0.08 0.10 0.16 0.16 0.12 0.09 0.03 0.03 0.01 0.00 0.00 0.00 0.00 0.00 0.00 0.00 0.00 0.00 0.00 0.00 0.00 0.00 0.00 0.00 0.00 0.00 0.00 0.00
0.00 0.00 0.00 0.00 0.02 0.04 0.07 0.06 0.11 0.16 0.31 0.63 0.83 0.84 0.58 0.50 0.31 0.14 0.03 0.01 0.01 0.01 0.01 0.01 0.04 0.06 0.06 0.08 0.09 0.08 0.09 0.04 0.05 0.01 0.00 0.00 0.00 0.00 0.00 0.00 0.00 0.00 0.00 0.00 0.00 0.00 0.00 0.00 0.00 0.00 0.00 0.00 0.00 0.00
0.01 0.01 0.00 0.00 0.02 0.03 0.09 0.09 0.10 0.03 0.08 0.16 0.20 0.32 0.29 0.26 0.14 0.10 0.06 0.02 0.02 0.03 0.02 0.03 0.05 0.03 0.04 0.06 0.05 0.04 0.04 0.01 0.00 0.00 0.00 0.00 0.00 0.00 0.00 0.00 0.00 0.00 0.00 0.00 0.00 0.00 0.00 0.00 0.00 0.00 0.00 0.00 0.00 0.00
0.04 0.04 0.00 0.01 0.01 0.03 0.08 0.19 0.10 0.04 0.02 0.03 0.07 0.12 0.14 0.13 0.12 0.05 0.03 0.02 0.02 0.02 0.01 0.02 0.02 0.02 0.04 0.03 0.03 0.02 0.01 0.00 0.00 0.00 0.00 0.00 0.00 0.00 0.00 0.00 0.00 0.00 0.00 0.00 0.00 0.00 0.00 0.00 0.00 0.00 0.00 0.00 0.00 0.00
0.10 0.05 0.00 0.01 0.01 0.01 0.04 0.19 0.10 0.03 0.03 0.00 0.00 0.01 0.03 0.03 0.03 0.03 0.03 0.03 0.02 0.03 0.02 0.02 0.01 0.02 0.02 0.02 0.00 0.00 0.00 0.00 0.00 0.00 0.00 0.00 0.00 0.00 0.00 0.00 0.00 0.00 0.00 0.00 0.00 0.00 0.00 0.00 0.00 0.00 0.00 0.00 0.00 0.00
0.13 0.03 0.01 0.01 0.01 0.00 0.00 0.00 0.00 0.00 0.00 0.00 0.00 0.00 0.00 0.00 0.00 0.00 0.00 0.00 0.00 0.00 0.00 0.00 0.00 0.00 0.00 0.00 0.00 0.00 0.00 0.00 0.00 0.00 0.00 0.00 0.00 0.00 0.00 0.00 0.00 0.00 0.00 0.00 0.00 0.00 0.00 0.00 0.00 0.00 0.00 0.00 0.00 0.00
0.07 0.05 0.02 0.03 0.04 0.01 0.01 0.00 0.00 0.00 0.00 0.00 0.00 0.00 0.00 0.00 0.00 0.00 0.00 0.00 0.00 0.00 0.00 0.00 0.00 0.00 0.00 0.00 0.00 0.00 0.00 0.00 0.00 0.00 0.00 0.00 0.00 0.00 0.00 0.00 0.00 0.00 0.00 0.00 0.00 0.00 0.00 0.00 0.00 0.00 0.00 0.00 0.01 0.01
0.23 0.22 0.10 0.08 0.05 0.03 0.01 0.00 0.00 0.00 0.00 0.00 0.00 0.00 0.00 0.00 0.00 0.00 0.00 0.00 0.00 0.00 0.01 0.00 0.00 0.00 0.00 0.00 0.00 0.00 0.00 0.00 0.00 0.00 0.00 0.00 0.00 0.00 0.00 0.00 0.00 0.00 0.00 0.00 0.00 0.00 0.00 0.00 0.00 0.00 0.00 0.01 0.03 0.03
0.47 0.43 0.26 0.09 0.03 0.01 0.00 0.00 0.00 0.00 0.00 0.00 0.00 0.00 0.00 0.00 0.00 0.00 0.00 0.00 0.01 0.01 0.00 0.00 0.00 0.00 0.00 0.00 0.00 0.00 0.00 0.00 0.00 0.00 0.00 0.00 0.00 0.00 0.00 0.00 0.00 0.00 0.00 0.00 0.00 0.00 0.00 0.00 0.00 0.00 0.00 0.01 0.02 0.03
0.39 0.25 0.12 0.02 0.03 0.00 0.00 0.00 0.00 0.00 0.00 0.00 0.00 0.00 0.00 0.00 0.00 0.00 0.00 0.00 0.00 0.00 0.00 0.00 0.00 0.00 0.00 0.00 0.00 0.00 0.00 0.00 0.00 0.00 0.00 0.00 0.00 0.00 0.00 0.00 0.00 0.00 0.01 0.00 0.00 0.00 0.00 0.00 0.00 0.00 0.01 0.01 0.02 0.02
0.22 0.15 0.08 0.00 0.00 0.00 0.00 0.00 0.00 0.00 0.00 0.00 0.00 0.00 0.00 0.00 0.00 0.00 0.00 0.00 0.00 0.00 0.00 0.00 0.00 0.00 0.00 0.00 0.00 0.00 0.00 0.00 0.00 0.00 0.00 0.00 0.00 0.00 0.00 0.00 0.01 0.01 0.00 0.00 0.00 0.00 0.01 0.00 0.00 0.01 0.01 0.01 0.02 0.02
0.10 0.11 0.09 0.02 0.00 0.00 0.00 0.00 0.00 0.00 0.00 0.00 0.00 0.00 0.00 0.00 0.00 0.00 0.00 0.00 0.00 0.00 0.00 0.00 0.00 0.00 0.00 0.00 0.00 0.00 0.00 0.00 0.00 0.00 0.00 0.00 0.00 0.00 0.00 0.00 0.01 0.00 0.01 0.01 0.00 0.01 0.01 0.01 0.01 0.02 0.02 0.02 0.03 0.05
0.12 0.10 0.04 0.01 0.00 0.00 0.00 0.00 0.00 0.00 0.00 0.00 0.00 0.00 0.00 0.00 0.00 0.00 0.00 0.00 0.00 0.00 0.00 0.00 0.00 0.00 0.00 0.00 0.00 0.00 0.00 0.00 0.00 0.00 0.01 0.02 0.02 0.01 0.01 0.01 0.01 0.01 0.01 0.01 0.01 0.02 0.01 0.02 0.01 0.02 0.03 0.04 0.04 0.03
0.03 0.01 0.00 0.00 0.00 0.00 0.00 0.00 0.00 0.00 0.00 0.00 0.00 0.00 0.00 0.00 0.00 0.00 0.00 0.00 0.00 0.00 0.00 0.00 0.00 0.00 0.00 0.00 0.00 0.00 0.00 0.00 0.00 0.00 0.01 0.02 0.02 0.03 0.04 0.02 0.02 0.01 0.01 0.01 0.02 0.02 0.01 0.01 0.01 0.02 0.02 0.02 0.03 0.03
0.00 0.00 0.00 0.00 0.00 0.00 0.00 0.00 0.00 0.00 0.00 0.00 0.00 0.00 0.00 0.00 0.00 0.00 0.00 0.00 0.00 0.00 0.00 0.00 0.00 0.00 0.00 0.00 0.00 0.00 0.00 0.00 0.00 0.00 0.01 0.01 0.02 0.03 0.06 0.07 0.06 0.05 0.03 0.02 0.03 0.04 0.04 0.03 0.03 0.02 0.02 0.02 0.01 0.03
0.00 0.00 0.00 0.01 0.00 0.00 0.00 0.00 0.00 0.00 0.00 0.00 0.00 0.00 0.00 0.00 0.00 0.00 0.00 0.00 0.00 0.00 0.00 0.00 0.00 0.00 0.00 0.00 0.00 0.01 0.00 0.00 0.01 0.01 0.01 0.01 0.04 0.07 0.08 0.09 0.08 0.05 0.03 0.05 0.06 0.05 0.05 0.04 0.03 0.03 0.02 0.02 0.01 0.02
0.00 0.00 0.00 0.00 0.00 0.00 0.00 0.00 0.00 0.00 0.00 0.00 0.00 0.00 0.00 0.00 0.01 0.01 0.00 0.00 0.00 0.00 0.00 0.00 0.00 0.00 0.00 0.00 0.01 0.03 0.03 0.04 0.05 0.05 0.05 0.08 0.15 0.12 0.07 0.06 0.06 0.06 0.06 0.05 0.06 0.08 0.05 0.03 0.02 0.01 0.01 0.01 0.01 0.02
0.00 0.00 0.00 0.00 0.00 0.00 0.00 0.00 0.00 0.00 0.00 0.00 0.00 0.00 0.00 0.01 0.02 0.00 0.00 0.00 0.00 0.01 0.01 0.01 0.02 0.02 0.02 0.02 0.02 0.04 0.07 0.08 0.10 0.10 0.08 0.07 0.07 0.06 0.06 0.06 0.06 0.06 0.06 0.06 0.05 0.03 0.02 0.01 0.01 0.00 0.00 0.00 0.00 0.01
0.01 0.01 0.00 0.01 0.00 0.00 0.00 0.00 0.00 0.00 0.00 0.00 0.00 0.00 0.01 0.01 0.02 0.01 0.01 0.01 0.02 0.01 0.01 0.01 0.02 0.05 0.06 0.06 0.07 0.07 0.08 0.08 0.08 0.08 0.08 0.08 0.07 0.07 0.06 0.05 0.04 0.04 0.04 0.04 0.03 0.02 0.01 0.00 0.00 0.00 0.00 0.01 0.01 0.01
0.01 0.01 0.01 0.00 0.00 0.00 0.00 0.00 0.00 0.00 0.00 0.00 0.00 0.00 0.01 0.01 0.03 0.05 0.03 0.01 0.01 0.02 0.03 0.04 0.05 0.05 0.09 0.11 0.11 0.11 0.10 0.09 0.07 0.07 0.08 0.08 0.08 0.07 0.04 0.03 0.03 0.03 0.03 0.03 0.02 0.01 0.00 0.00 0.00 0.00 0.01 0.01 0.01 0.01
0.01 0.01 0.01 0.01 0.00 0.00 0.00 0.00 0.00 0.00 0.00 0.00 0.00 0.01 0.01 0.02 0.05 0.05 0.03 0.04 0.07 0.08 0.09 0.11 0.12 0.13 0.14 0.14 0.12 0.10 0.09 0.08 0.07 0.06 0.06 0.06 0.05 0.03 0.02 0.02 0.02 0.02 0.02 0.02 0.02 0.01 0.00 0.00 0.00 0.00 0.00 0.01 0.01 0.01

GFSWCAN_prec_precacc12_030.txt.gz
Total_Precipitation_Accumulation
0.30 0.10 0.02 0.00 0.00 0.00 0.00 0.00 0.00 0.00 0.00 0.00 0.00 0.00 0.00 0.00 0.00 0.00 0.00 0.00 0.00 0.00 0.00 0.00 0.00 0.00 0.00 0.00 0.00 0.00 0.00 0.00 0.00 0.00 0.01 0.00 0.00 0.00 0.00 0.00 0.00 0.00 0.00 0.00 0.01 0.02 0.00 0.00 0.00 0.02 0.02 0.01 0.01 0.01
0.39 0.20 0.05 0.01 0.00 0.00 0.00 0.00 0.00 0.00 0.00 0.00 0.00 0.00 0.00 0.00 0.00 0.00 0.00 0.00 0.00 0.00 0.00 0.00 0.00 0.00 0.00 0.00 0.00 0.00 0.00 0.00 0.00 0.00 0.00 0.00 0.00 0.00 0.00 0.00 0.00 0.00 0.00 0.00 0.02 0.01 0.00 0.00 0.01 0.01 0.01 0.01 0.00 0.01
0.46 0.26 0.10 0.03 0.00 0.00 0.00 0.00 0.00 0.00 0.00 0.00 0.00 0.00 0.00 0.00 0.00 0.00 0.00 0.00 0.00 0.00 0.00 0.00 0.00 0.00 0.00 0.00 0.00 0.00 0.00 0.00 0.00 0.00 0.00 0.00 0.01 0.00 0.00 0.00 0.00 0.00 0.00 0.00 0.01 0.00 0.00 0.00 0.00 0.00 0.00 0.01 0.06 0.06
0.38 0.34 0.16 0.07 0.03 0.00 0.00 0.00 0.00 0.00 0.00 0.00 0.00 0.00 0.00 0.00 0.00 0.00 0.00 0.00 0.00 0.00 0.02 0.00 0.00 0.00 0.00 0.00 0.00 0.00 0.00 0.00 0.00 0.00 0.01 0.02 0.01 0.00 0.00 0.00 0.00 0.00 0.01 0.01 0.01 0.00 0.00 0.00 0.01 0.05 0.11 0.13 0.06 0.04
0.24 0.27 0.22 0.11 0.05 0.02 0.00 0.00 0.00 0.00 0.00 0.00 0.00 0.00 0.00 0.00 0.00 0.00 0.00 0.00 0.00 0.00 0.01 0.00 0.00 0.00 0.00 0.00 0.00 0.00 0.00 0.00 0.00 0.00 0.01 0.01 0.00 0.00 0.02 0.05 0.06 0.02 0.01 0.01 0.02 0.02 0.04 0.11 0.17 0.21 0.17 0.04 0.00 0.00
0.13 0.16 0.16 0.16 0.07 0.03 0.01 0.00 0.00 0.00 0.00 0.00 0.00 0.00 0.00 0.00 0.00 0.00 0.00 0.00 0.00 0.00 0.00 0.01 0.00 0.00 0.00 0.00 0.00 0.00 0.00 0.00 0.00 0.01 0.01 0.00 0.00 0.02 0.07 0.05 0.01 0.00 0.00 0.01 0.02 0.03 0.06 0.18 0.22 0.09 0.01 0.00 0.00 0.00
0.02 0.07 0.08 0.12 0.09 0.04 0.02 0.01 0.00 0.00 0.00 0.01 0.02 0.01 0.01 0.01 0.01 0.01 0.00 0.00 0.00 0.00 0.01 0.01 0.00 0.00 0.00 0.00 0.00 0.00 0.00 0.00 0.01 0.02 0.02 0.01 0.01 0.07 0.16 0.06 0.01 0.00 0.00 0.00 0.00 0.02 0.10 0.11 0.04 0.00 0.00 0.00 0.00 0.00
0.00 0.00 0.01 0.04 0.09 0.07 0.08 0.07 0.03 0.00 0.01 0.02 0.03 0.06 0.10 0.10 0.04 0.03 0.01 0.00 0.00 0.00 0.01 0.01 0.01 0.00 0.00 0.00 0.00 0.00 0.00 0.00 0.01 0.02 0.01 0.00 0.01 0.03 0.06 0.01 0.00 0.00 0.00 0.00 0.00 0.01 0.03 0.01 0.00 0.00 0.00 0.00 0.00 0.00
0.00 0.00 0.00 0.01 0.03 0.07 0.09 0.16 0.17 0.09 0.03 0.07 0.15 0.27 0.21 0.11 0.05 0.05 0.05 0.09 0.11 0.08 0.05 0.04 0.01 0.00 0.00 0.00 0.00 0.00 0.00 0.01 0.00 0.01 0.01 0.00 0.00 0.01 0.00 0.00 0.00 0.00 0.00 0.00 0.00 0.00 0.00 0.00 0.00 0.00 0.00 0.00 0.00 0.00
0.00 0.00 0.00 0.00 0.00 0.00 0.03 0.09 0.24 0.38 0.43 0.41 0.45 0.42 0.38 0.24 0.27 0.12 0.12 0.21 0.26 0.22 0.17 0.08 0.02 0.02 0.01 0.01 0.01 0.02 0.02 0.01 0.01 0.00 0.00 0.01 0.02 0.00 0.00 0.00 0.00 0.00 0.00 0.00 0.00 0.00 0.00 0.00 0.00 0.00 0.00 0.00 0.00 0.00
0.00 0.00 0.00 0.00 0.00 0.00 0.01 0.06 0.24 0.81 1.54 1.51 1.07 0.73 0.42 0.44 0.24 0.25 0.34 0.30 0.29 0.17 0.11 0.07 0.04 0.03 0.02 0.05 0.11 0.10 0.05 0.02 0.02 0.01 0.01 0.02 0.01 0.00 0.00 0.00 0.00 0.00 0.00 0.00 0.00 0.00 0.00 0.00 0.00 0.00 0.00 0.00 0.00 0.00
0.00 0.00 0.00 0.00 0.00 0.01 0.02 0.11 0.30 0.66 1.25 1.26 0.83 0.63 0.66 0.57 0.51 0.59 0.64 0.41 0.15 0.06 0.03 0.02 0.02 0.04 0.10 0.12 0.16 0.19 0.12 0.08 0.04 0.01 0.03 0.02 0.00 0.00 0.00 0.00 0.00 0.00 0.00 0.00 0.00 0.00 0.00 0.00 0.00 0.00 0.00 0.00 0.00 0.00
0.00 0.00 0.00 0.00 0.02 0.04 0.05 0.11 0.13 0.37 0.64 0.94 1.07 1.20 1.04 1.06 0.85 0.57 0.29 0.12 0.05 0.02 0.00 0.01 0.04 0.06 0.08 0.10 0.17 0.19 0.18 0.13 0.03 0.03 0.01 0.00 0.00 0.00 0.00 0.00 0.00 0.00 0.00 0.00 0.00 0.00 0.00 0.00 0.00 0.00 0.00 0.00 0.00 0.00
0.00 0.00 0.00 0.00 0.02 0.04 0.07 0.05 0.11 0.18 0.40 0.87 1.21 1.26 0.90 0.81 0.54 0.28 0.06 0.01 0.01 0.01 0.01 0.01 0.04 0.07 0.10 0.14 0.18 0.18 0.17 0.08 0.08 0.03 0.01 0.00 0.00 0.00 0.00 0.00 0.00 0.00 0.00 0.00 0.00 0.00 0.00 0.00 0.00 0.00 0.00 0.00 0.00 0.00
0.01 0.01 0.00 0.00 0.02 0.04 0.10 0.09 0.11 0.03 0.11 0.26 0.33 0.49 0.47 0.39 0.22 0.14 0.09 0.04 0.04 0.06 0.05 0.06 0.09 0.08 0.10 0.14 0.13 0.11 0.10 0.07 0.03 0.03 0.02 0.00 0.00 0.00 0.00 0.00 0.00 0.00 0.00 0.00 0.00 0.00 0.00 0.00 0.00 0.00 0.00 0.00 0.00 0.00
0.03 0.04 0.00 0.01 0.01 0.03 0.08 0.19 0.11 0.04 0.02 0.06 0.14 0.22 0.23 0.21 0.20 0.13 0.09 0.08 0.09 0.11 0.10 0.09 0.09 0.09 0.12 0.09 0.07 0.08 0.06 0.05 0.06 0.01 0.00 0.00 0.00 0.00 0.00 0.00 0.00 0.00 0.00 0.00 0.00 0.00 0.00 0.00 0.00 0.00 0.00 0.00 0.00 0.00
0.10 0.06 0.00 0.01 0.02 0.01 0.04 0.21 0.13 0.04 0.03 0.00 0.02 0.05 0.07 0.07 0.08 0.09 0.10 0.10 0.08 0.10 0.09 0.06 0.05 0.08 0.07 0.06 0.03 0.02 0.03 0.02 0.00 0.00 0.00 0.00 0.00 0.00 0.00 0.00 0.00 0.00 0.00 0.00 0.00 0.00 0.00 0.00 0.00 0.00 0.00 0.00 0.00 0.00
0.14 0.03 0.00 0.01 0.01 0.00 0.00 0.01 0.00 0.00 0.00 0.00 0.00 0.01 0.00 0.00 0.00 0.00 0.00 0.00 0.01 0.01 0.00 0.01 0.01 0.01 0.01 0.01 0.01 0.00 0.00 0.00 0.00 0.00 0.00 0.00 0.00 0.00 0.00 0.00 0.00 0.00 0.00 0.00 0.00 0.00 0.00 0.00 0.00 0.00 0.00 0.00 0.00 0.00
0.08 0.06 0.01 0.03 0.04 0.01 0.01 0.00 0.00 0.00 0.00 0.00 0.00 0.00 0.00 0.00 0.00 0.00 0.00 0.00 0.00 0.00 0.00 0.00 0.00 0.00 0.00 0.00 0.00 0.00 0.00 0.00 0.00 0.00 0.00 0.00 0.00 0.00 0.00 0.00 0.00 0.00 0.00 0.00 0.00 0.00 0.00 0.00 0.00 0.00 0.00 0.00 0.00 0.00
0.23 0.25 0.13 0.08 0.06 0.09 0.01 0.00 0.00 0.00 0.00 0.00 0.00 0.00 0.00 0.00 0.00 0.00 0.00 0.00 0.00 0.00 0.00 0.00 0.00 0.00 0.00 0.00 0.00 0.00 0.00 0.00 0.00 0.00 0.00 0.00 0.00 0.00 0.00 0.00 0.00 0.00 0.00 0.00 0.00 0.00 0.00 0.01 0.01 0.01 0.01 0.00 0.01 0.02
0.46 0.48 0.34 0.10 0.04 0.07 0.02 0.00 0.00 0.00 0.00 0.00 0.00 0.00 0.00 0.00 0.00 0.00 0.00 0.00 0.01 0.00 0.00 0.00 0.00 0.00 0.00 0.00 0.00 0.00 0.00 0.00 0.00 0.00 0.00 0.00 0.00 0.00 0.00 0.00 0.00 0.00 0.00 0.00 0.01 0.01 0.02 0.02 0.02 0.01 0.00 0.01 0.02 0.02
0.41 0.31 0.22 0.05 0.06 0.01 0.00 0.00 0.00 0.00 0.00 0.00 0.00 0.00 0.00 0.00 0.00 0.00 0.00 0.00 0.00 0.00 0.00 0.00 0.00 0.00 0.00 0.00 0.00 0.00 0.00 0.00 0.00 0.00 0.00 0.00 0.00 0.00 0.00 0.00 0.00 0.01 0.02 0.03 0.02 0.03 0.02 0.02 0.01 0.00 0.01 0.01 0.02 0.02
0.35 0.28 0.16 0.06 0.02 0.03 0.01 0.00 0.00 0.00 0.00 0.00 0.00 0.00 0.00 0.00 0.00 0.00 0.00 0.00 0.00 0.00 0.00 0.00 0.00 0.00 0.00 0.00 0.00 0.00 0.00 0.00 0.00 0.00 0.00 0.00 0.00 0.00 0.00 0.01 0.03 0.04 0.03 0.02 0.03 0.02 0.01 0.00 0.00 0.01 0.01 0.01 0.02 0.02
0.22 0.25 0.19 0.06 0.01 0.00 0.00 0.00 0.00 0.00 0.00 0.00 0.00 0.00 0.00 0.00 0.00 0.00 0.00 0.00 0.00 0.00 0.00 0.00 0.00 0.00 0.00 0.00 0.00 0.00 0.00 0.00 0.00 0.00 0.00 0.00 0.00 0.01 0.02 0.03 0.03 0.03 0.04 0.03 0.02 0.01 0.01 0.01 0.01 0.02 0.02 0.02 0.03 0.04
0.28 0.22 0.13 0.02 0.00 0.00 0.00 0.00 0.00 0.00 0.00 0.00 0.00 0.00 0.00 0.00 0.00 0.00 0.00 0.00 0.00 0.00 0.00 0.00 0.00 0.00 0.00 0.00 0.00 0.00 0.00 0.00 0.00 0.00 0.01 0.03 0.03 0.03 0.02 0.03 0.04 0.04 0.04 0.04 0.04 0.03 0.02 0.02 0.01 0.02 0.02 0.03 0.04 0.03
0.13 0.05 0.02 0.00 0.00 0.00 0.00 0.00 0.00 0.00 0.00 0.00 0.00 0.00 0.00 0.00 0.00 0.00 0.00 0.01 0.00 0.00 0.00 0.00 0.00 0.00 0.00 0.00 0.00 0.00 0.00 0.00 0.00 0.00 0.01 0.02 0.03 0.04 0.06 0.06 0.05 0.04 0.05 0.05 0.06 0.06 0.03 0.01 0.02 0.02 0.02 0.03 0.03 0.03
0.01 0.00 0.00 0.00 0.00 0.00 0.00 0.00 0.00 0.00 0.00 0.00 0.00 0.00 0.00 0.00 0.00 0.00 0.00 0.00 0.00 0.00 0.00 0.00 0.00 0.00 0.00 0.00 0.00 0.00 0.00 0.00 0.00 0.01 0.00 0.00 0.02 0.05 0.10 0.12 0.12 0.11 0.08 0.08 0.10 0.10 0.08 0.05 0.03 0.03 0.04 0.03 0.03 0.03
0.00 0.00 0.00 0.00 0.00 0.00 0.00 0.00 0.00 0.00 0.00 0.00 0.00 0.00 0.00 0.00 0.00 0.00 0.00 0.00 0.00 0.00 0.00 0.00 0.00 0.00 0.00 0.00 0.00 0.01 0.01 0.00 0.00 0.00 0.01 0.02 0.06 0.08 0.08 0.10 0.11 0.09 0.08 0.10 0.11 0.08 0.07 0.05 0.05 0.05 0.05 0.04 0.03 0.02
0.01 0.00 0.00 0.00 0.00 0.00 0.00 0.00 0.00 0.00 0.00 0.00 0.00 0.00 0.00 0.00 0.01 0.01 0.01 0.00 0.00 0.00 0.00 0.00 0.00 0.00 0.00 0.00 0.01 0.03 0.03 0.03 0.04 0.04 0.05 0.08 0.15 0.12 0.07 0.07 0.07 0.07 0.07 0.06 0.08 0.11 0.08 0.05 0.05 0.04 0.03 0.02 0.02 0.02
0.00 0.00 0.00 0.00 0.00 0.00 0.00 0.00 0.00 0.00 0.00 0.00 0.00 0.00 0.01 0.01 0.02 0.01 0.01 0.01 0.01 0.01 0.01 0.02 0.02 0.02 0.02 0.02 0.02 0.04 0.08 0.07 0.09 0.10 0.09 0.07 0.07 0.06 0.05 0.05 0.06 0.07 0.07 0.07 0.07 0.06 0.05 0.04 0.04 0.04 0.02 0.01 0.01 0.02
0.01 0.01 0.01 0.01 0.00 0.00 0.00 0.00 0.00 0.00 0.00 0.00 0.00 0.01 0.02 0.02 0.03 0.01 0.01 0.01 0.01 0.01 0.01 0.01 0.02 0.04 0.05 0.05 0.06 0.06 0.07 0.06 0.07 0.07 0.08 0.07 0.06 0.05 0.05 0.04 0.04 0.04 0.04 0.05 0.05 0.05 0.04 0.03 0.05 0.03 0.02 0.01 0.01 0.01
0.01 0.01 0.01 0.00 0.00 0.00 0.00 0.00 0.00 0.00 0.00 0.00 0.00 0.00 0.01 0.01 0.02 0.03 0.02 0.01 0.01 0.01 0.02 0.04 0.04 0.04 0.07 0.08 0.09 0.09 0.09 0.07 0.06 0.07 0.07 0.06 0.06 0.05 0.04 0.03 0.04 0.04 0.04 0.04 0.05 0.05 0.04 0.04 0.03 0.02 0.02 0.01 0.01 0.01
0.01 0.01 0.01 0.01 0.00 0.00 0.00 0.00 0.00 0.00 0.00 0.00 0.01 0.01 0.01 0.02 0.02 0.02 0.01 0.02 0.04 0.05 0.05 0.06 0.07 0.08 0.10 0.09 0.08 0.08 0.07 0.06 0.06 0.06 0.06 0.05 0.04 0.03 0.03 0.03 0.03 0.03 0.04 0.05 0.05 0.05 0.03 0.03 0.03 0.02 0.01 0.01 0.00 0.00

GFSWCAN_prec_precacc12_033.txt.gz
Total_Precipitation_Accumulation
0.25 0.08 0.01 0.00 0.00 0.00 0.00 0.00 0.00 0.00 0.00 0.00 0.00 0.00 0.00 0.00 0.00 0.00 0.00 0.00 0.00 0.00 0.00 0.00 0.00 0.00 0.00 0.01 0.00 0.00 0.00 0.00 0.00 0.00 0.01 0.00 0.00 0.00 0.00 0.00 0.00 0.00 0.00 0.00 0.01 0.01 0.00 0.00 0.00 0.02 0.02 0.01 0.01 0.01
0.36 0.18 0.05 0.00 0.00 0.00 0.00 0.00 0.00 0.00 0.00 0.00 0.00 0.00 0.00 0.00 0.00 0.00 0.00 0.00 0.00 0.00 0.00 0.00 0.00 0.00 0.00 0.00 0.00 0.00 0.00 0.00 0.00 0.00 0.00 0.00 0.00 0.00 0.00 0.00 0.00 0.00 0.00 0.00 0.01 0.00 0.00 0.00 0.01 0.01 0.01 0.01 0.00 0.01
0.47 0.25 0.09 0.02 0.00 0.00 0.00 0.00 0.00 0.00 0.00 0.00 0.00 0.00 0.00 0.00 0.00 0.00 0.00 0.00 0.00 0.00 0.00 0.00 0.00 0.00 0.00 0.00 0.00 0.00 0.00 0.00 0.00 0.00 0.00 0.00 0.01 0.00 0.00 0.00 0.00 0.00 0.00 0.00 0.00 0.00 0.00 0.00 0.00 0.00 0.00 0.01 0.02 0.01
0.52 0.38 0.16 0.03 0.01 0.00 0.00 0.00 0.00 0.00 0.00 0.00 0.00 0.00 0.00 0.00 0.00 0.00 0.00 0.00 0.00 0.00 0.02 0.00 0.00 0.00 0.00 0.00 0.00 0.00 0.00 0.00 0.00 0.00 0.00 0.01 0.01 0.00 0.00 0.00 0.00 0.00 0.00 0.00 0.01 0.00 0.00 0.00 0.01 0.03 0.04 0.04 0.02 0.00
0.50 0.45 0.26 0.09 0.02 0.00 0.00 0.00 0.00 0.00 0.00 0.00 0.00 0.00 0.00 0.00 0.00 0.00 0.00 0.00 0.00 0.00 0.01 0.00 0.00 0.00 0.00 0.00 0.00 0.00 0.00 0.00 0.00 0.00 0.01 0.01 0.00 0.00 0.00 0.00 0.00 0.00 0.00 0.01 0.01 0.01 0.03 0.10 0.12 0.09 0.05 0.01 0.00 0.00
0.37 0.42 0.29 0.17 0.05 0.02 0.00 0.00 0.00 0.00 0.00 0.00 0.00 0.00 0.00 0.00 0.00 0.00 0.00 0.00 0.00 0.00 0.00 0.01 0.00 0.00 0.00 0.00 0.00 0.00 0.00 0.00 0.00 0.01 0.00 0.00 0.00 0.01 0.01 0.01 0.00 0.00 0.00 0.00 0.01 0.02 0.03 0.08 0.06 0.02 0.01 0.00 0.00 0.00
0.21 0.29 0.23 0.18 0.11 0.03 0.00 0.00 0.00 0.00 0.00 0.00 0.00 0.00 0.00 0.00 0.00 0.01 0.00 0.00 0.00 0.00 0.01 0.01 0.00 0.00 0.00 0.00 0.00 0.00 0.00 0.00 0.01 0.02 0.01 0.00 0.00 0.02 0.05 0.03 0.01 0.00 0.00 0.00 0.00 0.01 0.05 0.04 0.01 0.00 0.00 0.00 0.00 0.00
0.06 0.13 0.14 0.10 0.12 0.06 0.01 0.00 0.00 0.00 0.00 0.00 0.00 0.02 0.04 0.03 0.01 0.02 0.00 0.00 0.00 0.00 0.01 0.01 0.01 0.00 0.00 0.00 0.00 0.00 0.00 0.00 0.01 0.02 0.00 0.00 0.01 0.02 0.03 0.00 0.00 0.00 0.00 0.00 0.00 0.01 0.01 0.00 0.00 0.00 0.00 0.00 0.00 0.00
0.00 0.01 0.04 0.04 0.04 0.07 0.04 0.02 0.05 0.04 0.01 0.02 0.09 0.15 0.10 0.05 0.02 0.03 0.01 0.00 0.01 0.02 0.03 0.02 0.00 0.00 0.00 0.00 0.00 0.00 0.00 0.01 0.00 0.01 0.00 0.00 0.00 0.00 0.00 0.00 0.00 0.00 0.00 0.00 0.00 0.00 0.00 0.00 0.00 0.00 0.00 0.00 0.00 0.00
0.00 0.00 0.00 0.00 0.00 0.01 0.03 0.04 0.10 0.20 0.25 0.19 0.21 0.19 0.14 0.09 0.15 0.06 0.05 0.09 0.09 0.06 0.06 0.04 0.00 0.00 0.00 0.00 0.00 0.00 0.01 0.01 0.00 0.00 0.00 0.01 0.02 0.00 0.00 0.00 0.00 0.00 0.00 0.00 0.00 0.00 0.00 0.00 0.00 0.00 0.00 0.00 0.00 0.00
0.00 0.00 0.00 0.00 0.00 0.00 0.00 0.03 0.15 0.67 1.35 1.23 0.72 0.41 0.21 0.25 0.09 0.13 0.20 0.19 0.16 0.07 0.04 0.03 0.01 0.01 0.00 0.00 0.03 0.06 0.03 0.02 0.02 0.01 0.01 0.01 0.01 0.00 0.00 0.00 0.00 0.00 0.00 0.00 0.00 0.00 0.00 0.00 0.00 0.00 0.00 0.00 0.00 0.00
0.00 0.00 0.00 0.00 0.00 0.00 0.01 0.07 0.24 0.64 1.20 1.11 0.67 0.39 0.37 0.34 0.36 0.46 0.50 0.32 0.11 0.03 0.01 0.01 0.02 0.02 0.05 0.08 0.12 0.15 0.08 0.05 0.03 0.01 0.02 0.01 0.00 0.00 0.00 0.00 0.00 0.00 0.00 0.00 0.00 0.00 0.00 0.00 0.00 0.00 0.00 0.00 0.00 0.00
0.00 0.00 0.00 0.00 0.01 0.01 0.02 0.08 0.10 0.34 0.67 1.01 1.12 1.16 1.01 1.17 0.96 0.66 0.28 0.11 0.05 0.01 0.00 0.00 0.03 0.05 0.08 0.10 0.15 0.16 0.17 0.13 0.03 0.04 0.02 0.00 0.00 0.00 0.00 0.00 0.00 0.00 0.00 0.00 0.00 0.00 0.00 0.00 0.00 0.00 0.00 0.00 0.00 0.00
0.00 0.00 0.00 0.00 0.02 0.03 0.05 0.03 0.10 0.17 0.41 1.00 1.39 1.50 1.13 1.01 0.67 0.35 0.09 0.02 0.01 0.01 0.01 0.01 0.04 0.07 0.11 0.14 0.21 0.24 0.25 0.13 0.11 0.05 0.02 0.02 0.00 0.00 0.00 0.00 0.00 0.00 0.00 0.00 0.00 0.00 0.00 0.00 0.00 0.00 0.00 0.00 0.00 0.00
0.01 0.01 0.00 0.00 0.02 0.04 0.09 0.09 0.10 0.03 0.12 0.31 0.42 0.61 0.60 0.47 0.27 0.16 0.10 0.05 0.05 0.06 0.07 0.09 0.13 0.13 0.15 0.22 0.24 0.19 0.17 0.13 0.09 0.13 0.14 0.06 0.00 0.00 0.00 0.00 0.00 0.00 0.00 0.00 0.00 0.00 0.00 0.00 0.00 0.00 0.00 0.00 0.00 0.00
0.02 0.03 0.00 0.01 0.01 0.03 0.08 0.18 0.11 0.04 0.02 0.07 0.16 0.25 0.27 0.25 0.26 0.19 0.15 0.14 0.16 0.19 0.19 0.18 0.18 0.19 0.20 0.16 0.12 0.14 0.14 0.15 0.22 0.09 0.02 0.00 0.00 0.00 0.00 0.00 0.00 0.00 0.00 0.00 0.00 0.00 0.00 0.00 0.00 0.00 0.00 0.00 0.00 0.00
0.09 0.06 0.00 0.00 0.02 0.01 0.04 0.21 0.13 0.04 0.03 0.00 0.02 0.05 0.08 0.09 0.11 0.12 0.14 0.15 0.14 0.15 0.13 0.10 0.10 0.14 0.13 0.11 0.09 0.08 0.12 0.09 0.02 0.00 0.00 0.00 0.00 0.00 0.00 0.00 0.00 0.00 0.00 0.00 0.00 0.00 0.00 0.00 0.00 0.00 0.00 0.00 0.00 0.00
0.14 0.03 0.00 0.00 0.01 0.00 0.00 0.01 0.00 0.00 0.00 0.00 0.00 0.01 0.00 0.00 0.01 0.01 0.00 0.01 0.01 0.02 0.01 0.02 0.02 0.02 0.03 0.03 0.05 0.02 0.00 0.00 0.00 0.00 0.00 0.00 0.00 0.00 0.00 0.00 0.00 0.00 0.00 0.00 0.00 0.00 0.00 0.00 0.00 0.00 0.00 0.00 0.00 0.00
0.09 0.06 0.01 0.03 0.04 0.01 0.00 0.00 0.00 0.00 0.00 0.00 0.00 0.00 0.00 0.00 0.00 0.00 0.00 0.00 0.00 0.00 0.00 0.00 0.00 0.00 0.00 0.00 0.00 0.00 0.00 0.00 0.00 0.00 0.00 0.00 0.00 0.00 0.00 0.00 0.00 0.00 0.00 0.00 0.00 0.00 0.00 0.00 0.00 0.00 0.01 0.01 0.01 0.01
0.17 0.21 0.13 0.08 0.06 0.09 0.01 0.00 0.00 0.00 0.00 0.00 0.00 0.00 0.00 0.00 0.00 0.00 0.00 0.00 0.00 0.00 0.00 0.00 0.00 0.00 0.00 0.00 0.00 0.00 0.00 0.00 0.00 0.00 0.00 0.00 0.00 0.00 0.00 0.00 0.00 0.00 0.00 0.00 0.00 0.00 0.00 0.01 0.01 0.02 0.03 0.01 0.01 0.01
0.32 0.35 0.30 0.12 0.05 0.08 0.03 0.00 0.00 0.00 0.00 0.00 0.00 0.00 0.00 0.00 0.00 0.00 0.00 0.00 0.01 0.00 0.00 0.00 0.00 0.00 0.00 0.00 0.00 0.00 0.00 0.00 0.00 0.00 0.00 0.00 0.00 0.00 0.00 0.00 0.00 0.00 0.00 0.00 0.01 0.01 0.03 0.04 0.04 0.03 0.01 0.00 0.01 0.01
0.33 0.28 0.29 0.16 0.08 0.01 0.00 0.00 0.00 0.00 0.00 0.00 0.00 0.00 0.00 0.00 0.00 0.00 0.00 0.00 0.00 0.00 0.00 0.00 0.00 0.00 0.00 0.00 0.00 0.00 0.00 0.00 0.00 0.00 0.00 0.00 0.00 0.00 0.00 0.00 0.00 0.01 0.03 0.04 0.04 0.04 0.03 0.03 0.01 0.01 0.01 0.01 0.01 0.02
0.35 0.29 0.24 0.22 0.08 0.03 0.01 0.00 0.00 0.00 0.00 0.00 0.00 0.00 0.00 0.00 0.00 0.00 0.00 0.00 0.00 0.00 0.00 0.00 0.00 0.00 0.00 0.00 0.00 0.00 0.00 0.00 0.00 0.00 0.00 0.00 0.00 0.00 0.00 0.01 0.03 0.04 0.03 0.03 0.05 0.04 0.02 0.01 0.00 0.01 0.01 0.01 0.02 0.02
0.28 0.28 0.25 0.16 0.08 0.02 0.00 0.00 0.00 0.00 0.00 0.00 0.00 0.00 0.00 0.00 0.00 0.00 0.00 0.00 0.00 0.00 0.00 0.00 0.00 0.00 0.00 0.00 0.00 0.00 0.00 0.00 0.00 0.00 0.00 0.00 0.00 0.01 0.02 0.03 0.03 0.04 0.05 0.03 0.03 0.02 0.02 0.01 0.01 0.02 0.03 0.02 0.02 0.04
0.40 0.30 0.21 0.09 0.02 0.00 0.00 0.00 0.00 0.00 0.00 0.00 0.00 0.00 0.00 0.00 0.00 0.00 0.00 0.02 0.00 0.00 0.00 0.00 0.00 0.00 0.00 0.00 0.00 0.00 0.00 0.00 0.00 0.00 0.01 0.03 0.03 0.03 0.02 0.03 0.04 0.05 0.04 0.04 0.04 0.04 0.03 0.04 0.09 0.09 0.04 0.03 0.04 0.03
0.22 0.12 0.06 0.02 0.00 0.00 0.00 0.00 0.00 0.00 0.00 0.00 0.00 0.00 0.00 0.00 0.00 0.00 0.01 0.03 0.01 0.00 0.00 0.00 0.00 0.00 0.00 0.00 0.00 0.00 0.00 0.00 0.00 0.00 0.01 0.02 0.04 0.06 0.07 0.06 0.05 0.04 0.04 0.05 0.07 0.09 0.09 0.08 0.07 0.05 0.03 0.03 0.04 0.04
0.07 0.04 0.00 0.00 0.00 0.00 0.00 0.00 0.00 0.00 0.00 0.00 0.00 0.00 0.00 0.00 0.00 0.01 0.01 0.01 0.01 0.00 0.00 0.00 0.00 0.00 0.00 0.00 0.00 0.00 0.01 0.00 0.00 0.01 0.00 0.03 0.04 0.05 0.10 0.13 0.13 0.11 0.08 0.09 0.10 0.11 0.10 0.07 0.05 0.04 0.05 0.05 0.07 0.07
0.00 0.00 0.00 0.00 0.00 0.00 0.00 0.00 0.00 0.00 0.00 0.00 0.00 0.00 0.00 0.00 0.01 0.01 0.01 0.01 0.00 0.00 0.00 0.00 0.00 0.00 0.00 0.00 0.00 0.01 0.01 0.00 0.00 0.00 0.01 0.05 0.07 0.08 0.08 0.09 0.10 0.08 0.08 0.09 0.10 0.08 0.08 0.08 0.06 0.07 0.08 0.09 0.08 0.06
0.01 0.00 0.00 0.00 0.00 0.00 0.00 0.00 0.00 0.00 0.00 0.00 0.00 0.00 0.00 0.01 0.02 0.02 0.01 0.00 0.00 0.00 0.00 0.01 0.00 0.00 0.00 0.00 0.01 0.04 0.04 0.03 0.03 0.03 0.04 0.07 0.15 0.11 0.06 0.06 0.06 0.05 0.06 0.06 0.06 0.09 0.08 0.08 0.07 0.07 0.08 0.07 0.07 0.07
0.01 0.01 0.00 0.00 0.00 0.00 0.00 0.00 0.01 0.00 0.00 0.00 0.00 0.00 0.01 0.02 0.02 0.01 0.01 0.01 0.00 0.01 0.01 0.01 0.01 0.01 0.01 0.01 0.02 0.03 0.07 0.06 0.06 0.08 0.08 0.07 0.07 0.06 0.05 0.05 0.05 0.05 0.06 0.06 0.06 0.05 0.05 0.04 0.05 0.10 0.07 0.03 0.04 0.07
0.01 0.01 0.00 0.00 0.01 0.00 0.00 0.00 0.00 0.00 0.00 0.00 0.00 0.01 0.03 0.03 0.03 0.01 0.01 0.01 0.01 0.01 0.00 0.00 0.01 0.01 0.02 0.03 0.05 0.04 0.04 0.04 0.04 0.05 0.06 0.06 0.06 0.05 0.04 0.04 0.04 0.04 0.04 0.05 0.05 0.06 0.06 0.05 0.08 0.09 0.05 0.04 0.04 0.03
0.01 0.01 0.01 0.00 0.01 0.00 0.00 0.00 0.00 0.00 0.00 0.00 0.01 0.00 0.02 0.02 0.02 0.02 0.01 0.01 0.01 0.00 0.00 0.01 0.01 0.02 0.03 0.04 0.04 0.05 0.06 0.05 0.04 0.04 0.05 0.05 0.05 0.05 0.04 0.03 0.04 0.04 0.04 0.05 0.06 0.07 0.07 0.06 0.07 0.06 0.06 0.03 0.04 0.03
0.01 0.00 0.00 0.01 0.00 0.00 0.00 0.00 0.00 0.00 0.00 0.00 0.01 0.01 0.02 0.02 0.02 0.02 0.01 0.00 0.01 0.01 0.01 0.01 0.01 0.02 0.04 0.03 0.03 0.04 0.03 0.03 0.03 0.04 0.04 0.04 0.03 0.03 0.03 0.03 0.03 0.04 0.04 0.05 0.06 0.07 0.06 0.06 0.05 0.05 0.04 0.03 0.02 0.01

GFSWCAN_prec_precacc12_036.txt.gz
Total_Precipitation_Accumulation
0.16 0.02 0.00 0.00 0.00 0.00 0.00 0.00 0.00 0.00 0.01 0.00 0.00 0.00 0.00 0.00 0.00 0.00 0.00 0.00 0.00 0.00 0.00 0.00 0.00 0.00 0.00 0.01 0.00 0.00 0.00 0.00 0.00 0.00 0.00 0.00 0.00 0.00 0.00 0.00 0.00 0.00 0.00 0.00 0.00 0.00 0.00 0.00 0.00 0.02 0.01 0.01 0.01 0.01
0.32 0.07 0.01 0.00 0.00 0.00 0.00 0.00 0.00 0.00 0.00 0.00 0.00 0.00 0.00 0.00 0.00 0.00 0.00 0.00 0.00 0.00 0.00 0.00 0.00 0.00 0.00 0.00 0.00 0.00 0.00 0.00 0.00 0.00 0.00 0.00 0.00 0.00 0.00 0.00 0.00 0.00 0.00 0.00 0.00 0.00 0.00 0.00 0.01 0.01 0.01 0.01 0.00 0.00
0.49 0.17 0.03 0.01 0.00 0.00 0.00 0.00 0.00 0.00 0.00 0.00 0.00 0.00 0.00 0.00 0.00 0.00 0.00 0.00 0.00 0.00 0.00 0.00 0.00 0.00 0.00 0.00 0.00 0.00 0.00 0.00 0.00 0.00 0.00 0.00 0.01 0.00 0.00 0.00 0.00 0.00 0.00 0.00 0.00 0.00 0.00 0.00 0.00 0.00 0.00 0.00 0.00 0.00
0.60 0.33 0.12 0.02 0.01 0.00 0.00 0.00 0.00 0.00 0.00 0.00 0.00 0.00 0.00 0.00 0.00 0.00 0.00 0.00 0.00 0.00 0.02 0.00 0.00 0.00 0.00 0.00 0.00 0.00 0.00 0.00 0.00 0.00 0.00 0.01 0.01 0.00 0.00 0.00 0.00 0.00 0.00 0.00 0.01 0.00 0.00 0.00 0.01 0.02 0.01 0.00 0.00 0.00
0.63 0.46 0.24 0.08 0.02 0.00 0.00 0.00 0.00 0.00 0.00 0.00 0.00 0.00 0.00 0.00 0.00 0.00 0.00 0.00 0.00 0.00 0.01 0.00 0.00 0.00 0.00 0.00 0.00 0.00 0.00 0.00 0.00 0.00 0.01 0.01 0.00 0.00 0.00 0.00 0.00 0.00 0.00 0.01 0.01 0.01 0.02 0.08 0.08 0.03 0.00 0.00 0.00 0.00
0.56 0.47 0.29 0.17 0.05 0.01 0.00 0.00 0.00 0.00 0.00 0.00 0.00 0.00 0.00 0.00 0.00 0.00 0.00 0.00 0.00 0.00 0.00 0.00 0.00 0.00 0.00 0.00 0.00 0.00 0.00 0.00 0.00 0.01 0.00 0.00 0.00 0.01 0.00 0.00 0.00 0.00 0.00 0.00 0.01 0.01 0.02 0.03 0.02 0.00 0.00 0.00 0.00 0.00
0.44 0.43 0.30 0.19 0.11 0.03 0.00 0.00 0.00 0.00 0.00 0.00 0.00 0.00 0.00 0.00 0.00 0.00 0.00 0.00 0.00 0.00 0.00 0.01 0.00 0.00 0.00 0.00 0.00 0.00 0.00 0.00 0.01 0.02 0.01 0.00 0.00 0.01 0.01 0.00 0.00 0.00 0.00 0.00 0.00 0.00 0.01 0.01 0.00 0.00 0.00 0.00 0.00 0.00
0.29 0.33 0.29 0.18 0.14 0.06 0.01 0.00 0.00 0.00 0.00 0.00 0.00 0.00 0.00 0.00 0.00 0.02 0.00 0.00 0.00 0.00 0.00 0.01 0.00 0.00 0.00 0.00 0.00 0.00 0.00 0.00 0.01 0.02 0.00 0.00 0.01 0.01 0.01 0.00 0.00 0.00 0.00 0.00 0.00 0.00 0.00 0.00 0.00 0.00 0.00 0.00 0.00 0.00
0.14 0.19 0.16 0.13 0.09 0.08 0.04 0.00 0.01 0.02 0.00 0.00 0.03 0.07 0.04 0.02 0.01 0.01 0.00 0.00 0.00 0.01 0.02 0.02 0.00 0.00 0.00 0.00 0.00 0.00 0.00 0.01 0.00 0.00 0.00 0.00 0.00 0.00 0.00 0.00 0.00 0.00 0.00 0.00 0.00 0.00 0.00 0.00 0.00 0.00 0.00 0.00 0.00 0.00
0.02 0.08 0.10 0.06 0.03 0.03 0.04 0.03 0.01 0.07 0.13 0.09 0.06 0.08 0.06 0.04 0.08 0.03 0.01 0.02 0.01 0.00 0.00 0.01 0.00 0.00 0.00 0.00 0.00 0.00 0.00 0.01 0.00 0.00 0.00 0.01 0.01 0.00 0.00 0.00 0.00 0.00 0.00 0.00 0.00 0.00 0.00 0.00 0.00 0.00 0.00 0.00 0.00 0.00
0.00 0.00 0.01 0.03 0.01 0.00 0.01 0.03 0.07 0.32 0.80 0.78 0.41 0.18 0.10 0.15 0.04 0.06 0.06 0.05 0.04 0.02 0.01 0.00 0.00 0.00 0.00 0.00 0.00 0.00 0.01 0.00 0.01 0.00 0.00 0.01 0.00 0.00 0.00 0.00 0.00 0.00 0.00 0.00 0.00 0.00 0.00 0.00 0.00 0.00 0.00 0.00 0.00 0.00
0.00 0.00 0.00 0.00 0.01 0.00 0.00 0.04 0.17 0.40 0.68 0.68 0.44 0.22 0.22 0.22 0.24 0.27 0.27 0.14 0.03 0.01 0.01 0.01 0.01 0.00 0.01 0.02 0.05 0.09 0.06 0.04 0.02 0.00 0.02 0.01 0.00 0.00 0.00 0.00 0.00 0.00 0.00 0.00 0.00 0.00 0.00 0.00 0.00 0.00 0.00 0.00 0.00 0.00
0.00 0.00 0.00 0.00 0.01 0.00 0.00 0.04 0.11 0.36 0.61 0.78 0.84 0.82 0.74 0.94 0.79 0.54 0.21 0.07 0.02 0.01 0.00 0.00 0.02 0.03 0.06 0.08 0.15 0.16 0.17 0.12 0.03 0.04 0.02 0.01 0.00 0.00 0.00 0.00 0.00 0.00 0.00 0.00 0.00 0.00 0.00 0.00 0.00 0.00 0.00 0.00 0.00 0.00
0.00 0.00 0.00 0.00 0.01 0.02 0.00 0.01 0.06 0.18 0.41 0.98 1.28 1.40 1.07 0.98 0.62 0.34 0.10 0.03 0.02 0.01 0.00 0.01 0.04 0.07 0.11 0.14 0.25 0.31 0.33 0.16 0.16 0.08 0.03 0.04 0.03 0.01 0.00 0.00 0.00 0.00 0.00 0.00 0.00 0.00 0.00 0.00 0.00 0.00 0.00 0.00 0.00 0.00
0.00 0.00 0.00 0.00 0.02 0.04 0.02 0.02 0.02 0.03 0.12 0.35 0.48 0.62 0.60 0.41 0.23 0.13 0.09 0.06 0.06 0.07 0.08 0.11 0.16 0.16 0.18 0.31 0.33 0.25 0.22 0.18 0.15 0.20 0.23 0.13 0.01 0.00 0.00 0.00 0.00 0.00 0.00 0.00 0.00 0.00 0.00 0.00 0.00 0.00 0.00 0.00 0.00 0.00
0.00 0.01 0.00 0.00 0.01 0.03 0.01 0.04 0.07 0.02 0.02 0.06 0.17 0.27 0.26 0.24 0.24 0.20 0.17 0.16 0.18 0.22 0.22 0.23 0.25 0.26 0.28 0.22 0.17 0.20 0.20 0.23 0.30 0.12 0.03 0.00 0.00 0.00 0.00 0.00 0.00 0.00 0.00 0.00 0.00 0.00 0.00 0.00 0.00 0.00 0.00 0.00 0.00 0.00
0.01 0.03 0.00 0.00 0.01 0.01 0.03 0.17 0.12 0.03 0.02 0.00 0.02 0.05 0.08 0.09 0.11 0.12 0.14 0.16 0.15 0.16 0.13 0.11 0.12 0.16 0.16 0.16 0.15 0.14 0.19 0.13 0.03 0.01 0.00 0.00 0.00 0.00 0.00 0.00 0.00 0.00 0.00 0.00 0.00 0.00 0.00 0.00 0.00 0.00 0.00 0.00 0.00 0.00
0.04 0.02 0.00 0.00 0.00 0.00 0.00 0.01 0.00 0.00 0.00 0.00 0.01 0.01 0.00 0.01 0.01 0.01 0.00 0.01 0.01 0.02 0.01 0.02 0.02 0.02 0.04 0.05 0.10 0.03 0.00 0.00 0.00 0.00 0.00 0.00 0.00 0.00 0.00 0.00 0.00 0.00 0.00 0.00 0.00 0.00 0.00 0.00 0.00 0.00 0.00 0.00 0.00 0.00
0.05 0.06 0.01 0.00 0.02 0.00 0.00 0.00 0.00 0.00 0.00 0.00 0.00 0.00 0.00 0.00 0.00 0.00 0.00 0.00 0.00 0.00 0.00 0.00 0.00 0.00 0.00 0.00 0.00 0.00 0.00 0.00 0.00 0.00 0.00 0.00 0.00 0.00 0.00 0.00 0.00 0.00 0.00 0.00 0.00 0.00 0.00 0.00 0.00 0.00 0.01 0.01 0.01 0.00
0.07 0.16 0.10 0.02 0.04 0.08 0.01 0.00 0.00 0.00 0.00 0.00 0.00 0.00 0.00 0.00 0.00 0.00 0.00 0.00 0.00 0.00 0.00 0.00 0.00 0.00 0.00 0.00 0.00 0.00 0.00 0.00 0.00 0.00 0.00 0.00 0.00 0.00 0.00 0.00 0.00 0.00 0.00 0.00 0.00 0.00 0.00 0.01 0.01 0.03 0.03 0.01 0.00 0.01
0.16 0.22 0.21 0.09 0.04 0.08 0.03 0.00 0.00 0.00 0.00 0.00 0.00 0.00 0.00 0.00 0.00 0.00 0.00 0.00 0.00 0.00 0.00 0.00 0.00 0.00 0.00 0.00 0.00 0.00 0.00 0.00 0.00 0.00 0.00 0.00 0.00 0.00 0.00 0.00 0.00 0.00 0.00 0.00 0.01 0.01 0.03 0.04 0.04 0.03 0.01 0.00 0.01 0.01
0.17 0.19 0.22 0.16 0.09 0.01 0.00 0.00 0.00 0.00 0.00 0.00 0.00 0.00 0.00 0.00 0.00 0.00 0.00 0.00 0.00 0.00 0.00 0.00 0.00 0.00 0.00 0.00 0.00 0.00 0.00 0.00 0.00 0.00 0.00 0.00 0.00 0.00 0.00 0.00 0.00 0.01 0.03 0.04 0.04 0.04 0.03 0.03 0.02 0.01 0.01 0.01 0.00 0.01
0.27 0.23 0.22 0.24 0.12 0.04 0.02 0.00 0.00 0.00 0.00 0.00 0.00 0.00 0.00 0.00 0.00 0.00 0.00 0.00 0.00 0.00 0.00 0.00 0.00 0.00 0.00 0.00 0.00 0.00 0.00 0.00 0.00 0.00 0.00 0.00 0.00 0.00 0.00 0.01 0.03 0.04 0.04 0.03 0.06 0.04 0.02 0.01 0.00 0.01 0.01 0.01 0.03 0.04
0.28 0.26 0.23 0.17 0.14 0.07 0.01 0.00 0.00 0.00 0.00 0.00 0.01 0.00 0.00 0.00 0.00 0.00 0.00 0.00 0.00 0.00 0.00 0.00 0.00 0.00 0.00 0.00 0.00 0.00 0.00 0.00 0.00 0.00 0.00 0.00 0.00 0.01 0.02 0.03 0.03 0.04 0.05 0.03 0.02 0.02 0.01 0.01 0.01 0.02 0.05 0.10 0.11 0.08
0.40 0.34 0.22 0.10 0.04 0.02 0.00 0.00 0.00 0.00 0.00 0.00 0.00 0.00 0.00 0.00 0.00 0.00 0.00 0.03 0.01 0.01 0.00 0.00 0.00 0.00 0.00 0.00 0.00 0.00 0.00 0.00 0.00 0.00 0.01 0.03 0.04 0.03 0.02 0.03 0.05 0.05 0.04 0.04 0.04 0.03 0.03 0.04 0.09 0.12 0.10 0.08 0.06 0.04
0.22 0.13 0.08 0.03 0.01 0.01 0.00 0.00 0.00 0.00 0.00 0.00 0.00 0.00 0.00 0.00 0.00 0.00 0.02 0.04 0.02 0.01 0.00 0.00 0.00 0.00 0.00 0.00 0.00 0.00 0.00 0.00 0.00 0.00 0.01 0.03 0.04 0.06 0.07 0.06 0.05 0.04 0.04 0.05 0.08 0.10 0.09 0.08 0.07 0.06 0.05 0.04 0.05 0.06
0.08 0.05 0.01 0.00 0.01 0.02 0.00 0.00 0.00 0.00 0.00 0.00 0.00 0.00 0.00 0.00 0.00 0.02 0.02 0.02 0.02 0.01 0.00 0.00 0.00 0.00 0.00 0.00 0.00 0.01 0.00 0.00 0.00 0.01 0.01 0.04 0.04 0.05 0.08 0.12 0.13 0.11 0.07 0.09 0.10 0.11 0.11 0.08 0.06 0.05 0.06 0.05 0.09 0.10
0.01 0.00 0.00 0.03 0.04 0.02 0.01 0.01 0.00 0.00 0.00 0.00 0.00 0.00 0.00 0.00 0.02 0.02 0.02 0.02 0.01 0.01 0.00 0.00 0.00 0.00 0.00 0.01 0.01 0.01 0.01 0.00 0.00 0.00 0.01 0.05 0.06 0.07 0.07 0.09 0.09 0.07 0.07 0.08 0.08 0.07 0.08 0.08 0.08 0.08 0.10 0.12 0.13 0.09
0.01 0.01 0.01 0.02 0.02 0.01 0.00 0.00 0.00 0.00 0.00 0.00 0.00 0.00 0.01 0.01 0.03 0.03 0.02 0.00 0.00 0.00 0.00 0.00 0.00 0.00 0.00 0.00 0.00 0.02 0.01 0.01 0.01 0.01 0.02 0.06 0.12 0.08 0.05 0.05 0.04 0.04 0.04 0.05 0.05 0.07 0.07 0.08 0.08 0.10 0.14 0.12 0.11 0.11
0.03 0.05 0.05 0.02 0.02 0.02 0.01 0.01 0.01 0.00 0.00 0.00 0.00 0.00 0.01 0.02 0.03 0.02 0.01 0.01 0.01 0.01 0.01 0.01 0.01 0.00 0.00 0.00 0.01 0.01 0.03 0.02 0.02 0.04 0.05 0.04 0.04 0.04 0.03 0.03 0.04 0.04 0.04 0.05 0.06 0.05 0.05 0.04 0.06 0.14 0.11 0.07 0.09 0.10
0.03 0.02 0.02 0.01 0.01 0.01 0.01 0.00 0.00 0.00 0.00 0.00 0.00 0.01 0.03 0.03 0.03 0.01 0.01 0.02 0.01 0.01 0.00 0.00 0.01 0.00 0.01 0.01 0.02 0.01 0.01 0.01 0.01 0.02 0.03 0.03 0.03 0.03 0.02 0.02 0.03 0.04 0.04 0.05 0.05 0.06 0.06 0.06 0.09 0.11 0.07 0.05 0.06 0.06
0.00 0.00 0.00 0.01 0.01 0.00 0.00 0.00 0.00 0.00 0.00 0.00 0.01 0.01 0.02 0.01 0.02 0.02 0.01 0.01 0.01 0.00 0.00 0.00 0.01 0.01 0.01 0.02 0.02 0.02 0.04 0.02 0.01 0.01 0.02 0.02 0.02 0.02 0.02 0.02 0.03 0.04 0.04 0.04 0.06 0.07 0.07 0.07 0.08 0.07 0.07 0.05 0.05 0.04
0.00 0.00 0.00 0.00 0.00 0.00 0.00 0.00 0.00 0.00 0.00 0.01 0.02 0.02 0.02 0.02 0.02 0.02 0.01 0.00 0.01 0.01 0.00 0.00 0.00 0.01 0.02 0.02 0.01 0.02 0.01 0.01 0.01 0.01 0.02 0.02 0.01 0.01 0.02 0.03 0.03 0.04 0.04 0.05 0.06 0.08 0.06 0.06 0.06 0.06 0.05 0.05 0.04 0.03

GFSWCAN_prec_precacc12_039.txt.gz
Total_Precipitation_Accumulation
0.12 0.00 0.00 0.00 0.00 0.00 0.00 0.00 0.00 0.01 0.01 0.01 0.00 0.00 0.00 0.00 0.00 0.00 0.00 0.00 0.00 0.00 0.00 0.00 0.00 0.00 0.00 0.01 0.00 0.00 0.00 0.00 0.00 0.00 0.00 0.00 0.00 0.00 0.00 0.00 0.00 0.00 0.00 0.00 0.00 0.00 0.00 0.00 0.00 0.00 0.00 0.01 0.00 0.00
0.20 0.03 0.00 0.00 0.00 0.00 0.00 0.00 0.00 0.00 0.00 0.00 0.00 0.00 0.00 0.00 0.00 0.00 0.00 0.00 0.00 0.00 0.00 0.00 0.00 0.00 0.00 0.00 0.00 0.00 0.00 0.00 0.00 0.00 0.00 0.00 0.00 0.00 0.00 0.00 0.00 0.00 0.00 0.00 0.00 0.00 0.00 0.00 0.01 0.01 0.00 0.00 0.00 0.00
0.31 0.08 0.01 0.00 0.00 0.00 0.00 0.00 0.00 0.00 0.00 0.00 0.00 0.00 0.00 0.00 0.00 0.00 0.00 0.00 0.00 0.00 0.00 0.00 0.00 0.00 0.00 0.00 0.00 0.00 0.00 0.00 0.00 0.00 0.00 0.00 0.00 0.00 0.00 0.00 0.00 0.00 0.00 0.00 0.00 0.00 0.00 0.00 0.00 0.00 0.00 0.00 0.00 0.00
0.48 0.20 0.05 0.01 0.00 0.00 0.00 0.00 0.00 0.00 0.00 0.00 0.00 0.00 0.00 0.00 0.00 0.00 0.00 0.00 0.00 0.00 0.01 0.00 0.00 0.00 0.00 0.00 0.00 0.00 0.00 0.00 0.00 0.00 0.00 0.01 0.00 0.00 0.00 0.00 0.00 0.00 0.00 0.00 0.00 0.00 0.00 0.00 0.00 0.01 0.01 0.00 0.00 0.00
0.62 0.38 0.14 0.03 0.01 0.00 0.00 0.00 0.00 0.00 0.00 0.00 0.00 0.00 0.00 0.00 0.00 0.00 0.00 0.00 0.00 0.00 0.01 0.00 0.00 0.00 0.00 0.00 0.00 0.00 0.00 0.00 0.00 0.00 0.00 0.00 0.00 0.00 0.00 0.00 0.00 0.00 0.00 0.00 0.00 0.00 0.00 0.02 0.05 0.03 0.00 0.00 0.00 0.00
0.60 0.47 0.25 0.10 0.03 0.01 0.00 0.00 0.00 0.00 0.00 0.00 0.00 0.00 0.00 0.00 0.00 0.00 0.00 0.00 0.00 0.00 0.00 0.00 0.00 0.00 0.00 0.00 0.00 0.00 0.00 0.00 0.00 0.00 0.00 0.00 0.00 0.00 0.00 0.00 0.00 0.00 0.00 0.00 0.00 0.00 0.00 0.00 0.00 0.00 0.00 0.00 0.00 0.00
0.50 0.44 0.30 0.17 0.08 0.02 0.00 0.00 0.00 0.00 0.00 0.00 0.00 0.00 0.00 0.00 0.00 0.00 0.00 0.00 0.00 0.00 0.00 0.01 0.00 0.00 0.00 0.00 0.00 0.00 0.00 0.00 0.00 0.01 0.01 0.00 0.00 0.00 0.00 0.00 0.00 0.00 0.00 0.00 0.00 0.00 0.00 0.00 0.00 0.00 0.00 0.00 0.00 0.00
0.43 0.37 0.30 0.18 0.14 0.06 0.01 0.00 0.00 0.00 0.00 0.00 0.00 0.00 0.00 0.00 0.00 0.01 0.00 0.00 0.00 0.00 0.00 0.00 0.00 0.00 0.00 0.00 0.00 0.00 0.00 0.00 0.01 0.01 0.00 0.00 0.00 0.01 0.00 0.00 0.00 0.00 0.00 0.00 0.00 0.00 0.00 0.00 0.00 0.00 0.00 0.00 0.00 0.00
0.31 0.29 0.22 0.14 0.10 0.08 0.04 0.00 0.00 0.00 0.00 0.00 0.01 0.03 0.00 0.00 0.01 0.01 0.00 0.00 0.00 0.00 0.01 0.01 0.00 0.00 0.00 0.00 0.00 0.00 0.00 0.00 0.00 0.00 0.00 0.00 0.00 0.00 0.00 0.00 0.00 0.00 0.00 0.00 0.00 0.00 0.00 0.00 0.00 0.00 0.00 0.00 0.00 0.00
0.16 0.19 0.17 0.09 0.05 0.03 0.04 0.03 0.00 0.00 0.01 0.02 0.02 0.04 0.04 0.01 0.02 0.00 0.00 0.00 0.00 0.00 0.00 0.00 0.00 0.00 0.00 0.00 0.00 0.00 0.00 0.00 0.00 0.00 0.00 0.00 0.00 0.00 0.00 0.00 0.00 0.00 0.00 0.00 0.00 0.00 0.00 0.00 0.01 0.01 0.00 0.00 0.00 0.00
0.08 0.10 0.12 0.07 0.04 0.02 0.01 0.03 0.06 0.15 0.35 0.28 0.12 0.05 0.05 0.06 0.01 0.01 0.03 0.01 0.00 0.00 0.00 0.00 0.00 0.00 0.00 0.00 0.00 0.00 0.00 0.00 0.00 0.00 0.00 0.00 0.00 0.00 0.00 0.00 0.00 0.00 0.00 0.00 0.00 0.00 0.02 0.04 0.02 0.00 0.00 0.00 0.00 0.00
0.01 0.03 0.07 0.05 0.06 0.06 0.03 0.05 0.16 0.22 0.31 0.33 0.17 0.10 0.14 0.15 0.13 0.11 0.12 0.05 0.01 0.00 0.00 0.00 0.00 0.00 0.00 0.00 0.00 0.01 0.02 0.02 0.01 0.00 0.02 0.01 0.00 0.00 0.00 0.00 0.00 0.00 0.00 0.02 0.05 0.05 0.02 0.00 0.00 0.00 0.00 0.00 0.00 0.00
0.00 0.00 0.02 0.04 0.06 0.10 0.12 0.12 0.15 0.30 0.44 0.50 0.52 0.52 0.50 0.66 0.51 0.33 0.10 0.02 0.00 0.00 0.00 0.00 0.00 0.01 0.01 0.02 0.08 0.12 0.15 0.09 0.02 0.04 0.03 0.01 0.00 0.00 0.01 0.00 0.00 0.00 0.01 0.01 0.00 0.00 0.00 0.00 0.00 0.00 0.00 0.00 0.00 0.00
0.00 0.00 0.00 0.00 0.01 0.04 0.07 0.11 0.16 0.18 0.28 0.68 0.85 1.00 0.81 0.74 0.43 0.25 0.08 0.02 0.01 0.00 0.00 0.00 0.01 0.02 0.05 0.10 0.25 0.33 0.36 0.18 0.17 0.09 0.04 0.05 0.04 0.02 0.01 0.00 0.00 0.00 0.00 0.00 0.00 0.00 0.00 0.00 0.00 0.00 0.00 0.00 0.00 0.00
0.00 0.00 0.00 0.00 0.00 0.01 0.01 0.02 0.04 0.06 0.18 0.40 0.46 0.50 0.45 0.26 0.15 0.07 0.05 0.04 0.04 0.04 0.07 0.10 0.16 0.16 0.18 0.33 0.37 0.29 0.25 0.20 0.18 0.22 0.28 0.19 0.03 0.00 0.00 0.00 0.00 0.00 0.00 0.00 0.00 0.00 0.00 0.00 0.00 0.00 0.00 0.00 0.00 0.00
0.00 0.00 0.00 0.00 0.00 0.00 0.00 0.00 0.00 0.01 0.03 0.08 0.16 0.20 0.17 0.14 0.16 0.17 0.17 0.16 0.18 0.23 0.24 0.26 0.27 0.28 0.30 0.25 0.18 0.21 0.23 0.25 0.31 0.13 0.06 0.02 0.03 0.01 0.00 0.00 0.00 0.00 0.00 0.00 0.00 0.00 0.00 0.00 0.00 0.00 0.00 0.00 0.00 0.00
0.00 0.01 0.00 0.00 0.00 0.00 0.00 0.02 0.03 0.01 0.00 0.00 0.02 0.04 0.05 0.06 0.09 0.10 0.12 0.14 0.14 0.14 0.13 0.12 0.13 0.17 0.17 0.17 0.17 0.16 0.21 0.14 0.03 0.01 0.01 0.00 0.00 0.00 0.00 0.00 0.00 0.00 0.00 0.00 0.00 0.00 0.00 0.00 0.00 0.00 0.00 0.00 0.00 0.00
0.01 0.01 0.00 0.00 0.00 0.00 0.00 0.00 0.00 0.00 0.00 0.01 0.01 0.01 0.00 0.00 0.00 0.01 0.00 0.01 0.01 0.02 0.01 0.02 0.02 0.03 0.06 0.07 0.12 0.04 0.00 0.00 0.00 0.00 0.00 0.00 0.00 0.01 0.00 0.00 0.00 0.00 0.00 0.00 0.00 0.00 0.00 0.00 0.00 0.00 0.00 0.00 0.00 0.00
0.02 0.01 0.00 0.00 0.00 0.00 0.00 0.00 0.00 0.00 0.00 0.00 0.00 0.00 0.00 0.00 0.00 0.00 0.00 0.00 0.00 0.00 0.00 0.00 0.00 0.00 0.00 0.00 0.00 0.00 0.00 0.00 0.00 0.00 0.00 0.00 0.00 0.00 0.00 0.00 0.00 0.00 0.00 0.00 0.00 0.00 0.00 0.00 0.00 0.00 0.01 0.01 0.01 0.00
0.00 0.04 0.06 0.01 0.01 0.06 0.00 0.00 0.00 0.00 0.00 0.00 0.00 0.00 0.00 0.00 0.00 0.00 0.00 0.00 0.00 0.00 0.00 0.00 0.00 0.00 0.00 0.00 0.00 0.00 0.00 0.00 0.00 0.00 0.00 0.00 0.00 0.00 0.00 0.00 0.00 0.00 0.00 0.00 0.00 0.00 0.00 0.01 0.01 0.03 0.03 0.01 0.00 0.00
0.01 0.08 0.12 0.04 0.01 0.06 0.03 0.00 0.00 0.00 0.00 0.00 0.00 0.00 0.00 0.00 0.00 0.00 0.00 0.00 0.00 0.00 0.00 0.00 0.00 0.00 0.00 0.00 0.00 0.00 0.00 0.00 0.00 0.00 0.00 0.00 0.00 0.00 0.00 0.00 0.00 0.00 0.00 0.00 0.01 0.01 0.03 0.04 0.03 0.03 0.01 0.00 0.00 0.01
0.03 0.08 0.18 0.14 0.06 0.01 0.00 0.00 0.00 0.00 0.00 0.00 0.00 0.00 0.00 0.00 0.00 0.00 0.00 0.00 0.00 0.00 0.00 0.00 0.00 0.00 0.00 0.00 0.00 0.00 0.00 0.00 0.00 0.00 0.00 0.00 0.00 0.00 0.00 0.00 0.00 0.01 0.02 0.03 0.04 0.04 0.03 0.03 0.02 0.01 0.00 0.01 0.00 0.01
0.15 0.14 0.16 0.23 0.12 0.04 0.02 0.00 0.00 0.00 0.00 0.01 0.00 0.00 0.00 0.00 0.00 0.00 0.00 0.00 0.00 0.00 0.00 0.00 0.00 0.00 0.00 0.00 0.00 0.00 0.00 0.00 0.00 0.00 0.00 0.00 0.00 0.00 0.00 0.01 0.02 0.04 0.03 0.03 0.06 0.04 0.01 0.01 0.00 0.00 0.00 0.01 0.02 0.05
0.20 0.17 0.16 0.16 0.15 0.08 0.02 0.00 0.00 0.00 0.00 0.00 0.01 0.00 0.00 0.00 0.00 0.00 0.00 0.01 0.01 0.00 0.00 0.00 0.00 0.00 0.00 0.00 0.00 0.00 0.00 0.00 0.00 0.00 0.00 0.00 0.00 0.01 0.02 0.02 0.03 0.04 0.05 0.03 0.02 0.01 0.00 0.00 0.01 0.02 0.05 0.10 0.11 0.10
0.30 0.25 0.18 0.10 0.04 0.02 0.01 0.01 0.01 0.00 0.00 0.00 0.00 0.00 0.00 0.00 0.00 0.00 0.00 0.04 0.02 0.02 0.01 0.00 0.00 0.00 0.00 0.00 0.00 0.00 0.00 0.00 0.00 0.00 0.00 0.00 0.01 0.01 0.01 0.02 0.03 0.04 0.04 0.03 0.03 0.02 0.02 0.03 0.08 0.11 0.10 0.07 0.06 0.05
0.20 0.12 0.08 0.03 0.02 0.02 0.00 0.00 0.00 0.00 0.00 0.00 0.00 0.00 0.00 0.00 0.00 0.00 0.02 0.05 0.04 0.03 0.02 0.01 0.00 0.00 0.00 0.00 0.00 0.00 0.00 0.00 0.00 0.00 0.01 0.01 0.02 0.03 0.04 0.05 0.04 0.03 0.04 0.05 0.08 0.09 0.09 0.08 0.07 0.05 0.05 0.04 0.05 0.06
0.08 0.05 0.01 0.00 0.02 0.05 0.02 0.01 0.00 0.01 0.00 0.00 0.00 0.00 0.00 0.00 0.00 0.02 0.03 0.03 0.03 0.03 0.01 0.00 0.00 0.00 0.00 0.00 0.00 0.01 0.00 0.00 0.00 0.01 0.00 0.04 0.04 0.04 0.06 0.09 0.10 0.09 0.06 0.08 0.09 0.10 0.10 0.08 0.06 0.05 0.05 0.05 0.09 0.11
0.01 0.00 0.00 0.04 0.08 0.07 0.05 0.04 0.02 0.01 0.00 0.00 0.00 0.00 0.00 0.00 0.02 0.03 0.03 0.03 0.02 0.01 0.00 0.00 0.00 0.00 0.01 0.01 0.00 0.01 0.00 0.00 0.00 0.00 0.00 0.04 0.03 0.02 0.01 0.02 0.04 0.05 0.05 0.05 0.06 0.06 0.07 0.08 0.07 0.08 0.10 0.13 0.14 0.11
0.01 0.02 0.01 0.03 0.07 0.06 0.05 0.04 0.04 0.05 0.04 0.02 0.01 0.01 0.01 0.02 0.04 0.03 0.03 0.02 0.01 0.00 0.00 0.00 0.00 0.00 0.00 0.00 0.00 0.01 0.01 0.00 0.00 0.00 0.00 0.00 0.00 0.00 0.01 0.01 0.01 0.01 0.01 0.02 0.02 0.04 0.05 0.07 0.07 0.12 0.17 0.14 0.13 0.13
0.05 0.10 0.09 0.05 0.06 0.07 0.06 0.06 0.06 0.03 0.01 0.00 0.00 0.00 0.01 0.02 0.04 0.03 0.01 0.01 0.01 0.01 0.01 0.01 0.01 0.00 0.00 0.00 0.00 0.00 0.02 0.01 0.01 0.01 0.02 0.02 0.02 0.01 0.01 0.01 0.01 0.01 0.01 0.02 0.03 0.02 0.03 0.03 0.05 0.14 0.12 0.08 0.09 0.10
0.07 0.07 0.05 0.04 0.04 0.02 0.02 0.01 0.01 0.01 0.01 0.00 0.00 0.01 0.03 0.03 0.03 0.02 0.01 0.02 0.01 0.01 0.00 0.00 0.00 0.00 0.00 0.01 0.01 0.01 0.01 0.01 0.01 0.01 0.01 0.01 0.02 0.01 0.01 0.01 0.01 0.01 0.01 0.02 0.03 0.04 0.06 0.05 0.09 0.10 0.06 0.05 0.06 0.06
0.00 0.00 0.00 0.01 0.01 0.01 0.00 0.00 0.00 0.00 0.00 0.01 0.02 0.01 0.02 0.01 0.01 0.02 0.01 0.02 0.01 0.00 0.00 0.00 0.00 0.00 0.01 0.01 0.01 0.01 0.03 0.01 0.01 0.01 0.01 0.02 0.01 0.01 0.01 0.00 0.01 0.02 0.02 0.02 0.04 0.06 0.07 0.07 0.07 0.06 0.07 0.05 0.05 0.04
0.00 0.00 0.00 0.00 0.00 0.00 0.00 0.00 0.00 0.00 0.00 0.02 0.03 0.02 0.02 0.02 0.02 0.02 0.01 0.00 0.00 0.00 0.00 0.00 0.00 0.00 0.01 0.01 0.00 0.01 0.01 0.00 0.00 0.00 0.01 0.01 0.00 0.00 0.00 0.01 0.01 0.02 0.02 0.03 0.05 0.07 0.05 0.06 0.06 0.05 0.05 0.05 0.04 0.03

GFSWCAN_prec_precacc12_042.txt.gz
Total_Precipitation_Accumulation
0.10 0.00 0.00 0.00 0.00 0.00 0.00 0.01 0.01 0.01 0.01 0.01 0.01 0.00 0.00 0.00 0.00 0.00 0.01 0.00 0.00 0.00 0.00 0.00 0.00 0.00 0.00 0.01 0.00 0.00 0.00 0.00 0.00 0.00 0.00 0.00 0.00 0.00 0.00 0.00 0.00 0.00 0.00 0.00 0.00 0.00 0.00 0.00 0.00 0.00 0.00 0.00 0.00 0.00
0.11 0.00 0.00 0.00 0.00 0.00 0.00 0.00 0.01 0.01 0.00 0.01 0.01 0.00 0.00 0.00 0.00 0.01 0.01 0.00 0.00 0.00 0.00 0.00 0.00 0.00 0.00 0.00 0.00 0.00 0.00 0.00 0.00 0.00 0.00 0.00 0.00 0.00 0.00 0.00 0.00 0.00 0.00 0.00 0.00 0.00 0.00 0.00 0.00 0.00 0.00 0.00 0.00 0.00
0.13 0.00 0.00 0.00 0.00 0.00 0.00 0.00 0.00 0.01 0.01 0.01 0.01 0.00 0.00 0.00 0.00 0.00 0.00 0.00 0.00 0.00 0.00 0.00 0.00 0.00 0.00 0.00 0.00 0.00 0.00 0.00 0.00 0.00 0.00 0.00 0.00 0.00 0.00 0.00 0.00 0.00 0.00 0.00 0.00 0.00 0.00 0.00 0.00 0.00 0.00 0.00 0.00 0.00
0.27 0.06 0.00 0.00 0.00 0.00 0.00 0.00 0.00 0.00 0.00 0.00 0.00 0.00 0.00 0.00 0.00 0.00 0.00 0.00 0.00 0.00 0.00 0.00 0.00 0.00 0.00 0.00 0.00 0.00 0.00 0.00 0.00 0.00 0.00 0.00 0.00 0.00 0.00 0.00 0.00 0.00 0.00 0.00 0.00 0.00 0.00 0.00 0.00 0.00 0.00 0.00 0.00 0.00
0.43 0.20 0.06 0.00 0.01 0.01 0.00 0.00 0.00 0.00 0.00 0.00 0.00 0.00 0.00 0.00 0.00 0.00 0.00 0.00 0.00 0.00 0.00 0.00 0.00 0.00 0.00 0.00 0.00 0.00 0.00 0.00 0.00 0.00 0.00 0.00 0.00 0.00 0.00 0.00 0.00 0.00 0.00 0.00 0.00 0.00 0.00 0.00 0.00 0.00 0.00 0.00 0.00 0.00
0.47 0.31 0.15 0.05 0.04 0.02 0.00 0.00 0.00 0.00 0.00 0.00 0.00 0.00 0.00 0.00 0.00 0.00 0.00 0.00 0.00 0.00 0.00 0.00 0.00 0.00 0.00 0.00 0.00 0.00 0.00 0.00 0.00 0.00 0.00 0.00 0.00 0.00 0.00 0.00 0.00 0.00 0.00 0.00 0.00 0.00 0.00 0.00 0.00 0.00 0.00 0.00 0.00 0.00
0.49 0.37 0.23 0.10 0.08 0.03 0.00 0.00 0.00 0.00 0.00 0.00 0.00 0.00 0.00 0.00 0.00 0.00 0.00 0.00 0.00 0.00 0.00 0.00 0.00 0.00 0.00 0.00 0.00 0.00 0.00 0.00 0.00 0.00 0.00 0.00 0.00 0.00 0.00 0.00 0.00 0.00 0.00 0.00 0.00 0.00 0.00 0.00 0.00 0.00 0.00 0.00 0.00 0.00
0.43 0.37 0.29 0.15 0.11 0.06 0.00 0.00 0.00 0.00 0.00 0.00 0.00 0.00 0.00 0.00 0.00 0.00 0.00 0.00 0.00 0.00 0.00 0.00 0.00 0.00 0.00 0.00 0.00 0.00 0.00 0.00 0.00 0.00 0.00 0.00 0.00 0.00 0.00 0.00 0.00 0.00 0.00 0.00 0.00 0.00 0.00 0.00 0.00 0.00 0.00 0.00 0.00 0.00
0.35 0.30 0.22 0.14 0.11 0.09 0.02 0.00 0.00 0.00 0.00 0.00 0.00 0.00 0.00 0.00 0.00 0.00 0.00 0.00 0.00 0.00 0.00 0.00 0.00 0.00 0.00 0.00 0.00 0.00 0.00 0.00 0.00 0.00 0.00 0.00 0.00 0.00 0.00 0.00 0.00 0.00 0.00 0.00 0.00 0.00 0.00 0.00 0.00 0.00 0.00 0.01 0.01 0.01
0.26 0.21 0.17 0.09 0.05 0.06 0.05 0.02 0.00 0.00 0.00 0.01 0.00 0.01 0.01 0.00 0.00 0.00 0.00 0.00 0.00 0.00 0.00 0.00 0.00 0.00 0.00 0.00 0.00 0.00 0.00 0.00 0.00 0.00 0.00 0.00 0.00 0.00 0.00 0.00 0.00 0.00 0.00 0.00 0.00 0.00 0.00 0.01 0.04 0.05 0.04 0.01 0.00 0.00
0.24 0.17 0.14 0.08 0.04 0.02 0.02 0.04 0.06 0.11 0.12 0.03 0.01 0.00 0.02 0.01 0.00 0.00 0.00 0.00 0.00 0.00 0.00 0.00 0.00 0.00 0.00 0.00 0.00 0.00 0.00 0.00 0.00 0.00 0.00 0.00 0.00 0.00 0.00 0.00 0.00 0.00 0.00 0.00 0.00 0.00 0.05 0.10 0.06 0.01 0.00 0.00 0.00 0.00
0.20 0.21 0.18 0.11 0.08 0.07 0.04 0.05 0.15 0.20 0.18 0.13 0.04 0.02 0.06 0.06 0.05 0.03 0.02 0.00 0.00 0.00 0.00 0.00 0.00 0.00 0.00 0.00 0.00 0.00 0.00 0.00 0.00 0.00 0.01 0.00 0.00 0.00 0.00 0.00 0.00 0.00 0.00 0.03 0.07 0.08 0.04 0.00 0.00 0.00 0.00 0.00 0.00 0.00
0.10 0.14 0.19 0.21 0.16 0.17 0.17 0.14 0.15 0.25 0.33 0.31 0.28 0.27 0.27 0.32 0.20 0.13 0.02 0.01 0.00 0.00 0.00 0.00 0.00 0.00 0.00 0.00 0.04 0.05 0.07 0.03 0.01 0.03 0.02 0.01 0.00 0.00 0.01 0.02 0.02 0.02 0.02 0.02 0.00 0.00 0.00 0.00 0.00 0.00 0.00 0.00 0.00 0.00
0.03 0.06 0.09 0.12 0.14 0.16 0.20 0.21 0.22 0.17 0.20 0.44 0.47 0.58 0.49 0.43 0.21 0.12 0.04 0.02 0.01 0.00 0.00 0.00 0.00 0.00 0.01 0.04 0.17 0.25 0.31 0.16 0.16 0.09 0.05 0.07 0.07 0.04 0.03 0.02 0.00 0.00 0.00 0.00 0.00 0.00 0.00 0.00 0.00 0.00 0.00 0.00 0.00 0.00
0.00 0.00 0.02 0.05 0.05 0.06 0.08 0.10 0.11 0.09 0.16 0.32 0.34 0.34 0.28 0.13 0.06 0.03 0.02 0.02 0.02 0.02 0.04 0.07 0.12 0.12 0.13 0.29 0.34 0.27 0.23 0.17 0.16 0.20 0.28 0.25 0.06 0.00 0.00 0.00 0.00 0.00 0.00 0.00 0.00 0.00 0.00 0.00 0.00 0.00 0.00 0.00 0.00 0.00
0.00 0.00 0.00 0.00 0.00 0.02 0.03 0.03 0.02 0.05 0.10 0.13 0.14 0.12 0.09 0.06 0.09 0.10 0.12 0.12 0.13 0.15 0.17 0.22 0.23 0.24 0.27 0.21 0.16 0.17 0.19 0.21 0.26 0.14 0.08 0.05 0.05 0.01 0.00 0.00 0.00 0.00 0.00 0.00 0.00 0.00 0.00 0.00 0.00 0.00 0.00 0.00 0.00 0.00
0.00 0.00 0.00 0.00 0.00 0.00 0.00 0.00 0.00 0.02 0.06 0.06 0.05 0.04 0.03 0.04 0.06 0.07 0.07 0.09 0.10 0.09 0.09 0.10 0.10 0.11 0.13 0.14 0.15 0.14 0.18 0.11 0.03 0.01 0.01 0.00 0.00 0.00 0.00 0.00 0.01 0.00 0.00 0.00 0.00 0.00 0.00 0.00 0.00 0.00 0.00 0.00 0.00 0.00
0.01 0.00 0.00 0.00 0.00 0.00 0.00 0.00 0.00 0.00 0.00 0.01 0.01 0.02 0.01 0.01 0.00 0.00 0.00 0.00 0.00 0.01 0.00 0.01 0.01 0.03 0.06 0.06 0.11 0.04 0.01 0.00 0.00 0.00 0.00 0.00 0.00 0.02 0.01 0.00 0.00 0.00 0.00 0.00 0.00 0.00 0.00 0.00 0.00 0.00 0.00 0.00 0.00 0.00
0.01 0.00 0.00 0.00 0.00 0.00 0.00 0.00 0.00 0.00 0.00 0.01 0.01 0.01 0.00 0.00 0.00 0.00 0.00 0.00 0.00 0.00 0.00 0.00 0.00 0.00 0.00 0.00 0.00 0.00 0.00 0.00 0.00 0.00 0.03 0.04 0.01 0.00 0.00 0.00 0.00 0.00 0.00 0.00 0.00 0.00 0.00 0.00 0.00 0.00 0.00 0.00 0.00 0.00
0.00 0.00 0.01 0.00 0.00 0.00 0.00 0.00 0.00 0.00 0.00 0.01 0.01 0.00 0.00 0.00 0.00 0.00 0.00 0.00 0.00 0.00 0.00 0.00 0.00 0.00 0.00 0.00 0.00 0.00 0.00 0.00 0.00 0.00 0.00 0.00 0.00 0.00 0.00 0.00 0.00 0.00 0.00 0.00 0.00 0.00 0.00 0.00 0.00 0.01 0.02 0.01 0.00 0.00
0.00 0.00 0.02 0.03 0.00 0.00 0.01 0.00 0.00 0.00 0.00 0.00 0.01 0.00 0.00 0.00 0.00 0.00 0.00 0.00 0.00 0.00 0.00 0.00 0.00 0.00 0.00 0.00 0.00 0.00 0.00 0.00 0.00 0.00 0.00 0.00 0.00 0.00 0.00 0.00 0.00 0.00 0.00 0.00 0.00 0.00 0.01 0.02 0.02 0.02 0.01 0.00 0.00 0.01
0.00 0.00 0.08 0.11 0.03 0.00 0.00 0.00 0.00 0.00 0.00 0.00 0.00 0.00 0.00 0.00 0.00 0.00 0.00 0.00 0.00 0.00 0.00 0.00 0.00 0.00 0.00 0.00 0.00 0.00 0.00 0.00 0.00 0.00 0.00 0.00 0.00 0.00 0.00 0.00 0.00 0.00 0.01 0.01 0.02 0.02 0.01 0.02 0.01 0.00 0.00 0.00 0.00 0.00
0.02 0.01 0.09 0.18 0.10 0.01 0.00 0.00 0.00 0.00 0.00 0.01 0.00 0.00 0.00 0.00 0.00 0.00 0.00 0.00 0.00 0.00 0.00 0.00 0.00 0.00 0.00 0.00 0.00 0.00 0.00 0.00 0.00 0.00 0.00 0.00 0.00 0.00 0.00 0.00 0.01 0.01 0.01 0.01 0.03 0.02 0.01 0.00 0.00 0.00 0.00 0.01 0.02 0.05
0.08 0.03 0.06 0.12 0.14 0.08 0.02 0.00 0.00 0.00 0.00 0.00 0.00 0.00 0.00 0.00 0.00 0.00 0.00 0.01 0.01 0.00 0.00 0.00 0.00 0.00 0.00 0.00 0.00 0.00 0.00 0.00 0.00 0.00 0.00 0.00 0.00 0.00 0.00 0.00 0.00 0.01 0.01 0.01 0.00 0.00 0.00 0.00 0.00 0.01 0.04 0.09 0.10 0.08
0.13 0.13 0.10 0.09 0.04 0.02 0.01 0.01 0.01 0.00 0.00 0.00 0.00 0.00 0.01 0.00 0.00 0.00 0.01 0.04 0.03 0.03 0.02 0.01 0.01 0.01 0.00 0.01 0.00 0.00 0.00 0.00 0.00 0.00 0.00 0.00 0.00 0.00 0.00 0.00 0.00 0.01 0.00 0.00 0.01 0.01 0.01 0.03 0.08 0.11 0.09 0.06 0.04 0.04
0.10 0.08 0.06 0.03 0.02 0.02 0.00 0.00 0.01 0.01 0.01 0.00 0.00 0.01 0.00 0.00 0.00 0.00 0.03 0.05 0.05 0.05 0.04 0.02 0.01 0.01 0.02 0.01 0.01 0.00 0.00 0.00 0.00 0.00 0.01 0.01 0.01 0.01 0.01 0.01 0.01 0.00 0.00 0.01 0.03 0.05 0.07 0.07 0.06 0.05 0.04 0.02 0.03 0.05
0.06 0.05 0.01 0.01 0.02 0.05 0.03 0.01 0.01 0.02 0.02 0.02 0.01 0.00 0.00 0.00 0.00 0.03 0.04 0.04 0.04 0.04 0.02 0.01 0.01 0.00 0.01 0.01 0.00 0.00 0.00 0.00 0.00 0.00 0.01 0.04 0.03 0.01 0.01 0.02 0.04 0.02 0.01 0.01 0.02 0.03 0.05 0.05 0.04 0.03 0.03 0.03 0.07 0.10
0.01 0.00 0.00 0.04 0.08 0.08 0.07 0.06 0.04 0.03 0.04 0.04 0.02 0.01 0.01 0.00 0.02 0.04 0.04 0.05 0.03 0.02 0.01 0.01 0.00 0.00 0.00 0.01 0.00 0.00 0.00 0.00 0.00 0.00 0.00 0.03 0.01 0.00 0.00 0.00 0.00 0.00 0.00 0.00 0.01 0.02 0.03 0.05 0.05 0.04 0.07 0.10 0.12 0.10
0.01 0.02 0.02 0.04 0.09 0.10 0.09 0.07 0.08 0.08 0.07 0.07 0.04 0.03 0.03 0.03 0.04 0.04 0.04 0.03 0.02 0.01 0.00 0.01 0.01 0.00 0.00 0.00 0.00 0.00 0.00 0.00 0.00 0.00 0.00 0.00 0.00 0.00 0.00 0.00 0.00 0.00 0.00 0.00 0.00 0.00 0.02 0.05 0.05 0.09 0.15 0.13 0.12 0.12
0.06 0.12 0.12 0.07 0.09 0.11 0.11 0.11 0.11 0.08 0.06 0.04 0.02 0.01 0.01 0.02 0.05 0.04 0.02 0.01 0.01 0.01 0.02 0.01 0.01 0.00 0.00 0.00 0.00 0.00 0.01 0.01 0.00 0.00 0.01 0.01 0.01 0.01 0.00 0.00 0.00 0.00 0.00 0.00 0.00 0.00 0.00 0.01 0.02 0.10 0.10 0.07 0.09 0.09
0.10 0.11 0.09 0.07 0.07 0.05 0.05 0.03 0.04 0.03 0.02 0.01 0.00 0.01 0.02 0.02 0.03 0.03 0.02 0.03 0.01 0.01 0.00 0.00 0.00 0.00 0.00 0.00 0.01 0.00 0.00 0.01 0.00 0.01 0.01 0.01 0.01 0.00 0.00 0.00 0.00 0.01 0.00 0.00 0.01 0.01 0.03 0.02 0.05 0.07 0.05 0.04 0.06 0.06
0.01 0.01 0.01 0.01 0.01 0.01 0.00 0.00 0.00 0.00 0.01 0.01 0.02 0.01 0.01 0.01 0.01 0.02 0.02 0.02 0.01 0.00 0.00 0.00 0.00 0.00 0.00 0.01 0.01 0.00 0.02 0.01 0.00 0.00 0.01 0.01 0.01 0.00 0.00 0.00 0.00 0.00 0.00 0.00 0.01 0.02 0.03 0.03 0.04 0.04 0.05 0.04 0.05 0.04
0.00 0.00 0.00 0.00 0.00 0.00 0.00 0.00 0.00 0.00 0.01 0.02 0.03 0.02 0.02 0.01 0.02 0.02 0.02 0.00 0.00 0.00 0.00 0.00 0.00 0.00 0.00 0.00 0.00 0.00 0.00 0.00 0.00 0.00 0.00 0.01 0.00 0.00 0.00 0.00 0.00 0.00 0.00 0.00 0.01 0.03 0.02 0.03 0.03 0.04 0.04 0.04 0.04 0.03

GFSWCAN_prec_precacc12_045.txt.gz
Total_Precipitation_Accumulation
0.18 0.06 0.02 0.01 0.00 0.00 0.01 0.01 0.01 0.01 0.01 0.01 0.01 0.00 0.00 0.00 0.00 0.00 0.02 0.02 0.01 0.00 0.00 0.00 0.00 0.00 0.00 0.00 0.00 0.00 0.00 0.00 0.00 0.00 0.00 0.00 0.00 0.00 0.00 0.00 0.00 0.00 0.00 0.00 0.00 0.00 0.00 0.00 0.00 0.00 0.00 0.00 0.00 0.00
0.11 0.02 0.00 0.00 0.00 0.00 0.01 0.01 0.01 0.01 0.01 0.02 0.02 0.00 0.00 0.00 0.00 0.01 0.03 0.04 0.02 0.02 0.00 0.00 0.00 0.00 0.00 0.00 0.00 0.00 0.00 0.00 0.00 0.00 0.00 0.00 0.00 0.00 0.00 0.00 0.00 0.00 0.00 0.00 0.00 0.00 0.00 0.00 0.00 0.00 0.00 0.00 0.00 0.00
0.09 0.00 0.00 0.00 0.00 0.00 0.00 0.00 0.00 0.02 0.02 0.02 0.01 0.00 0.00 0.00 0.00 0.01 0.01 0.06 0.03 0.02 0.01 0.00 0.00 0.00 0.00 0.00 0.00 0.00 0.00 0.00 0.00 0.00 0.00 0.00 0.00 0.00 0.00 0.00 0.00 0.00 0.00 0.00 0.00 0.00 0.00 0.00 0.00 0.00 0.00 0.00 0.00 0.00
0.11 0.00 0.00 0.00 0.00 0.00 0.00 0.00 0.01 0.01 0.03 0.03 0.00 0.00 0.01 0.00 0.00 0.01 0.01 0.03 0.04 0.02 0.03 0.00 0.00 0.00 0.00 0.00 0.00 0.00 0.00 0.00 0.00 0.00 0.00 0.00 0.00 0.00 0.00 0.00 0.00 0.00 0.00 0.00 0.00 0.00 0.00 0.00 0.00 0.00 0.00 0.00 0.00 0.00
0.16 0.01 0.00 0.00 0.01 0.01 0.00 0.00 0.00 0.00 0.00 0.03 0.02 0.01 0.01 0.01 0.00 0.01 0.00 0.00 0.01 0.00 0.00 0.01 0.01 0.00 0.00 0.00 0.00 0.00 0.00 0.00 0.00 0.00 0.00 0.00 0.00 0.00 0.00 0.00 0.00 0.00 0.00 0.00 0.00 0.00 0.00 0.00 0.00 0.00 0.00 0.00 0.00 0.00
0.23 0.05 0.01 0.00 0.02 0.02 0.00 0.00 0.00 0.00 0.00 0.01 0.01 0.01 0.00 0.01 0.01 0.00 0.00 0.00 0.00 0.00 0.00 0.00 0.01 0.00 0.01 0.00 0.00 0.00 0.00 0.00 0.00 0.00 0.00 0.00 0.00 0.00 0.00 0.00 0.00 0.00 0.00 0.00 0.00 0.00 0.00 0.00 0.00 0.00 0.00 0.00 0.00 0.00
0.30 0.16 0.06 0.01 0.04 0.03 0.00 0.00 0.00 0.00 0.00 0.00 0.00 0.00 0.00 0.00 0.00 0.00 0.00 0.00 0.00 0.00 0.00 0.00 0.00 0.00 0.00 0.00 0.00 0.00 0.00 0.00 0.00 0.00 0.00 0.00 0.00 0.00 0.00 0.00 0.00 0.00 0.00 0.00 0.00 0.00 0.00 0.00 0.00 0.00 0.00 0.00 0.00 0.00
0.37 0.24 0.16 0.08 0.07 0.08 0.00 0.00 0.00 0.00 0.00 0.00 0.00 0.00 0.00 0.00 0.00 0.00 0.00 0.00 0.00 0.00 0.00 0.00 0.00 0.00 0.00 0.00 0.00 0.00 0.00 0.00 0.00 0.00 0.00 0.00 0.00 0.00 0.00 0.00 0.00 0.00 0.00 0.00 0.00 0.00 0.00 0.00 0.00 0.00 0.00 0.00 0.00 0.01
0.35 0.28 0.18 0.11 0.09 0.13 0.02 0.00 0.00 0.00 0.00 0.00 0.00 0.00 0.00 0.00 0.00 0.00 0.00 0.00 0.00 0.00 0.00 0.00 0.00 0.00 0.00 0.00 0.00 0.00 0.00 0.00 0.00 0.00 0.00 0.00 0.00 0.00 0.00 0.00 0.00 0.00 0.00 0.00 0.00 0.00 0.00 0.00 0.00 0.00 0.00 0.02 0.04 0.04
0.26 0.22 0.18 0.09 0.06 0.12 0.05 0.01 0.00 0.00 0.00 0.00 0.00 0.00 0.00 0.00 0.00 0.00 0.00 0.00 0.00 0.00 0.00 0.00 0.00 0.00 0.00 0.00 0.00 0.00 0.00 0.00 0.00 0.00 0.00 0.00 0.00 0.00 0.00 0.00 0.00 0.00 0.00 0.00 0.00 0.00 0.00 0.01 0.04 0.06 0.06 0.03 0.00 0.00
0.26 0.17 0.14 0.08 0.05 0.11 0.07 0.02 0.01 0.03 0.01 0.00 0.00 0.00 0.00 0.00 0.00 0.00 0.00 0.00 0.00 0.00 0.00 0.00 0.00 0.00 0.00 0.00 0.00 0.00 0.00 0.00 0.00 0.00 0.00 0.00 0.00 0.00 0.00 0.00 0.00 0.00 0.00 0.00 0.00 0.00 0.05 0.11 0.06 0.01 0.00 0.00 0.00 0.00
0.36 0.26 0.19 0.12 0.08 0.13 0.11 0.07 0.10 0.09 0.03 0.02 0.00 0.00 0.02 0.00 0.00 0.00 0.00 0.00 0.00 0.00 0.00 0.00 0.00 0.00 0.00 0.00 0.00 0.00 0.00 0.00 0.00 0.00 0.00 0.00 0.00 0.00 0.00 0.00 0.00 0.00 0.00 0.03 0.07 0.08 0.04 0.00 0.00 0.00 0.00 0.00 0.00 0.00
0.34 0.30 0.26 0.25 0.17 0.18 0.19 0.15 0.15 0.20 0.19 0.13 0.08 0.08 0.10 0.09 0.03 0.01 0.01 0.00 0.00 0.00 0.00 0.00 0.00 0.00 0.00 0.00 0.03 0.03 0.05 0.02 0.00 0.02 0.02 0.02 0.00 0.00 0.01 0.02 0.02 0.02 0.02 0.02 0.00 0.00 0.00 0.00 0.00 0.00 0.00 0.00 0.00 0.00
0.24 0.26 0.23 0.20 0.20 0.18 0.21 0.21 0.22 0.16 0.16 0.28 0.26 0.26 0.21 0.19 0.07 0.05 0.01 0.01 0.01 0.00 0.00 0.00 0.00 0.00 0.00 0.03 0.13 0.18 0.22 0.11 0.13 0.07 0.05 0.07 0.08 0.06 0.04 0.02 0.00 0.00 0.00 0.00 0.00 0.00 0.00 0.00 0.00 0.00 0.00 0.00 0.00 0.00
0.11 0.13 0.14 0.15 0.17 0.17 0.15 0.13 0.11 0.09 0.16 0.28 0.25 0.22 0.15 0.04 0.01 0.01 0.01 0.01 0.01 0.01 0.02 0.03 0.07 0.07 0.08 0.21 0.25 0.21 0.18 0.12 0.12 0.11 0.16 0.23 0.08 0.00 0.00 0.00 0.00 0.00 0.00 0.00 0.00 0.00 0.00 0.00 0.00 0.00 0.00 0.00 0.00 0.00
0.01 0.02 0.04 0.07 0.08 0.10 0.11 0.06 0.04 0.08 0.12 0.15 0.14 0.09 0.06 0.03 0.04 0.04 0.06 0.06 0.06 0.06 0.09 0.15 0.15 0.16 0.21 0.15 0.11 0.11 0.13 0.11 0.10 0.06 0.08 0.07 0.06 0.01 0.00 0.00 0.00 0.00 0.00 0.00 0.00 0.00 0.00 0.00 0.00 0.00 0.00 0.00 0.00 0.00
0.00 0.00 0.00 0.00 0.00 0.01 0.02 0.05 0.08 0.17 0.19 0.14 0.08 0.06 0.03 0.03 0.04 0.05 0.05 0.06 0.06 0.06 0.08 0.10 0.07 0.06 0.09 0.09 0.09 0.09 0.10 0.04 0.01 0.02 0.04 0.04 0.02 0.00 0.00 0.00 0.01 0.00 0.00 0.00 0.00 0.00 0.00 0.00 0.00 0.00 0.00 0.00 0.00 0.00
0.00 0.00 0.00 0.00 0.00 0.00 0.00 0.00 0.02 0.05 0.06 0.08 0.05 0.06 0.03 0.03 0.02 0.01 0.01 0.01 0.00 0.01 0.01 0.01 0.00 0.03 0.04 0.04 0.07 0.02 0.00 0.00 0.00 0.00 0.01 0.02 0.01 0.02 0.01 0.00 0.00 0.00 0.00 0.00 0.00 0.00 0.00 0.00 0.00 0.00 0.00 0.00 0.00 0.00
0.00 0.00 0.00 0.00 0.00 0.00 0.00 0.00 0.00 0.00 0.01 0.02 0.03 0.02 0.01 0.01 0.01 0.00 0.00 0.00 0.00 0.00 0.00 0.00 0.00 0.00 0.00 0.00 0.00 0.00 0.00 0.00 0.00 0.00 0.05 0.10 0.06 0.02 0.00 0.00 0.00 0.00 0.00 0.00 0.00 0.00 0.00 0.00 0.00 0.00 0.00 0.00 0.00 0.00
0.00 0.00 0.00 0.00 0.00 0.00 0.00 0.00 0.00 0.00 0.01 0.01 0.02 0.01 0.01 0.01 0.01 0.00 0.00 0.00 0.00 0.00 0.00 0.00 0.00 0.00 0.00 0.00 0.00 0.00 0.00 0.00 0.00 0.00 0.00 0.01 0.01 0.00 0.00 0.00 0.00 0.00 0.00 0.00 0.00 0.00 0.00 0.00 0.00 0.00 0.00 0.00 0.00 0.00
0.00 0.00 0.00 0.00 0.00 0.00 0.00 0.00 0.00 0.00 0.00 0.01 0.02 0.01 0.01 0.01 0.00 0.00 0.00 0.00 0.00 0.00 0.00 0.00 0.00 0.00 0.00 0.00 0.00 0.00 0.00 0.00 0.00 0.00 0.00 0.00 0.00 0.00 0.00 0.00 0.00 0.00 0.00 0.00 0.00 0.00 0.00 0.00 0.00 0.00 0.00 0.00 0.00 0.01
0.00 0.00 0.00 0.01 0.01 0.00 0.00 0.00 0.00 0.00 0.00 0.00 0.00 0.00 0.00 0.00 0.00 0.00 0.00 0.00 0.00 0.00 0.00 0.00 0.00 0.00 0.00 0.00 0.00 0.00 0.00 0.00 0.00 0.00 0.00 0.00 0.00 0.00 0.00 0.00 0.00 0.00 0.00 0.00 0.00 0.01 0.00 0.00 0.00 0.00 0.00 0.00 0.00 0.00
0.00 0.00 0.00 0.02 0.04 0.00 0.00 0.00 0.00 0.00 0.00 0.00 0.00 0.00 0.00 0.00 0.00 0.00 0.00 0.00 0.01 0.01 0.00 0.00 0.00 0.00 0.00 0.00 0.00 0.00 0.00 0.00 0.00 0.00 0.00 0.00 0.00 0.00 0.00 0.00 0.00 0.00 0.00 0.00 0.00 0.00 0.00 0.00 0.00 0.00 0.00 0.01 0.02 0.05
0.02 0.00 0.00 0.02 0.06 0.06 0.02 0.00 0.00 0.00 0.00 0.00 0.00 0.00 0.00 0.00 0.01 0.00 0.00 0.02 0.02 0.01 0.01 0.01 0.00 0.00 0.00 0.00 0.00 0.00 0.00 0.00 0.00 0.00 0.00 0.00 0.00 0.00 0.00 0.00 0.00 0.01 0.01 0.00 0.00 0.00 0.00 0.00 0.00 0.00 0.03 0.09 0.10 0.08
0.01 0.05 0.02 0.01 0.02 0.02 0.01 0.01 0.01 0.00 0.00 0.00 0.00 0.00 0.01 0.01 0.00 0.00 0.01 0.04 0.04 0.04 0.04 0.04 0.04 0.02 0.01 0.01 0.00 0.00 0.00 0.00 0.00 0.00 0.00 0.00 0.00 0.00 0.00 0.00 0.00 0.00 0.00 0.00 0.00 0.00 0.00 0.00 0.00 0.03 0.06 0.05 0.04 0.03
0.01 0.01 0.02 0.01 0.01 0.02 0.00 0.00 0.01 0.01 0.01 0.01 0.01 0.01 0.01 0.00 0.00 0.00 0.03 0.05 0.05 0.06 0.06 0.05 0.03 0.03 0.03 0.02 0.02 0.01 0.00 0.00 0.00 0.00 0.01 0.01 0.00 0.00 0.00 0.00 0.00 0.00 0.00 0.00 0.02 0.01 0.00 0.00 0.00 0.02 0.03 0.02 0.02 0.03
0.01 0.01 0.01 0.01 0.02 0.05 0.03 0.01 0.01 0.03 0.03 0.03 0.02 0.03 0.02 0.01 0.01 0.03 0.04 0.05 0.04 0.06 0.04 0.03 0.02 0.01 0.01 0.01 0.00 0.00 0.00 0.00 0.00 0.00 0.01 0.01 0.00 0.00 0.00 0.00 0.01 0.01 0.00 0.00 0.01 0.01 0.02 0.02 0.02 0.01 0.02 0.01 0.03 0.06
0.01 0.00 0.00 0.04 0.08 0.09 0.07 0.06 0.05 0.04 0.05 0.05 0.04 0.04 0.06 0.03 0.03 0.04 0.05 0.06 0.04 0.03 0.02 0.02 0.01 0.00 0.00 0.00 0.00 0.00 0.00 0.00 0.00 0.00 0.00 0.00 0.00 0.00 0.00 0.00 0.00 0.00 0.00 0.00 0.00 0.00 0.01 0.02 0.03 0.03 0.03 0.05 0.08 0.07
0.01 0.02 0.02 0.04 0.09 0.11 0.11 0.09 0.11 0.11 0.10 0.10 0.07 0.08 0.09 0.06 0.07 0.06 0.07 0.05 0.03 0.01 0.01 0.01 0.01 0.01 0.00 0.00 0.00 0.00 0.00 0.00 0.00 0.00 0.00 0.00 0.00 0.00 0.00 0.00 0.00 0.00 0.00 0.00 0.00 0.00 0.00 0.02 0.03 0.06 0.10 0.08 0.07 0.07
0.06 0.12 0.12 0.08 0.10 0.12 0.13 0.15 0.15 0.13 0.10 0.09 0.05 0.03 0.02 0.03 0.06 0.06 0.03 0.02 0.01 0.02 0.02 0.01 0.01 0.00 0.00 0.00 0.00 0.00 0.00 0.00 0.00 0.00 0.00 0.00 0.01 0.01 0.00 0.00 0.00 0.00 0.00 0.00 0.00 0.00 0.00 0.00 0.00 0.04 0.05 0.06 0.05 0.04
0.11 0.12 0.10 0.08 0.08 0.06 0.07 0.07 0.08 0.06 0.05 0.03 0.02 0.01 0.02 0.02 0.04 0.04 0.03 0.03 0.01 0.01 0.00 0.00 0.00 0.00 0.00 0.00 0.00 0.00 0.00 0.00 0.00 0.00 0.00 0.00 0.01 0.00 0.00 0.00 0.00 0.00 0.00 0.00 0.00 0.00 0.01 0.00 0.01 0.02 0.02 0.02 0.03 0.03
0.01 0.02 0.01 0.02 0.02 0.01 0.00 0.00 0.01 0.01 0.01 0.01 0.01 0.01 0.01 0.01 0.01 0.02 0.03 0.02 0.00 0.00 0.00 0.00 0.00 0.00 0.00 0.01 0.00 0.00 0.00 0.00 0.00 0.00 0.00 0.01 0.00 0.00 0.00 0.00 0.00 0.00 0.00 0.00 0.00 0.00 0.00 0.00 0.01 0.01 0.01 0.02 0.02 0.02
0.00 0.00 0.00 0.00 0.00 0.00 0.00 0.00 0.00 0.01 0.01 0.02 0.03 0.02 0.02 0.01 0.01 0.02 0.02 0.01 0.00 0.00 0.00 0.00 0.00 0.00 0.00 0.00 0.00 0.00 0.00 0.00 0.00 0.00 0.00 0.01 0.00 0.00 0.00 0.00 0.00 0.00 0.00 0.00 0.00 0.00 0.00 0.00 0.01 0.01 0.01 0.01 0.02 0.02

GFSWCAN_prec_precacc12_048.txt.gz
Total_Precipitation_Accumulation
0.26 0.22 0.16 0.13 0.09 0.19 0.12 0.05 0.03 0.02 0.01 0.01 0.01 0.01 0.00 0.00 0.02 0.06 0.07 0.05 0.01 0.00 0.00 0.00 0.00 0.00 0.00 0.00 0.00 0.00 0.00 0.00 0.00 0.00 0.01 0.00 0.00 0.00 0.00 0.00 0.00 0.00 0.00 0.00 0.00 0.00 0.00 0.00 0.00 0.00 0.00 0.00 0.00 0.00
0.19 0.26 0.13 0.11 0.13 0.10 0.05 0.02 0.01 0.01 0.01 0.02 0.02 0.01 0.00 0.00 0.02 0.08 0.07 0.08 0.03 0.03 0.00 0.00 0.00 0.00 0.00 0.00 0.00 0.00 0.00 0.00 0.00 0.00 0.00 0.00 0.00 0.00 0.00 0.00 0.00 0.00 0.00 0.00 0.00 0.00 0.00 0.00 0.00 0.00 0.00 0.00 0.00 0.00
0.17 0.11 0.10 0.11 0.05 0.02 0.01 0.01 0.01 0.02 0.02 0.02 0.02 0.00 0.00 0.00 0.03 0.05 0.03 0.07 0.03 0.05 0.01 0.00 0.00 0.00 0.00 0.00 0.00 0.00 0.00 0.00 0.00 0.00 0.00 0.00 0.00 0.00 0.00 0.00 0.00 0.00 0.00 0.00 0.00 0.00 0.00 0.00 0.00 0.00 0.00 0.00 0.00 0.00
0.05 0.04 0.03 0.01 0.01 0.01 0.00 0.00 0.01 0.02 0.03 0.03 0.00 0.00 0.01 0.00 0.01 0.03 0.02 0.04 0.07 0.11 0.07 0.01 0.00 0.00 0.00 0.00 0.00 0.00 0.00 0.00 0.00 0.00 0.00 0.00 0.00 0.00 0.00 0.00 0.00 0.00 0.00 0.00 0.00 0.00 0.00 0.00 0.00 0.00 0.00 0.00 0.00 0.00
0.03 0.00 0.00 0.00 0.01 0.01 0.00 0.00 0.01 0.02 0.06 0.06 0.03 0.02 0.01 0.02 0.02 0.03 0.01 0.02 0.04 0.04 0.04 0.04 0.02 0.00 0.00 0.00 0.00 0.00 0.00 0.00 0.00 0.00 0.00 0.00 0.00 0.00 0.00 0.00 0.00 0.00 0.00 0.00 0.00 0.00 0.00 0.00 0.00 0.00 0.00 0.00 0.00 0.00
0.04 0.01 0.00 0.00 0.02 0.02 0.00 0.01 0.01 0.05 0.12 0.05 0.02 0.02 0.03 0.05 0.03 0.02 0.00 0.00 0.01 0.01 0.02 0.05 0.03 0.02 0.01 0.01 0.00 0.00 0.00 0.00 0.00 0.00 0.00 0.00 0.00 0.00 0.00 0.00 0.00 0.00 0.00 0.00 0.00 0.00 0.00 0.00 0.00 0.00 0.00 0.00 0.00 0.00
0.07 0.01 0.00 0.00 0.04 0.04 0.01 0.02 0.03 0.06 0.08 0.04 0.02 0.03 0.06 0.11 0.05 0.00 0.00 0.00 0.01 0.00 0.01 0.02 0.03 0.03 0.02 0.02 0.01 0.01 0.00 0.00 0.00 0.00 0.00 0.00 0.00 0.00 0.00 0.00 0.00 0.00 0.00 0.00 0.00 0.00 0.00 0.00 0.00 0.00 0.00 0.00 0.00 0.00
0.14 0.05 0.01 0.00 0.04 0.07 0.01 0.02 0.01 0.02 0.05 0.05 0.06 0.06 0.05 0.05 0.03 0.00 0.00 0.00 0.00 0.00 0.00 0.00 0.00 0.01 0.01 0.01 0.01 0.00 0.00 0.00 0.00 0.00 0.00 0.00 0.00 0.00 0.00 0.00 0.00 0.00 0.00 0.00 0.00 0.00 0.00 0.00 0.00 0.00 0.00 0.00 0.00 0.01
0.21 0.12 0.06 0.02 0.04 0.12 0.03 0.00 0.01 0.00 0.01 0.01 0.01 0.01 0.01 0.01 0.00 0.00 0.00 0.00 0.00 0.00 0.00 0.00 0.00 0.00 0.00 0.00 0.00 0.00 0.00 0.00 0.00 0.00 0.00 0.00 0.00 0.00 0.00 0.00 0.00 0.00 0.00 0.00 0.00 0.00 0.00 0.00 0.00 0.00 0.00 0.02 0.05 0.04
0.24 0.15 0.08 0.04 0.05 0.14 0.06 0.01 0.00 0.00 0.00 0.00 0.00 0.00 0.00 0.00 0.00 0.00 0.00 0.00 0.00 0.00 0.00 0.00 0.00 0.00 0.00 0.00 0.00 0.00 0.00 0.00 0.00 0.00 0.00 0.00 0.00 0.00 0.00 0.00 0.00 0.00 0.00 0.00 0.00 0.00 0.00 0.01 0.04 0.06 0.06 0.03 0.00 0.00
0.27 0.20 0.15 0.05 0.04 0.12 0.09 0.02 0.00 0.00 0.00 0.00 0.00 0.00 0.00 0.00 0.00 0.00 0.00 0.00 0.00 0.00 0.00 0.00 0.00 0.00 0.00 0.00 0.00 0.00 0.00 0.00 0.00 0.00 0.00 0.00 0.00 0.00 0.00 0.00 0.00 0.00 0.00 0.00 0.00 0.00 0.05 0.11 0.06 0.01 0.00 0.00 0.00 0.00
0.40 0.31 0.21 0.14 0.08 0.13 0.13 0.05 0.02 0.00 0.00 0.00 0.00 0.00 0.00 0.00 0.00 0.00 0.00 0.00 0.00 0.00 0.00 0.00 0.00 0.00 0.00 0.00 0.00 0.00 0.00 0.00 0.00 0.00 0.00 0.00 0.00 0.00 0.00 0.00 0.00 0.00 0.00 0.03 0.07 0.08 0.04 0.00 0.00 0.00 0.00 0.00 0.00 0.00
0.47 0.38 0.30 0.30 0.19 0.21 0.25 0.17 0.08 0.03 0.01 0.01 0.01 0.03 0.02 0.02 0.00 0.00 0.00 0.00 0.00 0.00 0.00 0.00 0.00 0.00 0.00 0.00 0.01 0.01 0.02 0.01 0.00 0.01 0.01 0.01 0.00 0.00 0.01 0.02 0.02 0.02 0.02 0.02 0.00 0.00 0.00 0.00 0.00 0.00 0.00 0.00 0.00 0.00
0.45 0.37 0.28 0.25 0.22 0.21 0.26 0.25 0.21 0.10 0.06 0.11 0.11 0.09 0.07 0.07 0.02 0.01 0.00 0.00 0.00 0.00 0.00 0.00 0.00 0.00 0.00 0.01 0.07 0.10 0.13 0.07 0.08 0.05 0.04 0.05 0.06 0.06 0.04 0.02 0.00 0.00 0.00 0.00 0.00 0.00 0.00 0.00 0.00 0.00 0.00 0.00 0.00 0.00
0.29 0.25 0.21 0.19 0.20 0.18 0.16 0.14 0.13 0.09 0.15 0.23 0.17 0.15 0.08 0.02 0.00 0.00 0.00 0.00 0.00 0.00 0.00 0.01 0.04 0.03 0.04 0.11 0.15 0.14 0.13 0.07 0.05 0.03 0.08 0.16 0.08 0.01 0.00 0.00 0.00 0.00 0.00 0.00 0.00 0.00 0.00 0.00 0.00 0.00 0.00 0.00 0.00 0.00
0.07 0.10 0.14 0.15 0.13 0.13 0.13 0.07 0.05 0.08 0.13 0.15 0.13 0.07 0.04 0.02 0.02 0.03 0.04 0.04 0.03 0.04 0.05 0.09 0.08 0.09 0.14 0.09 0.06 0.06 0.06 0.03 0.02 0.03 0.09 0.08 0.08 0.01 0.00 0.00 0.00 0.00 0.00 0.00 0.00 0.00 0.00 0.00 0.00 0.00 0.00 0.00 0.00 0.00
0.00 0.02 0.05 0.04 0.03 0.04 0.06 0.09 0.13 0.24 0.26 0.18 0.10 0.06 0.03 0.03 0.04 0.05 0.05 0.06 0.06 0.06 0.09 0.10 0.06 0.04 0.07 0.05 0.04 0.03 0.03 0.01 0.00 0.02 0.06 0.05 0.03 0.00 0.00 0.00 0.01 0.00 0.00 0.00 0.00 0.00 0.00 0.00 0.00 0.00 0.00 0.00 0.00 0.00
0.00 0.00 0.00 0.00 0.00 0.00 0.01 0.07 0.16 0.16 0.13 0.12 0.08 0.11 0.06 0.05 0.03 0.03 0.02 0.02 0.01 0.02 0.03 0.02 0.01 0.03 0.03 0.03 0.02 0.01 0.01 0.00 0.01 0.02 0.05 0.05 0.03 0.03 0.01 0.00 0.00 0.00 0.00 0.00 0.00 0.00 0.00 0.00 0.00 0.00 0.00 0.00 0.00 0.00
0.00 0.00 0.00 0.00 0.00 0.00 0.00 0.00 0.03 0.05 0.06 0.07 0.07 0.05 0.02 0.03 0.02 0.01 0.01 0.00 0.00 0.00 0.00 0.00 0.00 0.00 0.00 0.00 0.00 0.00 0.00 0.00 0.00 0.01 0.08 0.16 0.11 0.07 0.04 0.01 0.00 0.00 0.00 0.00 0.00 0.00 0.00 0.00 0.00 0.00 0.00 0.00 0.00 0.00
0.00 0.00 0.00 0.00 0.00 0.00 0.00 0.00 0.00 0.00 0.02 0.03 0.04 0.03 0.01 0.02 0.01 0.00 0.00 0.00 0.00 0.00 0.00 0.00 0.00 0.00 0.00 0.00 0.00 0.00 0.00 0.00 0.00 0.00 0.01 0.04 0.04 0.03 0.01 0.00 0.00 0.00 0.00 0.00 0.00 0.00 0.00 0.00 0.00 0.00 0.00 0.00 0.00 0.00
0.00 0.00 0.00 0.00 0.00 0.00 0.00 0.00 0.00 0.00 0.00 0.02 0.04 0.02 0.02 0.01 0.00 0.00 0.00 0.00 0.00 0.00 0.00 0.00 0.00 0.00 0.00 0.00 0.00 0.00 0.00 0.00 0.00 0.00 0.00 0.00 0.00 0.00 0.00 0.00 0.00 0.00 0.00 0.00 0.00 0.00 0.00 0.00 0.00 0.00 0.00 0.00 0.00 0.01
0.00 0.00 0.00 0.00 0.00 0.00 0.00 0.00 0.00 0.00 0.00 0.01 0.00 0.00 0.00 0.00 0.00 0.00 0.00 0.00 0.00 0.00 0.00 0.00 0.00 0.00 0.00 0.00 0.00 0.00 0.00 0.00 0.00 0.00 0.00 0.00 0.00 0.00 0.00 0.00 0.00 0.00 0.00 0.00 0.00 0.00 0.00 0.00 0.00 0.00 0.00 0.00 0.00 0.00
0.00 0.00 0.00 0.00 0.00 0.00 0.00 0.00 0.00 0.00 0.00 0.01 0.00 0.00 0.00 0.00 0.00 0.00 0.00 0.00 0.01 0.01 0.01 0.01 0.01 0.00 0.00 0.00 0.00 0.00 0.00 0.00 0.00 0.00 0.00 0.00 0.00 0.00 0.00 0.00 0.00 0.00 0.00 0.00 0.00 0.00 0.00 0.00 0.00 0.00 0.00 0.00 0.00 0.02
0.00 0.00 0.00 0.00 0.00 0.01 0.01 0.00 0.00 0.00 0.00 0.00 0.00 0.00 0.00 0.01 0.01 0.00 0.01 0.02 0.03 0.02 0.03 0.03 0.01 0.01 0.00 0.00 0.00 0.00 0.00 0.00 0.00 0.00 0.00 0.00 0.00 0.00 0.00 0.00 0.00 0.00 0.00 0.00 0.00 0.00 0.00 0.00 0.00 0.00 0.00 0.00 0.02 0.03
0.00 0.00 0.00 0.00 0.00 0.00 0.00 0.01 0.01 0.01 0.01 0.00 0.00 0.00 0.01 0.01 0.01 0.01 0.02 0.04 0.04 0.05 0.07 0.07 0.07 0.06 0.04 0.02 0.01 0.00 0.00 0.00 0.00 0.00 0.00 0.00 0.00 0.00 0.00 0.00 0.00 0.00 0.00 0.00 0.00 0.00 0.00 0.00 0.00 0.00 0.00 0.00 0.01 0.02
0.00 0.00 0.00 0.00 0.00 0.00 0.00 0.00 0.01 0.01 0.01 0.01 0.01 0.02 0.02 0.01 0.01 0.01 0.03 0.05 0.06 0.07 0.08 0.07 0.06 0.05 0.05 0.03 0.02 0.01 0.00 0.00 0.00 0.00 0.01 0.00 0.00 0.00 0.00 0.00 0.00 0.00 0.00 0.00 0.01 0.01 0.00 0.00 0.00 0.00 0.00 0.00 0.01 0.01
0.00 0.00 0.00 0.00 0.01 0.03 0.02 0.01 0.01 0.03 0.03 0.04 0.03 0.03 0.04 0.02 0.01 0.03 0.04 0.05 0.05 0.06 0.06 0.05 0.03 0.02 0.02 0.01 0.00 0.00 0.00 0.00 0.00 0.00 0.00 0.00 0.00 0.00 0.00 0.00 0.00 0.00 0.00 0.00 0.00 0.01 0.01 0.01 0.01 0.00 0.01 0.00 0.01 0.03
0.00 0.00 0.00 0.01 0.04 0.06 0.06 0.05 0.05 0.04 0.05 0.06 0.05 0.05 0.08 0.05 0.04 0.05 0.06 0.08 0.06 0.04 0.03 0.02 0.02 0.01 0.00 0.00 0.00 0.00 0.00 0.00 0.00 0.00 0.00 0.00 0.00 0.00 0.00 0.00 0.00 0.00 0.00 0.00 0.00 0.00 0.00 0.01 0.01 0.01 0.02 0.02 0.02 0.03
0.01 0.01 0.01 0.02 0.07 0.10 0.11 0.09 0.11 0.12 0.11 0.12 0.09 0.10 0.11 0.09 0.10 0.09 0.11 0.09 0.06 0.02 0.02 0.02 0.02 0.01 0.01 0.00 0.00 0.00 0.00 0.00 0.00 0.00 0.00 0.00 0.00 0.00 0.00 0.00 0.00 0.00 0.00 0.00 0.00 0.00 0.00 0.01 0.01 0.03 0.04 0.03 0.03 0.03
0.03 0.07 0.08 0.06 0.08 0.11 0.14 0.15 0.15 0.14 0.12 0.10 0.07 0.04 0.03 0.05 0.08 0.08 0.06 0.04 0.02 0.02 0.03 0.02 0.01 0.01 0.00 0.00 0.00 0.00 0.00 0.00 0.00 0.00 0.00 0.00 0.00 0.01 0.00 0.00 0.00 0.00 0.00 0.00 0.00 0.00 0.00 0.00 0.00 0.00 0.01 0.01 0.01 0.01
0.09 0.10 0.09 0.08 0.08 0.07 0.08 0.08 0.09 0.07 0.05 0.04 0.04 0.03 0.04 0.03 0.05 0.05 0.03 0.03 0.02 0.02 0.01 0.00 0.00 0.00 0.00 0.00 0.00 0.00 0.00 0.00 0.00 0.00 0.01 0.00 0.00 0.00 0.00 0.00 0.00 0.00 0.00 0.00 0.00 0.00 0.00 0.00 0.00 0.00 0.00 0.00 0.00 0.00
0.01 0.02 0.02 0.02 0.01 0.01 0.01 0.01 0.02 0.02 0.02 0.01 0.01 0.01 0.01 0.01 0.01 0.02 0.03 0.02 0.00 0.00 0.00 0.00 0.00 0.00 0.00 0.00 0.00 0.00 0.00 0.00 0.00 0.00 0.00 0.00 0.00 0.00 0.00 0.00 0.00 0.00 0.00 0.00 0.00 0.00 0.00 0.00 0.00 0.00 0.00 0.00 0.00 0.00
0.00 0.00 0.00 0.00 0.00 0.00 0.00 0.00 0.00 0.01 0.01 0.01 0.02 0.02 0.02 0.01 0.01 0.02 0.03 0.01 0.00 0.00 0.00 0.00 0.00 0.00 0.00 0.00 0.00 0.00 0.00 0.00 0.00 0.00 0.00 0.01 0.01 0.00 0.00 0.00 0.00 0.00 0.00 0.00 0.00 0.00 0.00 0.00 0.00 0.00 0.00 0.00 0.00 0.00

GFSWCAN_prec_precacc12_051.txt.gz
Total_Precipitation_Accumulation
0.26 0.22 0.17 0.13 0.13 0.25 0.17 0.13 0.12 0.11 0.10 0.07 0.03 0.01 0.00 0.00 0.02 0.08 0.10 0.05 0.04 0.02 0.00 0.00 0.00 0.00 0.00 0.00 0.00 0.00 0.00 0.00 0.00 0.00 0.02 0.00 0.00 0.00 0.00 0.00 0.00 0.00 0.00 0.00 0.00 0.00 0.00 0.00 0.00 0.00 0.00 0.00 0.00 0.00
0.21 0.28 0.14 0.14 0.21 0.21 0.15 0.15 0.11 0.09 0.10 0.08 0.03 0.01 0.00 0.00 0.03 0.12 0.12 0.09 0.03 0.03 0.00 0.00 0.00 0.00 0.00 0.00 0.00 0.00 0.00 0.00 0.00 0.00 0.01 0.01 0.00 0.00 0.00 0.00 0.00 0.00 0.00 0.00 0.00 0.00 0.00 0.00 0.00 0.00 0.00 0.00 0.00 0.00
0.30 0.18 0.17 0.20 0.15 0.19 0.15 0.14 0.08 0.07 0.08 0.05 0.03 0.01 0.00 0.00 0.04 0.11 0.08 0.08 0.04 0.07 0.02 0.00 0.00 0.00 0.00 0.00 0.00 0.00 0.00 0.00 0.00 0.00 0.00 0.00 0.01 0.00 0.00 0.00 0.00 0.00 0.00 0.00 0.00 0.00 0.00 0.00 0.00 0.00 0.00 0.00 0.00 0.00
0.23 0.22 0.18 0.10 0.14 0.18 0.13 0.11 0.05 0.05 0.06 0.04 0.00 0.01 0.01 0.01 0.05 0.13 0.07 0.07 0.09 0.13 0.10 0.01 0.00 0.00 0.00 0.00 0.00 0.00 0.00 0.00 0.00 0.00 0.00 0.01 0.01 0.00 0.00 0.00 0.00 0.00 0.00 0.00 0.00 0.00 0.00 0.00 0.00 0.00 0.00 0.00 0.00 0.00
0.20 0.13 0.10 0.09 0.11 0.09 0.04 0.02 0.02 0.03 0.06 0.06 0.04 0.02 0.01 0.02 0.06 0.12 0.10 0.08 0.07 0.07 0.06 0.05 0.02 0.00 0.00 0.00 0.00 0.00 0.00 0.00 0.00 0.00 0.01 0.00 0.00 0.00 0.00 0.00 0.00 0.00 0.00 0.00 0.00 0.00 0.00 0.00 0.00 0.00 0.00 0.00 0.00 0.00
0.05 0.05 0.04 0.03 0.04 0.02 0.00 0.01 0.02 0.05 0.12 0.06 0.03 0.02 0.03 0.07 0.07 0.06 0.07 0.04 0.05 0.03 0.03 0.06 0.04 0.03 0.01 0.01 0.00 0.00 0.00 0.00 0.00 0.00 0.00 0.00 0.00 0.00 0.00 0.00 0.00 0.00 0.00 0.00 0.00 0.00 0.00 0.00 0.00 0.00 0.00 0.00 0.00 0.00
0.06 0.07 0.07 0.05 0.06 0.05 0.03 0.05 0.08 0.10 0.10 0.06 0.02 0.03 0.06 0.14 0.10 0.05 0.03 0.01 0.02 0.01 0.06 0.06 0.07 0.05 0.03 0.02 0.01 0.01 0.00 0.00 0.00 0.00 0.00 0.00 0.00 0.00 0.00 0.00 0.00 0.00 0.00 0.00 0.00 0.00 0.00 0.00 0.00 0.00 0.00 0.00 0.00 0.00
0.01 0.03 0.05 0.04 0.07 0.10 0.06 0.09 0.11 0.09 0.11 0.10 0.09 0.08 0.08 0.11 0.07 0.03 0.01 0.00 0.00 0.00 0.04 0.05 0.02 0.04 0.02 0.03 0.02 0.01 0.01 0.00 0.00 0.00 0.00 0.00 0.00 0.00 0.00 0.00 0.00 0.00 0.00 0.00 0.00 0.00 0.00 0.00 0.00 0.00 0.00 0.00 0.00 0.01
0.04 0.01 0.00 0.00 0.05 0.15 0.07 0.06 0.09 0.09 0.08 0.07 0.06 0.05 0.05 0.05 0.02 0.02 0.00 0.00 0.00 0.00 0.01 0.02 0.01 0.02 0.02 0.03 0.02 0.01 0.02 0.01 0.00 0.01 0.00 0.00 0.00 0.00 0.00 0.00 0.00 0.00 0.00 0.00 0.00 0.00 0.00 0.00 0.00 0.00 0.00 0.02 0.05 0.04
0.10 0.03 0.02 0.01 0.03 0.15 0.06 0.02 0.02 0.02 0.02 0.02 0.01 0.01 0.02 0.01 0.00 0.01 0.00 0.00 0.00 0.00 0.00 0.00 0.00 0.00 0.01 0.01 0.01 0.00 0.00 0.00 0.00 0.00 0.00 0.00 0.00 0.00 0.00 0.00 0.00 0.00 0.00 0.00 0.00 0.00 0.00 0.00 0.03 0.05 0.05 0.03 0.00 0.00
0.19 0.11 0.05 0.02 0.02 0.12 0.09 0.03 0.00 0.00 0.00 0.00 0.00 0.00 0.00 0.00 0.00 0.00 0.00 0.00 0.00 0.00 0.00 0.00 0.00 0.00 0.00 0.00 0.00 0.00 0.00 0.00 0.00 0.00 0.00 0.00 0.00 0.00 0.00 0.00 0.00 0.00 0.00 0.00 0.00 0.00 0.03 0.06 0.04 0.01 0.00 0.00 0.00 0.00
0.40 0.29 0.15 0.09 0.04 0.10 0.11 0.04 0.00 0.00 0.00 0.00 0.00 0.00 0.00 0.00 0.01 0.00 0.00 0.00 0.00 0.00 0.00 0.00 0.00 0.00 0.00 0.00 0.00 0.00 0.00 0.00 0.00 0.00 0.00 0.00 0.00 0.00 0.00 0.00 0.00 0.00 0.00 0.01 0.01 0.03 0.02 0.00 0.00 0.00 0.00 0.00 0.00 0.00
0.49 0.39 0.28 0.27 0.14 0.11 0.14 0.09 0.02 0.00 0.00 0.01 0.01 0.01 0.01 0.01 0.01 0.00 0.00 0.00 0.00 0.00 0.00 0.00 0.00 0.00 0.00 0.00 0.00 0.01 0.00 0.00 0.00 0.01 0.01 0.01 0.00 0.00 0.01 0.01 0.02 0.01 0.01 0.01 0.00 0.00 0.00 0.00 0.00 0.00 0.00 0.00 0.00 0.00
0.52 0.41 0.29 0.27 0.21 0.18 0.20 0.15 0.09 0.02 0.02 0.04 0.06 0.04 0.02 0.02 0.00 0.00 0.00 0.00 0.00 0.00 0.00 0.00 0.00 0.00 0.00 0.00 0.02 0.03 0.06 0.03 0.05 0.03 0.03 0.04 0.05 0.05 0.03 0.02 0.00 0.00 0.00 0.00 0.00 0.00 0.00 0.00 0.00 0.00 0.00 0.00 0.00 0.00
0.40 0.27 0.24 0.23 0.22 0.19 0.18 0.13 0.12 0.05 0.04 0.09 0.06 0.06 0.03 0.00 0.00 0.00 0.00 0.00 0.00 0.00 0.00 0.00 0.01 0.01 0.02 0.05 0.07 0.07 0.08 0.04 0.03 0.01 0.03 0.11 0.06 0.01 0.00 0.00 0.00 0.00 0.00 0.00 0.00 0.00 0.00 0.00 0.00 0.00 0.00 0.00 0.00 0.00
0.13 0.13 0.19 0.20 0.19 0.16 0.16 0.09 0.10 0.14 0.15 0.15 0.11 0.04 0.02 0.01 0.01 0.01 0.02 0.01 0.01 0.01 0.03 0.05 0.04 0.06 0.09 0.05 0.04 0.03 0.03 0.01 0.01 0.01 0.06 0.07 0.05 0.00 0.00 0.00 0.00 0.00 0.00 0.00 0.00 0.00 0.00 0.00 0.00 0.00 0.00 0.00 0.00 0.00
0.01 0.05 0.07 0.05 0.06 0.07 0.08 0.10 0.17 0.31 0.33 0.21 0.12 0.07 0.03 0.03 0.03 0.04 0.04 0.05 0.05 0.05 0.07 0.07 0.03 0.02 0.04 0.03 0.01 0.01 0.01 0.00 0.01 0.03 0.07 0.05 0.03 0.00 0.00 0.00 0.00 0.00 0.00 0.00 0.00 0.00 0.00 0.00 0.00 0.00 0.00 0.00 0.00 0.00
0.00 0.00 0.00 0.00 0.00 0.01 0.04 0.11 0.19 0.18 0.14 0.12 0.09 0.12 0.07 0.05 0.04 0.03 0.02 0.02 0.01 0.02 0.03 0.02 0.01 0.02 0.02 0.01 0.00 0.00 0.01 0.01 0.01 0.03 0.06 0.06 0.02 0.02 0.01 0.00 0.00 0.00 0.00 0.00 0.00 0.00 0.00 0.00 0.00 0.00 0.00 0.00 0.00 0.00
0.00 0.00 0.00 0.00 0.00 0.01 0.05 0.05 0.08 0.07 0.09 0.09 0.11 0.09 0.06 0.05 0.04 0.02 0.01 0.00 0.00 0.00 0.00 0.00 0.00 0.01 0.01 0.00 0.00 0.00 0.00 0.00 0.01 0.02 0.11 0.19 0.13 0.09 0.05 0.02 0.01 0.00 0.00 0.00 0.00 0.00 0.00 0.00 0.00 0.00 0.00 0.00 0.00 0.00
0.00 0.00 0.00 0.00 0.00 0.00 0.01 0.02 0.01 0.02 0.05 0.06 0.06 0.05 0.03 0.04 0.03 0.00 0.00 0.00 0.00 0.00 0.00 0.00 0.00 0.00 0.00 0.00 0.00 0.00 0.00 0.00 0.00 0.00 0.03 0.06 0.06 0.06 0.05 0.03 0.01 0.00 0.00 0.00 0.00 0.00 0.00 0.00 0.00 0.00 0.00 0.00 0.00 0.00
0.00 0.00 0.00 0.00 0.00 0.00 0.00 0.00 0.00 0.00 0.01 0.03 0.05 0.02 0.03 0.01 0.00 0.00 0.00 0.00 0.00 0.00 0.00 0.00 0.00 0.00 0.00 0.00 0.00 0.00 0.00 0.00 0.00 0.00 0.00 0.00 0.00 0.00 0.00 0.00 0.00 0.00 0.00 0.00 0.00 0.00 0.00 0.00 0.00 0.00 0.00 0.00 0.00 0.00
0.00 0.00 0.00 0.00 0.00 0.00 0.00 0.00 0.00 0.00 0.00 0.02 0.01 0.00 0.01 0.01 0.00 0.00 0.00 0.00 0.00 0.01 0.01 0.01 0.00 0.00 0.00 0.00 0.00 0.00 0.00 0.00 0.00 0.00 0.00 0.00 0.00 0.00 0.00 0.00 0.00 0.00 0.00 0.00 0.00 0.00 0.00 0.00 0.00 0.00 0.00 0.00 0.00 0.00
0.00 0.00 0.00 0.00 0.00 0.00 0.00 0.00 0.00 0.00 0.00 0.01 0.00 0.00 0.01 0.01 0.01 0.00 0.00 0.01 0.02 0.03 0.02 0.01 0.01 0.00 0.00 0.00 0.00 0.00 0.00 0.00 0.00 0.00 0.00 0.00 0.00 0.00 0.00 0.00 0.00 0.00 0.00 0.00 0.00 0.00 0.00 0.00 0.00 0.00 0.00 0.00 0.00 0.00
0.00 0.00 0.00 0.00 0.00 0.00 0.00 0.00 0.00 0.00 0.01 0.01 0.00 0.00 0.01 0.01 0.01 0.01 0.01 0.03 0.04 0.04 0.04 0.04 0.02 0.01 0.01 0.00 0.00 0.00 0.00 0.00 0.00 0.00 0.00 0.00 0.00 0.00 0.00 0.00 0.00 0.00 0.00 0.00 0.00 0.00 0.00 0.00 0.00 0.00 0.00 0.00 0.00 0.00
0.00 0.00 0.00 0.00 0.00 0.00 0.00 0.00 0.00 0.01 0.01 0.01 0.01 0.01 0.01 0.01 0.01 0.01 0.02 0.05 0.05 0.05 0.09 0.10 0.09 0.08 0.06 0.05 0.03 0.01 0.00 0.00 0.00 0.00 0.00 0.00 0.00 0.00 0.00 0.00 0.00 0.00 0.00 0.00 0.00 0.00 0.00 0.00 0.00 0.00 0.00 0.00 0.00 0.00
0.00 0.01 0.00 0.00 0.00 0.00 0.00 0.00 0.01 0.01 0.02 0.01 0.02 0.02 0.02 0.02 0.02 0.02 0.03 0.06 0.06 0.06 0.08 0.10 0.08 0.07 0.08 0.06 0.04 0.02 0.01 0.00 0.00 0.00 0.00 0.00 0.00 0.00 0.00 0.00 0.00 0.00 0.00 0.00 0.00 0.00 0.00 0.00 0.00 0.00 0.00 0.00 0.01 0.01
0.00 0.00 0.00 0.00 0.00 0.01 0.01 0.01 0.01 0.02 0.03 0.05 0.03 0.04 0.04 0.03 0.02 0.03 0.04 0.05 0.05 0.07 0.07 0.07 0.06 0.05 0.05 0.03 0.01 0.01 0.00 0.00 0.00 0.00 0.00 0.00 0.00 0.00 0.00 0.00 0.00 0.00 0.00 0.00 0.00 0.00 0.00 0.00 0.00 0.00 0.01 0.00 0.01 0.02
0.00 0.00 0.00 0.00 0.01 0.02 0.03 0.02 0.04 0.04 0.06 0.07 0.06 0.06 0.08 0.06 0.04 0.06 0.07 0.09 0.08 0.06 0.05 0.05 0.04 0.03 0.02 0.02 0.01 0.00 0.00 0.00 0.00 0.00 0.00 0.00 0.00 0.00 0.00 0.00 0.00 0.00 0.00 0.00 0.00 0.00 0.00 0.01 0.01 0.01 0.01 0.01 0.01 0.01
0.01 0.01 0.01 0.01 0.03 0.05 0.07 0.06 0.08 0.09 0.08 0.10 0.10 0.11 0.11 0.09 0.10 0.10 0.12 0.11 0.09 0.05 0.05 0.04 0.05 0.03 0.02 0.00 0.00 0.00 0.00 0.00 0.00 0.00 0.00 0.00 0.00 0.00 0.00 0.00 0.00 0.00 0.00 0.00 0.00 0.00 0.00 0.01 0.01 0.01 0.00 0.01 0.00 0.00
0.02 0.03 0.04 0.03 0.04 0.07 0.10 0.12 0.12 0.12 0.11 0.10 0.07 0.04 0.04 0.05 0.08 0.09 0.07 0.06 0.04 0.03 0.04 0.03 0.02 0.01 0.00 0.00 0.00 0.00 0.00 0.00 0.00 0.00 0.00 0.00 0.00 0.00 0.00 0.00 0.00 0.00 0.00 0.00 0.00 0.00 0.00 0.00 0.00 0.00 0.00 0.00 0.00 0.00
0.04 0.05 0.06 0.05 0.06 0.06 0.08 0.09 0.10 0.07 0.05 0.05 0.04 0.03 0.04 0.04 0.05 0.05 0.04 0.04 0.03 0.02 0.01 0.00 0.00 0.00 0.00 0.00 0.00 0.00 0.00 0.00 0.00 0.00 0.00 0.00 0.00 0.00 0.00 0.00 0.00 0.01 0.00 0.00 0.00 0.00 0.00 0.00 0.00 0.00 0.00 0.00 0.00 0.00
0.01 0.02 0.02 0.02 0.02 0.01 0.01 0.03 0.04 0.03 0.03 0.02 0.02 0.01 0.02 0.01 0.02 0.02 0.03 0.02 0.01 0.00 0.00 0.00 0.00 0.00 0.00 0.00 0.00 0.00 0.00 0.00 0.00 0.00 0.00 0.00 0.01 0.00 0.00 0.01 0.01 0.01 0.00 0.00 0.00 0.00 0.00 0.00 0.00 0.00 0.00 0.00 0.00 0.00
0.00 0.00 0.01 0.01 0.00 0.00 0.00 0.00 0.01 0.01 0.01 0.01 0.02 0.02 0.02 0.01 0.02 0.03 0.03 0.01 0.00 0.00 0.00 0.00 0.00 0.00 0.00 0.00 0.00 0.00 0.00 0.00 0.00 0.00 0.00 0.01 0.01 0.00 0.00 0.00 0.01 0.01 0.00 0.00 0.00 0.00 0.00 0.00 0.00 0.00 0.00 0.00 0.00 0.00

GFSWCAN_prec_precacc12_054.txt.gz
Total_Precipitation_Accumulation
0.26 0.22 0.17 0.13 0.13 0.25 0.17 0.13 0.12 0.12 0.12 0.09 0.05 0.07 0.05 0.03 0.02 0.10 0.15 0.15 0.16 0.18 0.01 0.00 0.00 0.00 0.00 0.00 0.01 0.00 0.00 0.00 0.00 0.01 0.03 0.01 0.00 0.00 0.00 0.00 0.00 0.00 0.00 0.00 0.00 0.00 0.00 0.00 0.00 0.00 0.00 0.00 0.00 0.00
0.21 0.28 0.15 0.14 0.21 0.22 0.15 0.15 0.11 0.09 0.12 0.10 0.06 0.05 0.04 0.02 0.03 0.13 0.18 0.17 0.13 0.27 0.05 0.00 0.00 0.00 0.00 0.00 0.00 0.00 0.00 0.00 0.00 0.00 0.01 0.01 0.00 0.00 0.00 0.00 0.00 0.00 0.00 0.00 0.00 0.00 0.00 0.00 0.00 0.00 0.00 0.00 0.00 0.00
0.30 0.18 0.18 0.20 0.15 0.19 0.15 0.15 0.10 0.08 0.12 0.09 0.05 0.05 0.03 0.01 0.05 0.13 0.16 0.20 0.24 0.24 0.07 0.01 0.00 0.00 0.00 0.00 0.01 0.00 0.00 0.00 0.00 0.00 0.00 0.00 0.01 0.00 0.00 0.00 0.00 0.00 0.00 0.00 0.00 0.00 0.00 0.00 0.00 0.00 0.00 0.00 0.00 0.00
0.23 0.22 0.18 0.11 0.15 0.22 0.17 0.14 0.07 0.11 0.13 0.09 0.04 0.05 0.03 0.01 0.06 0.17 0.14 0.18 0.27 0.24 0.18 0.03 0.00 0.00 0.00 0.00 0.00 0.00 0.00 0.00 0.00 0.00 0.00 0.01 0.01 0.00 0.00 0.00 0.00 0.00 0.00 0.00 0.00 0.00 0.00 0.00 0.00 0.00 0.00 0.00 0.00 0.00
0.21 0.15 0.12 0.12 0.20 0.24 0.14 0.07 0.09 0.15 0.15 0.10 0.06 0.04 0.03 0.03 0.07 0.17 0.16 0.18 0.26 0.18 0.10 0.06 0.02 0.00 0.00 0.00 0.00 0.00 0.00 0.00 0.00 0.00 0.01 0.01 0.00 0.00 0.00 0.00 0.00 0.00 0.00 0.00 0.00 0.00 0.00 0.00 0.00 0.00 0.00 0.00 0.00 0.00
0.10 0.11 0.10 0.13 0.19 0.17 0.07 0.07 0.13 0.17 0.19 0.09 0.05 0.03 0.05 0.09 0.11 0.15 0.15 0.08 0.09 0.07 0.05 0.07 0.04 0.03 0.01 0.01 0.00 0.00 0.00 0.00 0.00 0.00 0.00 0.00 0.00 0.00 0.00 0.00 0.00 0.00 0.00 0.00 0.00 0.00 0.00 0.00 0.00 0.00 0.00 0.00 0.00 0.00
0.23 0.20 0.16 0.13 0.13 0.11 0.09 0.13 0.16 0.16 0.15 0.08 0.03 0.05 0.09 0.16 0.16 0.15 0.09 0.04 0.03 0.02 0.11 0.11 0.09 0.05 0.03 0.02 0.01 0.01 0.00 0.00 0.00 0.00 0.00 0.00 0.00 0.00 0.00 0.00 0.00 0.00 0.00 0.00 0.00 0.00 0.00 0.00 0.00 0.00 0.00 0.00 0.00 0.00
0.35 0.31 0.25 0.15 0.11 0.10 0.09 0.13 0.14 0.12 0.13 0.11 0.09 0.09 0.10 0.16 0.14 0.12 0.06 0.04 0.02 0.00 0.07 0.19 0.04 0.05 0.03 0.03 0.02 0.01 0.01 0.01 0.00 0.00 0.00 0.00 0.00 0.00 0.00 0.00 0.00 0.00 0.00 0.00 0.00 0.00 0.00 0.00 0.00 0.00 0.00 0.00 0.00 0.01
0.32 0.25 0.17 0.09 0.08 0.14 0.09 0.10 0.13 0.12 0.11 0.09 0.08 0.07 0.08 0.17 0.16 0.13 0.03 0.02 0.01 0.00 0.02 0.14 0.17 0.04 0.02 0.04 0.04 0.03 0.02 0.02 0.01 0.01 0.00 0.00 0.00 0.00 0.00 0.00 0.00 0.00 0.00 0.00 0.00 0.00 0.00 0.00 0.00 0.00 0.00 0.01 0.03 0.03
0.04 0.06 0.07 0.06 0.08 0.16 0.08 0.06 0.07 0.05 0.04 0.04 0.03 0.06 0.15 0.24 0.13 0.06 0.01 0.01 0.01 0.00 0.00 0.01 0.10 0.02 0.02 0.04 0.05 0.04 0.02 0.02 0.01 0.01 0.01 0.00 0.00 0.00 0.00 0.00 0.00 0.00 0.00 0.00 0.00 0.00 0.00 0.00 0.00 0.01 0.02 0.01 0.00 0.00
0.11 0.09 0.06 0.05 0.05 0.16 0.13 0.05 0.02 0.01 0.02 0.04 0.02 0.04 0.05 0.07 0.06 0.03 0.00 0.01 0.00 0.00 0.00 0.00 0.01 0.01 0.01 0.03 0.04 0.02 0.01 0.01 0.00 0.00 0.00 0.00 0.00 0.00 0.00 0.00 0.00 0.00 0.00 0.00 0.00 0.00 0.00 0.00 0.00 0.00 0.00 0.00 0.00 0.00
0.26 0.18 0.09 0.08 0.05 0.13 0.15 0.05 0.01 0.00 0.02 0.02 0.00 0.01 0.02 0.02 0.02 0.02 0.01 0.00 0.00 0.00 0.00 0.00 0.00 0.00 0.00 0.00 0.01 0.01 0.00 0.00 0.00 0.00 0.00 0.00 0.00 0.00 0.00 0.00 0.00 0.00 0.00 0.00 0.00 0.00 0.00 0.00 0.00 0.00 0.00 0.00 0.00 0.00
0.40 0.31 0.23 0.17 0.08 0.10 0.13 0.07 0.01 0.01 0.00 0.01 0.02 0.05 0.06 0.02 0.03 0.01 0.00 0.00 0.00 0.00 0.00 0.00 0.00 0.00 0.00 0.00 0.00 0.01 0.00 0.00 0.00 0.01 0.00 0.00 0.00 0.00 0.00 0.00 0.00 0.00 0.00 0.00 0.00 0.00 0.00 0.00 0.00 0.00 0.00 0.00 0.00 0.00
0.49 0.35 0.24 0.19 0.15 0.11 0.08 0.06 0.03 0.01 0.01 0.04 0.08 0.07 0.06 0.03 0.01 0.00 0.00 0.00 0.00 0.00 0.00 0.00 0.00 0.00 0.00 0.00 0.01 0.01 0.02 0.01 0.03 0.02 0.01 0.02 0.02 0.03 0.01 0.00 0.00 0.00 0.00 0.00 0.00 0.00 0.00 0.00 0.00 0.00 0.00 0.00 0.00 0.00
0.42 0.27 0.23 0.20 0.20 0.18 0.12 0.07 0.05 0.03 0.04 0.07 0.06 0.07 0.02 0.00 0.00 0.00 0.00 0.00 0.00 0.00 0.00 0.00 0.00 0.00 0.01 0.01 0.02 0.02 0.04 0.02 0.01 0.01 0.01 0.04 0.03 0.01 0.00 0.00 0.00 0.00 0.00 0.00 0.00 0.00 0.00 0.00 0.00 0.00 0.00 0.00 0.00 0.00
0.14 0.13 0.20 0.21 0.19 0.15 0.14 0.08 0.09 0.13 0.12 0.08 0.07 0.03 0.01 0.00 0.00 0.00 0.01 0.00 0.00 0.00 0.01 0.02 0.02 0.03 0.04 0.02 0.02 0.01 0.02 0.01 0.00 0.00 0.04 0.04 0.03 0.00 0.00 0.00 0.00 0.00 0.00 0.00 0.00 0.00 0.00 0.00 0.00 0.00 0.00 0.00 0.00 0.00
0.02 0.05 0.08 0.06 0.08 0.08 0.10 0.12 0.20 0.35 0.36 0.21 0.11 0.05 0.02 0.01 0.02 0.02 0.02 0.03 0.03 0.03 0.04 0.05 0.03 0.02 0.03 0.02 0.01 0.00 0.01 0.00 0.01 0.03 0.08 0.05 0.03 0.00 0.00 0.00 0.00 0.00 0.00 0.00 0.00 0.00 0.00 0.00 0.00 0.00 0.00 0.00 0.00 0.00
0.00 0.00 0.00 0.00 0.03 0.04 0.09 0.16 0.24 0.22 0.19 0.16 0.11 0.13 0.08 0.07 0.05 0.05 0.03 0.02 0.01 0.01 0.03 0.01 0.00 0.02 0.01 0.01 0.01 0.00 0.01 0.01 0.02 0.04 0.07 0.06 0.02 0.01 0.00 0.00 0.00 0.00 0.00 0.00 0.00 0.00 0.00 0.00 0.00 0.00 0.00 0.00 0.00 0.00
0.00 0.00 0.00 0.00 0.00 0.03 0.08 0.07 0.09 0.08 0.10 0.12 0.14 0.11 0.06 0.06 0.05 0.03 0.01 0.00 0.00 0.00 0.00 0.00 0.01 0.01 0.02 0.01 0.00 0.00 0.00 0.00 0.01 0.03 0.09 0.15 0.12 0.09 0.06 0.02 0.01 0.00 0.00 0.00 0.00 0.00 0.00 0.00 0.00 0.00 0.00 0.00 0.00 0.00
0.00 0.00 0.00 0.00 0.00 0.01 0.03 0.04 0.01 0.03 0.08 0.07 0.09 0.08 0.05 0.07 0.06 0.04 0.01 0.00 0.00 0.00 0.00 0.01 0.02 0.02 0.02 0.01 0.00 0.00 0.00 0.00 0.00 0.01 0.05 0.08 0.08 0.07 0.06 0.04 0.02 0.00 0.00 0.00 0.00 0.00 0.00 0.00 0.00 0.00 0.00 0.00 0.00 0.00
0.00 0.00 0.00 0.00 0.00 0.00 0.01 0.02 0.03 0.03 0.04 0.06 0.09 0.05 0.07 0.05 0.04 0.03 0.02 0.00 0.00 0.01 0.02 0.03 0.03 0.03 0.02 0.01 0.00 0.00 0.00 0.00 0.00 0.00 0.00 0.01 0.01 0.00 0.00 0.00 0.00 0.00 0.00 0.00 0.00 0.00 0.00 0.00 0.00 0.00 0.00 0.00 0.00 0.00
0.00 0.00 0.00 0.00 0.00 0.00 0.00 0.00 0.02 0.01 0.02 0.04 0.02 0.01 0.03 0.03 0.03 0.01 0.00 0.00 0.02 0.03 0.03 0.03 0.02 0.01 0.00 0.00 0.00 0.00 0.00 0.00 0.00 0.00 0.00 0.00 0.00 0.00 0.00 0.00 0.00 0.00 0.00 0.00 0.00 0.00 0.00 0.00 0.00 0.00 0.00 0.00 0.00 0.00
0.00 0.00 0.00 0.00 0.00 0.00 0.00 0.00 0.00 0.00 0.01 0.01 0.01 0.01 0.01 0.01 0.01 0.00 0.00 0.02 0.04 0.05 0.04 0.02 0.01 0.00 0.00 0.00 0.00 0.00 0.00 0.00 0.00 0.01 0.00 0.00 0.00 0.00 0.00 0.00 0.00 0.00 0.00 0.00 0.00 0.00 0.00 0.00 0.00 0.00 0.00 0.00 0.00 0.00
0.00 0.00 0.00 0.00 0.00 0.00 0.00 0.00 0.00 0.00 0.01 0.01 0.00 0.01 0.01 0.01 0.01 0.01 0.02 0.05 0.07 0.06 0.05 0.05 0.04 0.03 0.01 0.00 0.00 0.00 0.00 0.00 0.00 0.00 0.00 0.00 0.00 0.00 0.00 0.00 0.00 0.00 0.00 0.00 0.00 0.00 0.00 0.00 0.00 0.00 0.00 0.00 0.00 0.00
0.00 0.00 0.00 0.00 0.00 0.00 0.00 0.00 0.00 0.00 0.01 0.01 0.01 0.01 0.01 0.01 0.01 0.02 0.03 0.07 0.06 0.07 0.11 0.12 0.10 0.10 0.08 0.06 0.05 0.03 0.01 0.00 0.00 0.00 0.00 0.00 0.00 0.00 0.00 0.00 0.00 0.00 0.00 0.00 0.00 0.00 0.00 0.00 0.00 0.00 0.00 0.00 0.00 0.00
0.00 0.00 0.00 0.00 0.00 0.00 0.00 0.00 0.00 0.01 0.01 0.02 0.02 0.02 0.02 0.02 0.02 0.03 0.04 0.07 0.07 0.06 0.08 0.10 0.11 0.08 0.08 0.07 0.06 0.05 0.04 0.02 0.00 0.00 0.00 0.00 0.00 0.00 0.00 0.00 0.00 0.00 0.00 0.00 0.00 0.00 0.00 0.00 0.00 0.00 0.00 0.00 0.00 0.01
0.00 0.01 0.00 0.00 0.00 0.00 0.00 0.00 0.01 0.01 0.02 0.04 0.04 0.04 0.05 0.04 0.03 0.04 0.05 0.05 0.05 0.07 0.07 0.08 0.07 0.06 0.07 0.06 0.05 0.04 0.02 0.00 0.00 0.00 0.00 0.00 0.00 0.00 0.00 0.00 0.00 0.00 0.00 0.00 0.00 0.00 0.00 0.00 0.00 0.00 0.00 0.01 0.01 0.01
0.01 0.00 0.00 0.00 0.00 0.01 0.01 0.01 0.02 0.03 0.03 0.04 0.05 0.05 0.08 0.07 0.06 0.06 0.08 0.09 0.08 0.07 0.05 0.05 0.05 0.04 0.05 0.05 0.04 0.03 0.02 0.00 0.00 0.00 0.00 0.00 0.00 0.00 0.00 0.00 0.00 0.00 0.00 0.00 0.00 0.00 0.00 0.01 0.01 0.01 0.01 0.01 0.01 0.01
0.01 0.01 0.01 0.00 0.01 0.02 0.04 0.05 0.06 0.06 0.06 0.07 0.08 0.09 0.10 0.09 0.11 0.11 0.12 0.11 0.09 0.06 0.05 0.05 0.06 0.05 0.03 0.01 0.01 0.00 0.00 0.00 0.00 0.00 0.00 0.00 0.00 0.01 0.00 0.00 0.00 0.00 0.00 0.00 0.00 0.00 0.00 0.01 0.01 0.01 0.00 0.00 0.00 0.01
0.01 0.02 0.02 0.01 0.02 0.04 0.07 0.07 0.07 0.07 0.07 0.07 0.05 0.04 0.04 0.06 0.09 0.09 0.07 0.06 0.04 0.04 0.04 0.03 0.03 0.02 0.01 0.00 0.00 0.00 0.00 0.00 0.00 0.00 0.00 0.00 0.00 0.00 0.00 0.01 0.01 0.00 0.00 0.00 0.00 0.00 0.00 0.00 0.00 0.00 0.01 0.01 0.01 0.01
0.01 0.02 0.03 0.02 0.03 0.05 0.07 0.08 0.08 0.05 0.04 0.04 0.04 0.04 0.05 0.05 0.05 0.04 0.03 0.05 0.03 0.03 0.02 0.00 0.00 0.00 0.00 0.00 0.00 0.00 0.00 0.00 0.00 0.00 0.00 0.00 0.00 0.01 0.01 0.01 0.01 0.01 0.01 0.01 0.01 0.01 0.00 0.00 0.00 0.01 0.01 0.00 0.00 0.00
0.01 0.01 0.02 0.02 0.03 0.02 0.02 0.07 0.07 0.04 0.04 0.02 0.02 0.02 0.02 0.02 0.02 0.03 0.02 0.03 0.01 0.00 0.00 0.00 0.00 0.00 0.00 0.00 0.00 0.00 0.00 0.00 0.00 0.00 0.00 0.00 0.00 0.01 0.01 0.01 0.01 0.01 0.01 0.01 0.01 0.01 0.01 0.01 0.01 0.01 0.01 0.00 0.00 0.00
0.01 0.00 0.00 0.01 0.01 0.00 0.00 0.00 0.01 0.01 0.01 0.02 0.02 0.02 0.02 0.02 0.02 0.03 0.03 0.02 0.01 0.01 0.01 0.01 0.00 0.01 0.00 0.00 0.00 0.00 0.00 0.00 0.00 0.00 0.00 0.01 0.01 0.00 0.01 0.01 0.01 0.01 0.01 0.01 0.01 0.01 0.01 0.01 0.01 0.00 0.00 0.00 0.00 0.00

GFSWCAN_prec_precacc12_057.txt.gz
Total_Precipitation_Accumulation
0.16 0.17 0.15 0.13 0.15 0.27 0.19 0.16 0.16 0.17 0.17 0.12 0.06 0.07 0.06 0.04 0.06 0.14 0.18 0.22 0.29 0.33 0.03 0.00 0.00 0.00 0.01 0.01 0.03 0.00 0.01 0.09 0.10 0.07 0.06 0.01 0.00 0.00 0.00 0.00 0.00 0.00 0.00 0.00 0.00 0.00 0.00 0.00 0.00 0.00 0.00 0.00 0.00 0.00
0.17 0.26 0.14 0.15 0.23 0.24 0.16 0.16 0.13 0.10 0.13 0.09 0.05 0.05 0.04 0.02 0.05 0.14 0.21 0.21 0.19 0.43 0.21 0.04 0.01 0.00 0.00 0.00 0.01 0.01 0.00 0.00 0.01 0.01 0.01 0.01 0.00 0.00 0.00 0.00 0.00 0.00 0.00 0.00 0.00 0.00 0.00 0.00 0.00 0.00 0.00 0.00 0.00 0.00
0.30 0.18 0.18 0.21 0.16 0.20 0.15 0.15 0.10 0.08 0.11 0.08 0.05 0.05 0.03 0.01 0.05 0.13 0.22 0.25 0.49 0.42 0.26 0.15 0.02 0.00 0.00 0.00 0.02 0.02 0.00 0.00 0.00 0.00 0.00 0.00 0.01 0.00 0.00 0.00 0.00 0.00 0.00 0.00 0.00 0.00 0.00 0.00 0.00 0.00 0.00 0.00 0.00 0.00
0.24 0.23 0.19 0.11 0.15 0.22 0.17 0.14 0.07 0.10 0.11 0.07 0.04 0.04 0.02 0.01 0.06 0.19 0.25 0.27 0.69 0.73 0.32 0.24 0.03 0.00 0.01 0.02 0.01 0.09 0.06 0.01 0.00 0.00 0.00 0.01 0.01 0.00 0.00 0.00 0.00 0.00 0.00 0.00 0.00 0.00 0.00 0.00 0.00 0.00 0.00 0.00 0.00 0.00
0.21 0.15 0.11 0.12 0.20 0.24 0.14 0.08 0.09 0.15 0.15 0.07 0.05 0.03 0.02 0.02 0.08 0.30 0.30 0.31 0.72 0.61 0.26 0.12 0.03 0.00 0.00 0.01 0.02 0.14 0.26 0.07 0.00 0.01 0.02 0.01 0.00 0.00 0.00 0.00 0.00 0.00 0.00 0.00 0.00 0.00 0.00 0.00 0.00 0.00 0.00 0.00 0.00 0.00
0.10 0.10 0.10 0.13 0.19 0.17 0.07 0.07 0.14 0.18 0.19 0.09 0.05 0.04 0.05 0.09 0.20 0.48 0.31 0.23 0.62 0.49 0.20 0.08 0.04 0.02 0.01 0.01 0.02 0.03 0.08 0.05 0.01 0.00 0.00 0.00 0.00 0.00 0.00 0.00 0.00 0.00 0.00 0.00 0.00 0.00 0.00 0.00 0.00 0.00 0.00 0.00 0.00 0.00
0.23 0.20 0.17 0.14 0.14 0.11 0.11 0.15 0.17 0.20 0.18 0.13 0.07 0.08 0.12 0.21 0.41 0.51 0.25 0.13 0.28 0.48 0.24 0.11 0.09 0.05 0.03 0.02 0.02 0.03 0.04 0.03 0.02 0.01 0.00 0.00 0.00 0.00 0.00 0.00 0.00 0.00 0.00 0.00 0.00 0.00 0.00 0.00 0.00 0.00 0.00 0.00 0.00 0.00
0.39 0.33 0.26 0.18 0.13 0.12 0.18 0.18 0.18 0.19 0.23 0.18 0.14 0.13 0.17 0.35 0.51 0.42 0.26 0.05 0.08 0.12 0.10 0.19 0.05 0.05 0.03 0.03 0.03 0.02 0.03 0.04 0.01 0.01 0.00 0.00 0.00 0.00 0.00 0.00 0.00 0.00 0.00 0.00 0.00 0.00 0.00 0.00 0.00 0.00 0.00 0.00 0.00 0.01
0.46 0.33 0.22 0.15 0.16 0.18 0.18 0.16 0.17 0.20 0.23 0.18 0.16 0.20 0.33 0.61 0.60 0.36 0.16 0.03 0.01 0.01 0.02 0.14 0.17 0.04 0.02 0.04 0.04 0.03 0.03 0.03 0.01 0.00 0.00 0.00 0.00 0.00 0.00 0.00 0.00 0.00 0.00 0.00 0.00 0.00 0.00 0.00 0.00 0.00 0.00 0.00 0.00 0.00
0.17 0.15 0.13 0.14 0.16 0.17 0.13 0.11 0.11 0.11 0.15 0.18 0.25 0.38 0.61 0.69 0.34 0.19 0.10 0.07 0.02 0.00 0.00 0.01 0.14 0.17 0.04 0.04 0.05 0.04 0.03 0.04 0.02 0.01 0.01 0.01 0.00 0.00 0.00 0.00 0.00 0.00 0.00 0.00 0.00 0.00 0.00 0.00 0.00 0.00 0.00 0.00 0.00 0.00
0.21 0.21 0.18 0.16 0.13 0.13 0.11 0.07 0.04 0.09 0.18 0.26 0.31 0.36 0.35 0.42 0.22 0.17 0.07 0.08 0.03 0.00 0.00 0.00 0.02 0.12 0.09 0.06 0.07 0.05 0.05 0.05 0.02 0.01 0.02 0.01 0.00 0.01 0.01 0.00 0.00 0.00 0.00 0.00 0.00 0.00 0.00 0.00 0.00 0.00 0.00 0.00 0.00 0.00
0.21 0.23 0.21 0.21 0.16 0.15 0.11 0.06 0.09 0.13 0.18 0.13 0.07 0.06 0.14 0.27 0.20 0.12 0.03 0.01 0.00 0.00 0.00 0.00 0.00 0.05 0.12 0.04 0.05 0.04 0.03 0.01 0.01 0.00 0.01 0.00 0.00 0.00 0.00 0.00 0.00 0.00 0.00 0.00 0.00 0.00 0.00 0.00 0.00 0.00 0.00 0.00 0.00 0.00
0.33 0.31 0.31 0.27 0.22 0.22 0.19 0.12 0.08 0.06 0.01 0.00 0.01 0.05 0.11 0.17 0.13 0.04 0.00 0.00 0.00 0.00 0.00 0.00 0.00 0.01 0.06 0.02 0.03 0.04 0.05 0.04 0.01 0.00 0.00 0.00 0.00 0.00 0.00 0.00 0.00 0.00 0.00 0.00 0.00 0.00 0.00 0.00 0.00 0.00 0.00 0.00 0.00 0.00
0.37 0.32 0.25 0.31 0.29 0.23 0.15 0.08 0.05 0.01 0.01 0.04 0.07 0.08 0.08 0.07 0.02 0.00 0.00 0.00 0.00 0.00 0.00 0.00 0.00 0.00 0.01 0.00 0.01 0.01 0.01 0.01 0.02 0.01 0.00 0.00 0.01 0.01 0.00 0.00 0.00 0.00 0.00 0.00 0.00 0.00 0.00 0.00 0.00 0.00 0.00 0.00 0.00 0.00
0.33 0.21 0.26 0.32 0.25 0.14 0.06 0.03 0.05 0.03 0.03 0.07 0.07 0.08 0.03 0.01 0.00 0.00 0.00 0.00 0.00 0.00 0.00 0.00 0.00 0.00 0.00 0.00 0.00 0.00 0.01 0.01 0.00 0.00 0.00 0.01 0.01 0.00 0.00 0.00 0.00 0.00 0.00 0.00 0.00 0.00 0.00 0.00 0.00 0.00 0.00 0.00 0.00 0.00
0.13 0.12 0.22 0.22 0.20 0.13 0.08 0.05 0.07 0.11 0.11 0.08 0.07 0.04 0.02 0.00 0.00 0.00 0.00 0.00 0.00 0.00 0.00 0.00 0.00 0.00 0.01 0.01 0.01 0.00 0.01 0.00 0.00 0.00 0.02 0.02 0.02 0.00 0.00 0.00 0.00 0.00 0.00 0.00 0.00 0.00 0.00 0.00 0.00 0.00 0.00 0.00 0.00 0.00
0.02 0.05 0.08 0.06 0.08 0.08 0.10 0.12 0.16 0.28 0.33 0.18 0.10 0.05 0.02 0.01 0.01 0.01 0.00 0.01 0.00 0.01 0.02 0.02 0.02 0.01 0.02 0.01 0.01 0.00 0.01 0.00 0.01 0.02 0.04 0.02 0.01 0.00 0.00 0.00 0.00 0.00 0.00 0.00 0.00 0.00 0.00 0.00 0.00 0.00 0.00 0.00 0.00 0.00
0.00 0.00 0.00 0.00 0.03 0.05 0.10 0.20 0.26 0.22 0.17 0.19 0.15 0.15 0.10 0.09 0.06 0.05 0.03 0.02 0.01 0.01 0.02 0.01 0.00 0.01 0.01 0.01 0.01 0.01 0.01 0.02 0.03 0.04 0.07 0.05 0.01 0.01 0.00 0.00 0.00 0.00 0.00 0.00 0.00 0.00 0.00 0.00 0.00 0.00 0.00 0.00 0.00 0.00
0.00 0.00 0.00 0.00 0.00 0.04 0.11 0.11 0.12 0.09 0.12 0.16 0.24 0.21 0.15 0.14 0.13 0.11 0.07 0.05 0.02 0.00 0.00 0.01 0.02 0.03 0.03 0.02 0.01 0.00 0.01 0.01 0.03 0.07 0.10 0.10 0.08 0.07 0.06 0.02 0.01 0.00 0.00 0.00 0.00 0.00 0.00 0.00 0.00 0.00 0.00 0.00 0.00 0.00
0.00 0.00 0.00 0.00 0.00 0.01 0.03 0.04 0.02 0.04 0.10 0.10 0.14 0.15 0.10 0.12 0.11 0.08 0.03 0.03 0.02 0.02 0.03 0.05 0.07 0.08 0.07 0.06 0.02 0.01 0.01 0.01 0.01 0.03 0.08 0.11 0.10 0.08 0.08 0.06 0.02 0.00 0.00 0.00 0.00 0.00 0.00 0.00 0.00 0.00 0.00 0.00 0.00 0.00
0.00 0.00 0.00 0.00 0.00 0.00 0.01 0.02 0.04 0.05 0.06 0.09 0.15 0.08 0.12 0.08 0.08 0.06 0.05 0.02 0.02 0.06 0.10 0.13 0.14 0.16 0.13 0.07 0.03 0.01 0.01 0.01 0.01 0.00 0.01 0.04 0.04 0.02 0.02 0.02 0.01 0.00 0.00 0.00 0.00 0.00 0.00 0.00 0.00 0.00 0.00 0.00 0.00 0.00
0.00 0.00 0.00 0.00 0.00 0.00 0.00 0.00 0.02 0.02 0.03 0.08 0.07 0.06 0.08 0.09 0.08 0.06 0.02 0.01 0.06 0.11 0.12 0.11 0.10 0.09 0.08 0.06 0.04 0.02 0.01 0.00 0.00 0.00 0.00 0.00 0.00 0.00 0.00 0.00 0.00 0.00 0.00 0.00 0.00 0.00 0.00 0.00 0.00 0.00 0.00 0.00 0.00 0.00
0.00 0.00 0.00 0.00 0.00 0.00 0.00 0.00 0.00 0.01 0.02 0.04 0.02 0.02 0.04 0.04 0.03 0.01 0.01 0.03 0.07 0.09 0.08 0.06 0.04 0.03 0.04 0.03 0.01 0.02 0.01 0.00 0.01 0.02 0.02 0.01 0.01 0.00 0.00 0.00 0.00 0.00 0.00 0.00 0.00 0.00 0.00 0.00 0.00 0.00 0.00 0.00 0.00 0.00
0.00 0.00 0.00 0.00 0.00 0.00 0.00 0.00 0.00 0.00 0.01 0.01 0.00 0.01 0.02 0.02 0.01 0.01 0.03 0.07 0.12 0.09 0.07 0.07 0.06 0.04 0.02 0.01 0.02 0.02 0.03 0.01 0.01 0.01 0.01 0.00 0.00 0.00 0.00 0.00 0.00 0.00 0.00 0.00 0.00 0.00 0.00 0.00 0.00 0.00 0.00 0.00 0.00 0.00
0.00 0.00 0.00 0.00 0.00 0.00 0.00 0.01 0.01 0.01 0.01 0.01 0.01 0.02 0.01 0.01 0.01 0.03 0.04 0.09 0.06 0.06 0.10 0.11 0.08 0.09 0.07 0.07 0.06 0.05 0.04 0.01 0.01 0.02 0.02 0.01 0.00 0.00 0.00 0.00 0.00 0.00 0.00 0.00 0.00 0.00 0.00 0.00 0.00 0.00 0.00 0.00 0.00 0.00
0.00 0.01 0.00 0.01 0.01 0.00 0.00 0.01 0.01 0.01 0.01 0.01 0.01 0.01 0.02 0.02 0.02 0.04 0.05 0.08 0.06 0.06 0.07 0.10 0.11 0.07 0.08 0.08 0.07 0.07 0.07 0.05 0.01 0.02 0.02 0.01 0.01 0.01 0.01 0.01 0.01 0.00 0.00 0.00 0.00 0.00 0.00 0.00 0.00 0.00 0.00 0.00 0.00 0.01
0.01 0.01 0.00 0.00 0.01 0.01 0.01 0.01 0.01 0.01 0.02 0.03 0.03 0.02 0.04 0.03 0.03 0.06 0.05 0.04 0.05 0.06 0.06 0.07 0.06 0.06 0.07 0.07 0.07 0.07 0.04 0.02 0.01 0.01 0.00 0.00 0.00 0.00 0.00 0.00 0.00 0.00 0.00 0.00 0.00 0.00 0.00 0.00 0.00 0.00 0.00 0.01 0.01 0.01
0.01 0.01 0.02 0.01 0.00 0.01 0.01 0.02 0.02 0.03 0.03 0.03 0.06 0.03 0.04 0.04 0.06 0.07 0.09 0.10 0.08 0.06 0.05 0.05 0.05 0.05 0.06 0.07 0.07 0.05 0.04 0.02 0.00 0.00 0.00 0.00 0.00 0.00 0.00 0.00 0.00 0.00 0.00 0.00 0.00 0.00 0.00 0.00 0.01 0.01 0.01 0.01 0.00 0.00
0.01 0.01 0.01 0.00 0.01 0.01 0.02 0.04 0.04 0.04 0.04 0.05 0.05 0.04 0.05 0.06 0.11 0.11 0.11 0.10 0.09 0.07 0.06 0.06 0.08 0.05 0.03 0.01 0.01 0.00 0.00 0.00 0.00 0.00 0.00 0.01 0.01 0.01 0.00 0.00 0.00 0.00 0.00 0.00 0.00 0.00 0.01 0.01 0.01 0.01 0.00 0.01 0.01 0.01
0.01 0.01 0.02 0.01 0.02 0.04 0.07 0.04 0.04 0.04 0.03 0.02 0.02 0.03 0.03 0.06 0.09 0.08 0.06 0.06 0.05 0.04 0.04 0.04 0.04 0.02 0.02 0.01 0.00 0.00 0.00 0.00 0.00 0.00 0.00 0.00 0.00 0.00 0.00 0.01 0.01 0.01 0.01 0.00 0.00 0.00 0.00 0.00 0.00 0.00 0.01 0.01 0.01 0.01
0.01 0.02 0.02 0.02 0.04 0.07 0.06 0.04 0.03 0.02 0.01 0.02 0.03 0.03 0.04 0.05 0.05 0.04 0.04 0.06 0.03 0.04 0.02 0.01 0.00 0.00 0.00 0.00 0.00 0.00 0.00 0.00 0.00 0.00 0.00 0.00 0.00 0.01 0.01 0.01 0.01 0.01 0.01 0.01 0.01 0.01 0.00 0.00 0.01 0.01 0.01 0.00 0.01 0.01
0.01 0.01 0.02 0.03 0.03 0.03 0.04 0.11 0.10 0.04 0.04 0.02 0.03 0.02 0.04 0.02 0.03 0.03 0.02 0.04 0.01 0.01 0.01 0.01 0.00 0.00 0.00 0.00 0.00 0.00 0.00 0.00 0.00 0.00 0.00 0.00 0.00 0.01 0.00 0.01 0.01 0.01 0.01 0.01 0.01 0.01 0.01 0.01 0.01 0.01 0.01 0.01 0.01 0.00
0.01 0.01 0.00 0.01 0.01 0.01 0.00 0.01 0.01 0.01 0.02 0.02 0.02 0.02 0.02 0.02 0.02 0.04 0.03 0.02 0.01 0.01 0.01 0.01 0.01 0.01 0.00 0.00 0.00 0.00 0.00 0.00 0.00 0.00 0.00 0.00 0.00 0.00 0.00 0.01 0.01 0.01 0.01 0.01 0.01 0.01 0.01 0.01 0.01 0.01 0.01 0.00 0.00 0.00

GFSWCAN_prec_precacc12_060.txt.gz
Total_Precipitation_Accumulation
0.16 0.15 0.12 0.09 0.09 0.09 0.08 0.12 0.14 0.19 0.25 0.15 0.10 0.09 0.09 0.08 0.07 0.09 0.16 0.30 0.41 0.39 0.07 0.05 0.00 0.00 0.01 0.01 0.03 0.00 0.03 0.10 0.14 0.17 0.10 0.02 0.00 0.00 0.00 0.00 0.00 0.00 0.00 0.00 0.00 0.00 0.00 0.00 0.00 0.00 0.00 0.00 0.00 0.00
0.10 0.08 0.05 0.06 0.11 0.14 0.12 0.15 0.15 0.16 0.25 0.15 0.09 0.11 0.08 0.04 0.03 0.08 0.21 0.26 0.28 0.53 0.26 0.09 0.02 0.00 0.00 0.00 0.02 0.02 0.01 0.01 0.04 0.05 0.04 0.02 0.00 0.00 0.00 0.00 0.00 0.00 0.00 0.00 0.00 0.00 0.00 0.00 0.00 0.00 0.00 0.00 0.00 0.00
0.15 0.09 0.09 0.12 0.13 0.20 0.16 0.16 0.12 0.13 0.22 0.15 0.12 0.12 0.05 0.02 0.03 0.09 0.25 0.36 0.56 0.46 0.28 0.18 0.06 0.00 0.00 0.00 0.03 0.06 0.01 0.01 0.00 0.02 0.02 0.01 0.01 0.00 0.00 0.00 0.00 0.00 0.00 0.00 0.00 0.00 0.00 0.00 0.00 0.00 0.00 0.00 0.00 0.00
0.20 0.20 0.18 0.13 0.17 0.24 0.18 0.15 0.09 0.15 0.19 0.15 0.10 0.07 0.03 0.01 0.05 0.17 0.30 0.43 0.75 0.73 0.32 0.29 0.08 0.00 0.02 0.03 0.01 0.10 0.06 0.02 0.03 0.01 0.01 0.01 0.01 0.00 0.00 0.00 0.00 0.00 0.00 0.00 0.00 0.00 0.00 0.00 0.00 0.00 0.00 0.00 0.00 0.00
0.23 0.17 0.14 0.14 0.22 0.26 0.16 0.09 0.11 0.17 0.13 0.06 0.04 0.03 0.02 0.02 0.08 0.31 0.38 0.40 0.82 0.93 0.38 0.18 0.13 0.01 0.02 0.03 0.04 0.14 0.27 0.21 0.09 0.04 0.03 0.01 0.00 0.00 0.00 0.00 0.00 0.00 0.00 0.00 0.00 0.00 0.00 0.00 0.00 0.00 0.00 0.00 0.00 0.00
0.10 0.10 0.10 0.14 0.19 0.17 0.08 0.07 0.13 0.14 0.08 0.05 0.04 0.03 0.03 0.06 0.20 0.59 0.56 0.33 0.72 0.76 0.59 0.23 0.21 0.08 0.03 0.03 0.06 0.04 0.10 0.34 0.38 0.19 0.09 0.01 0.00 0.00 0.00 0.00 0.00 0.00 0.00 0.00 0.00 0.00 0.00 0.00 0.00 0.00 0.00 0.00 0.00 0.00
0.23 0.20 0.17 0.14 0.14 0.10 0.10 0.13 0.14 0.14 0.10 0.08 0.05 0.05 0.09 0.14 0.40 0.74 0.47 0.39 0.49 0.71 0.57 0.31 0.29 0.13 0.04 0.02 0.04 0.06 0.06 0.08 0.16 0.20 0.20 0.06 0.01 0.00 0.00 0.00 0.00 0.00 0.00 0.00 0.00 0.00 0.00 0.00 0.00 0.00 0.00 0.00 0.00 0.00
0.40 0.33 0.26 0.18 0.13 0.12 0.17 0.16 0.16 0.17 0.18 0.13 0.08 0.10 0.17 0.36 0.59 0.58 0.48 0.52 0.31 0.32 0.26 0.30 0.17 0.11 0.03 0.04 0.03 0.03 0.05 0.07 0.04 0.03 0.06 0.05 0.02 0.01 0.00 0.00 0.00 0.00 0.00 0.00 0.00 0.00 0.00 0.00 0.00 0.00 0.00 0.00 0.00 0.00
0.46 0.32 0.22 0.15 0.16 0.17 0.17 0.16 0.16 0.21 0.24 0.19 0.19 0.32 0.48 0.74 0.81 0.57 0.58 0.63 0.33 0.13 0.05 0.15 0.20 0.06 0.03 0.04 0.04 0.03 0.03 0.04 0.02 0.01 0.01 0.01 0.00 0.00 0.00 0.00 0.00 0.00 0.00 0.00 0.00 0.00 0.00 0.00 0.00 0.00 0.00 0.00 0.00 0.00
0.18 0.16 0.16 0.17 0.18 0.17 0.13 0.11 0.11 0.16 0.22 0.28 0.43 0.61 0.77 0.88 0.68 0.47 0.67 0.49 0.15 0.01 0.00 0.01 0.14 0.17 0.04 0.04 0.05 0.04 0.04 0.04 0.02 0.01 0.02 0.01 0.00 0.00 0.00 0.00 0.00 0.00 0.00 0.00 0.00 0.00 0.00 0.00 0.00 0.00 0.00 0.00 0.00 0.00
0.27 0.23 0.21 0.20 0.19 0.20 0.13 0.09 0.10 0.27 0.39 0.45 0.49 0.57 0.66 0.81 0.59 0.57 0.46 0.21 0.04 0.00 0.00 0.00 0.02 0.12 0.09 0.06 0.07 0.05 0.06 0.06 0.03 0.01 0.02 0.01 0.00 0.01 0.01 0.01 0.01 0.00 0.00 0.00 0.00 0.00 0.00 0.00 0.00 0.00 0.00 0.00 0.00 0.00
0.27 0.28 0.25 0.23 0.20 0.21 0.13 0.09 0.18 0.30 0.36 0.30 0.20 0.27 0.37 0.51 0.43 0.31 0.11 0.01 0.00 0.00 0.00 0.00 0.00 0.05 0.13 0.05 0.06 0.05 0.04 0.01 0.01 0.00 0.01 0.00 0.00 0.01 0.02 0.02 0.01 0.00 0.00 0.00 0.00 0.00 0.00 0.00 0.00 0.00 0.00 0.00 0.00 0.00
0.36 0.39 0.41 0.34 0.29 0.25 0.16 0.11 0.19 0.25 0.12 0.02 0.07 0.21 0.30 0.32 0.23 0.06 0.01 0.00 0.00 0.00 0.00 0.00 0.00 0.01 0.12 0.11 0.13 0.06 0.06 0.04 0.01 0.00 0.00 0.00 0.00 0.01 0.01 0.01 0.00 0.00 0.00 0.00 0.00 0.00 0.00 0.00 0.00 0.00 0.00 0.00 0.00 0.00
0.42 0.40 0.42 0.50 0.45 0.35 0.25 0.28 0.26 0.05 0.00 0.03 0.09 0.09 0.15 0.09 0.02 0.00 0.00 0.00 0.00 0.00 0.00 0.00 0.00 0.00 0.05 0.07 0.13 0.11 0.06 0.01 0.02 0.01 0.00 0.01 0.01 0.01 0.01 0.00 0.00 0.00 0.00 0.00 0.00 0.00 0.00 0.00 0.00 0.00 0.00 0.00 0.00 0.00
0.32 0.25 0.31 0.46 0.37 0.23 0.18 0.16 0.06 0.02 0.01 0.03 0.05 0.07 0.03 0.01 0.00 0.01 0.00 0.00 0.00 0.00 0.00 0.00 0.00 0.00 0.00 0.02 0.01 0.00 0.01 0.01 0.00 0.00 0.01 0.02 0.01 0.00 0.00 0.00 0.00 0.00 0.00 0.00 0.00 0.00 0.00 0.00 0.00 0.00 0.00 0.00 0.00 0.00
0.16 0.15 0.23 0.24 0.22 0.16 0.14 0.06 0.07 0.10 0.10 0.07 0.07 0.05 0.01 0.00 0.00 0.00 0.00 0.00 0.00 0.00 0.00 0.00 0.00 0.00 0.00 0.00 0.00 0.00 0.00 0.00 0.00 0.00 0.00 0.00 0.00 0.00 0.00 0.00 0.00 0.00 0.00 0.00 0.00 0.00 0.00 0.00 0.00 0.00 0.00 0.00 0.00 0.00
0.05 0.12 0.09 0.07 0.09 0.08 0.07 0.09 0.12 0.22 0.27 0.14 0.09 0.04 0.02 0.01 0.01 0.01 0.00 0.00 0.00 0.00 0.00 0.00 0.00 0.00 0.00 0.00 0.00 0.00 0.01 0.01 0.00 0.01 0.02 0.01 0.00 0.00 0.00 0.00 0.00 0.00 0.00 0.00 0.00 0.00 0.00 0.00 0.00 0.00 0.00 0.00 0.00 0.00
0.00 0.01 0.01 0.01 0.04 0.05 0.10 0.15 0.14 0.11 0.12 0.17 0.14 0.12 0.07 0.07 0.05 0.04 0.02 0.01 0.00 0.00 0.00 0.00 0.00 0.00 0.01 0.01 0.02 0.01 0.01 0.02 0.03 0.03 0.03 0.01 0.00 0.00 0.00 0.00 0.00 0.00 0.00 0.00 0.00 0.00 0.00 0.00 0.00 0.00 0.00 0.00 0.00 0.00
0.00 0.00 0.00 0.00 0.00 0.04 0.13 0.13 0.11 0.05 0.11 0.18 0.28 0.27 0.21 0.21 0.22 0.17 0.12 0.07 0.03 0.01 0.01 0.02 0.04 0.05 0.06 0.07 0.07 0.06 0.05 0.05 0.06 0.09 0.10 0.06 0.04 0.03 0.02 0.02 0.01 0.00 0.00 0.00 0.00 0.00 0.00 0.00 0.00 0.00 0.00 0.00 0.00 0.00
0.00 0.00 0.00 0.00 0.00 0.01 0.03 0.05 0.02 0.05 0.14 0.16 0.21 0.22 0.18 0.23 0.20 0.15 0.08 0.07 0.05 0.05 0.08 0.12 0.17 0.19 0.18 0.17 0.10 0.09 0.09 0.08 0.06 0.08 0.15 0.16 0.13 0.09 0.10 0.07 0.03 0.01 0.00 0.00 0.00 0.00 0.00 0.00 0.00 0.00 0.00 0.00 0.00 0.00
0.00 0.00 0.00 0.00 0.00 0.00 0.01 0.02 0.05 0.07 0.09 0.13 0.20 0.13 0.19 0.14 0.13 0.09 0.06 0.03 0.02 0.10 0.17 0.25 0.27 0.33 0.27 0.16 0.11 0.09 0.09 0.07 0.05 0.02 0.03 0.08 0.10 0.05 0.06 0.06 0.03 0.02 0.01 0.01 0.01 0.01 0.01 0.00 0.00 0.00 0.00 0.00 0.00 0.00
0.00 0.00 0.00 0.00 0.00 0.00 0.01 0.01 0.03 0.03 0.06 0.14 0.14 0.12 0.15 0.16 0.14 0.09 0.02 0.01 0.10 0.20 0.22 0.21 0.20 0.18 0.14 0.13 0.11 0.06 0.04 0.02 0.02 0.03 0.02 0.02 0.03 0.02 0.02 0.02 0.01 0.02 0.02 0.02 0.01 0.00 0.00 0.00 0.00 0.00 0.00 0.00 0.00 0.00
0.00 0.00 0.00 0.00 0.00 0.00 0.00 0.00 0.01 0.02 0.05 0.08 0.07 0.07 0.10 0.10 0.09 0.02 0.02 0.06 0.13 0.18 0.16 0.12 0.10 0.09 0.09 0.09 0.04 0.04 0.03 0.01 0.01 0.03 0.02 0.01 0.01 0.01 0.01 0.01 0.01 0.01 0.01 0.01 0.00 0.00 0.00 0.00 0.00 0.00 0.00 0.00 0.00 0.00
0.00 0.00 0.00 0.00 0.00 0.00 0.00 0.00 0.00 0.01 0.02 0.02 0.03 0.04 0.06 0.07 0.02 0.01 0.04 0.10 0.18 0.12 0.09 0.11 0.07 0.05 0.03 0.02 0.04 0.05 0.07 0.02 0.02 0.03 0.02 0.01 0.01 0.02 0.02 0.01 0.01 0.01 0.01 0.00 0.00 0.00 0.00 0.00 0.00 0.00 0.00 0.00 0.00 0.00
0.00 0.00 0.00 0.00 0.00 0.00 0.00 0.00 0.00 0.00 0.02 0.02 0.02 0.03 0.03 0.02 0.01 0.03 0.05 0.10 0.06 0.06 0.10 0.10 0.06 0.06 0.06 0.07 0.08 0.08 0.07 0.03 0.03 0.03 0.05 0.03 0.02 0.02 0.02 0.01 0.01 0.01 0.00 0.00 0.00 0.00 0.00 0.00 0.00 0.00 0.00 0.00 0.00 0.00
0.00 0.00 0.01 0.01 0.01 0.01 0.01 0.01 0.01 0.01 0.01 0.01 0.01 0.01 0.02 0.02 0.01 0.04 0.05 0.09 0.06 0.05 0.06 0.09 0.09 0.05 0.06 0.07 0.07 0.08 0.09 0.07 0.02 0.02 0.04 0.02 0.02 0.02 0.02 0.02 0.02 0.01 0.00 0.00 0.00 0.00 0.00 0.00 0.00 0.00 0.00 0.00 0.00 0.01
0.02 0.02 0.00 0.01 0.01 0.01 0.01 0.01 0.01 0.01 0.02 0.04 0.03 0.03 0.03 0.02 0.03 0.07 0.05 0.04 0.05 0.06 0.06 0.06 0.05 0.05 0.07 0.08 0.08 0.08 0.05 0.02 0.01 0.02 0.01 0.00 0.00 0.00 0.00 0.00 0.00 0.00 0.00 0.00 0.00 0.00 0.00 0.00 0.00 0.00 0.00 0.01 0.01 0.01
0.02 0.01 0.02 0.01 0.00 0.00 0.01 0.01 0.02 0.03 0.03 0.02 0.05 0.02 0.02 0.03 0.06 0.07 0.09 0.09 0.06 0.05 0.04 0.04 0.04 0.05 0.06 0.07 0.07 0.06 0.05 0.02 0.00 0.00 0.00 0.00 0.00 0.00 0.00 0.00 0.00 0.00 0.00 0.00 0.00 0.00 0.00 0.00 0.01 0.01 0.01 0.01 0.00 0.00
0.03 0.02 0.01 0.00 0.01 0.01 0.02 0.04 0.04 0.04 0.03 0.03 0.03 0.02 0.03 0.05 0.10 0.09 0.09 0.07 0.08 0.05 0.05 0.06 0.07 0.05 0.03 0.01 0.01 0.00 0.00 0.01 0.00 0.00 0.00 0.01 0.01 0.01 0.00 0.01 0.00 0.00 0.00 0.00 0.00 0.00 0.00 0.01 0.01 0.01 0.00 0.01 0.01 0.01
0.02 0.01 0.02 0.01 0.02 0.04 0.07 0.03 0.04 0.04 0.02 0.01 0.01 0.02 0.02 0.06 0.09 0.06 0.04 0.04 0.04 0.03 0.04 0.04 0.04 0.02 0.02 0.01 0.00 0.00 0.00 0.00 0.00 0.00 0.00 0.00 0.00 0.01 0.01 0.01 0.01 0.01 0.01 0.01 0.01 0.01 0.00 0.00 0.00 0.00 0.01 0.01 0.01 0.02
0.01 0.01 0.02 0.01 0.05 0.07 0.05 0.03 0.02 0.01 0.00 0.01 0.01 0.01 0.02 0.04 0.05 0.03 0.04 0.06 0.03 0.03 0.02 0.01 0.00 0.00 0.00 0.00 0.00 0.00 0.01 0.00 0.00 0.00 0.00 0.00 0.00 0.01 0.01 0.01 0.01 0.01 0.01 0.01 0.01 0.01 0.01 0.01 0.01 0.01 0.01 0.01 0.01 0.01
0.01 0.01 0.02 0.03 0.05 0.06 0.06 0.13 0.10 0.04 0.03 0.02 0.03 0.02 0.04 0.02 0.03 0.02 0.02 0.03 0.01 0.01 0.01 0.01 0.00 0.00 0.00 0.00 0.00 0.00 0.00 0.00 0.00 0.00 0.00 0.00 0.00 0.00 0.00 0.00 0.01 0.01 0.01 0.01 0.01 0.01 0.01 0.01 0.01 0.01 0.01 0.01 0.01 0.00
0.01 0.00 0.00 0.01 0.03 0.02 0.02 0.02 0.01 0.02 0.01 0.02 0.02 0.02 0.02 0.01 0.02 0.04 0.03 0.01 0.01 0.01 0.01 0.01 0.01 0.02 0.00 0.00 0.00 0.00 0.00 0.00 0.00 0.00 0.01 0.00 0.00 0.00 0.00 0.00 0.01 0.01 0.01 0.01 0.01 0.01 0.01 0.01 0.01 0.01 0.01 0.01 0.00 0.01

GFSWCAN_prec_precacc12_063.txt.gz
Total_Precipitation_Accumulation
0.27 0.23 0.22 0.23 0.25 0.23 0.18 0.11 0.08 0.11 0.16 0.09 0.07 0.09 0.09 0.09 0.17 0.18 0.16 0.39 0.49 0.43 0.11 0.07 0.00 0.00 0.01 0.01 0.03 0.00 0.04 0.10 0.16 0.20 0.11 0.02 0.00 0.00 0.00 0.00 0.00 0.00 0.00 0.00 0.00 0.00 0.00 0.00 0.00 0.00 0.00 0.00 0.00 0.00
0.16 0.16 0.19 0.20 0.23 0.18 0.12 0.07 0.06 0.09 0.16 0.09 0.09 0.11 0.09 0.07 0.10 0.11 0.19 0.31 0.39 0.63 0.28 0.12 0.02 0.00 0.00 0.00 0.02 0.02 0.01 0.01 0.04 0.07 0.04 0.02 0.01 0.00 0.00 0.00 0.00 0.00 0.00 0.00 0.00 0.00 0.00 0.00 0.00 0.00 0.00 0.00 0.00 0.00
0.12 0.12 0.13 0.15 0.14 0.11 0.06 0.05 0.05 0.08 0.17 0.12 0.11 0.13 0.11 0.05 0.08 0.11 0.22 0.38 0.64 0.57 0.29 0.19 0.10 0.00 0.00 0.00 0.03 0.06 0.02 0.02 0.02 0.05 0.06 0.03 0.01 0.00 0.00 0.00 0.00 0.00 0.00 0.00 0.00 0.00 0.00 0.00 0.00 0.00 0.00 0.00 0.00 0.00
0.06 0.07 0.08 0.08 0.08 0.08 0.07 0.05 0.05 0.13 0.21 0.15 0.11 0.13 0.12 0.05 0.08 0.16 0.27 0.46 0.79 0.87 0.38 0.31 0.17 0.05 0.03 0.03 0.01 0.10 0.07 0.03 0.06 0.06 0.08 0.02 0.01 0.00 0.00 0.00 0.00 0.00 0.00 0.00 0.00 0.00 0.00 0.00 0.00 0.00 0.00 0.00 0.00 0.00
0.05 0.05 0.05 0.06 0.12 0.18 0.12 0.08 0.12 0.24 0.23 0.12 0.08 0.12 0.15 0.07 0.13 0.27 0.31 0.40 0.84 1.06 0.48 0.21 0.16 0.05 0.09 0.08 0.04 0.14 0.27 0.21 0.14 0.11 0.06 0.02 0.00 0.00 0.00 0.00 0.00 0.00 0.00 0.00 0.00 0.00 0.00 0.00 0.00 0.00 0.00 0.00 0.00 0.00
0.09 0.10 0.10 0.14 0.20 0.19 0.11 0.13 0.21 0.29 0.17 0.08 0.08 0.14 0.15 0.10 0.19 0.55 0.52 0.35 0.75 0.85 0.73 0.25 0.21 0.09 0.13 0.15 0.11 0.09 0.17 0.40 0.42 0.23 0.10 0.02 0.01 0.00 0.00 0.00 0.00 0.00 0.00 0.00 0.00 0.00 0.00 0.00 0.00 0.00 0.00 0.00 0.00 0.00
0.21 0.17 0.15 0.14 0.16 0.15 0.16 0.20 0.21 0.22 0.12 0.09 0.09 0.15 0.14 0.14 0.37 0.70 0.45 0.41 0.50 0.75 0.60 0.31 0.27 0.12 0.08 0.11 0.09 0.10 0.11 0.16 0.24 0.27 0.26 0.14 0.05 0.02 0.00 0.00 0.00 0.00 0.00 0.00 0.00 0.00 0.00 0.00 0.00 0.00 0.00 0.00 0.00 0.00
0.39 0.31 0.22 0.16 0.12 0.12 0.16 0.14 0.12 0.13 0.13 0.09 0.08 0.09 0.14 0.35 0.57 0.56 0.59 0.66 0.35 0.35 0.32 0.40 0.23 0.16 0.04 0.04 0.05 0.03 0.07 0.10 0.11 0.14 0.15 0.14 0.12 0.13 0.05 0.00 0.00 0.00 0.00 0.00 0.00 0.00 0.00 0.00 0.00 0.00 0.00 0.00 0.00 0.00
0.46 0.32 0.22 0.15 0.14 0.15 0.13 0.10 0.09 0.12 0.16 0.13 0.14 0.29 0.50 0.79 0.85 0.57 0.90 1.04 0.52 0.30 0.23 0.27 0.32 0.23 0.06 0.02 0.02 0.02 0.03 0.07 0.07 0.04 0.05 0.07 0.07 0.09 0.08 0.01 0.00 0.00 0.00 0.00 0.00 0.00 0.00 0.00 0.00 0.00 0.00 0.00 0.00 0.00
0.18 0.16 0.16 0.17 0.18 0.16 0.13 0.10 0.09 0.14 0.20 0.28 0.49 0.75 0.85 0.97 0.74 0.54 0.95 0.91 0.52 0.24 0.11 0.09 0.19 0.38 0.10 0.04 0.05 0.05 0.04 0.05 0.02 0.01 0.02 0.01 0.01 0.01 0.00 0.00 0.00 0.00 0.00 0.00 0.01 0.01 0.00 0.00 0.00 0.00 0.00 0.00 0.00 0.00
0.27 0.23 0.21 0.18 0.18 0.19 0.13 0.08 0.10 0.28 0.42 0.51 0.65 0.74 0.77 0.94 0.73 0.79 0.83 0.66 0.27 0.08 0.04 0.02 0.03 0.19 0.18 0.08 0.07 0.05 0.06 0.06 0.03 0.01 0.02 0.01 0.00 0.01 0.01 0.01 0.01 0.01 0.01 0.01 0.00 0.00 0.00 0.00 0.00 0.00 0.00 0.00 0.00 0.00
0.28 0.28 0.25 0.23 0.20 0.19 0.12 0.09 0.19 0.34 0.42 0.48 0.38 0.38 0.50 0.72 0.70 0.54 0.44 0.34 0.09 0.01 0.01 0.00 0.00 0.06 0.14 0.05 0.06 0.05 0.04 0.01 0.01 0.00 0.01 0.00 0.00 0.01 0.02 0.02 0.01 0.00 0.00 0.00 0.00 0.00 0.01 0.01 0.00 0.00 0.00 0.00 0.00 0.00
0.39 0.40 0.41 0.34 0.29 0.24 0.16 0.12 0.23 0.35 0.42 0.33 0.15 0.28 0.44 0.52 0.41 0.20 0.13 0.05 0.01 0.00 0.00 0.00 0.00 0.01 0.12 0.11 0.13 0.06 0.06 0.04 0.01 0.00 0.00 0.00 0.00 0.01 0.01 0.01 0.00 0.00 0.00 0.00 0.01 0.02 0.02 0.00 0.00 0.00 0.00 0.00 0.00 0.00
0.41 0.41 0.43 0.49 0.47 0.38 0.29 0.34 0.39 0.36 0.31 0.20 0.25 0.23 0.39 0.19 0.09 0.03 0.00 0.00 0.00 0.00 0.00 0.00 0.00 0.00 0.04 0.06 0.14 0.15 0.10 0.02 0.02 0.01 0.00 0.00 0.01 0.01 0.01 0.00 0.01 0.02 0.02 0.03 0.04 0.01 0.00 0.00 0.00 0.00 0.00 0.00 0.00 0.00
0.27 0.27 0.33 0.48 0.40 0.30 0.28 0.31 0.18 0.16 0.14 0.23 0.19 0.15 0.14 0.03 0.01 0.01 0.00 0.00 0.00 0.00 0.00 0.00 0.00 0.00 0.00 0.02 0.02 0.03 0.05 0.04 0.01 0.00 0.01 0.01 0.01 0.00 0.00 0.00 0.01 0.01 0.01 0.00 0.00 0.00 0.00 0.00 0.00 0.00 0.00 0.00 0.00 0.00
0.14 0.14 0.25 0.29 0.28 0.27 0.26 0.17 0.11 0.11 0.14 0.09 0.09 0.07 0.01 0.00 0.00 0.01 0.00 0.00 0.00 0.00 0.00 0.00 0.00 0.00 0.00 0.00 0.00 0.00 0.00 0.00 0.01 0.00 0.00 0.00 0.00 0.00 0.00 0.00 0.00 0.00 0.00 0.00 0.00 0.00 0.00 0.00 0.00 0.00 0.00 0.00 0.00 0.00
0.06 0.12 0.14 0.15 0.18 0.18 0.14 0.10 0.09 0.15 0.20 0.12 0.08 0.04 0.02 0.02 0.03 0.02 0.01 0.01 0.00 0.00 0.00 0.00 0.00 0.00 0.00 0.00 0.00 0.00 0.01 0.01 0.00 0.00 0.01 0.00 0.00 0.00 0.01 0.01 0.01 0.00 0.00 0.01 0.01 0.00 0.00 0.00 0.00 0.00 0.00 0.00 0.00 0.00
0.08 0.06 0.03 0.05 0.06 0.07 0.08 0.12 0.11 0.10 0.11 0.17 0.15 0.12 0.08 0.08 0.07 0.06 0.04 0.01 0.00 0.00 0.00 0.00 0.00 0.00 0.01 0.01 0.02 0.02 0.02 0.03 0.03 0.02 0.02 0.01 0.01 0.01 0.01 0.01 0.01 0.00 0.00 0.00 0.00 0.00 0.00 0.00 0.00 0.00 0.00 0.00 0.00 0.00
0.03 0.02 0.01 0.02 0.01 0.04 0.11 0.11 0.07 0.03 0.11 0.19 0.28 0.27 0.20 0.21 0.23 0.20 0.14 0.08 0.03 0.01 0.01 0.02 0.04 0.04 0.07 0.09 0.09 0.08 0.09 0.09 0.10 0.15 0.16 0.13 0.10 0.06 0.07 0.06 0.02 0.00 0.00 0.00 0.00 0.00 0.00 0.00 0.00 0.00 0.00 0.00 0.00 0.00
0.00 0.00 0.00 0.00 0.01 0.02 0.03 0.04 0.02 0.03 0.13 0.17 0.24 0.23 0.19 0.27 0.26 0.20 0.12 0.11 0.06 0.06 0.09 0.14 0.21 0.25 0.25 0.24 0.17 0.16 0.17 0.17 0.12 0.15 0.23 0.25 0.21 0.13 0.13 0.08 0.05 0.02 0.01 0.00 0.00 0.00 0.00 0.01 0.01 0.00 0.00 0.00 0.00 0.00
0.00 0.00 0.00 0.00 0.00 0.00 0.02 0.03 0.06 0.08 0.11 0.16 0.24 0.15 0.24 0.17 0.16 0.10 0.07 0.03 0.03 0.13 0.22 0.32 0.37 0.45 0.39 0.27 0.23 0.19 0.19 0.13 0.10 0.05 0.07 0.14 0.17 0.09 0.10 0.10 0.06 0.04 0.03 0.03 0.03 0.04 0.04 0.02 0.01 0.00 0.00 0.00 0.00 0.00
0.00 0.00 0.00 0.00 0.00 0.00 0.02 0.03 0.04 0.06 0.08 0.17 0.18 0.14 0.18 0.19 0.16 0.10 0.03 0.02 0.14 0.26 0.33 0.32 0.31 0.30 0.22 0.22 0.20 0.14 0.13 0.07 0.05 0.05 0.05 0.03 0.05 0.04 0.04 0.05 0.02 0.04 0.04 0.04 0.03 0.02 0.01 0.00 0.00 0.00 0.00 0.00 0.00 0.00
0.00 0.00 0.00 0.00 0.00 0.00 0.01 0.00 0.02 0.06 0.07 0.12 0.11 0.11 0.14 0.14 0.13 0.03 0.04 0.10 0.19 0.26 0.28 0.21 0.20 0.19 0.16 0.17 0.09 0.08 0.07 0.02 0.03 0.04 0.04 0.03 0.03 0.03 0.02 0.03 0.02 0.02 0.02 0.03 0.02 0.01 0.00 0.00 0.00 0.00 0.00 0.00 0.00 0.00
0.00 0.00 0.00 0.00 0.00 0.00 0.00 0.00 0.01 0.04 0.04 0.05 0.05 0.08 0.12 0.11 0.03 0.01 0.07 0.13 0.23 0.18 0.13 0.16 0.11 0.08 0.05 0.04 0.06 0.08 0.10 0.03 0.03 0.04 0.04 0.02 0.02 0.05 0.03 0.03 0.02 0.02 0.02 0.01 0.01 0.00 0.00 0.00 0.00 0.00 0.00 0.00 0.00 0.00
0.00 0.00 0.00 0.00 0.00 0.00 0.00 0.00 0.01 0.02 0.05 0.05 0.04 0.07 0.08 0.04 0.03 0.05 0.07 0.12 0.08 0.08 0.10 0.10 0.05 0.06 0.05 0.07 0.08 0.09 0.09 0.04 0.03 0.04 0.07 0.04 0.03 0.03 0.03 0.02 0.02 0.01 0.00 0.00 0.00 0.00 0.00 0.00 0.00 0.00 0.00 0.00 0.00 0.00
0.00 0.00 0.01 0.01 0.01 0.01 0.01 0.01 0.01 0.01 0.01 0.02 0.03 0.04 0.03 0.01 0.01 0.04 0.06 0.09 0.06 0.06 0.06 0.08 0.07 0.03 0.04 0.05 0.06 0.07 0.09 0.07 0.02 0.02 0.05 0.03 0.03 0.02 0.02 0.02 0.02 0.01 0.00 0.00 0.00 0.00 0.00 0.00 0.00 0.00 0.00 0.00 0.00 0.01
0.02 0.02 0.00 0.02 0.02 0.01 0.01 0.01 0.01 0.01 0.02 0.03 0.04 0.04 0.02 0.01 0.03 0.07 0.05 0.05 0.05 0.06 0.05 0.05 0.03 0.03 0.05 0.06 0.07 0.08 0.05 0.02 0.01 0.02 0.01 0.00 0.00 0.00 0.00 0.00 0.00 0.00 0.00 0.00 0.00 0.00 0.00 0.00 0.00 0.00 0.00 0.00 0.01 0.01
0.03 0.02 0.02 0.01 0.00 0.00 0.01 0.01 0.01 0.03 0.03 0.03 0.04 0.01 0.02 0.02 0.06 0.07 0.09 0.08 0.04 0.03 0.02 0.02 0.02 0.03 0.04 0.06 0.07 0.05 0.05 0.02 0.00 0.00 0.00 0.00 0.00 0.00 0.00 0.00 0.00 0.00 0.00 0.00 0.00 0.00 0.00 0.00 0.01 0.01 0.01 0.01 0.00 0.00
0.03 0.02 0.01 0.00 0.00 0.00 0.02 0.04 0.04 0.04 0.03 0.03 0.02 0.02 0.03 0.06 0.11 0.09 0.08 0.06 0.05 0.02 0.02 0.03 0.05 0.03 0.02 0.01 0.01 0.00 0.01 0.01 0.00 0.00 0.00 0.01 0.01 0.01 0.00 0.01 0.00 0.00 0.00 0.00 0.00 0.00 0.01 0.01 0.01 0.01 0.00 0.00 0.00 0.01
0.02 0.01 0.02 0.01 0.02 0.04 0.08 0.03 0.04 0.04 0.01 0.00 0.01 0.02 0.02 0.07 0.10 0.06 0.04 0.03 0.02 0.02 0.03 0.03 0.03 0.01 0.02 0.01 0.00 0.00 0.00 0.00 0.00 0.00 0.00 0.00 0.00 0.01 0.00 0.01 0.00 0.00 0.00 0.00 0.00 0.01 0.00 0.00 0.00 0.00 0.01 0.01 0.01 0.01
0.00 0.01 0.01 0.01 0.05 0.07 0.04 0.02 0.01 0.00 0.00 0.01 0.00 0.00 0.02 0.05 0.05 0.03 0.04 0.05 0.03 0.03 0.01 0.01 0.00 0.00 0.00 0.00 0.00 0.00 0.01 0.01 0.00 0.00 0.00 0.00 0.00 0.00 0.01 0.00 0.01 0.00 0.01 0.01 0.01 0.01 0.00 0.00 0.00 0.01 0.01 0.00 0.01 0.01
0.00 0.01 0.01 0.02 0.06 0.07 0.07 0.12 0.07 0.02 0.02 0.01 0.02 0.02 0.03 0.01 0.02 0.02 0.02 0.03 0.01 0.01 0.01 0.01 0.00 0.01 0.00 0.01 0.01 0.00 0.00 0.00 0.00 0.00 0.00 0.00 0.00 0.00 0.00 0.00 0.00 0.01 0.01 0.01 0.01 0.01 0.01 0.01 0.01 0.01 0.01 0.01 0.01 0.00
0.00 0.00 0.00 0.01 0.03 0.03 0.05 0.03 0.01 0.02 0.01 0.01 0.02 0.02 0.02 0.01 0.02 0.03 0.03 0.01 0.01 0.01 0.01 0.01 0.01 0.02 0.00 0.00 0.00 0.00 0.00 0.00 0.00 0.00 0.01 0.00 0.00 0.00 0.00 0.00 0.00 0.00 0.00 0.00 0.01 0.01 0.01 0.01 0.01 0.01 0.01 0.01 0.00 0.01

GFSWCAN_prec_precacc12_069.txt.gz
Total_Precipitation_Accumulation
0.29 0.27 0.29 0.30 0.29 0.28 0.29 0.36 0.33 0.38 0.39 0.22 0.14 0.08 0.08 0.07 0.17 0.25 0.21 0.27 0.37 0.34 0.16 0.19 0.04 0.01 0.00 0.00 0.00 0.00 0.02 0.01 0.06 0.13 0.07 0.02 0.01 0.00 0.00 0.00 0.00 0.00 0.00 0.00 0.00 0.00 0.00 0.00 0.00 0.00 0.00 0.00 0.00 0.00
0.22 0.21 0.24 0.25 0.29 0.28 0.26 0.34 0.31 0.38 0.35 0.18 0.13 0.12 0.11 0.07 0.14 0.24 0.20 0.30 0.30 0.39 0.15 0.24 0.09 0.01 0.00 0.00 0.00 0.01 0.01 0.00 0.03 0.06 0.04 0.03 0.00 0.00 0.00 0.00 0.00 0.00 0.00 0.00 0.00 0.00 0.00 0.00 0.00 0.00 0.00 0.00 0.00 0.00
0.23 0.25 0.25 0.27 0.28 0.28 0.25 0.34 0.28 0.31 0.29 0.20 0.18 0.16 0.12 0.07 0.11 0.20 0.16 0.34 0.32 0.35 0.13 0.12 0.15 0.04 0.00 0.00 0.00 0.03 0.02 0.02 0.02 0.05 0.09 0.06 0.02 0.00 0.00 0.00 0.01 0.01 0.01 0.00 0.00 0.00 0.00 0.00 0.00 0.00 0.00 0.00 0.00 0.00
0.19 0.24 0.28 0.30 0.32 0.31 0.29 0.35 0.27 0.26 0.31 0.23 0.16 0.14 0.14 0.08 0.12 0.14 0.14 0.37 0.32 0.37 0.31 0.19 0.28 0.15 0.08 0.02 0.00 0.00 0.01 0.02 0.06 0.07 0.12 0.05 0.02 0.01 0.00 0.00 0.00 0.00 0.01 0.01 0.00 0.00 0.00 0.00 0.00 0.00 0.00 0.00 0.00 0.00
0.19 0.21 0.24 0.28 0.31 0.31 0.33 0.31 0.25 0.29 0.30 0.18 0.11 0.14 0.18 0.10 0.17 0.19 0.18 0.26 0.32 0.70 0.40 0.21 0.28 0.17 0.18 0.14 0.04 0.00 0.01 0.15 0.15 0.12 0.09 0.05 0.02 0.02 0.01 0.00 0.00 0.00 0.00 0.00 0.00 0.00 0.00 0.00 0.00 0.00 0.00 0.00 0.00 0.00
0.12 0.15 0.18 0.21 0.22 0.23 0.26 0.23 0.22 0.27 0.18 0.10 0.08 0.16 0.16 0.15 0.22 0.37 0.47 0.24 0.26 0.57 0.71 0.35 0.31 0.24 0.29 0.33 0.23 0.08 0.09 0.35 0.40 0.23 0.12 0.02 0.01 0.01 0.01 0.00 0.00 0.00 0.00 0.00 0.00 0.00 0.00 0.00 0.00 0.00 0.00 0.00 0.00 0.00
0.07 0.09 0.10 0.11 0.13 0.15 0.16 0.16 0.17 0.16 0.07 0.06 0.07 0.15 0.20 0.18 0.17 0.43 0.31 0.31 0.27 0.42 0.66 0.45 0.38 0.21 0.29 0.29 0.21 0.12 0.10 0.14 0.23 0.27 0.26 0.15 0.07 0.02 0.00 0.00 0.00 0.00 0.00 0.00 0.00 0.00 0.00 0.00 0.00 0.00 0.00 0.00 0.00 0.00
0.02 0.03 0.05 0.06 0.07 0.08 0.09 0.10 0.12 0.07 0.05 0.07 0.11 0.19 0.22 0.18 0.20 0.25 0.39 0.63 0.31 0.36 0.53 0.49 0.30 0.21 0.33 0.23 0.18 0.10 0.10 0.12 0.14 0.14 0.15 0.15 0.18 0.19 0.10 0.00 0.00 0.00 0.00 0.00 0.00 0.00 0.00 0.00 0.00 0.00 0.00 0.00 0.00 0.00
0.01 0.01 0.01 0.01 0.02 0.03 0.06 0.08 0.05 0.04 0.08 0.13 0.20 0.35 0.45 0.33 0.31 0.28 0.85 1.06 0.57 0.42 0.37 0.28 0.28 0.26 0.24 0.27 0.17 0.27 0.11 0.13 0.10 0.09 0.07 0.10 0.12 0.14 0.10 0.02 0.01 0.01 0.01 0.01 0.00 0.00 0.00 0.00 0.00 0.00 0.00 0.00 0.00 0.00
0.01 0.02 0.04 0.05 0.06 0.07 0.05 0.02 0.04 0.11 0.19 0.35 0.51 0.60 0.47 0.34 0.45 0.54 1.11 1.16 0.74 0.38 0.21 0.17 0.16 0.32 0.19 0.14 0.11 0.27 0.29 0.08 0.07 0.05 0.06 0.04 0.01 0.00 0.00 0.00 0.01 0.00 0.00 0.01 0.01 0.01 0.01 0.00 0.00 0.00 0.00 0.00 0.00 0.00
0.09 0.08 0.07 0.06 0.08 0.11 0.06 0.03 0.07 0.25 0.41 0.43 0.43 0.47 0.51 0.62 0.73 0.85 1.00 0.79 0.40 0.16 0.06 0.03 0.05 0.25 0.39 0.18 0.12 0.22 0.38 0.24 0.03 0.02 0.03 0.03 0.00 0.00 0.00 0.01 0.01 0.01 0.01 0.01 0.00 0.00 0.00 0.00 0.00 0.00 0.00 0.00 0.01 0.01
0.13 0.11 0.08 0.07 0.08 0.10 0.07 0.09 0.16 0.28 0.29 0.41 0.45 0.48 0.60 0.56 0.65 0.55 0.55 0.48 0.16 0.02 0.01 0.02 0.01 0.06 0.51 0.40 0.22 0.21 0.18 0.20 0.06 0.00 0.00 0.00 0.00 0.01 0.02 0.02 0.01 0.00 0.00 0.00 0.00 0.00 0.01 0.01 0.02 0.02 0.02 0.03 0.05 0.07
0.20 0.19 0.16 0.15 0.13 0.14 0.15 0.14 0.21 0.38 0.59 0.61 0.34 0.41 0.43 0.42 0.40 0.24 0.18 0.17 0.05 0.00 0.01 0.01 0.01 0.03 0.30 0.53 0.43 0.32 0.18 0.10 0.05 0.03 0.01 0.00 0.00 0.01 0.02 0.01 0.00 0.00 0.00 0.00 0.01 0.02 0.03 0.04 0.04 0.05 0.06 0.09 0.09 0.07
0.32 0.25 0.25 0.26 0.23 0.22 0.24 0.37 0.47 0.66 0.67 0.49 0.40 0.24 0.36 0.18 0.11 0.05 0.03 0.04 0.01 0.00 0.01 0.01 0.01 0.05 0.14 0.25 0.33 0.40 0.26 0.05 0.01 0.01 0.00 0.00 0.01 0.01 0.01 0.00 0.01 0.02 0.03 0.04 0.06 0.06 0.06 0.07 0.10 0.12 0.11 0.10 0.07 0.04
0.24 0.21 0.20 0.26 0.23 0.25 0.36 0.45 0.41 0.49 0.43 0.46 0.22 0.17 0.21 0.06 0.05 0.09 0.06 0.04 0.02 0.02 0.02 0.01 0.03 0.04 0.05 0.10 0.05 0.05 0.06 0.04 0.01 0.00 0.01 0.02 0.02 0.01 0.01 0.00 0.01 0.04 0.06 0.08 0.08 0.07 0.08 0.08 0.07 0.08 0.09 0.07 0.04 0.01
0.14 0.18 0.27 0.31 0.28 0.29 0.31 0.28 0.38 0.39 0.33 0.25 0.20 0.24 0.13 0.08 0.14 0.11 0.06 0.09 0.06 0.05 0.03 0.02 0.05 0.03 0.03 0.00 0.00 0.00 0.00 0.00 0.01 0.02 0.02 0.02 0.02 0.03 0.03 0.03 0.05 0.08 0.11 0.13 0.11 0.10 0.10 0.11 0.11 0.07 0.03 0.01 0.00 0.00
0.10 0.18 0.25 0.25 0.26 0.26 0.24 0.20 0.21 0.23 0.17 0.14 0.27 0.23 0.13 0.15 0.26 0.17 0.13 0.12 0.08 0.05 0.03 0.01 0.02 0.01 0.01 0.00 0.01 0.02 0.02 0.03 0.03 0.02 0.02 0.02 0.03 0.04 0.05 0.07 0.08 0.09 0.11 0.13 0.12 0.09 0.06 0.04 0.01 0.01 0.00 0.00 0.00 0.00
0.21 0.19 0.18 0.17 0.15 0.16 0.19 0.18 0.16 0.14 0.12 0.20 0.30 0.30 0.17 0.16 0.16 0.11 0.08 0.06 0.03 0.02 0.00 0.00 0.00 0.00 0.01 0.02 0.04 0.06 0.08 0.08 0.08 0.07 0.06 0.07 0.08 0.10 0.10 0.10 0.12 0.11 0.10 0.09 0.04 0.03 0.02 0.02 0.02 0.03 0.01 0.00 0.00 0.00
0.37 0.24 0.20 0.17 0.15 0.18 0.21 0.18 0.08 0.06 0.17 0.28 0.30 0.26 0.17 0.18 0.19 0.17 0.10 0.04 0.01 0.00 0.00 0.01 0.02 0.03 0.07 0.12 0.16 0.16 0.16 0.15 0.14 0.20 0.27 0.29 0.25 0.17 0.14 0.11 0.08 0.06 0.05 0.05 0.05 0.06 0.05 0.03 0.01 0.01 0.00 0.01 0.02 0.02
0.31 0.34 0.30 0.25 0.21 0.28 0.14 0.11 0.04 0.06 0.17 0.23 0.28 0.24 0.18 0.28 0.24 0.19 0.12 0.09 0.04 0.05 0.09 0.14 0.21 0.25 0.28 0.31 0.32 0.29 0.29 0.30 0.24 0.25 0.32 0.36 0.35 0.21 0.17 0.10 0.09 0.07 0.05 0.05 0.05 0.04 0.04 0.04 0.05 0.03 0.03 0.02 0.01 0.00
0.10 0.14 0.19 0.20 0.18 0.17 0.17 0.13 0.08 0.07 0.10 0.14 0.21 0.11 0.22 0.16 0.14 0.09 0.05 0.02 0.02 0.12 0.21 0.30 0.35 0.43 0.43 0.37 0.37 0.30 0.31 0.23 0.23 0.16 0.16 0.20 0.28 0.14 0.15 0.14 0.10 0.08 0.06 0.07 0.06 0.08 0.06 0.05 0.03 0.00 0.00 0.00 0.00 0.00
0.01 0.02 0.04 0.07 0.07 0.03 0.08 0.13 0.09 0.11 0.09 0.19 0.19 0.12 0.16 0.16 0.14 0.10 0.02 0.03 0.16 0.25 0.36 0.36 0.36 0.37 0.28 0.30 0.32 0.26 0.31 0.19 0.17 0.15 0.15 0.10 0.11 0.09 0.09 0.10 0.05 0.06 0.06 0.06 0.04 0.03 0.02 0.01 0.00 0.00 0.00 0.00 0.00 0.00
0.00 0.00 0.00 0.00 0.00 0.00 0.05 0.04 0.05 0.13 0.10 0.16 0.15 0.13 0.16 0.16 0.18 0.06 0.07 0.16 0.25 0.33 0.40 0.32 0.34 0.34 0.26 0.31 0.17 0.18 0.21 0.07 0.07 0.09 0.09 0.06 0.06 0.07 0.04 0.06 0.04 0.03 0.03 0.05 0.03 0.02 0.01 0.01 0.00 0.00 0.00 0.00 0.00 0.00
0.00 0.00 0.00 0.00 0.00 0.00 0.00 0.03 0.06 0.10 0.09 0.09 0.09 0.15 0.18 0.16 0.06 0.03 0.11 0.16 0.28 0.27 0.21 0.25 0.22 0.19 0.16 0.11 0.11 0.13 0.18 0.07 0.04 0.06 0.07 0.02 0.03 0.06 0.04 0.04 0.02 0.03 0.03 0.02 0.01 0.01 0.00 0.00 0.00 0.00 0.00 0.00 0.00 0.00
0.00 0.00 0.00 0.00 0.00 0.00 0.00 0.01 0.03 0.05 0.10 0.10 0.09 0.14 0.17 0.10 0.06 0.08 0.11 0.15 0.15 0.15 0.17 0.17 0.13 0.12 0.10 0.11 0.11 0.11 0.10 0.03 0.01 0.03 0.07 0.03 0.03 0.03 0.03 0.02 0.02 0.01 0.00 0.00 0.00 0.00 0.00 0.00 0.00 0.00 0.00 0.00 0.00 0.00
0.00 0.01 0.01 0.02 0.01 0.00 0.01 0.01 0.02 0.03 0.04 0.04 0.07 0.10 0.07 0.02 0.03 0.06 0.09 0.11 0.11 0.12 0.12 0.12 0.09 0.06 0.06 0.06 0.05 0.04 0.05 0.02 0.00 0.01 0.04 0.02 0.02 0.01 0.01 0.02 0.01 0.01 0.00 0.00 0.00 0.00 0.00 0.00 0.00 0.00 0.00 0.00 0.00 0.01
0.01 0.01 0.00 0.02 0.03 0.01 0.01 0.01 0.01 0.00 0.01 0.03 0.05 0.05 0.03 0.01 0.03 0.07 0.08 0.08 0.08 0.10 0.09 0.07 0.04 0.03 0.03 0.04 0.03 0.03 0.02 0.00 0.00 0.01 0.01 0.00 0.00 0.00 0.00 0.00 0.00 0.01 0.01 0.00 0.00 0.00 0.00 0.00 0.00 0.00 0.00 0.00 0.00 0.00
0.04 0.01 0.01 0.00 0.00 0.00 0.00 0.00 0.01 0.03 0.03 0.04 0.01 0.01 0.01 0.01 0.05 0.08 0.09 0.09 0.06 0.05 0.03 0.03 0.02 0.00 0.00 0.01 0.01 0.00 0.01 0.00 0.00 0.00 0.00 0.00 0.00 0.00 0.00 0.00 0.01 0.00 0.00 0.00 0.00 0.01 0.01 0.01 0.01 0.01 0.01 0.00 0.00 0.00
0.02 0.01 0.00 0.00 0.00 0.00 0.02 0.03 0.03 0.03 0.04 0.02 0.00 0.01 0.02 0.06 0.11 0.09 0.10 0.06 0.03 0.01 0.01 0.01 0.01 0.00 0.00 0.00 0.00 0.00 0.00 0.00 0.00 0.00 0.00 0.00 0.00 0.00 0.00 0.01 0.00 0.00 0.00 0.00 0.00 0.00 0.01 0.01 0.01 0.00 0.00 0.00 0.00 0.00
0.01 0.00 0.00 0.00 0.01 0.03 0.07 0.03 0.03 0.03 0.01 0.00 0.01 0.02 0.03 0.09 0.14 0.09 0.05 0.03 0.01 0.01 0.02 0.01 0.01 0.00 0.00 0.00 0.00 0.00 0.00 0.00 0.00 0.00 0.00 0.00 0.00 0.01 0.00 0.00 0.00 0.00 0.00 0.00 0.00 0.00 0.00 0.00 0.00 0.00 0.00 0.00 0.00 0.00
0.00 0.00 0.00 0.00 0.03 0.04 0.02 0.00 0.00 0.00 0.00 0.00 0.00 0.00 0.02 0.06 0.05 0.04 0.04 0.03 0.02 0.01 0.00 0.00 0.00 0.00 0.00 0.00 0.00 0.00 0.00 0.01 0.00 0.00 0.00 0.00 0.00 0.00 0.00 0.00 0.00 0.00 0.00 0.00 0.00 0.00 0.00 0.00 0.00 0.00 0.00 0.00 0.00 0.00
0.00 0.00 0.00 0.01 0.05 0.05 0.04 0.03 0.00 0.00 0.00 0.00 0.01 0.00 0.01 0.00 0.01 0.01 0.03 0.01 0.00 0.00 0.01 0.00 0.00 0.00 0.00 0.00 0.00 0.00 0.00 0.00 0.00 0.01 0.00 0.00 0.00 0.00 0.00 0.00 0.00 0.00 0.00 0.00 0.00 0.00 0.00 0.00 0.00 0.00 0.00 0.00 0.00 0.00
0.00 0.00 0.00 0.01 0.03 0.04 0.06 0.03 0.00 0.01 0.01 0.01 0.01 0.01 0.00 0.00 0.01 0.02 0.02 0.00 0.00 0.00 0.00 0.01 0.01 0.01 0.00 0.00 0.00 0.00 0.00 0.00 0.00 0.00 0.01 0.00 0.00 0.00 0.00 0.00 0.00 0.00 0.00 0.00 0.00 0.00 0.00 0.00 0.00 0.00 0.00 0.00 0.00 0.00

GFSWCAN_prec_precacc12_072.txt.gz
Total_Precipitation_Accumulation
0.16 0.13 0.18 0.23 0.30 0.39 0.37 0.47 0.44 0.42 0.33 0.26 0.19 0.19 0.17 0.11 0.20 0.27 0.18 0.16 0.25 0.29 0.15 0.18 0.08 0.09 0.01 0.02 0.02 0.00 0.02 0.00 0.02 0.03 0.02 0.01 0.01 0.00 0.00 0.00 0.00 0.00 0.00 0.00 0.00 0.00 0.00 0.00 0.00 0.00 0.00 0.00 0.00 0.00
0.16 0.16 0.21 0.24 0.31 0.35 0.39 0.49 0.41 0.38 0.27 0.21 0.18 0.16 0.19 0.13 0.18 0.25 0.16 0.21 0.22 0.30 0.13 0.24 0.13 0.04 0.09 0.01 0.01 0.01 0.00 0.00 0.00 0.02 0.01 0.02 0.00 0.00 0.00 0.00 0.00 0.00 0.00 0.00 0.00 0.00 0.00 0.00 0.00 0.00 0.00 0.00 0.00 0.00
0.24 0.27 0.28 0.29 0.40 0.38 0.37 0.48 0.36 0.30 0.23 0.20 0.20 0.19 0.22 0.15 0.16 0.22 0.11 0.21 0.25 0.28 0.11 0.10 0.16 0.06 0.04 0.03 0.00 0.00 0.00 0.01 0.02 0.03 0.06 0.05 0.02 0.00 0.00 0.00 0.01 0.01 0.01 0.01 0.00 0.00 0.00 0.00 0.00 0.00 0.00 0.00 0.00 0.00
0.20 0.26 0.30 0.30 0.32 0.31 0.32 0.38 0.28 0.25 0.29 0.23 0.21 0.24 0.25 0.17 0.19 0.15 0.08 0.20 0.24 0.31 0.28 0.14 0.29 0.21 0.07 0.03 0.00 0.00 0.01 0.01 0.03 0.07 0.10 0.05 0.02 0.01 0.00 0.00 0.00 0.00 0.01 0.01 0.00 0.00 0.00 0.00 0.00 0.00 0.00 0.00 0.00 0.00
0.22 0.21 0.24 0.29 0.32 0.32 0.34 0.33 0.31 0.34 0.36 0.27 0.24 0.29 0.31 0.22 0.23 0.17 0.09 0.15 0.18 0.37 0.31 0.13 0.21 0.26 0.21 0.15 0.03 0.00 0.00 0.01 0.07 0.09 0.07 0.04 0.02 0.02 0.01 0.00 0.00 0.00 0.00 0.00 0.00 0.00 0.00 0.00 0.00 0.00 0.00 0.00 0.00 0.00
0.22 0.24 0.27 0.29 0.30 0.32 0.36 0.36 0.33 0.41 0.32 0.25 0.23 0.31 0.30 0.26 0.25 0.26 0.25 0.15 0.15 0.32 0.43 0.23 0.15 0.25 0.39 0.37 0.23 0.08 0.07 0.06 0.05 0.05 0.03 0.01 0.01 0.01 0.01 0.00 0.00 0.00 0.00 0.01 0.00 0.01 0.00 0.00 0.00 0.00 0.00 0.00 0.00 0.00
0.15 0.17 0.16 0.18 0.21 0.24 0.25 0.25 0.29 0.30 0.20 0.17 0.20 0.27 0.27 0.20 0.14 0.21 0.12 0.06 0.07 0.25 0.45 0.38 0.23 0.18 0.48 0.40 0.27 0.13 0.09 0.10 0.12 0.11 0.07 0.10 0.06 0.02 0.00 0.00 0.00 0.00 0.00 0.00 0.00 0.00 0.00 0.00 0.00 0.00 0.00 0.00 0.00 0.00
0.06 0.08 0.10 0.12 0.12 0.12 0.13 0.15 0.18 0.13 0.11 0.13 0.16 0.20 0.18 0.12 0.11 0.11 0.19 0.16 0.07 0.19 0.45 0.52 0.45 0.36 0.71 0.37 0.26 0.15 0.11 0.12 0.12 0.13 0.09 0.11 0.16 0.18 0.10 0.00 0.00 0.00 0.00 0.00 0.00 0.00 0.00 0.00 0.00 0.00 0.00 0.00 0.00 0.00
0.03 0.03 0.03 0.04 0.04 0.05 0.08 0.10 0.07 0.05 0.07 0.13 0.18 0.24 0.31 0.23 0.15 0.11 0.45 0.47 0.27 0.33 0.43 0.35 0.58 0.55 0.48 0.46 0.22 0.31 0.16 0.16 0.10 0.08 0.06 0.10 0.12 0.14 0.10 0.02 0.00 0.01 0.01 0.01 0.00 0.00 0.00 0.00 0.00 0.00 0.00 0.00 0.00 0.00
0.01 0.01 0.01 0.01 0.02 0.03 0.03 0.02 0.03 0.06 0.13 0.26 0.34 0.42 0.35 0.20 0.16 0.35 0.62 0.81 0.65 0.40 0.25 0.26 0.42 0.75 0.54 0.57 0.29 0.33 0.33 0.10 0.07 0.05 0.06 0.04 0.02 0.00 0.00 0.00 0.00 0.00 0.00 0.01 0.01 0.01 0.01 0.00 0.00 0.00 0.00 0.00 0.00 0.00
0.03 0.03 0.03 0.02 0.02 0.02 0.01 0.01 0.02 0.08 0.22 0.28 0.30 0.30 0.23 0.36 0.43 0.51 0.66 0.73 0.43 0.19 0.07 0.04 0.12 0.50 0.80 0.61 0.31 0.33 0.49 0.32 0.05 0.03 0.04 0.03 0.00 0.00 0.00 0.00 0.00 0.01 0.01 0.00 0.00 0.00 0.00 0.00 0.00 0.00 0.00 0.01 0.02 0.03
0.06 0.04 0.04 0.04 0.04 0.03 0.03 0.04 0.08 0.15 0.19 0.32 0.40 0.32 0.51 0.38 0.43 0.39 0.56 0.49 0.18 0.03 0.01 0.02 0.02 0.15 0.66 0.65 0.38 0.31 0.30 0.44 0.22 0.02 0.00 0.00 0.00 0.00 0.01 0.00 0.00 0.00 0.00 0.00 0.00 0.00 0.01 0.01 0.02 0.02 0.02 0.04 0.06 0.09
0.06 0.04 0.03 0.05 0.09 0.15 0.18 0.16 0.21 0.28 0.53 0.63 0.33 0.30 0.28 0.27 0.31 0.26 0.25 0.17 0.05 0.00 0.01 0.01 0.01 0.03 0.24 0.46 0.36 0.32 0.20 0.18 0.16 0.08 0.03 0.01 0.00 0.01 0.01 0.00 0.00 0.00 0.00 0.00 0.01 0.02 0.03 0.04 0.04 0.05 0.07 0.11 0.14 0.16
0.07 0.06 0.07 0.10 0.13 0.12 0.13 0.21 0.33 0.64 0.67 0.49 0.36 0.20 0.29 0.15 0.13 0.07 0.03 0.04 0.01 0.00 0.01 0.01 0.01 0.04 0.10 0.19 0.22 0.36 0.33 0.17 0.09 0.04 0.04 0.04 0.02 0.02 0.01 0.00 0.01 0.02 0.03 0.04 0.06 0.06 0.06 0.07 0.10 0.13 0.15 0.16 0.13 0.12
0.08 0.07 0.08 0.09 0.09 0.15 0.24 0.33 0.39 0.49 0.49 0.53 0.23 0.16 0.20 0.06 0.09 0.13 0.06 0.04 0.02 0.02 0.02 0.01 0.03 0.04 0.06 0.14 0.12 0.12 0.17 0.16 0.08 0.04 0.02 0.02 0.02 0.02 0.02 0.01 0.02 0.04 0.06 0.08 0.09 0.09 0.10 0.10 0.10 0.14 0.17 0.15 0.08 0.03
0.05 0.06 0.15 0.20 0.20 0.24 0.24 0.28 0.40 0.40 0.40 0.30 0.24 0.29 0.16 0.10 0.17 0.15 0.08 0.10 0.07 0.06 0.04 0.03 0.07 0.04 0.09 0.07 0.06 0.02 0.00 0.01 0.03 0.05 0.04 0.04 0.05 0.06 0.06 0.07 0.09 0.12 0.15 0.18 0.17 0.15 0.14 0.16 0.14 0.11 0.06 0.02 0.02 0.02
0.07 0.10 0.20 0.21 0.23 0.24 0.24 0.20 0.22 0.24 0.21 0.23 0.37 0.29 0.16 0.20 0.30 0.22 0.16 0.16 0.14 0.11 0.07 0.04 0.05 0.05 0.06 0.03 0.03 0.03 0.04 0.05 0.06 0.06 0.06 0.06 0.07 0.09 0.11 0.12 0.13 0.14 0.16 0.17 0.15 0.12 0.08 0.06 0.02 0.01 0.00 0.00 0.00 0.00
0.23 0.19 0.17 0.17 0.16 0.17 0.20 0.17 0.16 0.14 0.18 0.27 0.35 0.35 0.20 0.24 0.31 0.26 0.20 0.17 0.16 0.11 0.03 0.02 0.02 0.01 0.03 0.03 0.06 0.09 0.10 0.12 0.12 0.10 0.10 0.12 0.12 0.14 0.14 0.13 0.16 0.14 0.13 0.11 0.06 0.04 0.03 0.03 0.03 0.04 0.02 0.00 0.00 0.01
0.42 0.24 0.21 0.19 0.16 0.23 0.25 0.21 0.08 0.07 0.20 0.35 0.39 0.31 0.21 0.24 0.29 0.27 0.17 0.08 0.05 0.03 0.04 0.04 0.02 0.02 0.05 0.09 0.13 0.14 0.14 0.14 0.15 0.22 0.28 0.32 0.28 0.19 0.16 0.12 0.09 0.08 0.07 0.07 0.06 0.07 0.06 0.04 0.03 0.02 0.01 0.02 0.03 0.03
0.55 0.47 0.39 0.34 0.32 0.42 0.27 0.19 0.09 0.07 0.19 0.29 0.33 0.27 0.20 0.27 0.25 0.22 0.14 0.07 0.02 0.02 0.05 0.08 0.13 0.17 0.19 0.24 0.29 0.25 0.25 0.27 0.23 0.22 0.29 0.32 0.33 0.20 0.18 0.10 0.09 0.09 0.06 0.06 0.06 0.05 0.04 0.05 0.05 0.04 0.03 0.02 0.01 0.01
0.26 0.31 0.33 0.33 0.27 0.22 0.30 0.27 0.18 0.10 0.10 0.14 0.18 0.09 0.16 0.12 0.10 0.08 0.04 0.02 0.02 0.10 0.16 0.21 0.25 0.30 0.34 0.33 0.33 0.25 0.26 0.21 0.24 0.17 0.16 0.19 0.28 0.14 0.14 0.13 0.09 0.07 0.05 0.06 0.05 0.07 0.06 0.05 0.03 0.01 0.00 0.00 0.00 0.00
0.04 0.07 0.10 0.13 0.11 0.04 0.09 0.16 0.12 0.14 0.09 0.16 0.14 0.07 0.09 0.09 0.09 0.08 0.02 0.03 0.12 0.19 0.30 0.30 0.29 0.31 0.27 0.29 0.32 0.27 0.34 0.21 0.19 0.17 0.17 0.12 0.11 0.09 0.09 0.10 0.05 0.04 0.04 0.04 0.03 0.03 0.02 0.01 0.00 0.00 0.00 0.00 0.00 0.00
0.00 0.00 0.00 0.00 0.01 0.00 0.06 0.04 0.05 0.13 0.09 0.13 0.11 0.08 0.11 0.12 0.14 0.05 0.07 0.16 0.22 0.28 0.35 0.31 0.34 0.33 0.26 0.33 0.19 0.21 0.28 0.10 0.10 0.12 0.13 0.09 0.07 0.07 0.04 0.05 0.03 0.02 0.03 0.04 0.03 0.02 0.01 0.01 0.00 0.00 0.00 0.00 0.00 0.00
0.00 0.00 0.00 0.00 0.00 0.00 0.00 0.03 0.06 0.10 0.09 0.08 0.07 0.13 0.16 0.13 0.06 0.04 0.11 0.16 0.27 0.28 0.23 0.25 0.25 0.24 0.20 0.15 0.12 0.14 0.21 0.08 0.04 0.07 0.07 0.02 0.02 0.05 0.02 0.02 0.02 0.02 0.02 0.02 0.01 0.01 0.00 0.00 0.00 0.00 0.00 0.00 0.00 0.00
0.00 0.00 0.00 0.00 0.00 0.00 0.00 0.01 0.03 0.05 0.10 0.10 0.08 0.13 0.16 0.09 0.06 0.09 0.12 0.16 0.18 0.18 0.20 0.22 0.19 0.17 0.14 0.14 0.14 0.13 0.11 0.03 0.01 0.02 0.04 0.01 0.01 0.01 0.01 0.01 0.01 0.00 0.00 0.00 0.00 0.00 0.00 0.00 0.00 0.00 0.00 0.00 0.00 0.00
0.01 0.01 0.01 0.01 0.01 0.00 0.00 0.01 0.02 0.04 0.04 0.04 0.07 0.11 0.07 0.03 0.03 0.06 0.08 0.12 0.13 0.14 0.15 0.15 0.14 0.11 0.10 0.09 0.07 0.06 0.05 0.01 0.00 0.01 0.02 0.01 0.01 0.00 0.00 0.00 0.00 0.00 0.00 0.00 0.00 0.00 0.00 0.00 0.00 0.00 0.00 0.00 0.00 0.00
0.01 0.01 0.00 0.01 0.03 0.02 0.01 0.01 0.00 0.00 0.01 0.02 0.04 0.03 0.02 0.01 0.03 0.07 0.09 0.10 0.09 0.12 0.11 0.10 0.07 0.05 0.05 0.05 0.03 0.03 0.01 0.00 0.00 0.00 0.00 0.00 0.00 0.00 0.00 0.00 0.00 0.01 0.01 0.00 0.00 0.00 0.00 0.00 0.00 0.00 0.00 0.00 0.00 0.00
0.03 0.00 0.00 0.00 0.00 0.00 0.00 0.00 0.01 0.02 0.03 0.03 0.01 0.00 0.01 0.01 0.04 0.08 0.08 0.10 0.08 0.07 0.06 0.06 0.04 0.01 0.00 0.00 0.01 0.00 0.00 0.00 0.00 0.00 0.00 0.00 0.00 0.00 0.00 0.01 0.01 0.00 0.00 0.00 0.00 0.00 0.01 0.01 0.01 0.00 0.00 0.00 0.00 0.00
0.01 0.00 0.00 0.00 0.00 0.00 0.01 0.03 0.03 0.03 0.03 0.02 0.00 0.01 0.02 0.04 0.09 0.08 0.10 0.07 0.04 0.03 0.03 0.02 0.01 0.00 0.00 0.00 0.00 0.00 0.00 0.00 0.00 0.00 0.00 0.00 0.00 0.00 0.00 0.00 0.00 0.00 0.00 0.00 0.00 0.00 0.01 0.01 0.00 0.00 0.00 0.00 0.00 0.00
0.00 0.00 0.00 0.00 0.01 0.02 0.06 0.03 0.03 0.03 0.02 0.00 0.01 0.01 0.03 0.09 0.14 0.10 0.06 0.04 0.02 0.02 0.01 0.00 0.00 0.00 0.00 0.00 0.00 0.00 0.00 0.00 0.00 0.00 0.00 0.00 0.00 0.00 0.00 0.00 0.00 0.00 0.00 0.00 0.00 0.00 0.00 0.00 0.00 0.00 0.00 0.00 0.00 0.00
0.00 0.00 0.00 0.00 0.02 0.03 0.02 0.01 0.00 0.00 0.00 0.00 0.00 0.00 0.02 0.06 0.05 0.04 0.03 0.03 0.01 0.00 0.00 0.00 0.00 0.00 0.00 0.00 0.00 0.00 0.00 0.00 0.00 0.00 0.00 0.00 0.00 0.00 0.00 0.00 0.00 0.00 0.00 0.00 0.00 0.00 0.00 0.00 0.00 0.00 0.00 0.00 0.00 0.00
0.00 0.00 0.00 0.01 0.03 0.03 0.03 0.01 0.00 0.00 0.00 0.00 0.01 0.00 0.00 0.00 0.01 0.02 0.03 0.02 0.00 0.00 0.00 0.00 0.00 0.00 0.00 0.00 0.00 0.00 0.00 0.00 0.00 0.00 0.00 0.00 0.00 0.00 0.00 0.00 0.00 0.00 0.00 0.00 0.00 0.00 0.00 0.00 0.00 0.00 0.00 0.00 0.00 0.00
0.00 0.00 0.00 0.01 0.02 0.03 0.05 0.02 0.00 0.01 0.01 0.01 0.01 0.01 0.00 0.00 0.01 0.02 0.02 0.00 0.00 0.00 0.00 0.00 0.01 0.01 0.00 0.00 0.00 0.00 0.00 0.00 0.00 0.00 0.00 0.00 0.00 0.00 0.00 0.00 0.00 0.00 0.00 0.00 0.00 0.00 0.00 0.00 0.00 0.00 0.00 0.00 0.00 0.00

GFSWCAN_prec_precacc12_075.txt.gz
Total_Precipitation_Accumulation
0.11 0.10 0.11 0.10 0.12 0.20 0.23 0.40 0.42 0.43 0.36 0.29 0.21 0.21 0.34 0.32 0.25 0.29 0.21 0.07 0.14 0.25 0.13 0.18 0.10 0.12 0.06 0.04 0.04 0.02 0.07 0.03 0.04 0.02 0.02 0.01 0.01 0.00 0.00 0.00 0.01 0.02 0.02 0.02 0.03 0.02 0.00 0.00 0.00 0.00 0.00 0.00 0.00 0.00
0.12 0.09 0.09 0.09 0.13 0.21 0.33 0.46 0.42 0.40 0.30 0.24 0.19 0.17 0.25 0.26 0.27 0.29 0.17 0.16 0.11 0.23 0.14 0.24 0.15 0.08 0.12 0.02 0.03 0.04 0.01 0.00 0.00 0.01 0.01 0.01 0.01 0.01 0.00 0.00 0.00 0.01 0.01 0.04 0.01 0.00 0.00 0.00 0.00 0.00 0.00 0.00 0.00 0.00
0.17 0.18 0.18 0.20 0.38 0.39 0.44 0.51 0.40 0.34 0.26 0.22 0.20 0.18 0.20 0.24 0.30 0.24 0.12 0.19 0.17 0.20 0.13 0.08 0.12 0.05 0.07 0.07 0.02 0.09 0.03 0.00 0.00 0.00 0.02 0.03 0.01 0.00 0.00 0.00 0.01 0.01 0.01 0.01 0.00 0.00 0.00 0.00 0.00 0.00 0.00 0.00 0.00 0.00
0.19 0.23 0.26 0.27 0.36 0.56 0.52 0.54 0.36 0.29 0.27 0.22 0.20 0.20 0.21 0.31 0.31 0.14 0.08 0.16 0.18 0.15 0.20 0.12 0.20 0.17 0.06 0.05 0.01 0.01 0.03 0.00 0.00 0.02 0.08 0.05 0.02 0.01 0.00 0.00 0.00 0.00 0.01 0.01 0.00 0.00 0.00 0.00 0.00 0.00 0.00 0.00 0.00 0.00
0.24 0.20 0.23 0.30 0.40 0.55 0.53 0.43 0.34 0.30 0.26 0.22 0.21 0.25 0.32 0.40 0.36 0.18 0.08 0.10 0.14 0.20 0.19 0.11 0.17 0.22 0.15 0.11 0.05 0.01 0.02 0.06 0.04 0.06 0.06 0.04 0.02 0.02 0.01 0.00 0.00 0.00 0.00 0.00 0.00 0.00 0.00 0.00 0.00 0.00 0.00 0.00 0.00 0.00
0.22 0.23 0.25 0.27 0.29 0.35 0.39 0.35 0.29 0.27 0.25 0.24 0.26 0.34 0.47 0.51 0.34 0.26 0.28 0.13 0.09 0.22 0.29 0.22 0.15 0.24 0.29 0.26 0.18 0.03 0.01 0.07 0.06 0.03 0.03 0.01 0.01 0.01 0.01 0.00 0.00 0.00 0.00 0.01 0.00 0.01 0.00 0.00 0.00 0.00 0.00 0.00 0.00 0.00
0.17 0.17 0.16 0.18 0.22 0.24 0.22 0.21 0.24 0.25 0.23 0.24 0.30 0.41 0.44 0.24 0.13 0.21 0.14 0.04 0.05 0.22 0.39 0.35 0.23 0.19 0.45 0.32 0.24 0.12 0.06 0.06 0.10 0.11 0.04 0.05 0.03 0.00 0.00 0.00 0.00 0.00 0.00 0.00 0.00 0.00 0.00 0.00 0.00 0.00 0.00 0.00 0.00 0.00
0.12 0.14 0.15 0.15 0.14 0.15 0.15 0.18 0.21 0.17 0.19 0.26 0.32 0.30 0.20 0.09 0.11 0.12 0.09 0.02 0.03 0.16 0.35 0.38 0.39 0.44 0.82 0.46 0.28 0.19 0.15 0.14 0.09 0.09 0.05 0.06 0.10 0.09 0.05 0.00 0.00 0.00 0.00 0.00 0.00 0.00 0.00 0.00 0.00 0.00 0.00 0.00 0.00 0.00
0.05 0.06 0.05 0.05 0.05 0.06 0.11 0.14 0.13 0.13 0.17 0.23 0.28 0.33 0.37 0.22 0.13 0.10 0.14 0.07 0.09 0.17 0.25 0.23 0.48 0.72 1.00 0.76 0.33 0.38 0.26 0.18 0.09 0.09 0.05 0.09 0.07 0.06 0.03 0.00 0.00 0.01 0.01 0.00 0.00 0.00 0.00 0.00 0.00 0.00 0.00 0.00 0.00 0.00
0.02 0.02 0.02 0.02 0.03 0.04 0.05 0.04 0.06 0.11 0.18 0.31 0.33 0.33 0.33 0.13 0.13 0.32 0.39 0.44 0.30 0.19 0.17 0.20 0.39 0.70 0.95 1.10 0.43 0.39 0.42 0.14 0.08 0.06 0.08 0.07 0.02 0.00 0.00 0.00 0.00 0.00 0.00 0.00 0.00 0.00 0.00 0.00 0.00 0.00 0.00 0.00 0.00 0.00
0.03 0.03 0.04 0.03 0.02 0.02 0.02 0.02 0.03 0.07 0.19 0.22 0.14 0.13 0.14 0.28 0.41 0.39 0.33 0.33 0.23 0.13 0.05 0.03 0.15 0.56 0.99 1.11 0.50 0.46 0.55 0.38 0.09 0.05 0.07 0.04 0.01 0.01 0.00 0.00 0.00 0.00 0.00 0.00 0.00 0.00 0.00 0.00 0.00 0.00 0.00 0.01 0.02 0.04
0.03 0.03 0.04 0.05 0.04 0.03 0.03 0.04 0.07 0.12 0.13 0.14 0.22 0.27 0.52 0.31 0.24 0.18 0.24 0.18 0.10 0.03 0.02 0.03 0.09 0.27 0.93 1.17 0.66 0.46 0.38 0.47 0.24 0.04 0.03 0.01 0.00 0.00 0.01 0.00 0.00 0.00 0.00 0.00 0.00 0.00 0.00 0.00 0.02 0.02 0.02 0.04 0.06 0.10
0.01 0.02 0.03 0.05 0.09 0.15 0.17 0.15 0.17 0.20 0.25 0.35 0.28 0.28 0.18 0.08 0.13 0.13 0.14 0.12 0.05 0.01 0.03 0.07 0.15 0.15 0.44 0.95 0.72 0.42 0.29 0.25 0.23 0.15 0.05 0.01 0.00 0.01 0.01 0.00 0.00 0.00 0.00 0.00 0.00 0.00 0.01 0.03 0.04 0.05 0.07 0.12 0.16 0.20
0.01 0.02 0.04 0.08 0.10 0.09 0.08 0.20 0.25 0.36 0.42 0.34 0.20 0.06 0.05 0.04 0.07 0.05 0.05 0.04 0.01 0.01 0.03 0.07 0.14 0.17 0.24 0.38 0.33 0.41 0.42 0.31 0.24 0.16 0.11 0.07 0.04 0.03 0.02 0.00 0.00 0.00 0.00 0.01 0.02 0.05 0.06 0.07 0.10 0.15 0.17 0.19 0.15 0.15
0.02 0.03 0.04 0.03 0.04 0.07 0.16 0.25 0.26 0.39 0.37 0.32 0.06 0.06 0.09 0.05 0.09 0.13 0.06 0.04 0.02 0.03 0.02 0.03 0.06 0.12 0.11 0.17 0.14 0.21 0.30 0.27 0.16 0.09 0.08 0.08 0.07 0.08 0.08 0.08 0.08 0.08 0.08 0.10 0.11 0.10 0.12 0.12 0.11 0.16 0.20 0.18 0.09 0.06
0.03 0.06 0.11 0.11 0.10 0.11 0.10 0.16 0.32 0.34 0.32 0.24 0.19 0.26 0.15 0.13 0.23 0.18 0.09 0.10 0.07 0.06 0.04 0.05 0.09 0.13 0.14 0.09 0.12 0.10 0.05 0.06 0.08 0.11 0.11 0.08 0.08 0.10 0.11 0.12 0.14 0.17 0.19 0.21 0.20 0.17 0.17 0.18 0.15 0.13 0.09 0.05 0.05 0.05
0.04 0.08 0.14 0.12 0.11 0.11 0.14 0.17 0.21 0.24 0.21 0.23 0.36 0.30 0.18 0.22 0.34 0.26 0.17 0.17 0.16 0.13 0.09 0.06 0.09 0.10 0.10 0.07 0.10 0.06 0.06 0.09 0.10 0.10 0.10 0.10 0.11 0.13 0.15 0.15 0.18 0.18 0.19 0.19 0.16 0.13 0.09 0.07 0.02 0.01 0.01 0.02 0.01 0.01
0.16 0.14 0.15 0.14 0.13 0.15 0.20 0.17 0.16 0.16 0.21 0.28 0.36 0.36 0.22 0.26 0.31 0.26 0.20 0.20 0.22 0.17 0.06 0.04 0.03 0.01 0.07 0.10 0.11 0.12 0.12 0.15 0.16 0.15 0.14 0.16 0.15 0.16 0.17 0.16 0.19 0.16 0.15 0.13 0.06 0.05 0.03 0.03 0.03 0.04 0.02 0.00 0.00 0.01
0.41 0.22 0.20 0.17 0.17 0.25 0.25 0.19 0.08 0.11 0.24 0.36 0.40 0.30 0.22 0.26 0.32 0.30 0.20 0.13 0.11 0.12 0.09 0.08 0.04 0.04 0.07 0.10 0.15 0.15 0.14 0.14 0.14 0.20 0.23 0.27 0.25 0.18 0.14 0.09 0.09 0.08 0.07 0.07 0.06 0.07 0.07 0.05 0.03 0.02 0.02 0.02 0.03 0.04
0.63 0.53 0.46 0.41 0.37 0.46 0.31 0.24 0.13 0.13 0.25 0.33 0.37 0.30 0.24 0.31 0.31 0.27 0.21 0.13 0.08 0.06 0.10 0.15 0.16 0.16 0.16 0.20 0.26 0.19 0.19 0.22 0.20 0.17 0.23 0.26 0.28 0.16 0.14 0.07 0.08 0.08 0.06 0.06 0.06 0.05 0.04 0.04 0.05 0.04 0.04 0.03 0.02 0.01
0.35 0.41 0.42 0.40 0.31 0.27 0.37 0.37 0.26 0.16 0.17 0.22 0.24 0.18 0.23 0.20 0.19 0.17 0.13 0.07 0.05 0.11 0.16 0.21 0.21 0.22 0.25 0.26 0.26 0.18 0.21 0.18 0.22 0.15 0.14 0.17 0.25 0.11 0.11 0.10 0.06 0.05 0.04 0.04 0.03 0.04 0.03 0.03 0.03 0.01 0.01 0.01 0.01 0.01
0.06 0.10 0.13 0.16 0.12 0.05 0.11 0.20 0.15 0.16 0.13 0.17 0.15 0.10 0.10 0.11 0.10 0.10 0.04 0.04 0.11 0.16 0.24 0.22 0.21 0.22 0.21 0.23 0.26 0.23 0.30 0.20 0.19 0.17 0.18 0.12 0.12 0.08 0.08 0.08 0.03 0.03 0.02 0.02 0.01 0.01 0.02 0.01 0.01 0.00 0.00 0.00 0.00 0.00
0.00 0.00 0.00 0.00 0.01 0.01 0.06 0.05 0.07 0.13 0.10 0.12 0.09 0.07 0.09 0.09 0.11 0.04 0.05 0.12 0.18 0.23 0.28 0.24 0.27 0.28 0.22 0.29 0.17 0.22 0.31 0.12 0.12 0.15 0.15 0.10 0.07 0.05 0.03 0.03 0.01 0.01 0.01 0.02 0.01 0.01 0.01 0.01 0.00 0.00 0.00 0.00 0.00 0.00
0.00 0.00 0.00 0.00 0.00 0.00 0.00 0.03 0.05 0.07 0.07 0.06 0.06 0.10 0.11 0.09 0.05 0.03 0.09 0.14 0.23 0.23 0.21 0.23 0.24 0.24 0.21 0.16 0.13 0.16 0.25 0.12 0.06 0.08 0.08 0.02 0.01 0.02 0.01 0.01 0.00 0.00 0.00 0.01 0.00 0.00 0.00 0.00 0.00 0.00 0.00 0.00 0.00 0.00
0.00 0.00 0.00 0.00 0.00 0.00 0.00 0.01 0.02 0.04 0.07 0.07 0.06 0.09 0.11 0.07 0.04 0.06 0.10 0.14 0.17 0.18 0.20 0.22 0.20 0.19 0.16 0.16 0.15 0.14 0.13 0.05 0.02 0.02 0.03 0.00 0.00 0.00 0.00 0.00 0.00 0.00 0.00 0.00 0.00 0.00 0.00 0.00 0.00 0.00 0.00 0.00 0.00 0.00
0.01 0.01 0.01 0.01 0.01 0.00 0.01 0.01 0.02 0.04 0.03 0.04 0.06 0.08 0.06 0.02 0.02 0.05 0.07 0.11 0.13 0.15 0.16 0.18 0.18 0.14 0.13 0.11 0.09 0.08 0.06 0.01 0.00 0.00 0.01 0.00 0.00 0.00 0.00 0.00 0.00 0.00 0.00 0.00 0.00 0.00 0.00 0.00 0.00 0.00 0.00 0.00 0.00 0.00
0.00 0.01 0.00 0.00 0.03 0.01 0.01 0.01 0.00 0.00 0.01 0.02 0.03 0.03 0.02 0.01 0.03 0.06 0.08 0.10 0.10 0.13 0.13 0.12 0.10 0.08 0.07 0.07 0.04 0.02 0.00 0.00 0.00 0.00 0.00 0.00 0.00 0.00 0.00 0.00 0.00 0.01 0.01 0.00 0.00 0.00 0.00 0.00 0.00 0.00 0.00 0.00 0.00 0.00
0.02 0.00 0.00 0.00 0.00 0.00 0.00 0.00 0.01 0.02 0.03 0.03 0.01 0.00 0.01 0.01 0.04 0.08 0.07 0.09 0.08 0.08 0.08 0.08 0.06 0.03 0.01 0.00 0.00 0.00 0.00 0.00 0.00 0.00 0.00 0.00 0.00 0.00 0.00 0.00 0.00 0.00 0.00 0.00 0.00 0.00 0.01 0.00 0.00 0.00 0.00 0.00 0.00 0.00
0.00 0.00 0.00 0.00 0.00 0.00 0.01 0.02 0.02 0.03 0.03 0.02 0.00 0.01 0.02 0.04 0.09 0.08 0.09 0.07 0.06 0.06 0.05 0.04 0.02 0.00 0.00 0.00 0.00 0.00 0.00 0.00 0.00 0.00 0.00 0.00 0.00 0.00 0.00 0.00 0.00 0.00 0.00 0.00 0.00 0.00 0.00 0.00 0.00 0.00 0.00 0.00 0.00 0.00
0.00 0.00 0.00 0.00 0.01 0.02 0.05 0.03 0.03 0.04 0.02 0.01 0.01 0.01 0.02 0.08 0.13 0.10 0.07 0.06 0.04 0.03 0.02 0.00 0.00 0.00 0.00 0.00 0.00 0.00 0.00 0.00 0.00 0.00 0.00 0.00 0.00 0.00 0.00 0.00 0.00 0.00 0.00 0.00 0.00 0.00 0.00 0.00 0.00 0.00 0.00 0.00 0.00 0.00
0.00 0.00 0.00 0.00 0.02 0.03 0.03 0.02 0.01 0.00 0.00 0.00 0.00 0.00 0.02 0.05 0.05 0.05 0.04 0.05 0.03 0.01 0.01 0.00 0.00 0.00 0.00 0.00 0.00 0.00 0.00 0.00 0.00 0.00 0.00 0.00 0.00 0.00 0.00 0.00 0.00 0.00 0.00 0.00 0.00 0.00 0.00 0.00 0.00 0.00 0.00 0.00 0.00 0.00
0.00 0.00 0.00 0.00 0.02 0.02 0.03 0.01 0.00 0.01 0.01 0.01 0.01 0.00 0.01 0.01 0.01 0.02 0.03 0.04 0.01 0.01 0.00 0.00 0.00 0.00 0.00 0.00 0.00 0.00 0.00 0.00 0.00 0.00 0.00 0.00 0.00 0.00 0.00 0.00 0.00 0.00 0.00 0.00 0.00 0.00 0.00 0.00 0.00 0.00 0.00 0.00 0.00 0.00
0.00 0.00 0.00 0.01 0.01 0.02 0.02 0.01 0.00 0.01 0.01 0.01 0.01 0.01 0.01 0.01 0.01 0.02 0.01 0.01 0.01 0.00 0.00 0.01 0.00 0.00 0.00 0.00 0.00 0.00 0.00 0.00 0.00 0.00 0.00 0.00 0.00 0.00 0.00 0.00 0.00 0.00 0.00 0.00 0.00 0.00 0.00 0.00 0.00 0.00 0.00 0.00 0.00 0.00

GFSWCAN_prec_precacc12_078.txt.gz
Total_Precipitation_Accumulation
0.10 0.09 0.10 0.10 0.12 0.18 0.15 0.17 0.22 0.33 0.31 0.28 0.23 0.23 0.35 0.38 0.38 0.44 0.29 0.04 0.09 0.16 0.10 0.15 0.10 0.13 0.07 0.05 0.06 0.02 0.11 0.07 0.10 0.07 0.05 0.02 0.01 0.00 0.00 0.00 0.03 0.09 0.06 0.03 0.05 0.05 0.01 0.00 0.00 0.00 0.00 0.00 0.00 0.00
0.09 0.10 0.10 0.08 0.10 0.15 0.20 0.24 0.28 0.33 0.26 0.23 0.20 0.19 0.26 0.31 0.32 0.43 0.26 0.05 0.09 0.22 0.17 0.26 0.16 0.09 0.12 0.02 0.03 0.05 0.03 0.01 0.01 0.03 0.03 0.01 0.01 0.00 0.00 0.00 0.00 0.01 0.03 0.06 0.02 0.01 0.00 0.00 0.00 0.00 0.00 0.00 0.00 0.00
0.13 0.13 0.11 0.10 0.26 0.23 0.27 0.32 0.29 0.28 0.22 0.21 0.21 0.20 0.21 0.29 0.36 0.40 0.15 0.06 0.21 0.34 0.20 0.11 0.11 0.05 0.07 0.07 0.02 0.12 0.04 0.00 0.00 0.00 0.00 0.02 0.01 0.00 0.00 0.00 0.00 0.01 0.01 0.01 0.01 0.00 0.01 0.01 0.01 0.00 0.00 0.00 0.00 0.00
0.11 0.09 0.07 0.07 0.31 0.53 0.41 0.43 0.28 0.25 0.25 0.22 0.21 0.20 0.21 0.39 0.45 0.33 0.10 0.12 0.29 0.25 0.20 0.10 0.14 0.14 0.05 0.05 0.01 0.02 0.04 0.02 0.07 0.02 0.08 0.08 0.03 0.00 0.00 0.00 0.00 0.00 0.01 0.01 0.00 0.00 0.00 0.00 0.00 0.00 0.00 0.00 0.00 0.00
0.20 0.11 0.10 0.17 0.48 0.46 0.42 0.36 0.32 0.29 0.27 0.23 0.24 0.25 0.39 0.61 0.57 0.22 0.10 0.13 0.14 0.16 0.17 0.08 0.14 0.16 0.12 0.08 0.04 0.01 0.02 0.09 0.27 0.15 0.08 0.02 0.01 0.01 0.00 0.00 0.00 0.00 0.00 0.00 0.00 0.00 0.00 0.00 0.00 0.00 0.00 0.00 0.00 0.00
0.21 0.21 0.22 0.28 0.39 0.41 0.39 0.35 0.30 0.29 0.28 0.31 0.31 0.41 0.71 0.75 0.41 0.20 0.47 0.25 0.10 0.18 0.26 0.21 0.14 0.19 0.20 0.15 0.12 0.03 0.01 0.09 0.23 0.22 0.08 0.02 0.00 0.00 0.00 0.00 0.00 0.00 0.00 0.01 0.00 0.01 0.00 0.00 0.00 0.00 0.00 0.00 0.00 0.00
0.18 0.17 0.16 0.20 0.28 0.30 0.27 0.26 0.28 0.29 0.30 0.30 0.38 0.57 0.53 0.25 0.07 0.15 0.23 0.13 0.06 0.17 0.21 0.26 0.22 0.21 0.38 0.18 0.16 0.10 0.05 0.07 0.18 0.25 0.09 0.05 0.01 0.00 0.00 0.00 0.00 0.00 0.00 0.00 0.00 0.00 0.00 0.00 0.00 0.00 0.00 0.00 0.00 0.00
0.15 0.13 0.13 0.12 0.12 0.14 0.16 0.18 0.19 0.20 0.24 0.32 0.38 0.29 0.20 0.12 0.17 0.12 0.08 0.01 0.03 0.14 0.13 0.21 0.37 0.47 0.83 0.39 0.18 0.15 0.13 0.14 0.12 0.18 0.10 0.07 0.06 0.06 0.01 0.00 0.00 0.00 0.00 0.00 0.00 0.00 0.00 0.00 0.00 0.00 0.00 0.00 0.00 0.00
0.13 0.11 0.08 0.07 0.07 0.07 0.09 0.10 0.13 0.16 0.21 0.25 0.30 0.32 0.33 0.24 0.16 0.11 0.09 0.06 0.09 0.15 0.16 0.15 0.43 0.77 1.21 0.80 0.29 0.29 0.27 0.26 0.13 0.12 0.09 0.13 0.08 0.06 0.01 0.00 0.00 0.01 0.01 0.00 0.00 0.00 0.00 0.00 0.00 0.00 0.00 0.00 0.00 0.00
0.08 0.08 0.06 0.05 0.05 0.05 0.05 0.07 0.09 0.13 0.20 0.29 0.30 0.36 0.50 0.25 0.11 0.19 0.24 0.33 0.19 0.13 0.14 0.17 0.39 0.71 1.12 1.27 0.49 0.34 0.44 0.20 0.07 0.05 0.09 0.08 0.04 0.01 0.01 0.00 0.00 0.00 0.00 0.00 0.00 0.00 0.00 0.00 0.00 0.00 0.00 0.00 0.00 0.00
0.06 0.07 0.08 0.07 0.06 0.06 0.06 0.05 0.06 0.10 0.22 0.26 0.21 0.16 0.15 0.23 0.26 0.27 0.25 0.22 0.14 0.10 0.05 0.03 0.14 0.47 0.79 1.18 0.67 0.48 0.52 0.42 0.11 0.05 0.09 0.04 0.01 0.05 0.01 0.00 0.00 0.00 0.00 0.00 0.00 0.00 0.00 0.00 0.00 0.00 0.00 0.01 0.02 0.03
0.04 0.04 0.07 0.10 0.11 0.13 0.16 0.15 0.14 0.16 0.16 0.10 0.11 0.16 0.40 0.30 0.24 0.15 0.22 0.07 0.04 0.04 0.02 0.03 0.09 0.23 0.49 0.85 0.68 0.51 0.35 0.53 0.27 0.09 0.05 0.03 0.01 0.00 0.01 0.00 0.00 0.00 0.00 0.00 0.00 0.00 0.00 0.00 0.00 0.00 0.00 0.01 0.05 0.11
0.01 0.02 0.03 0.05 0.09 0.15 0.17 0.13 0.14 0.13 0.10 0.10 0.10 0.15 0.14 0.07 0.11 0.13 0.11 0.02 0.02 0.04 0.06 0.10 0.17 0.16 0.30 0.67 0.79 0.61 0.40 0.33 0.31 0.20 0.07 0.02 0.01 0.01 0.01 0.00 0.00 0.00 0.00 0.00 0.00 0.00 0.00 0.00 0.00 0.01 0.06 0.15 0.20 0.24
0.00 0.01 0.04 0.08 0.10 0.08 0.06 0.15 0.15 0.12 0.14 0.16 0.16 0.06 0.04 0.01 0.08 0.06 0.04 0.01 0.01 0.02 0.04 0.07 0.19 0.30 0.39 0.54 0.55 0.57 0.58 0.42 0.36 0.19 0.13 0.09 0.04 0.03 0.02 0.00 0.00 0.00 0.00 0.00 0.00 0.00 0.00 0.01 0.06 0.16 0.25 0.30 0.26 0.25
0.01 0.02 0.03 0.02 0.02 0.02 0.08 0.13 0.09 0.16 0.16 0.21 0.05 0.04 0.04 0.03 0.06 0.06 0.01 0.01 0.02 0.03 0.04 0.07 0.17 0.35 0.46 0.46 0.34 0.28 0.39 0.43 0.28 0.13 0.11 0.13 0.11 0.10 0.10 0.10 0.10 0.09 0.06 0.06 0.11 0.13 0.18 0.20 0.18 0.23 0.26 0.22 0.12 0.08
0.02 0.03 0.04 0.03 0.03 0.05 0.05 0.06 0.17 0.17 0.17 0.11 0.10 0.13 0.08 0.09 0.19 0.15 0.09 0.10 0.07 0.06 0.06 0.11 0.28 0.31 0.32 0.24 0.23 0.19 0.12 0.12 0.15 0.16 0.17 0.15 0.16 0.17 0.17 0.19 0.22 0.27 0.31 0.33 0.31 0.23 0.21 0.18 0.15 0.14 0.12 0.07 0.08 0.06
0.02 0.04 0.05 0.03 0.04 0.03 0.02 0.06 0.10 0.10 0.11 0.13 0.21 0.19 0.14 0.23 0.35 0.27 0.19 0.18 0.18 0.14 0.10 0.10 0.19 0.29 0.16 0.11 0.20 0.16 0.15 0.18 0.20 0.21 0.20 0.19 0.19 0.21 0.23 0.22 0.24 0.23 0.22 0.19 0.15 0.11 0.09 0.07 0.03 0.01 0.02 0.03 0.02 0.01
0.06 0.04 0.02 0.03 0.03 0.04 0.09 0.11 0.14 0.16 0.17 0.21 0.29 0.33 0.25 0.30 0.35 0.29 0.23 0.23 0.24 0.19 0.08 0.05 0.12 0.10 0.18 0.20 0.21 0.22 0.20 0.24 0.24 0.23 0.21 0.22 0.19 0.19 0.17 0.15 0.17 0.14 0.12 0.10 0.06 0.05 0.04 0.03 0.03 0.04 0.02 0.00 0.00 0.01
0.25 0.10 0.08 0.07 0.05 0.12 0.16 0.16 0.08 0.10 0.19 0.31 0.35 0.27 0.23 0.27 0.32 0.31 0.23 0.16 0.16 0.17 0.13 0.12 0.15 0.12 0.16 0.19 0.21 0.19 0.17 0.16 0.17 0.21 0.22 0.24 0.22 0.16 0.14 0.10 0.09 0.08 0.07 0.07 0.05 0.05 0.05 0.04 0.03 0.02 0.02 0.02 0.04 0.04
0.58 0.44 0.37 0.31 0.28 0.36 0.28 0.22 0.13 0.12 0.21 0.28 0.32 0.26 0.22 0.29 0.28 0.25 0.20 0.14 0.09 0.07 0.11 0.17 0.24 0.26 0.21 0.24 0.24 0.16 0.16 0.19 0.15 0.13 0.19 0.23 0.22 0.12 0.12 0.06 0.07 0.06 0.04 0.04 0.04 0.03 0.03 0.03 0.03 0.03 0.03 0.03 0.02 0.02
0.41 0.46 0.45 0.41 0.30 0.23 0.35 0.39 0.28 0.18 0.17 0.20 0.21 0.18 0.21 0.19 0.18 0.17 0.14 0.09 0.06 0.11 0.15 0.22 0.25 0.27 0.24 0.24 0.22 0.15 0.19 0.14 0.18 0.11 0.10 0.16 0.22 0.09 0.09 0.07 0.04 0.02 0.02 0.02 0.02 0.03 0.02 0.02 0.02 0.01 0.01 0.01 0.01 0.01
0.08 0.13 0.16 0.17 0.13 0.07 0.12 0.20 0.17 0.19 0.16 0.19 0.18 0.14 0.16 0.16 0.14 0.14 0.07 0.06 0.14 0.21 0.24 0.23 0.22 0.21 0.19 0.21 0.23 0.20 0.24 0.16 0.16 0.16 0.15 0.10 0.09 0.06 0.06 0.05 0.02 0.01 0.01 0.01 0.01 0.01 0.01 0.01 0.00 0.00 0.00 0.00 0.00 0.00
0.00 0.00 0.00 0.00 0.01 0.01 0.07 0.08 0.09 0.15 0.13 0.14 0.10 0.08 0.11 0.13 0.13 0.06 0.07 0.14 0.17 0.23 0.25 0.21 0.23 0.23 0.20 0.26 0.16 0.21 0.29 0.12 0.12 0.14 0.13 0.09 0.06 0.04 0.02 0.02 0.01 0.00 0.00 0.01 0.00 0.00 0.00 0.00 0.00 0.00 0.00 0.00 0.00 0.00
0.00 0.00 0.00 0.00 0.00 0.00 0.01 0.02 0.04 0.06 0.05 0.05 0.04 0.07 0.08 0.09 0.04 0.03 0.08 0.14 0.20 0.19 0.18 0.20 0.20 0.20 0.18 0.15 0.13 0.16 0.26 0.14 0.07 0.09 0.08 0.02 0.01 0.01 0.00 0.00 0.00 0.00 0.00 0.00 0.00 0.00 0.00 0.00 0.00 0.00 0.00 0.00 0.00 0.00
0.00 0.00 0.00 0.00 0.00 0.00 0.00 0.00 0.01 0.02 0.04 0.04 0.03 0.06 0.06 0.04 0.02 0.04 0.07 0.12 0.14 0.16 0.18 0.20 0.18 0.18 0.15 0.16 0.16 0.15 0.17 0.09 0.04 0.03 0.02 0.00 0.00 0.00 0.00 0.00 0.00 0.00 0.00 0.00 0.00 0.00 0.00 0.00 0.00 0.00 0.00 0.00 0.00 0.00
0.01 0.01 0.00 0.01 0.01 0.01 0.01 0.01 0.02 0.02 0.02 0.02 0.04 0.05 0.04 0.01 0.01 0.03 0.05 0.10 0.11 0.13 0.16 0.18 0.18 0.15 0.14 0.13 0.12 0.10 0.08 0.02 0.00 0.00 0.00 0.00 0.00 0.00 0.00 0.00 0.00 0.00 0.00 0.00 0.00 0.00 0.00 0.00 0.00 0.00 0.00 0.00 0.00 0.00
0.00 0.01 0.00 0.00 0.02 0.01 0.01 0.01 0.01 0.00 0.01 0.02 0.03 0.03 0.02 0.01 0.03 0.06 0.07 0.08 0.09 0.12 0.13 0.13 0.12 0.11 0.10 0.10 0.06 0.03 0.00 0.00 0.00 0.00 0.00 0.00 0.00 0.00 0.00 0.00 0.00 0.01 0.00 0.00 0.00 0.00 0.00 0.00 0.00 0.00 0.00 0.00 0.00 0.00
0.01 0.00 0.00 0.00 0.00 0.00 0.00 0.01 0.01 0.02 0.02 0.02 0.01 0.01 0.01 0.01 0.05 0.07 0.07 0.09 0.09 0.09 0.09 0.10 0.08 0.05 0.03 0.01 0.00 0.00 0.00 0.00 0.00 0.00 0.00 0.00 0.00 0.00 0.00 0.00 0.00 0.00 0.00 0.00 0.00 0.00 0.00 0.00 0.00 0.00 0.00 0.00 0.00 0.00
0.01 0.00 0.00 0.00 0.00 0.00 0.01 0.02 0.02 0.03 0.03 0.02 0.01 0.02 0.02 0.04 0.10 0.08 0.09 0.08 0.09 0.08 0.07 0.06 0.04 0.01 0.00 0.00 0.00 0.00 0.00 0.00 0.00 0.00 0.00 0.00 0.00 0.00 0.00 0.00 0.00 0.00 0.00 0.00 0.00 0.00 0.00 0.00 0.00 0.00 0.00 0.00 0.00 0.00
0.00 0.00 0.00 0.00 0.01 0.02 0.04 0.03 0.04 0.05 0.02 0.01 0.01 0.01 0.02 0.07 0.12 0.10 0.08 0.07 0.06 0.06 0.04 0.03 0.02 0.00 0.00 0.00 0.00 0.00 0.00 0.00 0.00 0.00 0.00 0.00 0.00 0.00 0.00 0.00 0.00 0.00 0.00 0.00 0.00 0.00 0.00 0.00 0.00 0.00 0.00 0.00 0.00 0.00
0.00 0.00 0.00 0.00 0.02 0.03 0.04 0.03 0.01 0.01 0.01 0.01 0.00 0.00 0.02 0.05 0.06 0.06 0.07 0.07 0.05 0.04 0.03 0.02 0.01 0.00 0.00 0.00 0.00 0.00 0.00 0.00 0.00 0.00 0.00 0.00 0.00 0.00 0.00 0.00 0.00 0.00 0.00 0.00 0.00 0.00 0.00 0.00 0.00 0.00 0.00 0.00 0.00 0.00
0.00 0.00 0.00 0.00 0.02 0.02 0.03 0.04 0.01 0.02 0.02 0.01 0.01 0.01 0.02 0.01 0.02 0.03 0.03 0.06 0.03 0.02 0.02 0.01 0.00 0.00 0.00 0.00 0.00 0.00 0.00 0.00 0.00 0.00 0.00 0.00 0.00 0.00 0.00 0.00 0.00 0.00 0.00 0.00 0.00 0.00 0.00 0.00 0.00 0.00 0.00 0.00 0.00 0.00
0.00 0.00 0.00 0.00 0.01 0.02 0.01 0.02 0.01 0.01 0.01 0.01 0.01 0.01 0.01 0.01 0.01 0.02 0.02 0.02 0.03 0.02 0.01 0.01 0.00 0.00 0.00 0.00 0.00 0.00 0.00 0.00 0.00 0.00 0.00 0.00 0.00 0.00 0.00 0.00 0.00 0.00 0.00 0.00 0.00 0.00 0.00 0.00 0.00 0.00 0.00 0.00 0.00 0.00

GFSWCAN_prec_precacc12_081.txt.gz
Total_Precipitation_Accumulation
0.08 0.07 0.06 0.06 0.09 0.17 0.15 0.18 0.18 0.14 0.11 0.17 0.18 0.22 0.34 0.39 0.40 0.49 0.42 0.16 0.20 0.20 0.07 0.08 0.15 0.13 0.08 0.06 0.06 0.02 0.12 0.07 0.14 0.10 0.06 0.04 0.02 0.01 0.00 0.01 0.03 0.09 0.07 0.04 0.05 0.06 0.02 0.00 0.00 0.00 0.00 0.00 0.00 0.00
0.07 0.08 0.09 0.09 0.11 0.17 0.24 0.23 0.19 0.13 0.11 0.16 0.18 0.20 0.26 0.32 0.34 0.46 0.37 0.12 0.14 0.23 0.19 0.14 0.11 0.10 0.13 0.02 0.04 0.05 0.03 0.01 0.05 0.07 0.04 0.02 0.01 0.01 0.00 0.00 0.00 0.00 0.03 0.07 0.03 0.01 0.00 0.00 0.00 0.00 0.00 0.00 0.00 0.00
0.10 0.13 0.12 0.10 0.25 0.23 0.27 0.24 0.17 0.11 0.11 0.12 0.15 0.20 0.28 0.32 0.39 0.47 0.28 0.08 0.22 0.61 0.33 0.11 0.07 0.03 0.13 0.08 0.08 0.18 0.04 0.00 0.01 0.02 0.06 0.05 0.02 0.00 0.00 0.00 0.00 0.00 0.00 0.00 0.01 0.00 0.01 0.03 0.04 0.00 0.00 0.00 0.00 0.00
0.12 0.11 0.07 0.06 0.32 0.60 0.50 0.41 0.19 0.12 0.11 0.12 0.15 0.21 0.29 0.45 0.48 0.45 0.21 0.07 0.30 0.67 0.27 0.07 0.07 0.08 0.04 0.10 0.03 0.07 0.05 0.03 0.08 0.06 0.22 0.16 0.04 0.00 0.00 0.00 0.00 0.00 0.00 0.00 0.00 0.00 0.00 0.00 0.01 0.01 0.00 0.00 0.00 0.00
0.12 0.04 0.03 0.12 0.43 0.34 0.24 0.21 0.24 0.16 0.14 0.15 0.21 0.25 0.43 0.69 0.64 0.43 0.14 0.08 0.14 0.16 0.12 0.03 0.06 0.11 0.08 0.05 0.03 0.04 0.04 0.12 0.31 0.19 0.14 0.06 0.01 0.01 0.00 0.00 0.00 0.00 0.00 0.00 0.00 0.00 0.00 0.00 0.00 0.00 0.00 0.00 0.00 0.00
0.14 0.12 0.11 0.19 0.25 0.24 0.21 0.21 0.20 0.20 0.21 0.28 0.30 0.41 0.77 0.85 0.59 0.38 0.62 0.34 0.09 0.10 0.18 0.13 0.06 0.10 0.14 0.07 0.04 0.01 0.02 0.11 0.25 0.35 0.14 0.06 0.01 0.04 0.01 0.00 0.00 0.00 0.00 0.00 0.00 0.00 0.00 0.00 0.00 0.00 0.00 0.00 0.00 0.00
0.16 0.12 0.12 0.16 0.21 0.23 0.21 0.22 0.25 0.28 0.32 0.34 0.41 0.65 0.68 0.42 0.20 0.28 0.48 0.44 0.20 0.12 0.16 0.18 0.12 0.14 0.24 0.13 0.12 0.09 0.05 0.09 0.21 0.41 0.31 0.10 0.03 0.04 0.02 0.00 0.00 0.00 0.00 0.00 0.00 0.00 0.00 0.00 0.00 0.00 0.00 0.00 0.00 0.00
0.16 0.14 0.14 0.14 0.14 0.16 0.18 0.21 0.24 0.29 0.34 0.41 0.52 0.52 0.40 0.31 0.31 0.14 0.05 0.01 0.02 0.07 0.11 0.16 0.31 0.44 0.58 0.29 0.15 0.13 0.13 0.17 0.15 0.28 0.27 0.24 0.11 0.10 0.03 0.00 0.00 0.00 0.00 0.00 0.00 0.00 0.00 0.00 0.00 0.00 0.00 0.00 0.00 0.00
0.17 0.14 0.12 0.10 0.10 0.11 0.12 0.15 0.20 0.24 0.29 0.42 0.54 0.52 0.45 0.35 0.29 0.17 0.07 0.06 0.04 0.08 0.11 0.10 0.36 0.74 1.06 0.57 0.20 0.16 0.23 0.24 0.15 0.15 0.14 0.30 0.26 0.08 0.01 0.00 0.00 0.00 0.00 0.00 0.00 0.00 0.00 0.00 0.00 0.00 0.00 0.00 0.00 0.00
0.15 0.12 0.09 0.08 0.07 0.06 0.08 0.10 0.12 0.16 0.22 0.20 0.20 0.36 0.64 0.34 0.12 0.15 0.16 0.15 0.08 0.06 0.11 0.11 0.30 0.65 1.09 1.21 0.47 0.22 0.24 0.19 0.11 0.06 0.13 0.18 0.15 0.02 0.03 0.05 0.01 0.00 0.00 0.00 0.00 0.00 0.00 0.00 0.00 0.00 0.00 0.00 0.00 0.00
0.12 0.16 0.21 0.23 0.21 0.18 0.16 0.15 0.12 0.08 0.09 0.14 0.19 0.21 0.24 0.24 0.22 0.17 0.14 0.15 0.09 0.06 0.04 0.02 0.11 0.41 0.78 1.15 0.66 0.40 0.29 0.23 0.11 0.07 0.13 0.14 0.04 0.10 0.10 0.06 0.02 0.00 0.00 0.00 0.00 0.00 0.00 0.00 0.00 0.00 0.00 0.00 0.01 0.03
0.07 0.09 0.14 0.20 0.27 0.30 0.27 0.20 0.13 0.11 0.14 0.10 0.11 0.16 0.34 0.26 0.13 0.06 0.14 0.08 0.04 0.04 0.02 0.03 0.09 0.23 0.49 0.84 0.65 0.48 0.33 0.40 0.24 0.13 0.08 0.06 0.07 0.00 0.00 0.00 0.00 0.00 0.00 0.00 0.00 0.00 0.00 0.00 0.00 0.00 0.00 0.01 0.02 0.05
0.02 0.03 0.04 0.07 0.11 0.13 0.10 0.08 0.12 0.12 0.09 0.09 0.07 0.11 0.13 0.06 0.01 0.08 0.10 0.02 0.02 0.04 0.05 0.10 0.17 0.17 0.31 0.59 0.56 0.48 0.31 0.25 0.32 0.21 0.07 0.02 0.01 0.01 0.00 0.00 0.00 0.00 0.00 0.00 0.00 0.00 0.00 0.00 0.00 0.01 0.03 0.07 0.12 0.21
0.00 0.01 0.04 0.08 0.09 0.06 0.04 0.14 0.15 0.05 0.10 0.05 0.03 0.01 0.03 0.02 0.08 0.09 0.06 0.02 0.01 0.02 0.04 0.07 0.20 0.36 0.40 0.42 0.40 0.37 0.43 0.39 0.48 0.28 0.13 0.10 0.05 0.03 0.02 0.00 0.00 0.00 0.00 0.00 0.00 0.00 0.00 0.01 0.02 0.08 0.16 0.22 0.22 0.29
0.00 0.02 0.02 0.01 0.01 0.01 0.06 0.10 0.03 0.06 0.08 0.08 0.02 0.02 0.04 0.06 0.10 0.09 0.02 0.01 0.01 0.02 0.04 0.15 0.28 0.46 0.57 0.48 0.38 0.34 0.54 0.45 0.33 0.21 0.14 0.15 0.11 0.10 0.10 0.10 0.10 0.09 0.06 0.05 0.08 0.10 0.15 0.17 0.16 0.24 0.27 0.24 0.15 0.13
0.01 0.01 0.01 0.00 0.00 0.01 0.02 0.03 0.06 0.04 0.07 0.06 0.06 0.08 0.06 0.07 0.14 0.11 0.05 0.03 0.02 0.02 0.08 0.26 0.48 0.54 0.49 0.42 0.34 0.26 0.23 0.16 0.16 0.17 0.18 0.16 0.17 0.18 0.17 0.18 0.20 0.23 0.25 0.26 0.28 0.25 0.24 0.21 0.16 0.18 0.17 0.12 0.11 0.08
0.01 0.01 0.02 0.00 0.00 0.00 0.00 0.02 0.02 0.02 0.04 0.10 0.13 0.10 0.09 0.17 0.18 0.16 0.10 0.09 0.11 0.11 0.14 0.22 0.36 0.47 0.33 0.24 0.27 0.17 0.16 0.20 0.21 0.23 0.24 0.23 0.24 0.27 0.27 0.26 0.27 0.25 0.25 0.23 0.22 0.18 0.17 0.14 0.07 0.03 0.05 0.05 0.03 0.02
0.03 0.01 0.00 0.01 0.02 0.02 0.03 0.02 0.02 0.04 0.11 0.13 0.12 0.15 0.14 0.20 0.25 0.24 0.19 0.21 0.23 0.20 0.13 0.12 0.19 0.21 0.28 0.26 0.26 0.27 0.24 0.28 0.28 0.29 0.28 0.30 0.27 0.27 0.24 0.21 0.23 0.18 0.16 0.14 0.09 0.07 0.05 0.03 0.02 0.02 0.01 0.01 0.00 0.01
0.09 0.01 0.01 0.02 0.03 0.07 0.09 0.07 0.03 0.07 0.15 0.20 0.25 0.23 0.23 0.25 0.31 0.30 0.25 0.19 0.20 0.24 0.20 0.19 0.23 0.27 0.29 0.31 0.27 0.27 0.26 0.26 0.28 0.34 0.33 0.32 0.28 0.22 0.21 0.16 0.13 0.11 0.08 0.06 0.03 0.03 0.03 0.02 0.02 0.02 0.02 0.01 0.02 0.03
0.33 0.19 0.16 0.17 0.17 0.20 0.19 0.15 0.11 0.11 0.18 0.24 0.28 0.24 0.22 0.28 0.26 0.24 0.20 0.14 0.10 0.10 0.15 0.20 0.30 0.40 0.34 0.35 0.26 0.18 0.20 0.25 0.19 0.18 0.25 0.27 0.25 0.16 0.16 0.09 0.08 0.05 0.02 0.02 0.01 0.01 0.01 0.01 0.01 0.01 0.01 0.01 0.01 0.02
0.33 0.34 0.27 0.22 0.14 0.11 0.26 0.31 0.25 0.17 0.17 0.20 0.21 0.18 0.20 0.18 0.16 0.15 0.12 0.08 0.06 0.10 0.16 0.25 0.29 0.39 0.34 0.28 0.26 0.18 0.21 0.16 0.20 0.11 0.10 0.18 0.23 0.11 0.11 0.08 0.03 0.02 0.01 0.01 0.01 0.01 0.01 0.01 0.01 0.01 0.01 0.02 0.01 0.01
0.12 0.15 0.14 0.11 0.07 0.04 0.11 0.17 0.14 0.16 0.16 0.18 0.17 0.14 0.15 0.14 0.12 0.11 0.06 0.05 0.13 0.21 0.25 0.24 0.23 0.22 0.20 0.22 0.25 0.21 0.22 0.15 0.16 0.15 0.14 0.09 0.10 0.07 0.06 0.05 0.01 0.01 0.01 0.01 0.01 0.01 0.01 0.00 0.00 0.00 0.00 0.00 0.00 0.00
0.00 0.00 0.00 0.01 0.01 0.02 0.09 0.10 0.12 0.16 0.16 0.16 0.11 0.10 0.12 0.12 0.11 0.05 0.06 0.12 0.17 0.25 0.25 0.21 0.23 0.22 0.21 0.26 0.17 0.22 0.27 0.13 0.14 0.15 0.13 0.09 0.06 0.03 0.01 0.00 0.00 0.00 0.00 0.00 0.00 0.00 0.00 0.00 0.00 0.00 0.00 0.00 0.00 0.00
0.00 0.00 0.00 0.00 0.00 0.01 0.01 0.01 0.03 0.04 0.03 0.04 0.04 0.06 0.08 0.09 0.05 0.03 0.08 0.14 0.20 0.18 0.19 0.20 0.18 0.18 0.16 0.14 0.14 0.18 0.27 0.16 0.09 0.11 0.10 0.03 0.01 0.00 0.00 0.00 0.00 0.00 0.00 0.00 0.00 0.00 0.00 0.00 0.00 0.00 0.00 0.00 0.00 0.00
0.00 0.00 0.00 0.00 0.00 0.00 0.00 0.00 0.00 0.01 0.02 0.01 0.01 0.02 0.03 0.03 0.01 0.03 0.07 0.12 0.13 0.16 0.16 0.17 0.16 0.16 0.14 0.16 0.17 0.17 0.20 0.13 0.07 0.04 0.03 0.00 0.00 0.00 0.00 0.00 0.00 0.00 0.00 0.00 0.00 0.00 0.00 0.00 0.00 0.00 0.00 0.00 0.00 0.00
0.01 0.01 0.00 0.01 0.01 0.01 0.01 0.01 0.02 0.02 0.01 0.01 0.02 0.03 0.02 0.00 0.01 0.03 0.05 0.09 0.09 0.12 0.15 0.15 0.16 0.13 0.14 0.14 0.13 0.13 0.12 0.06 0.02 0.02 0.02 0.00 0.00 0.00 0.00 0.00 0.00 0.00 0.01 0.00 0.00 0.00 0.00 0.00 0.00 0.00 0.00 0.00 0.00 0.00
0.00 0.01 0.00 0.00 0.01 0.02 0.01 0.01 0.01 0.00 0.01 0.02 0.02 0.01 0.00 0.00 0.02 0.05 0.06 0.07 0.07 0.11 0.11 0.12 0.11 0.11 0.12 0.12 0.09 0.06 0.02 0.01 0.00 0.00 0.00 0.00 0.00 0.00 0.00 0.00 0.00 0.01 0.00 0.00 0.00 0.00 0.00 0.00 0.00 0.00 0.00 0.00 0.00 0.00
0.00 0.00 0.00 0.01 0.00 0.00 0.00 0.01 0.01 0.02 0.02 0.01 0.02 0.01 0.01 0.02 0.05 0.06 0.06 0.07 0.07 0.08 0.09 0.10 0.09 0.08 0.06 0.03 0.01 0.00 0.00 0.00 0.00 0.00 0.00 0.00 0.00 0.00 0.00 0.00 0.00 0.00 0.00 0.00 0.00 0.00 0.00 0.00 0.00 0.00 0.00 0.00 0.00 0.00
0.01 0.00 0.00 0.00 0.00 0.00 0.01 0.02 0.03 0.03 0.02 0.02 0.02 0.02 0.02 0.06 0.12 0.08 0.09 0.09 0.10 0.09 0.08 0.08 0.07 0.03 0.02 0.02 0.01 0.01 0.01 0.00 0.00 0.00 0.00 0.00 0.00 0.00 0.00 0.00 0.00 0.00 0.00 0.00 0.00 0.00 0.00 0.00 0.00 0.00 0.00 0.00 0.00 0.00
0.01 0.00 0.00 0.00 0.01 0.02 0.04 0.03 0.05 0.05 0.02 0.01 0.01 0.02 0.02 0.06 0.11 0.10 0.08 0.08 0.08 0.09 0.08 0.06 0.05 0.02 0.00 0.00 0.00 0.00 0.00 0.00 0.00 0.00 0.00 0.00 0.00 0.01 0.00 0.00 0.00 0.00 0.00 0.00 0.00 0.00 0.00 0.00 0.00 0.00 0.00 0.00 0.00 0.00
0.00 0.00 0.00 0.00 0.02 0.03 0.03 0.03 0.02 0.02 0.02 0.01 0.01 0.01 0.02 0.04 0.06 0.06 0.08 0.09 0.07 0.06 0.05 0.04 0.04 0.03 0.01 0.00 0.00 0.00 0.00 0.00 0.00 0.00 0.00 0.00 0.00 0.00 0.00 0.00 0.00 0.00 0.00 0.00 0.00 0.00 0.00 0.00 0.00 0.00 0.00 0.00 0.00 0.00
0.00 0.00 0.00 0.00 0.02 0.02 0.04 0.06 0.02 0.03 0.03 0.01 0.02 0.02 0.03 0.02 0.02 0.03 0.03 0.07 0.05 0.04 0.04 0.02 0.01 0.00 0.00 0.00 0.00 0.00 0.00 0.00 0.00 0.00 0.00 0.00 0.00 0.00 0.00 0.00 0.00 0.00 0.00 0.00 0.00 0.00 0.00 0.00 0.00 0.00 0.00 0.00 0.00 0.00
0.00 0.00 0.00 0.00 0.01 0.02 0.01 0.02 0.01 0.01 0.02 0.02 0.02 0.02 0.02 0.01 0.02 0.02 0.02 0.04 0.05 0.02 0.02 0.01 0.00 0.00 0.00 0.00 0.00 0.00 0.00 0.00 0.00 0.00 0.00 0.00 0.00 0.00 0.00 0.00 0.00 0.00 0.00 0.00 0.00 0.00 0.00 0.00 0.00 0.00 0.00 0.00 0.00 0.00

GFSWCAN_prec_precacc12_087.txt.gz
Total_Precipitation_Accumulation
0.05 0.05 0.06 0.06 0.06 0.06 0.07 0.07 0.07 0.06 0.07 0.07 0.08 0.07 0.06 0.11 0.25 0.51 0.68 0.47 0.44 0.53 0.09 0.01 0.10 0.03 0.02 0.02 0.02 0.00 0.04 0.04 0.10 0.07 0.04 0.04 0.02 0.01 0.01 0.04 0.11 0.29 0.23 0.08 0.06 0.07 0.03 0.00 0.01 0.00 0.01 0.00 0.00 0.00
0.03 0.05 0.06 0.07 0.08 0.10 0.11 0.11 0.11 0.11 0.09 0.09 0.11 0.15 0.10 0.12 0.17 0.46 0.50 0.25 0.28 0.53 0.30 0.08 0.04 0.03 0.01 0.00 0.02 0.01 0.01 0.00 0.05 0.06 0.04 0.03 0.02 0.02 0.00 0.00 0.00 0.02 0.06 0.07 0.03 0.00 0.00 0.01 0.01 0.00 0.00 0.00 0.00 0.00
0.06 0.08 0.09 0.07 0.06 0.07 0.08 0.09 0.09 0.11 0.14 0.14 0.13 0.17 0.22 0.20 0.21 0.44 0.37 0.14 0.29 0.84 0.54 0.18 0.04 0.01 0.06 0.01 0.06 0.11 0.02 0.00 0.01 0.03 0.09 0.08 0.04 0.01 0.02 0.01 0.00 0.00 0.00 0.00 0.02 0.00 0.01 0.03 0.04 0.01 0.00 0.00 0.00 0.00
0.10 0.08 0.05 0.04 0.23 0.33 0.28 0.25 0.14 0.10 0.08 0.13 0.17 0.17 0.24 0.36 0.36 0.50 0.37 0.22 0.33 0.84 0.49 0.12 0.01 0.01 0.03 0.06 0.03 0.09 0.04 0.09 0.13 0.11 0.26 0.22 0.07 0.02 0.00 0.00 0.00 0.00 0.01 0.01 0.00 0.00 0.00 0.00 0.00 0.01 0.00 0.00 0.00 0.00
0.08 0.03 0.03 0.10 0.34 0.10 0.04 0.09 0.15 0.11 0.14 0.12 0.16 0.16 0.31 0.55 0.56 0.58 0.39 0.24 0.15 0.22 0.18 0.03 0.01 0.02 0.02 0.05 0.07 0.07 0.09 0.16 0.32 0.18 0.17 0.11 0.07 0.08 0.05 0.02 0.00 0.00 0.00 0.00 0.00 0.00 0.00 0.00 0.00 0.00 0.00 0.00 0.00 0.00
0.03 0.05 0.03 0.11 0.17 0.10 0.04 0.06 0.14 0.14 0.15 0.19 0.19 0.22 0.50 0.70 0.75 1.01 1.33 0.62 0.11 0.11 0.30 0.15 0.02 0.03 0.05 0.02 0.07 0.06 0.07 0.15 0.27 0.37 0.15 0.09 0.05 0.17 0.12 0.01 0.00 0.00 0.00 0.00 0.00 0.00 0.00 0.00 0.00 0.00 0.01 0.01 0.00 0.00
0.06 0.02 0.02 0.08 0.09 0.08 0.08 0.09 0.25 0.27 0.23 0.21 0.26 0.42 0.56 0.68 0.82 0.80 0.68 0.55 0.23 0.20 0.46 0.31 0.08 0.09 0.12 0.07 0.03 0.07 0.06 0.14 0.22 0.42 0.30 0.08 0.04 0.14 0.10 0.03 0.00 0.00 0.00 0.00 0.00 0.01 0.00 0.00 0.01 0.01 0.01 0.02 0.02 0.02
0.11 0.04 0.03 0.05 0.06 0.07 0.09 0.11 0.21 0.32 0.28 0.33 0.47 0.59 0.65 0.74 0.58 0.18 0.05 0.01 0.06 0.33 0.48 0.49 0.22 0.13 0.22 0.14 0.05 0.03 0.08 0.18 0.17 0.26 0.24 0.20 0.07 0.09 0.03 0.00 0.00 0.00 0.00 0.00 0.00 0.01 0.02 0.03 0.02 0.02 0.01 0.02 0.02 0.01
0.19 0.15 0.12 0.09 0.08 0.09 0.10 0.12 0.17 0.24 0.34 0.54 0.77 0.88 0.97 0.69 0.48 0.22 0.09 0.12 0.12 0.35 0.29 0.21 0.20 0.15 0.38 0.18 0.08 0.07 0.08 0.16 0.11 0.12 0.12 0.24 0.28 0.15 0.01 0.00 0.00 0.00 0.00 0.00 0.00 0.01 0.01 0.03 0.04 0.03 0.02 0.02 0.01 0.01
0.19 0.17 0.16 0.16 0.15 0.13 0.12 0.14 0.18 0.28 0.41 0.45 0.50 0.72 1.17 0.54 0.14 0.14 0.30 0.38 0.31 0.25 0.18 0.05 0.06 0.09 0.33 0.31 0.20 0.13 0.11 0.11 0.10 0.05 0.12 0.16 0.16 0.11 0.09 0.14 0.02 0.00 0.00 0.00 0.00 0.00 0.00 0.00 0.00 0.00 0.00 0.00 0.00 0.00
0.14 0.21 0.27 0.29 0.28 0.26 0.23 0.21 0.18 0.14 0.12 0.15 0.26 0.62 0.64 0.21 0.13 0.26 0.38 0.31 0.20 0.12 0.13 0.04 0.01 0.03 0.12 0.20 0.28 0.16 0.14 0.09 0.05 0.05 0.09 0.14 0.04 0.12 0.19 0.17 0.08 0.01 0.00 0.00 0.00 0.00 0.00 0.00 0.00 0.00 0.00 0.00 0.00 0.00
0.10 0.14 0.18 0.25 0.32 0.34 0.30 0.22 0.14 0.09 0.06 0.02 0.11 0.24 0.18 0.20 0.14 0.13 0.12 0.15 0.02 0.02 0.01 0.02 0.01 0.01 0.06 0.06 0.20 0.23 0.17 0.28 0.07 0.12 0.07 0.06 0.08 0.01 0.02 0.04 0.08 0.10 0.06 0.04 0.02 0.01 0.00 0.00 0.00 0.00 0.00 0.00 0.01 0.01
0.04 0.05 0.07 0.08 0.08 0.07 0.07 0.05 0.01 0.01 0.02 0.01 0.00 0.03 0.11 0.10 0.02 0.03 0.02 0.01 0.01 0.03 0.03 0.03 0.03 0.06 0.12 0.09 0.17 0.36 0.23 0.16 0.20 0.18 0.04 0.01 0.03 0.05 0.01 0.00 0.01 0.06 0.12 0.04 0.02 0.01 0.01 0.01 0.01 0.01 0.03 0.04 0.05 0.09
0.01 0.01 0.01 0.03 0.03 0.02 0.00 0.00 0.01 0.00 0.03 0.01 0.00 0.00 0.02 0.03 0.08 0.09 0.05 0.02 0.02 0.01 0.02 0.01 0.07 0.24 0.27 0.25 0.29 0.25 0.28 0.16 0.28 0.14 0.03 0.03 0.02 0.03 0.04 0.05 0.01 0.01 0.11 0.36 0.19 0.03 0.04 0.05 0.04 0.09 0.13 0.16 0.16 0.23
0.00 0.00 0.00 0.00 0.00 0.00 0.00 0.00 0.00 0.01 0.00 0.00 0.01 0.03 0.07 0.12 0.12 0.09 0.05 0.02 0.04 0.02 0.03 0.14 0.27 0.42 0.60 0.50 0.36 0.22 0.39 0.46 0.23 0.13 0.07 0.09 0.07 0.06 0.05 0.06 0.08 0.10 0.11 0.20 0.39 0.39 0.24 0.21 0.16 0.20 0.22 0.20 0.15 0.16
0.00 0.00 0.00 0.00 0.00 0.00 0.00 0.01 0.03 0.02 0.00 0.00 0.03 0.05 0.06 0.06 0.06 0.05 0.04 0.04 0.05 0.04 0.12 0.37 0.64 0.62 0.59 0.51 0.47 0.31 0.26 0.15 0.13 0.11 0.14 0.13 0.15 0.17 0.16 0.14 0.16 0.18 0.22 0.28 0.32 0.27 0.26 0.22 0.17 0.22 0.25 0.23 0.23 0.16
0.00 0.00 0.00 0.00 0.00 0.00 0.00 0.01 0.00 0.00 0.00 0.01 0.03 0.04 0.05 0.09 0.10 0.09 0.08 0.06 0.06 0.10 0.24 0.38 0.49 0.58 0.45 0.27 0.24 0.18 0.16 0.15 0.16 0.19 0.21 0.20 0.20 0.24 0.24 0.23 0.23 0.22 0.24 0.23 0.25 0.22 0.24 0.24 0.17 0.12 0.17 0.19 0.12 0.09
0.01 0.00 0.00 0.00 0.00 0.00 0.00 0.00 0.00 0.00 0.01 0.03 0.04 0.07 0.07 0.09 0.10 0.09 0.10 0.11 0.10 0.11 0.14 0.19 0.25 0.30 0.35 0.26 0.25 0.26 0.25 0.27 0.27 0.27 0.30 0.31 0.28 0.30 0.25 0.25 0.28 0.23 0.22 0.23 0.19 0.18 0.15 0.11 0.08 0.09 0.08 0.07 0.05 0.03
0.01 0.00 0.00 0.00 0.00 0.00 0.00 0.00 0.00 0.00 0.02 0.03 0.06 0.10 0.10 0.09 0.09 0.10 0.11 0.13 0.19 0.27 0.24 0.25 0.30 0.35 0.35 0.39 0.31 0.31 0.30 0.26 0.31 0.36 0.37 0.37 0.33 0.30 0.31 0.26 0.25 0.23 0.20 0.18 0.12 0.12 0.13 0.10 0.07 0.06 0.04 0.02 0.02 0.01
0.01 0.01 0.01 0.00 0.00 0.00 0.00 0.01 0.01 0.02 0.04 0.03 0.07 0.09 0.08 0.11 0.06 0.04 0.04 0.05 0.08 0.14 0.21 0.22 0.37 0.50 0.48 0.46 0.28 0.26 0.32 0.34 0.24 0.27 0.38 0.41 0.38 0.31 0.33 0.25 0.24 0.18 0.14 0.12 0.10 0.07 0.05 0.04 0.03 0.01 0.00 0.00 0.01 0.02
0.08 0.07 0.05 0.03 0.02 0.02 0.04 0.06 0.06 0.06 0.07 0.07 0.12 0.09 0.10 0.05 0.02 0.02 0.03 0.02 0.07 0.18 0.26 0.35 0.36 0.56 0.55 0.43 0.31 0.23 0.28 0.22 0.31 0.24 0.24 0.33 0.38 0.24 0.26 0.22 0.15 0.12 0.09 0.08 0.06 0.06 0.02 0.02 0.02 0.01 0.00 0.01 0.01 0.01
0.09 0.07 0.05 0.02 0.02 0.02 0.08 0.10 0.07 0.08 0.08 0.12 0.14 0.10 0.11 0.10 0.07 0.06 0.03 0.05 0.21 0.32 0.37 0.34 0.30 0.33 0.28 0.35 0.34 0.27 0.23 0.19 0.23 0.25 0.25 0.17 0.20 0.19 0.18 0.18 0.11 0.09 0.07 0.05 0.02 0.01 0.01 0.00 0.00 0.00 0.00 0.00 0.00 0.00
0.01 0.01 0.01 0.01 0.01 0.04 0.14 0.17 0.13 0.16 0.16 0.16 0.10 0.09 0.10 0.10 0.09 0.04 0.06 0.14 0.23 0.33 0.30 0.26 0.27 0.26 0.23 0.29 0.19 0.24 0.24 0.15 0.18 0.19 0.18 0.17 0.16 0.14 0.09 0.10 0.07 0.03 0.02 0.01 0.00 0.00 0.00 0.00 0.00 0.00 0.00 0.00 0.00 0.00
0.00 0.00 0.00 0.00 0.00 0.04 0.04 0.04 0.07 0.07 0.06 0.07 0.06 0.09 0.11 0.10 0.05 0.03 0.08 0.14 0.22 0.18 0.18 0.20 0.17 0.18 0.15 0.13 0.16 0.19 0.27 0.18 0.13 0.16 0.16 0.08 0.06 0.07 0.04 0.02 0.01 0.00 0.00 0.00 0.00 0.00 0.00 0.00 0.00 0.00 0.00 0.00 0.00 0.00
0.00 0.00 0.00 0.00 0.00 0.00 0.00 0.00 0.01 0.01 0.01 0.01 0.01 0.04 0.07 0.03 0.02 0.04 0.08 0.13 0.11 0.14 0.15 0.15 0.13 0.13 0.13 0.16 0.17 0.18 0.22 0.19 0.11 0.07 0.13 0.08 0.03 0.01 0.00 0.00 0.00 0.00 0.00 0.00 0.00 0.00 0.00 0.00 0.00 0.00 0.00 0.00 0.00 0.00
0.01 0.01 0.00 0.01 0.01 0.01 0.01 0.01 0.01 0.01 0.01 0.01 0.02 0.03 0.01 0.00 0.00 0.03 0.05 0.08 0.06 0.09 0.13 0.12 0.12 0.10 0.13 0.15 0.15 0.15 0.18 0.16 0.09 0.07 0.08 0.03 0.01 0.00 0.00 0.00 0.00 0.01 0.00 0.00 0.00 0.00 0.00 0.00 0.00 0.00 0.00 0.00 0.00 0.00
0.01 0.01 0.00 0.00 0.01 0.02 0.01 0.01 0.01 0.00 0.01 0.01 0.02 0.01 0.00 0.00 0.02 0.05 0.05 0.04 0.05 0.08 0.09 0.09 0.08 0.10 0.12 0.15 0.15 0.13 0.10 0.08 0.06 0.04 0.02 0.00 0.00 0.00 0.00 0.00 0.01 0.01 0.00 0.00 0.00 0.00 0.00 0.00 0.00 0.00 0.00 0.00 0.00 0.00
0.00 0.00 0.01 0.01 0.00 0.00 0.00 0.01 0.00 0.01 0.01 0.01 0.02 0.00 0.01 0.02 0.04 0.05 0.05 0.06 0.05 0.06 0.07 0.09 0.09 0.10 0.09 0.08 0.06 0.05 0.04 0.03 0.01 0.00 0.00 0.00 0.00 0.00 0.00 0.00 0.00 0.00 0.00 0.00 0.00 0.00 0.00 0.00 0.00 0.00 0.00 0.00 0.00 0.00
0.01 0.00 0.00 0.00 0.00 0.00 0.01 0.01 0.02 0.02 0.02 0.02 0.02 0.02 0.02 0.08 0.12 0.07 0.09 0.08 0.07 0.06 0.07 0.08 0.11 0.08 0.07 0.07 0.06 0.05 0.03 0.01 0.00 0.00 0.00 0.00 0.00 0.01 0.00 0.00 0.00 0.00 0.00 0.00 0.00 0.00 0.00 0.00 0.00 0.00 0.00 0.00 0.00 0.00
0.01 0.00 0.00 0.00 0.01 0.01 0.03 0.02 0.03 0.02 0.00 0.00 0.01 0.01 0.03 0.07 0.13 0.09 0.07 0.07 0.07 0.09 0.11 0.10 0.10 0.05 0.04 0.04 0.04 0.02 0.00 0.00 0.00 0.00 0.00 0.00 0.01 0.01 0.00 0.00 0.00 0.00 0.00 0.00 0.00 0.00 0.00 0.00 0.00 0.00 0.00 0.00 0.00 0.00
0.00 0.00 0.00 0.00 0.02 0.03 0.01 0.01 0.01 0.01 0.01 0.01 0.00 0.00 0.02 0.05 0.05 0.05 0.08 0.10 0.07 0.07 0.07 0.08 0.07 0.07 0.04 0.02 0.01 0.00 0.00 0.00 0.00 0.00 0.00 0.00 0.00 0.00 0.00 0.00 0.00 0.00 0.00 0.00 0.00 0.00 0.00 0.00 0.00 0.00 0.00 0.00 0.00 0.00
0.00 0.00 0.00 0.00 0.01 0.01 0.04 0.06 0.02 0.02 0.02 0.01 0.02 0.02 0.02 0.01 0.02 0.02 0.03 0.07 0.05 0.05 0.06 0.05 0.04 0.02 0.01 0.00 0.00 0.00 0.00 0.00 0.00 0.00 0.00 0.00 0.00 0.00 0.00 0.00 0.00 0.00 0.00 0.00 0.00 0.00 0.00 0.00 0.00 0.00 0.00 0.00 0.00 0.00
0.00 0.00 0.00 0.00 0.01 0.02 0.01 0.04 0.01 0.01 0.02 0.01 0.02 0.02 0.02 0.01 0.02 0.02 0.03 0.05 0.05 0.03 0.03 0.02 0.01 0.00 0.00 0.00 0.00 0.00 0.00 0.00 0.00 0.00 0.00 0.00 0.00 0.00 0.00 0.00 0.00 0.00 0.00 0.00 0.00 0.00 0.00 0.00 0.00 0.00 0.00 0.00 0.00 0.00

GFSWCAN_prec_precacc12_093.txt.gz
Total_Precipitation_Accumulation
0.12 0.12 0.11 0.11 0.11 0.10 0.10 0.10 0.11 0.12 0.11 0.11 0.10 0.11 0.13 0.17 0.23 0.49 0.76 0.49 0.48 0.69 0.19 0.00 0.00 0.00 0.00 0.00 0.02 0.01 0.08 0.04 0.06 0.12 0.05 0.01 0.01 0.00 0.01 0.04 0.10 0.28 0.43 0.33 0.24 0.21 0.05 0.01 0.05 0.11 0.15 0.07 0.02 0.01
0.08 0.07 0.06 0.05 0.05 0.06 0.06 0.08 0.10 0.10 0.09 0.10 0.11 0.12 0.12 0.15 0.20 0.43 0.66 0.42 0.36 0.72 0.44 0.03 0.00 0.00 0.00 0.00 0.00 0.01 0.03 0.00 0.03 0.02 0.01 0.01 0.01 0.01 0.01 0.00 0.00 0.02 0.05 0.10 0.23 0.16 0.04 0.01 0.01 0.02 0.02 0.04 0.03 0.02
0.03 0.03 0.04 0.06 0.06 0.06 0.07 0.07 0.09 0.12 0.13 0.12 0.09 0.10 0.15 0.17 0.18 0.31 0.55 0.30 0.42 0.86 0.61 0.19 0.02 0.00 0.00 0.00 0.01 0.02 0.00 0.00 0.02 0.03 0.12 0.11 0.04 0.01 0.01 0.01 0.00 0.00 0.00 0.01 0.01 0.00 0.01 0.00 0.00 0.00 0.00 0.00 0.01 0.01
0.06 0.08 0.08 0.08 0.08 0.08 0.09 0.10 0.11 0.11 0.10 0.13 0.15 0.13 0.15 0.22 0.21 0.28 0.47 0.45 0.25 0.49 0.42 0.15 0.01 0.00 0.00 0.01 0.01 0.04 0.02 0.08 0.07 0.12 0.17 0.17 0.10 0.06 0.01 0.00 0.00 0.01 0.04 0.03 0.00 0.00 0.00 0.00 0.00 0.00 0.00 0.00 0.00 0.01
0.16 0.12 0.11 0.10 0.09 0.10 0.10 0.10 0.10 0.13 0.17 0.15 0.16 0.18 0.22 0.26 0.28 0.35 0.46 0.39 0.16 0.14 0.21 0.05 0.00 0.01 0.00 0.04 0.06 0.04 0.08 0.14 0.11 0.12 0.18 0.15 0.08 0.08 0.05 0.02 0.00 0.00 0.00 0.01 0.00 0.00 0.00 0.00 0.00 0.00 0.00 0.00 0.00 0.00
0.08 0.10 0.06 0.06 0.06 0.04 0.03 0.05 0.13 0.13 0.14 0.16 0.20 0.18 0.25 0.37 0.47 1.06 1.38 0.66 0.11 0.08 0.38 0.15 0.01 0.02 0.04 0.02 0.07 0.05 0.06 0.13 0.16 0.19 0.11 0.05 0.05 0.16 0.11 0.01 0.00 0.00 0.00 0.00 0.00 0.00 0.00 0.00 0.00 0.00 0.00 0.01 0.00 0.00
0.08 0.04 0.05 0.06 0.02 0.02 0.03 0.05 0.20 0.23 0.13 0.14 0.20 0.24 0.31 0.62 1.05 1.01 0.46 0.21 0.08 0.19 0.55 0.34 0.07 0.05 0.12 0.10 0.05 0.07 0.06 0.13 0.19 0.37 0.25 0.06 0.03 0.12 0.08 0.03 0.00 0.01 0.00 0.00 0.00 0.01 0.00 0.00 0.01 0.02 0.01 0.02 0.03 0.03
0.10 0.03 0.01 0.01 0.01 0.02 0.03 0.04 0.15 0.27 0.15 0.17 0.26 0.38 0.50 0.96 0.78 0.18 0.07 0.01 0.04 0.40 0.56 0.50 0.25 0.14 0.19 0.15 0.11 0.07 0.08 0.15 0.22 0.24 0.17 0.08 0.02 0.01 0.02 0.00 0.00 0.00 0.00 0.00 0.00 0.01 0.02 0.03 0.02 0.03 0.02 0.02 0.03 0.03
0.10 0.07 0.05 0.04 0.03 0.04 0.05 0.09 0.16 0.29 0.30 0.40 0.55 1.04 1.68 1.41 0.87 0.28 0.08 0.10 0.11 0.34 0.32 0.23 0.39 0.28 0.26 0.16 0.14 0.15 0.09 0.20 0.20 0.16 0.12 0.07 0.09 0.10 0.01 0.00 0.00 0.00 0.00 0.00 0.00 0.01 0.01 0.03 0.04 0.04 0.02 0.02 0.02 0.03
0.08 0.08 0.10 0.11 0.12 0.13 0.16 0.23 0.38 0.53 0.66 0.81 1.28 1.62 1.74 0.74 0.19 0.25 0.54 0.61 0.45 0.28 0.15 0.04 0.13 0.22 0.23 0.15 0.18 0.48 0.16 0.12 0.13 0.06 0.04 0.05 0.04 0.10 0.06 0.09 0.02 0.00 0.00 0.00 0.00 0.00 0.00 0.00 0.00 0.00 0.01 0.01 0.01 0.01
0.05 0.10 0.15 0.13 0.12 0.16 0.24 0.33 0.45 0.46 0.40 0.52 0.65 0.83 0.78 0.25 0.16 0.33 0.56 0.38 0.23 0.13 0.12 0.05 0.06 0.09 0.07 0.12 0.18 0.23 0.40 0.11 0.03 0.02 0.01 0.02 0.01 0.03 0.09 0.11 0.06 0.01 0.00 0.00 0.00 0.00 0.00 0.00 0.00 0.00 0.00 0.00 0.00 0.00
0.13 0.13 0.12 0.11 0.11 0.10 0.12 0.12 0.13 0.11 0.12 0.10 0.23 0.29 0.26 0.26 0.18 0.23 0.11 0.16 0.05 0.00 0.01 0.07 0.05 0.10 0.12 0.15 0.29 0.19 0.18 0.27 0.03 0.03 0.02 0.01 0.01 0.01 0.02 0.04 0.08 0.10 0.06 0.03 0.02 0.01 0.00 0.00 0.00 0.00 0.00 0.00 0.00 0.00
0.14 0.14 0.15 0.13 0.09 0.07 0.06 0.06 0.02 0.01 0.00 0.00 0.00 0.05 0.14 0.16 0.09 0.10 0.02 0.03 0.01 0.00 0.00 0.01 0.04 0.10 0.15 0.10 0.26 0.16 0.09 0.11 0.07 0.11 0.03 0.00 0.02 0.04 0.01 0.00 0.01 0.06 0.12 0.04 0.02 0.01 0.01 0.01 0.01 0.01 0.01 0.01 0.01 0.01
0.06 0.04 0.02 0.03 0.03 0.02 0.01 0.02 0.01 0.01 0.00 0.00 0.01 0.04 0.05 0.03 0.06 0.06 0.03 0.02 0.03 0.02 0.00 0.00 0.01 0.08 0.12 0.07 0.05 0.05 0.10 0.06 0.05 0.04 0.01 0.01 0.02 0.03 0.05 0.05 0.02 0.01 0.12 0.37 0.19 0.03 0.04 0.05 0.04 0.05 0.07 0.05 0.03 0.09
0.01 0.01 0.01 0.01 0.01 0.01 0.00 0.00 0.00 0.00 0.00 0.00 0.00 0.02 0.06 0.12 0.12 0.12 0.07 0.04 0.07 0.04 0.00 0.01 0.02 0.04 0.11 0.13 0.08 0.06 0.14 0.27 0.07 0.02 0.02 0.03 0.04 0.04 0.04 0.07 0.09 0.09 0.11 0.22 0.41 0.42 0.24 0.18 0.20 0.19 0.17 0.19 0.18 0.24
0.00 0.01 0.02 0.00 0.00 0.00 0.00 0.00 0.00 0.00 0.00 0.00 0.03 0.05 0.06 0.08 0.06 0.06 0.07 0.07 0.09 0.08 0.07 0.15 0.20 0.18 0.20 0.17 0.25 0.15 0.08 0.05 0.05 0.03 0.06 0.06 0.07 0.09 0.12 0.13 0.17 0.19 0.22 0.27 0.36 0.45 0.49 0.40 0.34 0.42 0.50 0.43 0.39 0.30
0.00 0.00 0.00 0.00 0.00 0.00 0.00 0.00 0.00 0.00 0.00 0.00 0.02 0.04 0.04 0.03 0.05 0.06 0.08 0.07 0.10 0.14 0.20 0.23 0.22 0.21 0.22 0.11 0.08 0.06 0.05 0.03 0.04 0.05 0.08 0.09 0.10 0.15 0.18 0.20 0.26 0.23 0.21 0.29 0.39 0.33 0.38 0.46 0.43 0.28 0.31 0.38 0.31 0.25
0.00 0.00 0.00 0.00 0.00 0.00 0.00 0.00 0.00 0.00 0.01 0.03 0.04 0.05 0.02 0.04 0.05 0.05 0.08 0.10 0.12 0.11 0.11 0.15 0.14 0.15 0.17 0.12 0.11 0.13 0.13 0.14 0.14 0.12 0.15 0.18 0.19 0.25 0.26 0.26 0.31 0.30 0.28 0.36 0.41 0.35 0.32 0.30 0.27 0.26 0.18 0.17 0.12 0.11
0.00 0.00 0.00 0.00 0.00 0.00 0.00 0.00 0.00 0.00 0.02 0.02 0.04 0.03 0.02 0.04 0.07 0.09 0.09 0.10 0.16 0.18 0.17 0.21 0.19 0.18 0.21 0.24 0.21 0.20 0.18 0.14 0.19 0.24 0.27 0.29 0.29 0.32 0.34 0.33 0.34 0.36 0.34 0.35 0.32 0.29 0.29 0.23 0.18 0.14 0.11 0.07 0.04 0.04
0.00 0.00 0.00 0.00 0.00 0.00 0.00 0.00 0.00 0.00 0.01 0.01 0.02 0.05 0.06 0.10 0.07 0.05 0.05 0.07 0.09 0.12 0.19 0.23 0.32 0.31 0.34 0.32 0.23 0.21 0.22 0.20 0.14 0.21 0.36 0.38 0.38 0.37 0.41 0.35 0.36 0.32 0.27 0.27 0.24 0.19 0.14 0.13 0.12 0.08 0.05 0.03 0.01 0.01
0.00 0.00 0.00 0.00 0.00 0.00 0.00 0.01 0.01 0.01 0.02 0.03 0.08 0.06 0.06 0.02 0.02 0.03 0.06 0.03 0.08 0.23 0.32 0.37 0.33 0.43 0.46 0.37 0.25 0.18 0.23 0.17 0.23 0.21 0.28 0.34 0.40 0.30 0.34 0.31 0.25 0.23 0.18 0.17 0.14 0.17 0.10 0.06 0.06 0.03 0.01 0.01 0.00 0.00
0.02 0.01 0.00 0.00 0.00 0.00 0.02 0.02 0.01 0.02 0.01 0.04 0.07 0.03 0.03 0.03 0.03 0.05 0.03 0.08 0.26 0.35 0.38 0.33 0.27 0.30 0.25 0.30 0.29 0.24 0.23 0.19 0.22 0.24 0.27 0.21 0.25 0.26 0.28 0.31 0.22 0.21 0.17 0.16 0.09 0.07 0.05 0.02 0.01 0.00 0.00 0.00 0.00 0.00
0.00 0.01 0.01 0.00 0.00 0.02 0.13 0.16 0.06 0.10 0.09 0.10 0.05 0.02 0.02 0.02 0.02 0.01 0.07 0.16 0.23 0.30 0.30 0.24 0.23 0.22 0.19 0.25 0.18 0.21 0.26 0.18 0.19 0.22 0.24 0.24 0.25 0.26 0.20 0.24 0.22 0.13 0.09 0.09 0.03 0.01 0.01 0.00 0.00 0.00 0.00 0.00 0.00 0.00
0.00 0.00 0.00 0.00 0.00 0.05 0.04 0.05 0.07 0.07 0.06 0.07 0.05 0.07 0.09 0.06 0.02 0.01 0.05 0.10 0.18 0.16 0.13 0.15 0.16 0.15 0.13 0.12 0.15 0.16 0.23 0.23 0.16 0.17 0.23 0.17 0.14 0.20 0.16 0.13 0.11 0.08 0.03 0.01 0.00 0.00 0.00 0.00 0.00 0.00 0.00 0.00 0.00 0.00
0.00 0.00 0.00 0.00 0.00 0.00 0.00 0.00 0.01 0.00 0.01 0.01 0.02 0.06 0.08 0.03 0.02 0.04 0.06 0.09 0.09 0.11 0.14 0.14 0.12 0.12 0.12 0.14 0.15 0.16 0.17 0.18 0.15 0.10 0.21 0.20 0.13 0.09 0.07 0.04 0.01 0.00 0.00 0.00 0.00 0.00 0.00 0.00 0.00 0.00 0.00 0.00 0.00 0.00
0.00 0.00 0.00 0.00 0.00 0.00 0.00 0.00 0.00 0.00 0.00 0.00 0.01 0.02 0.00 0.00 0.00 0.02 0.04 0.06 0.06 0.08 0.10 0.11 0.12 0.11 0.12 0.14 0.14 0.14 0.16 0.18 0.15 0.10 0.14 0.11 0.07 0.04 0.01 0.00 0.00 0.00 0.00 0.00 0.00 0.00 0.00 0.00 0.00 0.00 0.00 0.00 0.00 0.00
0.00 0.00 0.00 0.00 0.01 0.01 0.00 0.00 0.00 0.00 0.00 0.01 0.01 0.00 0.00 0.00 0.01 0.03 0.03 0.03 0.04 0.06 0.07 0.07 0.07 0.08 0.11 0.14 0.15 0.16 0.16 0.14 0.12 0.08 0.04 0.00 0.00 0.00 0.00 0.00 0.00 0.01 0.00 0.00 0.00 0.00 0.00 0.00 0.00 0.00 0.00 0.00 0.00 0.00
0.00 0.00 0.00 0.00 0.00 0.00 0.00 0.00 0.00 0.01 0.01 0.01 0.00 0.00 0.01 0.01 0.03 0.04 0.04 0.05 0.05 0.05 0.06 0.07 0.07 0.07 0.08 0.10 0.11 0.11 0.12 0.11 0.08 0.02 0.00 0.00 0.00 0.00 0.00 0.00 0.00 0.00 0.00 0.00 0.00 0.00 0.00 0.00 0.00 0.00 0.00 0.00 0.00 0.00
0.00 0.00 0.00 0.00 0.00 0.00 0.01 0.01 0.01 0.02 0.02 0.01 0.00 0.01 0.02 0.05 0.08 0.06 0.07 0.06 0.05 0.03 0.04 0.05 0.08 0.08 0.08 0.08 0.08 0.07 0.04 0.02 0.01 0.00 0.00 0.00 0.00 0.00 0.00 0.00 0.00 0.00 0.00 0.00 0.00 0.00 0.00 0.00 0.00 0.00 0.00 0.00 0.00 0.00
0.00 0.00 0.00 0.00 0.00 0.01 0.02 0.01 0.01 0.01 0.00 0.00 0.01 0.01 0.02 0.08 0.12 0.08 0.05 0.05 0.04 0.05 0.06 0.06 0.07 0.06 0.07 0.06 0.07 0.04 0.01 0.00 0.00 0.00 0.00 0.00 0.00 0.00 0.00 0.00 0.00 0.00 0.00 0.00 0.00 0.00 0.00 0.00 0.00 0.00 0.00 0.00 0.00 0.00
0.00 0.00 0.00 0.00 0.01 0.01 0.00 0.00 0.00 0.00 0.00 0.00 0.00 0.00 0.02 0.05 0.04 0.03 0.04 0.06 0.04 0.04 0.04 0.05 0.05 0.06 0.04 0.02 0.01 0.00 0.00 0.00 0.00 0.00 0.00 0.00 0.00 0.00 0.00 0.00 0.00 0.00 0.00 0.00 0.00 0.00 0.00 0.00 0.00 0.00 0.00 0.00 0.00 0.00
0.00 0.00 0.00 0.00 0.01 0.01 0.02 0.01 0.00 0.00 0.00 0.00 0.00 0.01 0.01 0.00 0.01 0.01 0.04 0.04 0.02 0.03 0.04 0.03 0.03 0.03 0.01 0.00 0.00 0.00 0.00 0.00 0.00 0.00 0.00 0.00 0.00 0.00 0.00 0.00 0.00 0.00 0.00 0.00 0.00 0.00 0.00 0.00 0.00 0.00 0.00 0.00 0.00 0.00
0.00 0.00 0.00 0.00 0.00 0.01 0.01 0.03 0.01 0.01 0.01 0.01 0.01 0.01 0.01 0.00 0.01 0.02 0.03 0.03 0.02 0.02 0.01 0.02 0.01 0.00 0.00 0.00 0.00 0.00 0.00 0.00 0.00 0.00 0.00 0.00 0.00 0.00 0.00 0.00 0.00 0.00 0.00 0.00 0.00 0.00 0.00 0.00 0.00 0.00 0.00 0.00 0.00 0.00